<?xml version="1.0" encoding="UTF-8" standalone="no" ?>
<gpx xmlns="http://www.topografix.com/GPX/1/1" xmlns:xsi="http://www.w3.org/2001/XMLSchema-instance" xsi:schemaLocation="http://www.topografix.com/GPX/1/1 http://www.topografix.com/GPX/1/1/gpx.xsd" version="1.1" creator="VisuGPX - https://www.visugpx.com">
  <metadata>
    <name>VTT afterwork_descente depuis col du Granier</name>
  </metadata>
  <trk>
    <name><![CDATA[VTT afterwork_descente depuis col du Granier_1]]></name>
    <extensions>
      <line xmlns="http://www.topografix.com/GPX/gpx_style/0/2">
        <color>0000FF</color>
        <width>4</width>
      </line>
    </extensions>
    <trkseg>
      <trkpt lat="45.48037" lon="5.91516">
        <ele>1132</ele>
        <time>2022-08-10T16:59:57.975Z</time>
      </trkpt>
      <trkpt lat="45.48037" lon="5.91516">
        <ele>1132</ele>
        <time>2022-08-10T17:00:04.977Z</time>
      </trkpt>
      <trkpt lat="45.48038" lon="5.91516">
        <ele>1132</ele>
        <time>2022-08-10T17:00:06.977Z</time>
      </trkpt>
      <trkpt lat="45.48038" lon="5.91516">
        <ele>1132</ele>
        <time>2022-08-10T17:00:13.976Z</time>
      </trkpt>
      <trkpt lat="45.48039" lon="5.91515">
        <ele>1132</ele>
        <time>2022-08-10T17:00:17.977Z</time>
      </trkpt>
      <trkpt lat="45.48041" lon="5.91515">
        <ele>1132</ele>
        <time>2022-08-10T17:00:18.976Z</time>
      </trkpt>
      <trkpt lat="45.48044" lon="5.91516">
        <ele>1132</ele>
        <time>2022-08-10T17:00:19.976Z</time>
      </trkpt>
      <trkpt lat="45.48047" lon="5.91518">
        <ele>1132</ele>
        <time>2022-08-10T17:00:20.976Z</time>
      </trkpt>
      <trkpt lat="45.48049" lon="5.9152">
        <ele>1132</ele>
        <time>2022-08-10T17:00:21.977Z</time>
      </trkpt>
      <trkpt lat="45.48052" lon="5.91522">
        <ele>1132</ele>
        <time>2022-08-10T17:00:22.977Z</time>
      </trkpt>
      <trkpt lat="45.48057" lon="5.91524">
        <ele>1132</ele>
        <time>2022-08-10T17:00:23.976Z</time>
      </trkpt>
      <trkpt lat="45.48062" lon="5.91526">
        <ele>1132</ele>
        <time>2022-08-10T17:00:24.977Z</time>
      </trkpt>
      <trkpt lat="45.48067" lon="5.91527">
        <ele>1132</ele>
        <time>2022-08-10T17:00:25.976Z</time>
      </trkpt>
      <trkpt lat="45.48073" lon="5.91528">
        <ele>1132</ele>
        <time>2022-08-10T17:00:26.976Z</time>
      </trkpt>
      <trkpt lat="45.48079" lon="5.91529">
        <ele>1132</ele>
        <time>2022-08-10T17:00:27.977Z</time>
      </trkpt>
      <trkpt lat="45.48085" lon="5.9153">
        <ele>1132</ele>
        <time>2022-08-10T17:00:28.977Z</time>
      </trkpt>
      <trkpt lat="45.48091" lon="5.91531">
        <ele>1131</ele>
        <time>2022-08-10T17:00:29.976Z</time>
      </trkpt>
      <trkpt lat="45.48097" lon="5.91532">
        <ele>1131</ele>
        <time>2022-08-10T17:00:30.977Z</time>
      </trkpt>
      <trkpt lat="45.48104" lon="5.91532">
        <ele>1130</ele>
        <time>2022-08-10T17:00:31.977Z</time>
      </trkpt>
      <trkpt lat="45.48111" lon="5.91531">
        <ele>1130</ele>
        <time>2022-08-10T17:00:32.977Z</time>
      </trkpt>
      <trkpt lat="45.48118" lon="5.91531">
        <ele>1130</ele>
        <time>2022-08-10T17:00:33.977Z</time>
      </trkpt>
      <trkpt lat="45.48125" lon="5.9153">
        <ele>1130</ele>
        <time>2022-08-10T17:00:34.976Z</time>
      </trkpt>
      <trkpt lat="45.48133" lon="5.9153">
        <ele>1129</ele>
        <time>2022-08-10T17:00:35.976Z</time>
      </trkpt>
      <trkpt lat="45.48141" lon="5.9153">
        <ele>1129</ele>
        <time>2022-08-10T17:00:36.977Z</time>
      </trkpt>
      <trkpt lat="45.48149" lon="5.91532">
        <ele>1129</ele>
        <time>2022-08-10T17:00:37.976Z</time>
      </trkpt>
      <trkpt lat="45.48157" lon="5.91537">
        <ele>1129</ele>
        <time>2022-08-10T17:00:38.976Z</time>
      </trkpt>
      <trkpt lat="45.48164" lon="5.91544">
        <ele>1129</ele>
        <time>2022-08-10T17:00:39.977Z</time>
      </trkpt>
      <trkpt lat="45.48169" lon="5.91552">
        <ele>1128</ele>
        <time>2022-08-10T17:00:40.977Z</time>
      </trkpt>
      <trkpt lat="45.48173" lon="5.91563">
        <ele>1128</ele>
        <time>2022-08-10T17:00:41.977Z</time>
      </trkpt>
      <trkpt lat="45.48179" lon="5.91579">
        <ele>1128</ele>
        <time>2022-08-10T17:00:42.977Z</time>
      </trkpt>
      <trkpt lat="45.48184" lon="5.9159">
        <ele>1127</ele>
        <time>2022-08-10T17:00:43.977Z</time>
      </trkpt>
      <trkpt lat="45.48189" lon="5.916">
        <ele>1126</ele>
        <time>2022-08-10T17:00:44.976Z</time>
      </trkpt>
      <trkpt lat="45.48192" lon="5.91607">
        <ele>1125</ele>
        <time>2022-08-10T17:00:45.976Z</time>
      </trkpt>
      <trkpt lat="45.48197" lon="5.91615">
        <ele>1124</ele>
        <time>2022-08-10T17:00:46.976Z</time>
      </trkpt>
      <trkpt lat="45.48199" lon="5.91619">
        <ele>1123</ele>
        <time>2022-08-10T17:00:47.976Z</time>
      </trkpt>
      <trkpt lat="45.48201" lon="5.91622">
        <ele>1122</ele>
        <time>2022-08-10T17:00:48.977Z</time>
      </trkpt>
      <trkpt lat="45.48201" lon="5.91624">
        <ele>1121</ele>
        <time>2022-08-10T17:00:49.976Z</time>
      </trkpt>
      <trkpt lat="45.48202" lon="5.91624">
        <ele>1120</ele>
        <time>2022-08-10T17:00:50.977Z</time>
      </trkpt>
      <trkpt lat="45.48202" lon="5.91623">
        <ele>1120</ele>
        <time>2022-08-10T17:00:52.976Z</time>
      </trkpt>
      <trkpt lat="45.48204" lon="5.91624">
        <ele>1119</ele>
        <time>2022-08-10T17:00:53.976Z</time>
      </trkpt>
      <trkpt lat="45.48205" lon="5.91626">
        <ele>1120</ele>
        <time>2022-08-10T17:01:06.006Z</time>
      </trkpt>
      <trkpt lat="45.48205" lon="5.91628">
        <ele>1120</ele>
        <time>2022-08-10T17:01:07.006Z</time>
      </trkpt>
      <trkpt lat="45.48206" lon="5.9163">
        <ele>1120</ele>
        <time>2022-08-10T17:01:08.005Z</time>
      </trkpt>
      <trkpt lat="45.48207" lon="5.91632">
        <ele>1119</ele>
        <time>2022-08-10T17:01:09.006Z</time>
      </trkpt>
      <trkpt lat="45.48208" lon="5.91634">
        <ele>1119</ele>
        <time>2022-08-10T17:01:10.006Z</time>
      </trkpt>
      <trkpt lat="45.4821" lon="5.91635">
        <ele>1119</ele>
        <time>2022-08-10T17:01:11.006Z</time>
      </trkpt>
      <trkpt lat="45.48211" lon="5.91636">
        <ele>1119</ele>
        <time>2022-08-10T17:01:12.005Z</time>
      </trkpt>
      <trkpt lat="45.48212" lon="5.91635">
        <ele>1119</ele>
        <time>2022-08-10T17:01:13.006Z</time>
      </trkpt>
      <trkpt lat="45.48211" lon="5.91633">
        <ele>1119</ele>
        <time>2022-08-10T17:01:14.005Z</time>
      </trkpt>
      <trkpt lat="45.4821" lon="5.91631">
        <ele>1119</ele>
        <time>2022-08-10T17:01:15.006Z</time>
      </trkpt>
      <trkpt lat="45.48209" lon="5.91629">
        <ele>1119</ele>
        <time>2022-08-10T17:01:16.006Z</time>
      </trkpt>
      <trkpt lat="45.48207" lon="5.91627">
        <ele>1120</ele>
        <time>2022-08-10T17:01:17.005Z</time>
      </trkpt>
      <trkpt lat="45.48204" lon="5.91624">
        <ele>1120</ele>
        <time>2022-08-10T17:01:18.006Z</time>
      </trkpt>
      <trkpt lat="45.48202" lon="5.91621">
        <ele>1119</ele>
        <time>2022-08-10T17:01:19.006Z</time>
      </trkpt>
      <trkpt lat="45.48201" lon="5.91618">
        <ele>1119</ele>
        <time>2022-08-10T17:01:20.006Z</time>
      </trkpt>
      <trkpt lat="45.48198" lon="5.91615">
        <ele>1118</ele>
        <time>2022-08-10T17:01:21.006Z</time>
      </trkpt>
      <trkpt lat="45.48197" lon="5.91612">
        <ele>1118</ele>
        <time>2022-08-10T17:01:22.006Z</time>
      </trkpt>
      <trkpt lat="45.48195" lon="5.91609">
        <ele>1118</ele>
        <time>2022-08-10T17:01:23.005Z</time>
      </trkpt>
      <trkpt lat="45.48193" lon="5.91607">
        <ele>1117</ele>
        <time>2022-08-10T17:01:24.006Z</time>
      </trkpt>
      <trkpt lat="45.48191" lon="5.91605">
        <ele>1117</ele>
        <time>2022-08-10T17:01:25.005Z</time>
      </trkpt>
      <trkpt lat="45.48188" lon="5.91602">
        <ele>1117</ele>
        <time>2022-08-10T17:01:26.006Z</time>
      </trkpt>
      <trkpt lat="45.48187" lon="5.91599">
        <ele>1117</ele>
        <time>2022-08-10T17:01:27.006Z</time>
      </trkpt>
      <trkpt lat="45.48186" lon="5.91596">
        <ele>1117</ele>
        <time>2022-08-10T17:01:28.006Z</time>
      </trkpt>
      <trkpt lat="45.48186" lon="5.91593">
        <ele>1118</ele>
        <time>2022-08-10T17:01:29.006Z</time>
      </trkpt>
      <trkpt lat="45.48187" lon="5.91591">
        <ele>1118</ele>
        <time>2022-08-10T17:01:30.006Z</time>
      </trkpt>
      <trkpt lat="45.48188" lon="5.9159">
        <ele>1119</ele>
        <time>2022-08-10T17:01:31.006Z</time>
      </trkpt>
      <trkpt lat="45.4819" lon="5.91589">
        <ele>1118</ele>
        <time>2022-08-10T17:01:32.006Z</time>
      </trkpt>
      <trkpt lat="45.48192" lon="5.91589">
        <ele>1118</ele>
        <time>2022-08-10T17:01:33.006Z</time>
      </trkpt>
      <trkpt lat="45.48195" lon="5.91588">
        <ele>1118</ele>
        <time>2022-08-10T17:01:34.006Z</time>
      </trkpt>
      <trkpt lat="45.48197" lon="5.91588">
        <ele>1118</ele>
        <time>2022-08-10T17:01:35.006Z</time>
      </trkpt>
      <trkpt lat="45.482" lon="5.91588">
        <ele>1118</ele>
        <time>2022-08-10T17:01:36.006Z</time>
      </trkpt>
      <trkpt lat="45.48202" lon="5.91589">
        <ele>1118</ele>
        <time>2022-08-10T17:01:37.006Z</time>
      </trkpt>
      <trkpt lat="45.48204" lon="5.9159">
        <ele>1119</ele>
        <time>2022-08-10T17:01:38.006Z</time>
      </trkpt>
      <trkpt lat="45.48206" lon="5.91591">
        <ele>1120</ele>
        <time>2022-08-10T17:01:39.006Z</time>
      </trkpt>
      <trkpt lat="45.48207" lon="5.91593">
        <ele>1120</ele>
        <time>2022-08-10T17:01:40.005Z</time>
      </trkpt>
      <trkpt lat="45.48209" lon="5.91594">
        <ele>1120</ele>
        <time>2022-08-10T17:01:41.006Z</time>
      </trkpt>
      <trkpt lat="45.48211" lon="5.91596">
        <ele>1120</ele>
        <time>2022-08-10T17:01:42.005Z</time>
      </trkpt>
      <trkpt lat="45.48212" lon="5.91597">
        <ele>1120</ele>
        <time>2022-08-10T17:01:43.005Z</time>
      </trkpt>
      <trkpt lat="45.48213" lon="5.91597">
        <ele>1120</ele>
        <time>2022-08-10T17:01:44.005Z</time>
      </trkpt>
      <trkpt lat="45.48214" lon="5.91597">
        <ele>1120</ele>
        <time>2022-08-10T17:01:45.006Z</time>
      </trkpt>
      <trkpt lat="45.48215" lon="5.91597">
        <ele>1122</ele>
        <time>2022-08-10T17:01:48.006Z</time>
      </trkpt>
      <trkpt lat="45.48217" lon="5.916">
        <ele>1123</ele>
        <time>2022-08-10T17:01:57.029Z</time>
      </trkpt>
      <trkpt lat="45.48217" lon="5.91601">
        <ele>1122</ele>
        <time>2022-08-10T17:01:58.028Z</time>
      </trkpt>
      <trkpt lat="45.48219" lon="5.91602">
        <ele>1122</ele>
        <time>2022-08-10T17:01:59.028Z</time>
      </trkpt>
      <trkpt lat="45.48221" lon="5.91604">
        <ele>1122</ele>
        <time>2022-08-10T17:02:00.029Z</time>
      </trkpt>
      <trkpt lat="45.48223" lon="5.91606">
        <ele>1121</ele>
        <time>2022-08-10T17:02:01.029Z</time>
      </trkpt>
      <trkpt lat="45.48227" lon="5.91608">
        <ele>1121</ele>
        <time>2022-08-10T17:02:02.029Z</time>
      </trkpt>
      <trkpt lat="45.4823" lon="5.9161">
        <ele>1121</ele>
        <time>2022-08-10T17:02:03.029Z</time>
      </trkpt>
      <trkpt lat="45.48232" lon="5.91612">
        <ele>1120</ele>
        <time>2022-08-10T17:02:04.029Z</time>
      </trkpt>
      <trkpt lat="45.48234" lon="5.91614">
        <ele>1120</ele>
        <time>2022-08-10T17:02:05.029Z</time>
      </trkpt>
      <trkpt lat="45.48235" lon="5.91615">
        <ele>1120</ele>
        <time>2022-08-10T17:02:06.029Z</time>
      </trkpt>
      <trkpt lat="45.48237" lon="5.91617">
        <ele>1120</ele>
        <time>2022-08-10T17:02:07.028Z</time>
      </trkpt>
      <trkpt lat="45.48238" lon="5.91618">
        <ele>1120</ele>
        <time>2022-08-10T17:02:08.029Z</time>
      </trkpt>
      <trkpt lat="45.48239" lon="5.9162">
        <ele>1119</ele>
        <time>2022-08-10T17:02:09.029Z</time>
      </trkpt>
      <trkpt lat="45.48239" lon="5.91621">
        <ele>1119</ele>
        <time>2022-08-10T17:02:10.029Z</time>
      </trkpt>
      <trkpt lat="45.4824" lon="5.91621">
        <ele>1118</ele>
        <time>2022-08-10T17:02:12.029Z</time>
      </trkpt>
      <trkpt lat="45.48241" lon="5.91622">
        <ele>1116</ele>
        <time>2022-08-10T17:02:20.134Z</time>
      </trkpt>
      <trkpt lat="45.48241" lon="5.91623">
        <ele>1115</ele>
        <time>2022-08-10T17:02:21.135Z</time>
      </trkpt>
      <trkpt lat="45.48242" lon="5.91624">
        <ele>1115</ele>
        <time>2022-08-10T17:02:22.134Z</time>
      </trkpt>
      <trkpt lat="45.48244" lon="5.91626">
        <ele>1115</ele>
        <time>2022-08-10T17:02:23.135Z</time>
      </trkpt>
      <trkpt lat="45.48245" lon="5.91628">
        <ele>1115</ele>
        <time>2022-08-10T17:02:24.135Z</time>
      </trkpt>
      <trkpt lat="45.48248" lon="5.91631">
        <ele>1115</ele>
        <time>2022-08-10T17:02:25.135Z</time>
      </trkpt>
      <trkpt lat="45.48249" lon="5.91633">
        <ele>1115</ele>
        <time>2022-08-10T17:02:26.135Z</time>
      </trkpt>
      <trkpt lat="45.48251" lon="5.91637">
        <ele>1115</ele>
        <time>2022-08-10T17:02:27.135Z</time>
      </trkpt>
      <trkpt lat="45.48253" lon="5.91641">
        <ele>1114</ele>
        <time>2022-08-10T17:02:28.135Z</time>
      </trkpt>
      <trkpt lat="45.48256" lon="5.91644">
        <ele>1114</ele>
        <time>2022-08-10T17:02:29.135Z</time>
      </trkpt>
      <trkpt lat="45.48258" lon="5.91647">
        <ele>1114</ele>
        <time>2022-08-10T17:02:30.135Z</time>
      </trkpt>
      <trkpt lat="45.4826" lon="5.9165">
        <ele>1114</ele>
        <time>2022-08-10T17:02:31.135Z</time>
      </trkpt>
      <trkpt lat="45.48261" lon="5.91653">
        <ele>1114</ele>
        <time>2022-08-10T17:02:32.134Z</time>
      </trkpt>
      <trkpt lat="45.48262" lon="5.91655">
        <ele>1113</ele>
        <time>2022-08-10T17:02:33.135Z</time>
      </trkpt>
      <trkpt lat="45.48263" lon="5.91657">
        <ele>1113</ele>
        <time>2022-08-10T17:02:34.135Z</time>
      </trkpt>
      <trkpt lat="45.48264" lon="5.91659">
        <ele>1113</ele>
        <time>2022-08-10T17:02:35.135Z</time>
      </trkpt>
      <trkpt lat="45.48264" lon="5.9166">
        <ele>1112</ele>
        <time>2022-08-10T17:02:36.135Z</time>
      </trkpt>
      <trkpt lat="45.48265" lon="5.91663">
        <ele>1112</ele>
        <time>2022-08-10T17:02:37.135Z</time>
      </trkpt>
      <trkpt lat="45.48265" lon="5.91666">
        <ele>1112</ele>
        <time>2022-08-10T17:02:38.135Z</time>
      </trkpt>
      <trkpt lat="45.48265" lon="5.91669">
        <ele>1111</ele>
        <time>2022-08-10T17:02:39.135Z</time>
      </trkpt>
      <trkpt lat="45.48265" lon="5.91673">
        <ele>1111</ele>
        <time>2022-08-10T17:02:40.134Z</time>
      </trkpt>
      <trkpt lat="45.48266" lon="5.91678">
        <ele>1110</ele>
        <time>2022-08-10T17:02:41.135Z</time>
      </trkpt>
      <trkpt lat="45.48268" lon="5.91682">
        <ele>1110</ele>
        <time>2022-08-10T17:02:42.135Z</time>
      </trkpt>
      <trkpt lat="45.48269" lon="5.91687">
        <ele>1109</ele>
        <time>2022-08-10T17:02:43.135Z</time>
      </trkpt>
      <trkpt lat="45.48271" lon="5.91691">
        <ele>1109</ele>
        <time>2022-08-10T17:02:44.135Z</time>
      </trkpt>
      <trkpt lat="45.48273" lon="5.91694">
        <ele>1109</ele>
        <time>2022-08-10T17:02:45.135Z</time>
      </trkpt>
      <trkpt lat="45.48275" lon="5.91697">
        <ele>1108</ele>
        <time>2022-08-10T17:02:46.135Z</time>
      </trkpt>
      <trkpt lat="45.48278" lon="5.91701">
        <ele>1108</ele>
        <time>2022-08-10T17:02:47.134Z</time>
      </trkpt>
      <trkpt lat="45.48281" lon="5.91704">
        <ele>1108</ele>
        <time>2022-08-10T17:02:48.134Z</time>
      </trkpt>
      <trkpt lat="45.48285" lon="5.91708">
        <ele>1107</ele>
        <time>2022-08-10T17:02:49.134Z</time>
      </trkpt>
      <trkpt lat="45.48288" lon="5.91711">
        <ele>1107</ele>
        <time>2022-08-10T17:02:50.135Z</time>
      </trkpt>
      <trkpt lat="45.48292" lon="5.91714">
        <ele>1107</ele>
        <time>2022-08-10T17:02:51.135Z</time>
      </trkpt>
      <trkpt lat="45.48296" lon="5.91716">
        <ele>1107</ele>
        <time>2022-08-10T17:02:52.134Z</time>
      </trkpt>
      <trkpt lat="45.48299" lon="5.91717">
        <ele>1107</ele>
        <time>2022-08-10T17:02:53.135Z</time>
      </trkpt>
      <trkpt lat="45.48302" lon="5.91719">
        <ele>1106</ele>
        <time>2022-08-10T17:02:54.135Z</time>
      </trkpt>
      <trkpt lat="45.48306" lon="5.91722">
        <ele>1106</ele>
        <time>2022-08-10T17:02:55.135Z</time>
      </trkpt>
      <trkpt lat="45.4831" lon="5.91724">
        <ele>1106</ele>
        <time>2022-08-10T17:02:56.135Z</time>
      </trkpt>
      <trkpt lat="45.48313" lon="5.91727">
        <ele>1106</ele>
        <time>2022-08-10T17:02:57.134Z</time>
      </trkpt>
      <trkpt lat="45.48315" lon="5.91731">
        <ele>1105</ele>
        <time>2022-08-10T17:02:58.135Z</time>
      </trkpt>
      <trkpt lat="45.48317" lon="5.91734">
        <ele>1105</ele>
        <time>2022-08-10T17:02:59.135Z</time>
      </trkpt>
      <trkpt lat="45.4832" lon="5.91737">
        <ele>1105</ele>
        <time>2022-08-10T17:03:00.135Z</time>
      </trkpt>
      <trkpt lat="45.48322" lon="5.9174">
        <ele>1105</ele>
        <time>2022-08-10T17:03:01.134Z</time>
      </trkpt>
      <trkpt lat="45.48325" lon="5.91742">
        <ele>1105</ele>
        <time>2022-08-10T17:03:02.135Z</time>
      </trkpt>
      <trkpt lat="45.48327" lon="5.91745">
        <ele>1104</ele>
        <time>2022-08-10T17:03:03.134Z</time>
      </trkpt>
      <trkpt lat="45.4833" lon="5.91748">
        <ele>1104</ele>
        <time>2022-08-10T17:03:04.135Z</time>
      </trkpt>
      <trkpt lat="45.48332" lon="5.91751">
        <ele>1104</ele>
        <time>2022-08-10T17:03:05.135Z</time>
      </trkpt>
      <trkpt lat="45.48335" lon="5.91754">
        <ele>1104</ele>
        <time>2022-08-10T17:03:06.135Z</time>
      </trkpt>
      <trkpt lat="45.48337" lon="5.91757">
        <ele>1104</ele>
        <time>2022-08-10T17:03:07.135Z</time>
      </trkpt>
      <trkpt lat="45.48338" lon="5.9176">
        <ele>1104</ele>
        <time>2022-08-10T17:03:08.135Z</time>
      </trkpt>
      <trkpt lat="45.48339" lon="5.91764">
        <ele>1104</ele>
        <time>2022-08-10T17:03:09.135Z</time>
      </trkpt>
      <trkpt lat="45.48338" lon="5.91767">
        <ele>1104</ele>
        <time>2022-08-10T17:03:10.135Z</time>
      </trkpt>
      <trkpt lat="45.48338" lon="5.91771">
        <ele>1104</ele>
        <time>2022-08-10T17:03:11.135Z</time>
      </trkpt>
      <trkpt lat="45.48337" lon="5.91775">
        <ele>1104</ele>
        <time>2022-08-10T17:03:12.134Z</time>
      </trkpt>
      <trkpt lat="45.48337" lon="5.91779">
        <ele>1103</ele>
        <time>2022-08-10T17:03:13.134Z</time>
      </trkpt>
      <trkpt lat="45.48337" lon="5.91784">
        <ele>1103</ele>
        <time>2022-08-10T17:03:14.135Z</time>
      </trkpt>
      <trkpt lat="45.48336" lon="5.91788">
        <ele>1103</ele>
        <time>2022-08-10T17:03:15.135Z</time>
      </trkpt>
      <trkpt lat="45.48335" lon="5.91792">
        <ele>1103</ele>
        <time>2022-08-10T17:03:16.135Z</time>
      </trkpt>
      <trkpt lat="45.48333" lon="5.91797">
        <ele>1102</ele>
        <time>2022-08-10T17:03:17.134Z</time>
      </trkpt>
      <trkpt lat="45.48333" lon="5.91802">
        <ele>1102</ele>
        <time>2022-08-10T17:03:18.135Z</time>
      </trkpt>
      <trkpt lat="45.48332" lon="5.91807">
        <ele>1102</ele>
        <time>2022-08-10T17:03:19.135Z</time>
      </trkpt>
      <trkpt lat="45.4833" lon="5.91812">
        <ele>1102</ele>
        <time>2022-08-10T17:03:20.134Z</time>
      </trkpt>
      <trkpt lat="45.48328" lon="5.91817">
        <ele>1101</ele>
        <time>2022-08-10T17:03:21.135Z</time>
      </trkpt>
      <trkpt lat="45.48326" lon="5.91822">
        <ele>1101</ele>
        <time>2022-08-10T17:03:22.135Z</time>
      </trkpt>
      <trkpt lat="45.48324" lon="5.91826">
        <ele>1101</ele>
        <time>2022-08-10T17:03:23.135Z</time>
      </trkpt>
      <trkpt lat="45.48323" lon="5.91829">
        <ele>1101</ele>
        <time>2022-08-10T17:03:24.135Z</time>
      </trkpt>
      <trkpt lat="45.48322" lon="5.91829">
        <ele>1101</ele>
        <time>2022-08-10T17:03:25.135Z</time>
      </trkpt>
      <trkpt lat="45.48321" lon="5.9183">
        <ele>1100</ele>
        <time>2022-08-10T17:03:26.134Z</time>
      </trkpt>
      <trkpt lat="45.48321" lon="5.91832">
        <ele>1100</ele>
        <time>2022-08-10T17:03:27.135Z</time>
      </trkpt>
      <trkpt lat="45.48321" lon="5.91834">
        <ele>1100</ele>
        <time>2022-08-10T17:03:28.135Z</time>
      </trkpt>
      <trkpt lat="45.48319" lon="5.91845">
        <ele>1092</ele>
        <time>2022-08-10T17:03:45.132Z</time>
      </trkpt>
      <trkpt lat="45.48313" lon="5.91841">
        <ele>1090</ele>
        <time>2022-08-10T17:04:13.030Z</time>
      </trkpt>
      <trkpt lat="45.48311" lon="5.91839">
        <ele>1090</ele>
        <time>2022-08-10T17:04:14.031Z</time>
      </trkpt>
      <trkpt lat="45.4831" lon="5.91836">
        <ele>1089</ele>
        <time>2022-08-10T17:04:15.030Z</time>
      </trkpt>
      <trkpt lat="45.48308" lon="5.91834">
        <ele>1089</ele>
        <time>2022-08-10T17:04:16.030Z</time>
      </trkpt>
      <trkpt lat="45.48307" lon="5.91831">
        <ele>1089</ele>
        <time>2022-08-10T17:04:17.030Z</time>
      </trkpt>
      <trkpt lat="45.48305" lon="5.91829">
        <ele>1089</ele>
        <time>2022-08-10T17:04:18.031Z</time>
      </trkpt>
      <trkpt lat="45.48304" lon="5.91826">
        <ele>1089</ele>
        <time>2022-08-10T17:04:19.031Z</time>
      </trkpt>
      <trkpt lat="45.48302" lon="5.91824">
        <ele>1089</ele>
        <time>2022-08-10T17:04:20.031Z</time>
      </trkpt>
      <trkpt lat="45.48302" lon="5.91822">
        <ele>1089</ele>
        <time>2022-08-10T17:04:21.031Z</time>
      </trkpt>
      <trkpt lat="45.483" lon="5.9182">
        <ele>1089</ele>
        <time>2022-08-10T17:04:22.031Z</time>
      </trkpt>
      <trkpt lat="45.48299" lon="5.91817">
        <ele>1089</ele>
        <time>2022-08-10T17:04:23.031Z</time>
      </trkpt>
      <trkpt lat="45.48298" lon="5.91815">
        <ele>1089</ele>
        <time>2022-08-10T17:04:24.031Z</time>
      </trkpt>
      <trkpt lat="45.48296" lon="5.91814">
        <ele>1089</ele>
        <time>2022-08-10T17:04:25.031Z</time>
      </trkpt>
      <trkpt lat="45.48295" lon="5.91813">
        <ele>1089</ele>
        <time>2022-08-10T17:04:26.031Z</time>
      </trkpt>
      <trkpt lat="45.48294" lon="5.91813">
        <ele>1089</ele>
        <time>2022-08-10T17:04:27.031Z</time>
      </trkpt>
      <trkpt lat="45.48293" lon="5.91814">
        <ele>1089</ele>
        <time>2022-08-10T17:04:28.031Z</time>
      </trkpt>
      <trkpt lat="45.48292" lon="5.91814">
        <ele>1089</ele>
        <time>2022-08-10T17:04:29.031Z</time>
      </trkpt>
      <trkpt lat="45.48291" lon="5.91815">
        <ele>1089</ele>
        <time>2022-08-10T17:04:30.031Z</time>
      </trkpt>
      <trkpt lat="45.4829" lon="5.91815">
        <ele>1090</ele>
        <time>2022-08-10T17:04:31.031Z</time>
      </trkpt>
      <trkpt lat="45.48289" lon="5.91815">
        <ele>1090</ele>
        <time>2022-08-10T17:04:32.031Z</time>
      </trkpt>
      <trkpt lat="45.48288" lon="5.91816">
        <ele>1090</ele>
        <time>2022-08-10T17:04:33.031Z</time>
      </trkpt>
      <trkpt lat="45.48288" lon="5.91817">
        <ele>1089</ele>
        <time>2022-08-10T17:04:34.030Z</time>
      </trkpt>
      <trkpt lat="45.48287" lon="5.91818">
        <ele>1089</ele>
        <time>2022-08-10T17:04:35.031Z</time>
      </trkpt>
      <trkpt lat="45.48287" lon="5.9182">
        <ele>1089</ele>
        <time>2022-08-10T17:04:36.031Z</time>
      </trkpt>
      <trkpt lat="45.48286" lon="5.91821">
        <ele>1088</ele>
        <time>2022-08-10T17:04:37.031Z</time>
      </trkpt>
      <trkpt lat="45.48285" lon="5.91821">
        <ele>1088</ele>
        <time>2022-08-10T17:04:38.031Z</time>
      </trkpt>
      <trkpt lat="45.48284" lon="5.91823">
        <ele>1087</ele>
        <time>2022-08-10T17:04:39.031Z</time>
      </trkpt>
      <trkpt lat="45.48283" lon="5.91824">
        <ele>1087</ele>
        <time>2022-08-10T17:04:40.030Z</time>
      </trkpt>
      <trkpt lat="45.48283" lon="5.91825">
        <ele>1086</ele>
        <time>2022-08-10T17:04:41.031Z</time>
      </trkpt>
      <trkpt lat="45.48282" lon="5.91827">
        <ele>1086</ele>
        <time>2022-08-10T17:04:42.031Z</time>
      </trkpt>
      <trkpt lat="45.48281" lon="5.91829">
        <ele>1086</ele>
        <time>2022-08-10T17:04:43.031Z</time>
      </trkpt>
      <trkpt lat="45.4828" lon="5.91831">
        <ele>1086</ele>
        <time>2022-08-10T17:04:44.031Z</time>
      </trkpt>
      <trkpt lat="45.4828" lon="5.91833">
        <ele>1086</ele>
        <time>2022-08-10T17:04:45.031Z</time>
      </trkpt>
      <trkpt lat="45.48279" lon="5.91836">
        <ele>1086</ele>
        <time>2022-08-10T17:04:46.031Z</time>
      </trkpt>
      <trkpt lat="45.48279" lon="5.91839">
        <ele>1086</ele>
        <time>2022-08-10T17:04:47.031Z</time>
      </trkpt>
      <trkpt lat="45.48278" lon="5.91841">
        <ele>1085</ele>
        <time>2022-08-10T17:04:48.031Z</time>
      </trkpt>
      <trkpt lat="45.48276" lon="5.91845">
        <ele>1085</ele>
        <time>2022-08-10T17:04:49.031Z</time>
      </trkpt>
      <trkpt lat="45.48273" lon="5.91847">
        <ele>1085</ele>
        <time>2022-08-10T17:04:50.031Z</time>
      </trkpt>
      <trkpt lat="45.48271" lon="5.91847">
        <ele>1085</ele>
        <time>2022-08-10T17:04:51.031Z</time>
      </trkpt>
      <trkpt lat="45.48269" lon="5.91848">
        <ele>1085</ele>
        <time>2022-08-10T17:04:52.031Z</time>
      </trkpt>
      <trkpt lat="45.48268" lon="5.91847">
        <ele>1086</ele>
        <time>2022-08-10T17:04:53.031Z</time>
      </trkpt>
      <trkpt lat="45.48268" lon="5.91848">
        <ele>1086</ele>
        <time>2022-08-10T17:04:56.031Z</time>
      </trkpt>
      <trkpt lat="45.48267" lon="5.91848">
        <ele>1084</ele>
        <time>2022-08-10T17:05:02.177Z</time>
      </trkpt>
      <trkpt lat="45.48265" lon="5.91847">
        <ele>1084</ele>
        <time>2022-08-10T17:05:03.178Z</time>
      </trkpt>
      <trkpt lat="45.48264" lon="5.91847">
        <ele>1083</ele>
        <time>2022-08-10T17:05:04.177Z</time>
      </trkpt>
      <trkpt lat="45.48263" lon="5.91847">
        <ele>1083</ele>
        <time>2022-08-10T17:05:05.178Z</time>
      </trkpt>
      <trkpt lat="45.48262" lon="5.91847">
        <ele>1083</ele>
        <time>2022-08-10T17:05:06.178Z</time>
      </trkpt>
      <trkpt lat="45.48261" lon="5.91847">
        <ele>1083</ele>
        <time>2022-08-10T17:05:08.177Z</time>
      </trkpt>
      <trkpt lat="45.4826" lon="5.91847">
        <ele>1084</ele>
        <time>2022-08-10T17:05:09.178Z</time>
      </trkpt>
      <trkpt lat="45.4826" lon="5.91848">
        <ele>1084</ele>
        <time>2022-08-10T17:05:10.177Z</time>
      </trkpt>
      <trkpt lat="45.48258" lon="5.91848">
        <ele>1084</ele>
        <time>2022-08-10T17:05:11.177Z</time>
      </trkpt>
      <trkpt lat="45.48257" lon="5.91849">
        <ele>1085</ele>
        <time>2022-08-10T17:05:12.178Z</time>
      </trkpt>
      <trkpt lat="45.48255" lon="5.9185">
        <ele>1085</ele>
        <time>2022-08-10T17:05:13.178Z</time>
      </trkpt>
      <trkpt lat="45.48254" lon="5.91851">
        <ele>1085</ele>
        <time>2022-08-10T17:05:14.178Z</time>
      </trkpt>
      <trkpt lat="45.48253" lon="5.91853">
        <ele>1085</ele>
        <time>2022-08-10T17:05:15.178Z</time>
      </trkpt>
      <trkpt lat="45.48249" lon="5.91858">
        <ele>1084</ele>
        <time>2022-08-10T17:05:24.306Z</time>
      </trkpt>
      <trkpt lat="45.48249" lon="5.91859">
        <ele>1084</ele>
        <time>2022-08-10T17:05:25.306Z</time>
      </trkpt>
      <trkpt lat="45.48248" lon="5.9186">
        <ele>1084</ele>
        <time>2022-08-10T17:05:26.305Z</time>
      </trkpt>
      <trkpt lat="45.48247" lon="5.91862">
        <ele>1085</ele>
        <time>2022-08-10T17:05:27.306Z</time>
      </trkpt>
      <trkpt lat="45.48246" lon="5.91863">
        <ele>1085</ele>
        <time>2022-08-10T17:05:28.306Z</time>
      </trkpt>
      <trkpt lat="45.48245" lon="5.91864">
        <ele>1085</ele>
        <time>2022-08-10T17:05:29.306Z</time>
      </trkpt>
      <trkpt lat="45.48244" lon="5.91866">
        <ele>1086</ele>
        <time>2022-08-10T17:05:30.306Z</time>
      </trkpt>
      <trkpt lat="45.48242" lon="5.91868">
        <ele>1086</ele>
        <time>2022-08-10T17:05:31.306Z</time>
      </trkpt>
      <trkpt lat="45.48239" lon="5.91869">
        <ele>1086</ele>
        <time>2022-08-10T17:05:32.306Z</time>
      </trkpt>
      <trkpt lat="45.48236" lon="5.9187">
        <ele>1086</ele>
        <time>2022-08-10T17:05:33.306Z</time>
      </trkpt>
      <trkpt lat="45.48233" lon="5.91871">
        <ele>1086</ele>
        <time>2022-08-10T17:05:34.306Z</time>
      </trkpt>
      <trkpt lat="45.48231" lon="5.91871">
        <ele>1087</ele>
        <time>2022-08-10T17:05:35.306Z</time>
      </trkpt>
      <trkpt lat="45.48229" lon="5.91871">
        <ele>1087</ele>
        <time>2022-08-10T17:05:36.306Z</time>
      </trkpt>
      <trkpt lat="45.48226" lon="5.91871">
        <ele>1087</ele>
        <time>2022-08-10T17:05:37.306Z</time>
      </trkpt>
      <trkpt lat="45.48224" lon="5.91871">
        <ele>1088</ele>
        <time>2022-08-10T17:05:38.306Z</time>
      </trkpt>
      <trkpt lat="45.48222" lon="5.9187">
        <ele>1088</ele>
        <time>2022-08-10T17:05:39.306Z</time>
      </trkpt>
      <trkpt lat="45.4822" lon="5.9187">
        <ele>1088</ele>
        <time>2022-08-10T17:05:40.306Z</time>
      </trkpt>
      <trkpt lat="45.48218" lon="5.91869">
        <ele>1089</ele>
        <time>2022-08-10T17:05:41.306Z</time>
      </trkpt>
      <trkpt lat="45.48215" lon="5.91867">
        <ele>1089</ele>
        <time>2022-08-10T17:05:42.306Z</time>
      </trkpt>
      <trkpt lat="45.48213" lon="5.91866">
        <ele>1089</ele>
        <time>2022-08-10T17:05:43.306Z</time>
      </trkpt>
      <trkpt lat="45.48211" lon="5.91864">
        <ele>1089</ele>
        <time>2022-08-10T17:05:44.306Z</time>
      </trkpt>
      <trkpt lat="45.48209" lon="5.91862">
        <ele>1089</ele>
        <time>2022-08-10T17:05:45.305Z</time>
      </trkpt>
      <trkpt lat="45.48207" lon="5.9186">
        <ele>1089</ele>
        <time>2022-08-10T17:05:46.306Z</time>
      </trkpt>
      <trkpt lat="45.48205" lon="5.91859">
        <ele>1089</ele>
        <time>2022-08-10T17:05:47.306Z</time>
      </trkpt>
      <trkpt lat="45.48202" lon="5.91858">
        <ele>1089</ele>
        <time>2022-08-10T17:05:48.306Z</time>
      </trkpt>
      <trkpt lat="45.482" lon="5.91857">
        <ele>1089</ele>
        <time>2022-08-10T17:05:49.306Z</time>
      </trkpt>
      <trkpt lat="45.48198" lon="5.91857">
        <ele>1089</ele>
        <time>2022-08-10T17:05:50.306Z</time>
      </trkpt>
      <trkpt lat="45.48196" lon="5.91856">
        <ele>1089</ele>
        <time>2022-08-10T17:05:51.306Z</time>
      </trkpt>
      <trkpt lat="45.48195" lon="5.91856">
        <ele>1088</ele>
        <time>2022-08-10T17:05:52.305Z</time>
      </trkpt>
      <trkpt lat="45.48193" lon="5.91856">
        <ele>1088</ele>
        <time>2022-08-10T17:05:53.305Z</time>
      </trkpt>
      <trkpt lat="45.48192" lon="5.91857">
        <ele>1088</ele>
        <time>2022-08-10T17:05:54.305Z</time>
      </trkpt>
      <trkpt lat="45.48191" lon="5.91859">
        <ele>1087</ele>
        <time>2022-08-10T17:05:55.305Z</time>
      </trkpt>
      <trkpt lat="45.4819" lon="5.91859">
        <ele>1087</ele>
        <time>2022-08-10T17:05:56.306Z</time>
      </trkpt>
      <trkpt lat="45.48189" lon="5.91859">
        <ele>1087</ele>
        <time>2022-08-10T17:05:57.306Z</time>
      </trkpt>
      <trkpt lat="45.48186" lon="5.91861">
        <ele>1088</ele>
        <time>2022-08-10T17:06:03.412Z</time>
      </trkpt>
      <trkpt lat="45.48185" lon="5.91862">
        <ele>1088</ele>
        <time>2022-08-10T17:06:04.411Z</time>
      </trkpt>
      <trkpt lat="45.48185" lon="5.91863">
        <ele>1087</ele>
        <time>2022-08-10T17:06:05.411Z</time>
      </trkpt>
      <trkpt lat="45.48184" lon="5.91864">
        <ele>1086</ele>
        <time>2022-08-10T17:06:06.412Z</time>
      </trkpt>
      <trkpt lat="45.48183" lon="5.91864">
        <ele>1085</ele>
        <time>2022-08-10T17:06:07.412Z</time>
      </trkpt>
      <trkpt lat="45.48182" lon="5.91865">
        <ele>1084</ele>
        <time>2022-08-10T17:06:08.412Z</time>
      </trkpt>
      <trkpt lat="45.48181" lon="5.91866">
        <ele>1084</ele>
        <time>2022-08-10T17:06:09.411Z</time>
      </trkpt>
      <trkpt lat="45.4818" lon="5.91867">
        <ele>1083</ele>
        <time>2022-08-10T17:06:10.411Z</time>
      </trkpt>
      <trkpt lat="45.4818" lon="5.91868">
        <ele>1082</ele>
        <time>2022-08-10T17:06:11.411Z</time>
      </trkpt>
      <trkpt lat="45.4818" lon="5.91869">
        <ele>1081</ele>
        <time>2022-08-10T17:06:12.411Z</time>
      </trkpt>
      <trkpt lat="45.4818" lon="5.9187">
        <ele>1080</ele>
        <time>2022-08-10T17:06:13.412Z</time>
      </trkpt>
      <trkpt lat="45.4818" lon="5.91871">
        <ele>1079</ele>
        <time>2022-08-10T17:06:14.412Z</time>
      </trkpt>
      <trkpt lat="45.4818" lon="5.91872">
        <ele>1079</ele>
        <time>2022-08-10T17:06:15.412Z</time>
      </trkpt>
      <trkpt lat="45.4818" lon="5.91873">
        <ele>1078</ele>
        <time>2022-08-10T17:06:19.531Z</time>
      </trkpt>
      <trkpt lat="45.4818" lon="5.91874">
        <ele>1077</ele>
        <time>2022-08-10T17:06:20.532Z</time>
      </trkpt>
      <trkpt lat="45.48179" lon="5.91876">
        <ele>1077</ele>
        <time>2022-08-10T17:06:21.531Z</time>
      </trkpt>
      <trkpt lat="45.48179" lon="5.91877">
        <ele>1077</ele>
        <time>2022-08-10T17:06:22.532Z</time>
      </trkpt>
      <trkpt lat="45.48178" lon="5.91878">
        <ele>1076</ele>
        <time>2022-08-10T17:06:23.532Z</time>
      </trkpt>
      <trkpt lat="45.48177" lon="5.91879">
        <ele>1076</ele>
        <time>2022-08-10T17:06:24.531Z</time>
      </trkpt>
      <trkpt lat="45.48176" lon="5.91882">
        <ele>1074</ele>
        <time>2022-08-10T17:06:29.637Z</time>
      </trkpt>
      <trkpt lat="45.48175" lon="5.91882">
        <ele>1073</ele>
        <time>2022-08-10T17:06:30.637Z</time>
      </trkpt>
      <trkpt lat="45.48173" lon="5.91882">
        <ele>1072</ele>
        <time>2022-08-10T17:06:31.636Z</time>
      </trkpt>
      <trkpt lat="45.48172" lon="5.91882">
        <ele>1072</ele>
        <time>2022-08-10T17:06:32.636Z</time>
      </trkpt>
      <trkpt lat="45.4817" lon="5.91882">
        <ele>1072</ele>
        <time>2022-08-10T17:06:33.636Z</time>
      </trkpt>
      <trkpt lat="45.48169" lon="5.91883">
        <ele>1071</ele>
        <time>2022-08-10T17:06:34.636Z</time>
      </trkpt>
      <trkpt lat="45.48169" lon="5.91885">
        <ele>1071</ele>
        <time>2022-08-10T17:06:35.637Z</time>
      </trkpt>
      <trkpt lat="45.4817" lon="5.91887">
        <ele>1071</ele>
        <time>2022-08-10T17:06:36.636Z</time>
      </trkpt>
      <trkpt lat="45.48171" lon="5.91889">
        <ele>1071</ele>
        <time>2022-08-10T17:06:37.636Z</time>
      </trkpt>
      <trkpt lat="45.48172" lon="5.91892">
        <ele>1070</ele>
        <time>2022-08-10T17:06:38.636Z</time>
      </trkpt>
      <trkpt lat="45.48174" lon="5.91893">
        <ele>1070</ele>
        <time>2022-08-10T17:06:39.636Z</time>
      </trkpt>
      <trkpt lat="45.48175" lon="5.91895">
        <ele>1070</ele>
        <time>2022-08-10T17:06:40.636Z</time>
      </trkpt>
      <trkpt lat="45.48177" lon="5.91897">
        <ele>1070</ele>
        <time>2022-08-10T17:06:41.636Z</time>
      </trkpt>
      <trkpt lat="45.48178" lon="5.91898">
        <ele>1070</ele>
        <time>2022-08-10T17:06:42.636Z</time>
      </trkpt>
      <trkpt lat="45.4818" lon="5.919">
        <ele>1070</ele>
        <time>2022-08-10T17:06:43.636Z</time>
      </trkpt>
      <trkpt lat="45.48181" lon="5.91902">
        <ele>1070</ele>
        <time>2022-08-10T17:06:44.637Z</time>
      </trkpt>
      <trkpt lat="45.48182" lon="5.91905">
        <ele>1070</ele>
        <time>2022-08-10T17:06:45.636Z</time>
      </trkpt>
      <trkpt lat="45.48182" lon="5.91908">
        <ele>1070</ele>
        <time>2022-08-10T17:06:46.636Z</time>
      </trkpt>
      <trkpt lat="45.48182" lon="5.91911">
        <ele>1070</ele>
        <time>2022-08-10T17:06:47.636Z</time>
      </trkpt>
      <trkpt lat="45.48182" lon="5.91914">
        <ele>1069</ele>
        <time>2022-08-10T17:06:48.636Z</time>
      </trkpt>
      <trkpt lat="45.48182" lon="5.91916">
        <ele>1069</ele>
        <time>2022-08-10T17:06:49.637Z</time>
      </trkpt>
      <trkpt lat="45.4818" lon="5.91918">
        <ele>1068</ele>
        <time>2022-08-10T17:06:50.636Z</time>
      </trkpt>
      <trkpt lat="45.48179" lon="5.9192">
        <ele>1068</ele>
        <time>2022-08-10T17:06:51.636Z</time>
      </trkpt>
      <trkpt lat="45.48177" lon="5.91923">
        <ele>1067</ele>
        <time>2022-08-10T17:06:52.636Z</time>
      </trkpt>
      <trkpt lat="45.48175" lon="5.91926">
        <ele>1067</ele>
        <time>2022-08-10T17:06:53.636Z</time>
      </trkpt>
      <trkpt lat="45.48175" lon="5.91927">
        <ele>1066</ele>
        <time>2022-08-10T17:06:54.637Z</time>
      </trkpt>
      <trkpt lat="45.48174" lon="5.91928">
        <ele>1066</ele>
        <time>2022-08-10T17:06:55.636Z</time>
      </trkpt>
      <trkpt lat="45.48173" lon="5.91929">
        <ele>1065</ele>
        <time>2022-08-10T17:06:56.636Z</time>
      </trkpt>
      <trkpt lat="45.48173" lon="5.9193">
        <ele>1065</ele>
        <time>2022-08-10T17:06:57.636Z</time>
      </trkpt>
      <trkpt lat="45.48173" lon="5.91931">
        <ele>1064</ele>
        <time>2022-08-10T17:06:58.636Z</time>
      </trkpt>
      <trkpt lat="45.48173" lon="5.91932">
        <ele>1063</ele>
        <time>2022-08-10T17:06:59.636Z</time>
      </trkpt>
      <trkpt lat="45.48174" lon="5.91933">
        <ele>1062</ele>
        <time>2022-08-10T17:07:03.640Z</time>
      </trkpt>
      <trkpt lat="45.48174" lon="5.91934">
        <ele>1061</ele>
        <time>2022-08-10T17:07:04.640Z</time>
      </trkpt>
      <trkpt lat="45.4818" lon="5.91934">
        <ele>1065</ele>
        <time>2022-08-10T17:07:14.512Z</time>
      </trkpt>
      <trkpt lat="45.48179" lon="5.91935">
        <ele>1066</ele>
        <time>2022-08-10T17:07:16.512Z</time>
      </trkpt>
      <trkpt lat="45.48178" lon="5.91936">
        <ele>1066</ele>
        <time>2022-08-10T17:07:17.511Z</time>
      </trkpt>
      <trkpt lat="45.48177" lon="5.91938">
        <ele>1067</ele>
        <time>2022-08-10T17:07:18.512Z</time>
      </trkpt>
      <trkpt lat="45.48176" lon="5.9194">
        <ele>1067</ele>
        <time>2022-08-10T17:07:19.512Z</time>
      </trkpt>
      <trkpt lat="45.48175" lon="5.9194">
        <ele>1068</ele>
        <time>2022-08-10T17:07:20.512Z</time>
      </trkpt>
      <trkpt lat="45.48174" lon="5.9194">
        <ele>1068</ele>
        <time>2022-08-10T17:07:21.512Z</time>
      </trkpt>
      <trkpt lat="45.48173" lon="5.9194">
        <ele>1068</ele>
        <time>2022-08-10T17:07:22.511Z</time>
      </trkpt>
      <trkpt lat="45.48173" lon="5.91939">
        <ele>1068</ele>
        <time>2022-08-10T17:07:24.512Z</time>
      </trkpt>
      <trkpt lat="45.48172" lon="5.91939">
        <ele>1067</ele>
        <time>2022-08-10T17:07:25.512Z</time>
      </trkpt>
      <trkpt lat="45.48169" lon="5.91941">
        <ele>1066</ele>
        <time>2022-08-10T17:07:32.659Z</time>
      </trkpt>
      <trkpt lat="45.48168" lon="5.9194">
        <ele>1065</ele>
        <time>2022-08-10T17:07:33.659Z</time>
      </trkpt>
      <trkpt lat="45.48166" lon="5.91948">
        <ele>1064</ele>
        <time>2022-08-10T17:08:32.788Z</time>
      </trkpt>
      <trkpt lat="45.48168" lon="5.91955">
        <ele>1056</ele>
        <time>2022-08-10T17:09:17.660Z</time>
      </trkpt>
      <trkpt lat="45.48165" lon="5.91957">
        <ele>1056</ele>
        <time>2022-08-10T17:09:19.527Z</time>
      </trkpt>
      <trkpt lat="45.48165" lon="5.91958">
        <ele>1056</ele>
        <time>2022-08-10T17:09:20.527Z</time>
      </trkpt>
      <trkpt lat="45.48164" lon="5.91961">
        <ele>1055</ele>
        <time>2022-08-10T17:09:21.527Z</time>
      </trkpt>
      <trkpt lat="45.48164" lon="5.91963">
        <ele>1055</ele>
        <time>2022-08-10T17:09:22.526Z</time>
      </trkpt>
      <trkpt lat="45.48163" lon="5.91966">
        <ele>1055</ele>
        <time>2022-08-10T17:09:23.527Z</time>
      </trkpt>
      <trkpt lat="45.48163" lon="5.91968">
        <ele>1055</ele>
        <time>2022-08-10T17:09:24.526Z</time>
      </trkpt>
      <trkpt lat="45.48164" lon="5.91969">
        <ele>1055</ele>
        <time>2022-08-10T17:09:25.527Z</time>
      </trkpt>
      <trkpt lat="45.48166" lon="5.91969">
        <ele>1055</ele>
        <time>2022-08-10T17:09:26.527Z</time>
      </trkpt>
      <trkpt lat="45.48167" lon="5.91968">
        <ele>1055</ele>
        <time>2022-08-10T17:09:27.527Z</time>
      </trkpt>
      <trkpt lat="45.48169" lon="5.91966">
        <ele>1055</ele>
        <time>2022-08-10T17:09:28.527Z</time>
      </trkpt>
      <trkpt lat="45.4817" lon="5.91967">
        <ele>1054</ele>
        <time>2022-08-10T17:09:29.526Z</time>
      </trkpt>
      <trkpt lat="45.4817" lon="5.91969">
        <ele>1053</ele>
        <time>2022-08-10T17:09:31.526Z</time>
      </trkpt>
      <trkpt lat="45.48169" lon="5.91971">
        <ele>1052</ele>
        <time>2022-08-10T17:09:32.527Z</time>
      </trkpt>
      <trkpt lat="45.48168" lon="5.91973">
        <ele>1051</ele>
        <time>2022-08-10T17:09:33.527Z</time>
      </trkpt>
      <trkpt lat="45.48166" lon="5.91976">
        <ele>1051</ele>
        <time>2022-08-10T17:09:34.526Z</time>
      </trkpt>
      <trkpt lat="45.48164" lon="5.91979">
        <ele>1050</ele>
        <time>2022-08-10T17:09:35.526Z</time>
      </trkpt>
      <trkpt lat="45.48162" lon="5.91982">
        <ele>1049</ele>
        <time>2022-08-10T17:09:36.527Z</time>
      </trkpt>
      <trkpt lat="45.4816" lon="5.91985">
        <ele>1049</ele>
        <time>2022-08-10T17:09:37.527Z</time>
      </trkpt>
      <trkpt lat="45.48157" lon="5.91988">
        <ele>1048</ele>
        <time>2022-08-10T17:09:38.527Z</time>
      </trkpt>
      <trkpt lat="45.48155" lon="5.91991">
        <ele>1048</ele>
        <time>2022-08-10T17:09:39.526Z</time>
      </trkpt>
      <trkpt lat="45.48154" lon="5.91994">
        <ele>1047</ele>
        <time>2022-08-10T17:09:40.527Z</time>
      </trkpt>
      <trkpt lat="45.48153" lon="5.91997">
        <ele>1046</ele>
        <time>2022-08-10T17:09:41.527Z</time>
      </trkpt>
      <trkpt lat="45.48152" lon="5.91999">
        <ele>1045</ele>
        <time>2022-08-10T17:09:42.526Z</time>
      </trkpt>
      <trkpt lat="45.48151" lon="5.92002">
        <ele>1045</ele>
        <time>2022-08-10T17:09:43.527Z</time>
      </trkpt>
      <trkpt lat="45.4815" lon="5.92005">
        <ele>1044</ele>
        <time>2022-08-10T17:09:44.527Z</time>
      </trkpt>
      <trkpt lat="45.48148" lon="5.92008">
        <ele>1044</ele>
        <time>2022-08-10T17:09:45.527Z</time>
      </trkpt>
      <trkpt lat="45.48147" lon="5.92011">
        <ele>1043</ele>
        <time>2022-08-10T17:09:46.526Z</time>
      </trkpt>
      <trkpt lat="45.48145" lon="5.92014">
        <ele>1043</ele>
        <time>2022-08-10T17:09:47.527Z</time>
      </trkpt>
      <trkpt lat="45.48142" lon="5.92018">
        <ele>1042</ele>
        <time>2022-08-10T17:09:48.527Z</time>
      </trkpt>
      <trkpt lat="45.48139" lon="5.92023">
        <ele>1042</ele>
        <time>2022-08-10T17:09:49.527Z</time>
      </trkpt>
      <trkpt lat="45.48137" lon="5.92026">
        <ele>1042</ele>
        <time>2022-08-10T17:09:50.526Z</time>
      </trkpt>
      <trkpt lat="45.48136" lon="5.92028">
        <ele>1041</ele>
        <time>2022-08-10T17:09:51.527Z</time>
      </trkpt>
      <trkpt lat="45.48136" lon="5.9203">
        <ele>1041</ele>
        <time>2022-08-10T17:09:52.526Z</time>
      </trkpt>
      <trkpt lat="45.48136" lon="5.92031">
        <ele>1040</ele>
        <time>2022-08-10T17:09:54.526Z</time>
      </trkpt>
      <trkpt lat="45.48135" lon="5.92032">
        <ele>1039</ele>
        <time>2022-08-10T17:09:57.646Z</time>
      </trkpt>
      <trkpt lat="45.48134" lon="5.92033">
        <ele>1039</ele>
        <time>2022-08-10T17:09:58.645Z</time>
      </trkpt>
      <trkpt lat="45.48134" lon="5.92034">
        <ele>1038</ele>
        <time>2022-08-10T17:09:59.646Z</time>
      </trkpt>
      <trkpt lat="45.48133" lon="5.92035">
        <ele>1038</ele>
        <time>2022-08-10T17:10:00.646Z</time>
      </trkpt>
      <trkpt lat="45.48132" lon="5.92035">
        <ele>1038</ele>
        <time>2022-08-10T17:10:01.645Z</time>
      </trkpt>
      <trkpt lat="45.48131" lon="5.92036">
        <ele>1038</ele>
        <time>2022-08-10T17:10:02.646Z</time>
      </trkpt>
      <trkpt lat="45.48129" lon="5.92038">
        <ele>1037</ele>
        <time>2022-08-10T17:10:03.646Z</time>
      </trkpt>
      <trkpt lat="45.48128" lon="5.92039">
        <ele>1037</ele>
        <time>2022-08-10T17:10:04.646Z</time>
      </trkpt>
      <trkpt lat="45.48126" lon="5.92041">
        <ele>1037</ele>
        <time>2022-08-10T17:10:05.645Z</time>
      </trkpt>
      <trkpt lat="45.48123" lon="5.92044">
        <ele>1036</ele>
        <time>2022-08-10T17:10:06.646Z</time>
      </trkpt>
      <trkpt lat="45.4812" lon="5.92048">
        <ele>1035</ele>
        <time>2022-08-10T17:10:07.645Z</time>
      </trkpt>
      <trkpt lat="45.48118" lon="5.92051">
        <ele>1035</ele>
        <time>2022-08-10T17:10:08.646Z</time>
      </trkpt>
      <trkpt lat="45.48115" lon="5.92054">
        <ele>1034</ele>
        <time>2022-08-10T17:10:09.646Z</time>
      </trkpt>
      <trkpt lat="45.48113" lon="5.92057">
        <ele>1034</ele>
        <time>2022-08-10T17:10:10.646Z</time>
      </trkpt>
      <trkpt lat="45.48111" lon="5.9206">
        <ele>1033</ele>
        <time>2022-08-10T17:10:11.646Z</time>
      </trkpt>
      <trkpt lat="45.48109" lon="5.92063">
        <ele>1033</ele>
        <time>2022-08-10T17:10:12.645Z</time>
      </trkpt>
      <trkpt lat="45.48108" lon="5.92065">
        <ele>1033</ele>
        <time>2022-08-10T17:10:13.646Z</time>
      </trkpt>
      <trkpt lat="45.48107" lon="5.92067">
        <ele>1033</ele>
        <time>2022-08-10T17:10:14.646Z</time>
      </trkpt>
      <trkpt lat="45.48105" lon="5.92069">
        <ele>1033</ele>
        <time>2022-08-10T17:10:15.646Z</time>
      </trkpt>
      <trkpt lat="45.48104" lon="5.92072">
        <ele>1033</ele>
        <time>2022-08-10T17:10:16.646Z</time>
      </trkpt>
      <trkpt lat="45.48102" lon="5.92077">
        <ele>1032</ele>
        <time>2022-08-10T17:10:17.646Z</time>
      </trkpt>
      <trkpt lat="45.48101" lon="5.92083">
        <ele>1032</ele>
        <time>2022-08-10T17:10:18.646Z</time>
      </trkpt>
      <trkpt lat="45.48099" lon="5.92088">
        <ele>1031</ele>
        <time>2022-08-10T17:10:19.645Z</time>
      </trkpt>
      <trkpt lat="45.48098" lon="5.92093">
        <ele>1031</ele>
        <time>2022-08-10T17:10:20.646Z</time>
      </trkpt>
      <trkpt lat="45.48098" lon="5.92097">
        <ele>1030</ele>
        <time>2022-08-10T17:10:21.646Z</time>
      </trkpt>
      <trkpt lat="45.48098" lon="5.921">
        <ele>1030</ele>
        <time>2022-08-10T17:10:22.646Z</time>
      </trkpt>
      <trkpt lat="45.48099" lon="5.92104">
        <ele>1030</ele>
        <time>2022-08-10T17:10:23.646Z</time>
      </trkpt>
      <trkpt lat="45.481" lon="5.92108">
        <ele>1029</ele>
        <time>2022-08-10T17:10:24.646Z</time>
      </trkpt>
      <trkpt lat="45.481" lon="5.9211">
        <ele>1029</ele>
        <time>2022-08-10T17:10:25.646Z</time>
      </trkpt>
      <trkpt lat="45.481" lon="5.92113">
        <ele>1029</ele>
        <time>2022-08-10T17:10:26.646Z</time>
      </trkpt>
      <trkpt lat="45.481" lon="5.92116">
        <ele>1028</ele>
        <time>2022-08-10T17:10:27.646Z</time>
      </trkpt>
      <trkpt lat="45.48099" lon="5.92119">
        <ele>1028</ele>
        <time>2022-08-10T17:10:28.646Z</time>
      </trkpt>
      <trkpt lat="45.48099" lon="5.92122">
        <ele>1028</ele>
        <time>2022-08-10T17:10:29.645Z</time>
      </trkpt>
      <trkpt lat="45.48099" lon="5.92125">
        <ele>1027</ele>
        <time>2022-08-10T17:10:30.646Z</time>
      </trkpt>
      <trkpt lat="45.481" lon="5.92127">
        <ele>1027</ele>
        <time>2022-08-10T17:10:31.646Z</time>
      </trkpt>
      <trkpt lat="45.48101" lon="5.92131">
        <ele>1026</ele>
        <time>2022-08-10T17:10:32.646Z</time>
      </trkpt>
      <trkpt lat="45.48102" lon="5.92135">
        <ele>1026</ele>
        <time>2022-08-10T17:10:33.646Z</time>
      </trkpt>
      <trkpt lat="45.48102" lon="5.92138">
        <ele>1025</ele>
        <time>2022-08-10T17:10:34.646Z</time>
      </trkpt>
      <trkpt lat="45.48101" lon="5.92142">
        <ele>1025</ele>
        <time>2022-08-10T17:10:35.645Z</time>
      </trkpt>
      <trkpt lat="45.48102" lon="5.92145">
        <ele>1025</ele>
        <time>2022-08-10T17:10:36.646Z</time>
      </trkpt>
      <trkpt lat="45.48103" lon="5.92149">
        <ele>1024</ele>
        <time>2022-08-10T17:10:37.646Z</time>
      </trkpt>
      <trkpt lat="45.48104" lon="5.92153">
        <ele>1024</ele>
        <time>2022-08-10T17:10:38.646Z</time>
      </trkpt>
      <trkpt lat="45.48105" lon="5.92158">
        <ele>1023</ele>
        <time>2022-08-10T17:10:39.646Z</time>
      </trkpt>
      <trkpt lat="45.48107" lon="5.92162">
        <ele>1022</ele>
        <time>2022-08-10T17:10:40.645Z</time>
      </trkpt>
      <trkpt lat="45.48108" lon="5.92165">
        <ele>1022</ele>
        <time>2022-08-10T17:10:41.645Z</time>
      </trkpt>
      <trkpt lat="45.4811" lon="5.92169">
        <ele>1022</ele>
        <time>2022-08-10T17:10:42.646Z</time>
      </trkpt>
      <trkpt lat="45.48112" lon="5.92172">
        <ele>1021</ele>
        <time>2022-08-10T17:10:43.646Z</time>
      </trkpt>
      <trkpt lat="45.48114" lon="5.92176">
        <ele>1021</ele>
        <time>2022-08-10T17:10:44.646Z</time>
      </trkpt>
      <trkpt lat="45.48115" lon="5.92177">
        <ele>1021</ele>
        <time>2022-08-10T17:10:45.645Z</time>
      </trkpt>
      <trkpt lat="45.48117" lon="5.92178">
        <ele>1020</ele>
        <time>2022-08-10T17:10:46.646Z</time>
      </trkpt>
      <trkpt lat="45.48119" lon="5.92179">
        <ele>1020</ele>
        <time>2022-08-10T17:10:47.646Z</time>
      </trkpt>
      <trkpt lat="45.48121" lon="5.92181">
        <ele>1020</ele>
        <time>2022-08-10T17:10:48.645Z</time>
      </trkpt>
      <trkpt lat="45.48121" lon="5.92183">
        <ele>1019</ele>
        <time>2022-08-10T17:10:49.646Z</time>
      </trkpt>
      <trkpt lat="45.48121" lon="5.92188">
        <ele>1019</ele>
        <time>2022-08-10T17:10:50.646Z</time>
      </trkpt>
      <trkpt lat="45.48121" lon="5.92193">
        <ele>1019</ele>
        <time>2022-08-10T17:10:51.646Z</time>
      </trkpt>
      <trkpt lat="45.48123" lon="5.92197">
        <ele>1018</ele>
        <time>2022-08-10T17:10:52.646Z</time>
      </trkpt>
      <trkpt lat="45.48125" lon="5.92201">
        <ele>1018</ele>
        <time>2022-08-10T17:10:53.646Z</time>
      </trkpt>
      <trkpt lat="45.48126" lon="5.92206">
        <ele>1017</ele>
        <time>2022-08-10T17:10:54.646Z</time>
      </trkpt>
      <trkpt lat="45.48128" lon="5.9221">
        <ele>1017</ele>
        <time>2022-08-10T17:10:55.645Z</time>
      </trkpt>
      <trkpt lat="45.48129" lon="5.92215">
        <ele>1016</ele>
        <time>2022-08-10T17:10:56.645Z</time>
      </trkpt>
      <trkpt lat="45.4813" lon="5.92219">
        <ele>1016</ele>
        <time>2022-08-10T17:10:57.646Z</time>
      </trkpt>
      <trkpt lat="45.48133" lon="5.92222">
        <ele>1015</ele>
        <time>2022-08-10T17:10:58.646Z</time>
      </trkpt>
      <trkpt lat="45.48135" lon="5.92225">
        <ele>1015</ele>
        <time>2022-08-10T17:10:59.646Z</time>
      </trkpt>
      <trkpt lat="45.48137" lon="5.92229">
        <ele>1015</ele>
        <time>2022-08-10T17:11:00.646Z</time>
      </trkpt>
      <trkpt lat="45.48139" lon="5.92233">
        <ele>1015</ele>
        <time>2022-08-10T17:11:01.645Z</time>
      </trkpt>
      <trkpt lat="45.4814" lon="5.92237">
        <ele>1014</ele>
        <time>2022-08-10T17:11:02.646Z</time>
      </trkpt>
      <trkpt lat="45.48141" lon="5.92241">
        <ele>1014</ele>
        <time>2022-08-10T17:11:03.646Z</time>
      </trkpt>
      <trkpt lat="45.48141" lon="5.92245">
        <ele>1014</ele>
        <time>2022-08-10T17:11:04.646Z</time>
      </trkpt>
      <trkpt lat="45.48141" lon="5.92249">
        <ele>1013</ele>
        <time>2022-08-10T17:11:05.645Z</time>
      </trkpt>
      <trkpt lat="45.48142" lon="5.92254">
        <ele>1013</ele>
        <time>2022-08-10T17:11:06.646Z</time>
      </trkpt>
      <trkpt lat="45.48144" lon="5.92258">
        <ele>1013</ele>
        <time>2022-08-10T17:11:07.646Z</time>
      </trkpt>
      <trkpt lat="45.48146" lon="5.92264">
        <ele>1012</ele>
        <time>2022-08-10T17:11:08.646Z</time>
      </trkpt>
      <trkpt lat="45.48149" lon="5.9227">
        <ele>1012</ele>
        <time>2022-08-10T17:11:09.646Z</time>
      </trkpt>
      <trkpt lat="45.48152" lon="5.92275">
        <ele>1012</ele>
        <time>2022-08-10T17:11:10.646Z</time>
      </trkpt>
      <trkpt lat="45.48154" lon="5.92279">
        <ele>1011</ele>
        <time>2022-08-10T17:11:11.646Z</time>
      </trkpt>
      <trkpt lat="45.48156" lon="5.92283">
        <ele>1011</ele>
        <time>2022-08-10T17:11:12.645Z</time>
      </trkpt>
      <trkpt lat="45.48158" lon="5.92288">
        <ele>1010</ele>
        <time>2022-08-10T17:11:13.645Z</time>
      </trkpt>
      <trkpt lat="45.48159" lon="5.92292">
        <ele>1010</ele>
        <time>2022-08-10T17:11:14.646Z</time>
      </trkpt>
      <trkpt lat="45.48161" lon="5.92297">
        <ele>1009</ele>
        <time>2022-08-10T17:11:15.645Z</time>
      </trkpt>
      <trkpt lat="45.48162" lon="5.92302">
        <ele>1009</ele>
        <time>2022-08-10T17:11:16.646Z</time>
      </trkpt>
      <trkpt lat="45.48163" lon="5.92307">
        <ele>1009</ele>
        <time>2022-08-10T17:11:17.645Z</time>
      </trkpt>
      <trkpt lat="45.48164" lon="5.92312">
        <ele>1008</ele>
        <time>2022-08-10T17:11:18.646Z</time>
      </trkpt>
      <trkpt lat="45.48166" lon="5.92318">
        <ele>1008</ele>
        <time>2022-08-10T17:11:19.646Z</time>
      </trkpt>
      <trkpt lat="45.48167" lon="5.92324">
        <ele>1007</ele>
        <time>2022-08-10T17:11:20.645Z</time>
      </trkpt>
      <trkpt lat="45.48168" lon="5.9233">
        <ele>1007</ele>
        <time>2022-08-10T17:11:21.646Z</time>
      </trkpt>
      <trkpt lat="45.48169" lon="5.92335">
        <ele>1007</ele>
        <time>2022-08-10T17:11:22.646Z</time>
      </trkpt>
      <trkpt lat="45.48169" lon="5.92339">
        <ele>1006</ele>
        <time>2022-08-10T17:11:23.646Z</time>
      </trkpt>
      <trkpt lat="45.48169" lon="5.92343">
        <ele>1006</ele>
        <time>2022-08-10T17:11:24.646Z</time>
      </trkpt>
      <trkpt lat="45.48169" lon="5.92347">
        <ele>1005</ele>
        <time>2022-08-10T17:11:25.646Z</time>
      </trkpt>
      <trkpt lat="45.48169" lon="5.9235">
        <ele>1004</ele>
        <time>2022-08-10T17:11:26.646Z</time>
      </trkpt>
      <trkpt lat="45.48168" lon="5.92352">
        <ele>1004</ele>
        <time>2022-08-10T17:11:27.645Z</time>
      </trkpt>
      <trkpt lat="45.48167" lon="5.92354">
        <ele>1003</ele>
        <time>2022-08-10T17:11:28.646Z</time>
      </trkpt>
      <trkpt lat="45.48167" lon="5.92355">
        <ele>1003</ele>
        <time>2022-08-10T17:11:29.646Z</time>
      </trkpt>
      <trkpt lat="45.48168" lon="5.92357">
        <ele>1002</ele>
        <time>2022-08-10T17:11:30.645Z</time>
      </trkpt>
      <trkpt lat="45.48168" lon="5.92359">
        <ele>999</ele>
        <time>2022-08-10T17:11:35.645Z</time>
      </trkpt>
      <trkpt lat="45.48167" lon="5.92359">
        <ele>999</ele>
        <time>2022-08-10T17:11:36.645Z</time>
      </trkpt>
      <trkpt lat="45.48167" lon="5.9236">
        <ele>998</ele>
        <time>2022-08-10T17:11:37.644Z</time>
      </trkpt>
      <trkpt lat="45.48167" lon="5.92361">
        <ele>998</ele>
        <time>2022-08-10T17:11:39.645Z</time>
      </trkpt>
      <trkpt lat="45.48168" lon="5.92363">
        <ele>995</ele>
        <time>2022-08-10T17:11:44.664Z</time>
      </trkpt>
      <trkpt lat="45.48161" lon="5.92373">
        <ele>986</ele>
        <time>2022-08-10T17:12:37.550Z</time>
      </trkpt>
      <trkpt lat="45.48159" lon="5.92375">
        <ele>986</ele>
        <time>2022-08-10T17:12:38.550Z</time>
      </trkpt>
      <trkpt lat="45.48156" lon="5.92378">
        <ele>986</ele>
        <time>2022-08-10T17:12:39.549Z</time>
      </trkpt>
      <trkpt lat="45.48154" lon="5.92382">
        <ele>986</ele>
        <time>2022-08-10T17:12:40.550Z</time>
      </trkpt>
      <trkpt lat="45.48153" lon="5.92387">
        <ele>985</ele>
        <time>2022-08-10T17:12:41.550Z</time>
      </trkpt>
      <trkpt lat="45.48152" lon="5.92392">
        <ele>985</ele>
        <time>2022-08-10T17:12:42.550Z</time>
      </trkpt>
      <trkpt lat="45.48152" lon="5.92396">
        <ele>984</ele>
        <time>2022-08-10T17:12:43.550Z</time>
      </trkpt>
      <trkpt lat="45.48153" lon="5.924">
        <ele>984</ele>
        <time>2022-08-10T17:12:44.550Z</time>
      </trkpt>
      <trkpt lat="45.48154" lon="5.92401">
        <ele>984</ele>
        <time>2022-08-10T17:12:45.550Z</time>
      </trkpt>
      <trkpt lat="45.48157" lon="5.92403">
        <ele>983</ele>
        <time>2022-08-10T17:12:46.550Z</time>
      </trkpt>
      <trkpt lat="45.48159" lon="5.92405">
        <ele>983</ele>
        <time>2022-08-10T17:12:47.550Z</time>
      </trkpt>
      <trkpt lat="45.48162" lon="5.92408">
        <ele>983</ele>
        <time>2022-08-10T17:12:48.550Z</time>
      </trkpt>
      <trkpt lat="45.48163" lon="5.92412">
        <ele>982</ele>
        <time>2022-08-10T17:12:49.549Z</time>
      </trkpt>
      <trkpt lat="45.48164" lon="5.92416">
        <ele>982</ele>
        <time>2022-08-10T17:12:50.549Z</time>
      </trkpt>
      <trkpt lat="45.48163" lon="5.92421">
        <ele>981</ele>
        <time>2022-08-10T17:12:51.549Z</time>
      </trkpt>
      <trkpt lat="45.48162" lon="5.92424">
        <ele>980</ele>
        <time>2022-08-10T17:12:52.549Z</time>
      </trkpt>
      <trkpt lat="45.48161" lon="5.92427">
        <ele>979</ele>
        <time>2022-08-10T17:12:53.549Z</time>
      </trkpt>
      <trkpt lat="45.48161" lon="5.9243">
        <ele>978</ele>
        <time>2022-08-10T17:12:54.550Z</time>
      </trkpt>
      <trkpt lat="45.48162" lon="5.92432">
        <ele>977</ele>
        <time>2022-08-10T17:12:55.549Z</time>
      </trkpt>
      <trkpt lat="45.48164" lon="5.92434">
        <ele>976</ele>
        <time>2022-08-10T17:12:56.549Z</time>
      </trkpt>
      <trkpt lat="45.48166" lon="5.92435">
        <ele>976</ele>
        <time>2022-08-10T17:12:57.550Z</time>
      </trkpt>
      <trkpt lat="45.48168" lon="5.92437">
        <ele>975</ele>
        <time>2022-08-10T17:12:58.550Z</time>
      </trkpt>
      <trkpt lat="45.48168" lon="5.92439">
        <ele>974</ele>
        <time>2022-08-10T17:12:59.550Z</time>
      </trkpt>
      <trkpt lat="45.48169" lon="5.9244">
        <ele>973</ele>
        <time>2022-08-10T17:13:00.550Z</time>
      </trkpt>
      <trkpt lat="45.48169" lon="5.92443">
        <ele>972</ele>
        <time>2022-08-10T17:13:01.550Z</time>
      </trkpt>
      <trkpt lat="45.48169" lon="5.92446">
        <ele>971</ele>
        <time>2022-08-10T17:13:02.550Z</time>
      </trkpt>
      <trkpt lat="45.4817" lon="5.92449">
        <ele>970</ele>
        <time>2022-08-10T17:13:03.550Z</time>
      </trkpt>
      <trkpt lat="45.4817" lon="5.92451">
        <ele>970</ele>
        <time>2022-08-10T17:13:04.550Z</time>
      </trkpt>
      <trkpt lat="45.48171" lon="5.92453">
        <ele>969</ele>
        <time>2022-08-10T17:13:05.550Z</time>
      </trkpt>
      <trkpt lat="45.48171" lon="5.92455">
        <ele>968</ele>
        <time>2022-08-10T17:13:06.550Z</time>
      </trkpt>
      <trkpt lat="45.48171" lon="5.92458">
        <ele>968</ele>
        <time>2022-08-10T17:13:07.550Z</time>
      </trkpt>
      <trkpt lat="45.48171" lon="5.92462">
        <ele>967</ele>
        <time>2022-08-10T17:13:08.550Z</time>
      </trkpt>
      <trkpt lat="45.48172" lon="5.92466">
        <ele>966</ele>
        <time>2022-08-10T17:13:09.549Z</time>
      </trkpt>
      <trkpt lat="45.48173" lon="5.9247">
        <ele>965</ele>
        <time>2022-08-10T17:13:10.550Z</time>
      </trkpt>
      <trkpt lat="45.48173" lon="5.92472">
        <ele>965</ele>
        <time>2022-08-10T17:13:11.550Z</time>
      </trkpt>
      <trkpt lat="45.48171" lon="5.92474">
        <ele>964</ele>
        <time>2022-08-10T17:13:12.550Z</time>
      </trkpt>
      <trkpt lat="45.48169" lon="5.92475">
        <ele>963</ele>
        <time>2022-08-10T17:13:13.550Z</time>
      </trkpt>
      <trkpt lat="45.48166" lon="5.92475">
        <ele>962</ele>
        <time>2022-08-10T17:13:14.549Z</time>
      </trkpt>
      <trkpt lat="45.48163" lon="5.92475">
        <ele>961</ele>
        <time>2022-08-10T17:13:15.550Z</time>
      </trkpt>
      <trkpt lat="45.48161" lon="5.92475">
        <ele>960</ele>
        <time>2022-08-10T17:13:16.549Z</time>
      </trkpt>
      <trkpt lat="45.4816" lon="5.92476">
        <ele>960</ele>
        <time>2022-08-10T17:13:17.549Z</time>
      </trkpt>
      <trkpt lat="45.48158" lon="5.92476">
        <ele>959</ele>
        <time>2022-08-10T17:13:18.549Z</time>
      </trkpt>
      <trkpt lat="45.48157" lon="5.92477">
        <ele>958</ele>
        <time>2022-08-10T17:13:19.550Z</time>
      </trkpt>
      <trkpt lat="45.48156" lon="5.92479">
        <ele>957</ele>
        <time>2022-08-10T17:13:20.550Z</time>
      </trkpt>
      <trkpt lat="45.48155" lon="5.92481">
        <ele>957</ele>
        <time>2022-08-10T17:13:21.550Z</time>
      </trkpt>
      <trkpt lat="45.48154" lon="5.92483">
        <ele>956</ele>
        <time>2022-08-10T17:13:22.550Z</time>
      </trkpt>
      <trkpt lat="45.48153" lon="5.92484">
        <ele>955</ele>
        <time>2022-08-10T17:13:23.550Z</time>
      </trkpt>
      <trkpt lat="45.48152" lon="5.92484">
        <ele>953</ele>
        <time>2022-08-10T17:13:25.549Z</time>
      </trkpt>
      <trkpt lat="45.48152" lon="5.92485">
        <ele>952</ele>
        <time>2022-08-10T17:13:26.550Z</time>
      </trkpt>
      <trkpt lat="45.48152" lon="5.92486">
        <ele>952</ele>
        <time>2022-08-10T17:13:27.550Z</time>
      </trkpt>
      <trkpt lat="45.48152" lon="5.92487">
        <ele>950</ele>
        <time>2022-08-10T17:13:29.549Z</time>
      </trkpt>
      <trkpt lat="45.48153" lon="5.92493">
        <ele>940</ele>
        <time>2022-08-10T17:13:39.690Z</time>
      </trkpt>
      <trkpt lat="45.48153" lon="5.92494">
        <ele>939</ele>
        <time>2022-08-10T17:13:40.691Z</time>
      </trkpt>
      <trkpt lat="45.48153" lon="5.92496">
        <ele>939</ele>
        <time>2022-08-10T17:13:41.691Z</time>
      </trkpt>
      <trkpt lat="45.48153" lon="5.92502">
        <ele>938</ele>
        <time>2022-08-10T17:13:49.821Z</time>
      </trkpt>
      <trkpt lat="45.48154" lon="5.92502">
        <ele>938</ele>
        <time>2022-08-10T17:13:50.820Z</time>
      </trkpt>
      <trkpt lat="45.48154" lon="5.92503">
        <ele>939</ele>
        <time>2022-08-10T17:13:52.821Z</time>
      </trkpt>
      <trkpt lat="45.48153" lon="5.92504">
        <ele>939</ele>
        <time>2022-08-10T17:13:54.820Z</time>
      </trkpt>
      <trkpt lat="45.48152" lon="5.92505">
        <ele>940</ele>
        <time>2022-08-10T17:13:57.820Z</time>
      </trkpt>
      <trkpt lat="45.48152" lon="5.92506">
        <ele>941</ele>
        <time>2022-08-10T17:13:59.820Z</time>
      </trkpt>
      <trkpt lat="45.48149" lon="5.92513">
        <ele>945</ele>
        <time>2022-08-10T17:14:05.920Z</time>
      </trkpt>
      <trkpt lat="45.48149" lon="5.92515">
        <ele>944</ele>
        <time>2022-08-10T17:14:06.921Z</time>
      </trkpt>
      <trkpt lat="45.48149" lon="5.92518">
        <ele>944</ele>
        <time>2022-08-10T17:14:07.920Z</time>
      </trkpt>
      <trkpt lat="45.48149" lon="5.9252">
        <ele>944</ele>
        <time>2022-08-10T17:14:08.920Z</time>
      </trkpt>
      <trkpt lat="45.48148" lon="5.92522">
        <ele>943</ele>
        <time>2022-08-10T17:14:09.920Z</time>
      </trkpt>
      <trkpt lat="45.48148" lon="5.92525">
        <ele>943</ele>
        <time>2022-08-10T17:14:10.921Z</time>
      </trkpt>
      <trkpt lat="45.48148" lon="5.92527">
        <ele>942</ele>
        <time>2022-08-10T17:14:11.920Z</time>
      </trkpt>
      <trkpt lat="45.48148" lon="5.92529">
        <ele>942</ele>
        <time>2022-08-10T17:14:12.920Z</time>
      </trkpt>
      <trkpt lat="45.48148" lon="5.92531">
        <ele>941</ele>
        <time>2022-08-10T17:14:13.920Z</time>
      </trkpt>
      <trkpt lat="45.48148" lon="5.92532">
        <ele>941</ele>
        <time>2022-08-10T17:14:14.921Z</time>
      </trkpt>
      <trkpt lat="45.48147" lon="5.92533">
        <ele>941</ele>
        <time>2022-08-10T17:14:15.920Z</time>
      </trkpt>
      <trkpt lat="45.48144" lon="5.92542">
        <ele>932</ele>
        <time>2022-08-10T17:14:28.070Z</time>
      </trkpt>
      <trkpt lat="45.48144" lon="5.92544">
        <ele>931</ele>
        <time>2022-08-10T17:14:29.070Z</time>
      </trkpt>
      <trkpt lat="45.48144" lon="5.92545">
        <ele>931</ele>
        <time>2022-08-10T17:14:30.070Z</time>
      </trkpt>
      <trkpt lat="45.48144" lon="5.92547">
        <ele>931</ele>
        <time>2022-08-10T17:14:31.071Z</time>
      </trkpt>
      <trkpt lat="45.48144" lon="5.92549">
        <ele>930</ele>
        <time>2022-08-10T17:14:32.071Z</time>
      </trkpt>
      <trkpt lat="45.48144" lon="5.92551">
        <ele>930</ele>
        <time>2022-08-10T17:14:33.071Z</time>
      </trkpt>
      <trkpt lat="45.48144" lon="5.92554">
        <ele>929</ele>
        <time>2022-08-10T17:14:34.071Z</time>
      </trkpt>
      <trkpt lat="45.48144" lon="5.92557">
        <ele>929</ele>
        <time>2022-08-10T17:14:35.071Z</time>
      </trkpt>
      <trkpt lat="45.48144" lon="5.9256">
        <ele>929</ele>
        <time>2022-08-10T17:14:36.070Z</time>
      </trkpt>
      <trkpt lat="45.48145" lon="5.92563">
        <ele>928</ele>
        <time>2022-08-10T17:14:37.071Z</time>
      </trkpt>
      <trkpt lat="45.48146" lon="5.92566">
        <ele>928</ele>
        <time>2022-08-10T17:14:38.071Z</time>
      </trkpt>
      <trkpt lat="45.48148" lon="5.92569">
        <ele>927</ele>
        <time>2022-08-10T17:14:39.071Z</time>
      </trkpt>
      <trkpt lat="45.48149" lon="5.92572">
        <ele>927</ele>
        <time>2022-08-10T17:14:40.070Z</time>
      </trkpt>
      <trkpt lat="45.48151" lon="5.92575">
        <ele>927</ele>
        <time>2022-08-10T17:14:41.071Z</time>
      </trkpt>
      <trkpt lat="45.48153" lon="5.92577">
        <ele>926</ele>
        <time>2022-08-10T17:14:42.070Z</time>
      </trkpt>
      <trkpt lat="45.48156" lon="5.92581">
        <ele>926</ele>
        <time>2022-08-10T17:14:43.071Z</time>
      </trkpt>
      <trkpt lat="45.48158" lon="5.92586">
        <ele>925</ele>
        <time>2022-08-10T17:14:44.071Z</time>
      </trkpt>
      <trkpt lat="45.4816" lon="5.92591">
        <ele>925</ele>
        <time>2022-08-10T17:14:45.071Z</time>
      </trkpt>
      <trkpt lat="45.48163" lon="5.92596">
        <ele>925</ele>
        <time>2022-08-10T17:14:46.071Z</time>
      </trkpt>
      <trkpt lat="45.48165" lon="5.92603">
        <ele>924</ele>
        <time>2022-08-10T17:14:47.071Z</time>
      </trkpt>
      <trkpt lat="45.48166" lon="5.92609">
        <ele>924</ele>
        <time>2022-08-10T17:14:48.071Z</time>
      </trkpt>
      <trkpt lat="45.48168" lon="5.92613">
        <ele>923</ele>
        <time>2022-08-10T17:14:49.071Z</time>
      </trkpt>
      <trkpt lat="45.48171" lon="5.92614">
        <ele>923</ele>
        <time>2022-08-10T17:14:50.071Z</time>
      </trkpt>
      <trkpt lat="45.48174" lon="5.92616">
        <ele>922</ele>
        <time>2022-08-10T17:14:51.071Z</time>
      </trkpt>
      <trkpt lat="45.48177" lon="5.9262">
        <ele>922</ele>
        <time>2022-08-10T17:14:52.071Z</time>
      </trkpt>
      <trkpt lat="45.4818" lon="5.92623">
        <ele>921</ele>
        <time>2022-08-10T17:14:53.071Z</time>
      </trkpt>
      <trkpt lat="45.48181" lon="5.92626">
        <ele>921</ele>
        <time>2022-08-10T17:14:54.071Z</time>
      </trkpt>
      <trkpt lat="45.48183" lon="5.92628">
        <ele>920</ele>
        <time>2022-08-10T17:14:55.071Z</time>
      </trkpt>
      <trkpt lat="45.48185" lon="5.9263">
        <ele>920</ele>
        <time>2022-08-10T17:14:56.071Z</time>
      </trkpt>
      <trkpt lat="45.48186" lon="5.92631">
        <ele>919</ele>
        <time>2022-08-10T17:14:57.070Z</time>
      </trkpt>
      <trkpt lat="45.48187" lon="5.92632">
        <ele>919</ele>
        <time>2022-08-10T17:14:58.071Z</time>
      </trkpt>
      <trkpt lat="45.48188" lon="5.92633">
        <ele>918</ele>
        <time>2022-08-10T17:14:59.071Z</time>
      </trkpt>
      <trkpt lat="45.4819" lon="5.92633">
        <ele>918</ele>
        <time>2022-08-10T17:15:00.071Z</time>
      </trkpt>
      <trkpt lat="45.48192" lon="5.92632">
        <ele>917</ele>
        <time>2022-08-10T17:15:01.071Z</time>
      </trkpt>
      <trkpt lat="45.48193" lon="5.92633">
        <ele>917</ele>
        <time>2022-08-10T17:15:02.071Z</time>
      </trkpt>
      <trkpt lat="45.48194" lon="5.92633">
        <ele>917</ele>
        <time>2022-08-10T17:15:03.071Z</time>
      </trkpt>
      <trkpt lat="45.48197" lon="5.92631">
        <ele>917</ele>
        <time>2022-08-10T17:15:04.071Z</time>
      </trkpt>
      <trkpt lat="45.48199" lon="5.9263">
        <ele>916</ele>
        <time>2022-08-10T17:15:05.071Z</time>
      </trkpt>
      <trkpt lat="45.48201" lon="5.9263">
        <ele>916</ele>
        <time>2022-08-10T17:15:06.071Z</time>
      </trkpt>
      <trkpt lat="45.48204" lon="5.92631">
        <ele>916</ele>
        <time>2022-08-10T17:15:07.071Z</time>
      </trkpt>
      <trkpt lat="45.48208" lon="5.92632">
        <ele>915</ele>
        <time>2022-08-10T17:15:08.071Z</time>
      </trkpt>
      <trkpt lat="45.48211" lon="5.92634">
        <ele>915</ele>
        <time>2022-08-10T17:15:09.070Z</time>
      </trkpt>
      <trkpt lat="45.48213" lon="5.92637">
        <ele>915</ele>
        <time>2022-08-10T17:15:10.071Z</time>
      </trkpt>
      <trkpt lat="45.48215" lon="5.9264">
        <ele>914</ele>
        <time>2022-08-10T17:15:11.070Z</time>
      </trkpt>
      <trkpt lat="45.48215" lon="5.92642">
        <ele>914</ele>
        <time>2022-08-10T17:15:12.071Z</time>
      </trkpt>
      <trkpt lat="45.48215" lon="5.92644">
        <ele>914</ele>
        <time>2022-08-10T17:15:13.071Z</time>
      </trkpt>
      <trkpt lat="45.48215" lon="5.92645">
        <ele>913</ele>
        <time>2022-08-10T17:15:14.071Z</time>
      </trkpt>
      <trkpt lat="45.48215" lon="5.92646">
        <ele>913</ele>
        <time>2022-08-10T17:15:15.071Z</time>
      </trkpt>
      <trkpt lat="45.48213" lon="5.92652">
        <ele>913</ele>
        <time>2022-08-10T17:15:27.193Z</time>
      </trkpt>
      <trkpt lat="45.48213" lon="5.92653">
        <ele>912</ele>
        <time>2022-08-10T17:15:28.193Z</time>
      </trkpt>
      <trkpt lat="45.48213" lon="5.92654">
        <ele>912</ele>
        <time>2022-08-10T17:15:29.192Z</time>
      </trkpt>
      <trkpt lat="45.48213" lon="5.92655">
        <ele>910</ele>
        <time>2022-08-10T17:15:31.193Z</time>
      </trkpt>
      <trkpt lat="45.48212" lon="5.92655">
        <ele>910</ele>
        <time>2022-08-10T17:15:32.193Z</time>
      </trkpt>
      <trkpt lat="45.48211" lon="5.92658">
        <ele>903</ele>
        <time>2022-08-10T17:15:39.279Z</time>
      </trkpt>
      <trkpt lat="45.48211" lon="5.92659">
        <ele>901</ele>
        <time>2022-08-10T17:15:43.138Z</time>
      </trkpt>
      <trkpt lat="45.48211" lon="5.9266">
        <ele>900</ele>
        <time>2022-08-10T17:15:45.137Z</time>
      </trkpt>
      <trkpt lat="45.48204" lon="5.92667">
        <ele>893</ele>
        <time>2022-08-10T17:16:26.275Z</time>
      </trkpt>
      <trkpt lat="45.48201" lon="5.92668">
        <ele>893</ele>
        <time>2022-08-10T17:16:27.275Z</time>
      </trkpt>
      <trkpt lat="45.48198" lon="5.92669">
        <ele>893</ele>
        <time>2022-08-10T17:16:28.275Z</time>
      </trkpt>
      <trkpt lat="45.48196" lon="5.92669">
        <ele>893</ele>
        <time>2022-08-10T17:16:29.276Z</time>
      </trkpt>
      <trkpt lat="45.48194" lon="5.9267">
        <ele>893</ele>
        <time>2022-08-10T17:16:30.275Z</time>
      </trkpt>
      <trkpt lat="45.48193" lon="5.9267">
        <ele>893</ele>
        <time>2022-08-10T17:16:31.276Z</time>
      </trkpt>
      <trkpt lat="45.48191" lon="5.9267">
        <ele>893</ele>
        <time>2022-08-10T17:16:32.276Z</time>
      </trkpt>
      <trkpt lat="45.4819" lon="5.9267">
        <ele>893</ele>
        <time>2022-08-10T17:16:33.276Z</time>
      </trkpt>
      <trkpt lat="45.48189" lon="5.9267">
        <ele>893</ele>
        <time>2022-08-10T17:16:34.275Z</time>
      </trkpt>
      <trkpt lat="45.48184" lon="5.92677">
        <ele>901</ele>
        <time>2022-08-10T17:17:16.425Z</time>
      </trkpt>
      <trkpt lat="45.48184" lon="5.92679">
        <ele>901</ele>
        <time>2022-08-10T17:17:17.425Z</time>
      </trkpt>
      <trkpt lat="45.48184" lon="5.92681">
        <ele>901</ele>
        <time>2022-08-10T17:17:18.424Z</time>
      </trkpt>
      <trkpt lat="45.48184" lon="5.92683">
        <ele>901</ele>
        <time>2022-08-10T17:17:19.425Z</time>
      </trkpt>
      <trkpt lat="45.48184" lon="5.92684">
        <ele>901</ele>
        <time>2022-08-10T17:17:20.424Z</time>
      </trkpt>
      <trkpt lat="45.48184" lon="5.92685">
        <ele>901</ele>
        <time>2022-08-10T17:17:21.424Z</time>
      </trkpt>
      <trkpt lat="45.48185" lon="5.92702">
        <ele>896</ele>
        <time>2022-08-10T17:18:11.573Z</time>
      </trkpt>
      <trkpt lat="45.48183" lon="5.92707">
        <ele>896</ele>
        <time>2022-08-10T17:18:12.573Z</time>
      </trkpt>
      <trkpt lat="45.48182" lon="5.92713">
        <ele>896</ele>
        <time>2022-08-10T17:18:13.573Z</time>
      </trkpt>
      <trkpt lat="45.48181" lon="5.92718">
        <ele>896</ele>
        <time>2022-08-10T17:18:14.573Z</time>
      </trkpt>
      <trkpt lat="45.48179" lon="5.92722">
        <ele>896</ele>
        <time>2022-08-10T17:18:15.573Z</time>
      </trkpt>
      <trkpt lat="45.48178" lon="5.92727">
        <ele>896</ele>
        <time>2022-08-10T17:18:16.573Z</time>
      </trkpt>
      <trkpt lat="45.48177" lon="5.92731">
        <ele>896</ele>
        <time>2022-08-10T17:18:17.573Z</time>
      </trkpt>
      <trkpt lat="45.48176" lon="5.92736">
        <ele>896</ele>
        <time>2022-08-10T17:18:18.573Z</time>
      </trkpt>
      <trkpt lat="45.48176" lon="5.92741">
        <ele>896</ele>
        <time>2022-08-10T17:18:19.573Z</time>
      </trkpt>
      <trkpt lat="45.48177" lon="5.92745">
        <ele>896</ele>
        <time>2022-08-10T17:18:20.573Z</time>
      </trkpt>
      <trkpt lat="45.4818" lon="5.92746">
        <ele>895</ele>
        <time>2022-08-10T17:18:21.573Z</time>
      </trkpt>
      <trkpt lat="45.48182" lon="5.92746">
        <ele>895</ele>
        <time>2022-08-10T17:18:22.573Z</time>
      </trkpt>
      <trkpt lat="45.48184" lon="5.92746">
        <ele>895</ele>
        <time>2022-08-10T17:18:23.573Z</time>
      </trkpt>
      <trkpt lat="45.48186" lon="5.92745">
        <ele>895</ele>
        <time>2022-08-10T17:18:24.573Z</time>
      </trkpt>
      <trkpt lat="45.48187" lon="5.92745">
        <ele>895</ele>
        <time>2022-08-10T17:18:25.573Z</time>
      </trkpt>
      <trkpt lat="45.4819" lon="5.92745">
        <ele>895</ele>
        <time>2022-08-10T17:18:26.573Z</time>
      </trkpt>
      <trkpt lat="45.48192" lon="5.92746">
        <ele>894</ele>
        <time>2022-08-10T17:18:27.573Z</time>
      </trkpt>
      <trkpt lat="45.48194" lon="5.92747">
        <ele>894</ele>
        <time>2022-08-10T17:18:28.573Z</time>
      </trkpt>
      <trkpt lat="45.48195" lon="5.92748">
        <ele>894</ele>
        <time>2022-08-10T17:18:29.573Z</time>
      </trkpt>
      <trkpt lat="45.48197" lon="5.92749">
        <ele>894</ele>
        <time>2022-08-10T17:18:30.573Z</time>
      </trkpt>
      <trkpt lat="45.48199" lon="5.92749">
        <ele>894</ele>
        <time>2022-08-10T17:18:31.573Z</time>
      </trkpt>
      <trkpt lat="45.48201" lon="5.9275">
        <ele>894</ele>
        <time>2022-08-10T17:18:32.573Z</time>
      </trkpt>
      <trkpt lat="45.48203" lon="5.92753">
        <ele>894</ele>
        <time>2022-08-10T17:18:33.573Z</time>
      </trkpt>
      <trkpt lat="45.48205" lon="5.92757">
        <ele>894</ele>
        <time>2022-08-10T17:18:34.573Z</time>
      </trkpt>
      <trkpt lat="45.48209" lon="5.92762">
        <ele>894</ele>
        <time>2022-08-10T17:18:35.573Z</time>
      </trkpt>
      <trkpt lat="45.48212" lon="5.92768">
        <ele>893</ele>
        <time>2022-08-10T17:18:36.573Z</time>
      </trkpt>
      <trkpt lat="45.48216" lon="5.92774">
        <ele>893</ele>
        <time>2022-08-10T17:18:37.573Z</time>
      </trkpt>
      <trkpt lat="45.48218" lon="5.92779">
        <ele>893</ele>
        <time>2022-08-10T17:18:38.573Z</time>
      </trkpt>
      <trkpt lat="45.4822" lon="5.92784">
        <ele>893</ele>
        <time>2022-08-10T17:18:39.573Z</time>
      </trkpt>
      <trkpt lat="45.48221" lon="5.9279">
        <ele>893</ele>
        <time>2022-08-10T17:18:40.573Z</time>
      </trkpt>
      <trkpt lat="45.48222" lon="5.92795">
        <ele>893</ele>
        <time>2022-08-10T17:18:41.573Z</time>
      </trkpt>
      <trkpt lat="45.48222" lon="5.928">
        <ele>893</ele>
        <time>2022-08-10T17:18:42.573Z</time>
      </trkpt>
      <trkpt lat="45.48223" lon="5.92805">
        <ele>893</ele>
        <time>2022-08-10T17:18:43.573Z</time>
      </trkpt>
      <trkpt lat="45.48222" lon="5.92809">
        <ele>893</ele>
        <time>2022-08-10T17:18:44.573Z</time>
      </trkpt>
      <trkpt lat="45.48222" lon="5.92813">
        <ele>893</ele>
        <time>2022-08-10T17:18:45.573Z</time>
      </trkpt>
      <trkpt lat="45.4822" lon="5.92815">
        <ele>893</ele>
        <time>2022-08-10T17:18:46.573Z</time>
      </trkpt>
      <trkpt lat="45.48219" lon="5.92817">
        <ele>893</ele>
        <time>2022-08-10T17:18:47.573Z</time>
      </trkpt>
      <trkpt lat="45.48218" lon="5.92818">
        <ele>893</ele>
        <time>2022-08-10T17:18:48.573Z</time>
      </trkpt>
      <trkpt lat="45.48217" lon="5.92819">
        <ele>893</ele>
        <time>2022-08-10T17:18:49.573Z</time>
      </trkpt>
      <trkpt lat="45.48219" lon="5.92829">
        <ele>891</ele>
        <time>2022-08-10T17:19:42.673Z</time>
      </trkpt>
      <trkpt lat="45.4822" lon="5.92832">
        <ele>891</ele>
        <time>2022-08-10T17:19:43.674Z</time>
      </trkpt>
      <trkpt lat="45.48221" lon="5.92834">
        <ele>891</ele>
        <time>2022-08-10T17:19:44.674Z</time>
      </trkpt>
      <trkpt lat="45.48221" lon="5.92836">
        <ele>891</ele>
        <time>2022-08-10T17:19:45.674Z</time>
      </trkpt>
      <trkpt lat="45.48222" lon="5.92838">
        <ele>890</ele>
        <time>2022-08-10T17:19:46.674Z</time>
      </trkpt>
      <trkpt lat="45.48221" lon="5.92838">
        <ele>890</ele>
        <time>2022-08-10T17:19:47.673Z</time>
      </trkpt>
      <trkpt lat="45.48221" lon="5.92839">
        <ele>890</ele>
        <time>2022-08-10T17:19:48.674Z</time>
      </trkpt>
      <trkpt lat="45.48223" lon="5.92843">
        <ele>887</ele>
        <time>2022-08-10T17:19:53.680Z</time>
      </trkpt>
      <trkpt lat="45.48218" lon="5.92846">
        <ele>878</ele>
        <time>2022-08-10T17:20:44.553Z</time>
      </trkpt>
      <trkpt lat="45.48217" lon="5.92845">
        <ele>878</ele>
        <time>2022-08-10T17:20:45.553Z</time>
      </trkpt>
      <trkpt lat="45.48216" lon="5.92846">
        <ele>878</ele>
        <time>2022-08-10T17:20:46.552Z</time>
      </trkpt>
      <trkpt lat="45.48215" lon="5.92848">
        <ele>878</ele>
        <time>2022-08-10T17:20:47.553Z</time>
      </trkpt>
      <trkpt lat="45.48215" lon="5.9285">
        <ele>878</ele>
        <time>2022-08-10T17:20:48.552Z</time>
      </trkpt>
      <trkpt lat="45.48215" lon="5.92851">
        <ele>878</ele>
        <time>2022-08-10T17:20:49.553Z</time>
      </trkpt>
      <trkpt lat="45.48212" lon="5.92852">
        <ele>875</ele>
        <time>2022-08-10T17:21:06.657Z</time>
      </trkpt>
      <trkpt lat="45.48212" lon="5.92853">
        <ele>876</ele>
        <time>2022-08-10T17:21:08.657Z</time>
      </trkpt>
      <trkpt lat="45.48209" lon="5.92858">
        <ele>876</ele>
        <time>2022-08-10T17:21:15.801Z</time>
      </trkpt>
      <trkpt lat="45.48209" lon="5.92856">
        <ele>876</ele>
        <time>2022-08-10T17:21:16.801Z</time>
      </trkpt>
      <trkpt lat="45.48209" lon="5.92855">
        <ele>876</ele>
        <time>2022-08-10T17:21:18.801Z</time>
      </trkpt>
      <trkpt lat="45.48214" lon="5.9286">
        <ele>866</ele>
        <time>2022-08-10T17:21:50.930Z</time>
      </trkpt>
      <trkpt lat="45.48214" lon="5.92861">
        <ele>866</ele>
        <time>2022-08-10T17:21:51.929Z</time>
      </trkpt>
      <trkpt lat="45.48214" lon="5.92863">
        <ele>866</ele>
        <time>2022-08-10T17:21:52.930Z</time>
      </trkpt>
      <trkpt lat="45.48213" lon="5.92865">
        <ele>867</ele>
        <time>2022-08-10T17:21:54.914Z</time>
      </trkpt>
      <trkpt lat="45.48213" lon="5.92866">
        <ele>867</ele>
        <time>2022-08-10T17:21:55.914Z</time>
      </trkpt>
      <trkpt lat="45.48212" lon="5.92867">
        <ele>867</ele>
        <time>2022-08-10T17:21:56.915Z</time>
      </trkpt>
      <trkpt lat="45.48211" lon="5.92868">
        <ele>867</ele>
        <time>2022-08-10T17:21:57.915Z</time>
      </trkpt>
      <trkpt lat="45.4821" lon="5.92869">
        <ele>868</ele>
        <time>2022-08-10T17:21:58.915Z</time>
      </trkpt>
      <trkpt lat="45.4821" lon="5.9287">
        <ele>869</ele>
        <time>2022-08-10T17:22:00.914Z</time>
      </trkpt>
      <trkpt lat="45.4821" lon="5.92871">
        <ele>869</ele>
        <time>2022-08-10T17:22:01.914Z</time>
      </trkpt>
      <trkpt lat="45.4821" lon="5.92872">
        <ele>869</ele>
        <time>2022-08-10T17:22:02.915Z</time>
      </trkpt>
      <trkpt lat="45.48209" lon="5.92872">
        <ele>870</ele>
        <time>2022-08-10T17:22:03.915Z</time>
      </trkpt>
      <trkpt lat="45.48208" lon="5.92872">
        <ele>871</ele>
        <time>2022-08-10T17:22:05.914Z</time>
      </trkpt>
      <trkpt lat="45.48207" lon="5.92871">
        <ele>871</ele>
        <time>2022-08-10T17:22:09.019Z</time>
      </trkpt>
      <trkpt lat="45.48206" lon="5.92871">
        <ele>872</ele>
        <time>2022-08-10T17:22:11.018Z</time>
      </trkpt>
      <trkpt lat="45.48206" lon="5.92872">
        <ele>873</ele>
        <time>2022-08-10T17:22:14.152Z</time>
      </trkpt>
      <trkpt lat="45.48206" lon="5.92873">
        <ele>873</ele>
        <time>2022-08-10T17:22:15.152Z</time>
      </trkpt>
      <trkpt lat="45.48206" lon="5.92874">
        <ele>874</ele>
        <time>2022-08-10T17:22:16.151Z</time>
      </trkpt>
      <trkpt lat="45.48206" lon="5.92875">
        <ele>875</ele>
        <time>2022-08-10T17:22:17.152Z</time>
      </trkpt>
      <trkpt lat="45.48206" lon="5.92877">
        <ele>876</ele>
        <time>2022-08-10T17:22:19.287Z</time>
      </trkpt>
      <trkpt lat="45.48205" lon="5.92878">
        <ele>877</ele>
        <time>2022-08-10T17:22:21.286Z</time>
      </trkpt>
      <trkpt lat="45.48205" lon="5.92879">
        <ele>877</ele>
        <time>2022-08-10T17:22:22.287Z</time>
      </trkpt>
      <trkpt lat="45.48205" lon="5.9288">
        <ele>878</ele>
        <time>2022-08-10T17:22:23.286Z</time>
      </trkpt>
      <trkpt lat="45.48204" lon="5.9288">
        <ele>878</ele>
        <time>2022-08-10T17:22:24.287Z</time>
      </trkpt>
      <trkpt lat="45.48203" lon="5.9288">
        <ele>879</ele>
        <time>2022-08-10T17:22:25.287Z</time>
      </trkpt>
      <trkpt lat="45.48202" lon="5.92879">
        <ele>879</ele>
        <time>2022-08-10T17:22:26.286Z</time>
      </trkpt>
      <trkpt lat="45.48201" lon="5.92878">
        <ele>878</ele>
        <time>2022-08-10T17:22:27.286Z</time>
      </trkpt>
      <trkpt lat="45.482" lon="5.92877">
        <ele>878</ele>
        <time>2022-08-10T17:22:28.287Z</time>
      </trkpt>
      <trkpt lat="45.482" lon="5.92876">
        <ele>877</ele>
        <time>2022-08-10T17:22:29.286Z</time>
      </trkpt>
      <trkpt lat="45.48199" lon="5.92875">
        <ele>876</ele>
        <time>2022-08-10T17:22:30.287Z</time>
      </trkpt>
      <trkpt lat="45.48198" lon="5.92875">
        <ele>875</ele>
        <time>2022-08-10T17:22:32.287Z</time>
      </trkpt>
      <trkpt lat="45.48196" lon="5.92876">
        <ele>875</ele>
        <time>2022-08-10T17:22:34.286Z</time>
      </trkpt>
      <trkpt lat="45.48195" lon="5.92877">
        <ele>874</ele>
        <time>2022-08-10T17:22:35.287Z</time>
      </trkpt>
      <trkpt lat="45.48194" lon="5.92877">
        <ele>874</ele>
        <time>2022-08-10T17:22:36.286Z</time>
      </trkpt>
      <trkpt lat="45.48193" lon="5.92877">
        <ele>874</ele>
        <time>2022-08-10T17:22:37.286Z</time>
      </trkpt>
      <trkpt lat="45.48192" lon="5.92876">
        <ele>875</ele>
        <time>2022-08-10T17:22:39.286Z</time>
      </trkpt>
      <trkpt lat="45.4819" lon="5.92875">
        <ele>874</ele>
        <time>2022-08-10T17:22:46.311Z</time>
      </trkpt>
      <trkpt lat="45.48189" lon="5.92876">
        <ele>873</ele>
        <time>2022-08-10T17:22:49.168Z</time>
      </trkpt>
      <trkpt lat="45.48188" lon="5.92877">
        <ele>872</ele>
        <time>2022-08-10T17:22:51.167Z</time>
      </trkpt>
      <trkpt lat="45.48187" lon="5.92877">
        <ele>872</ele>
        <time>2022-08-10T17:22:52.168Z</time>
      </trkpt>
      <trkpt lat="45.48187" lon="5.92878">
        <ele>871</ele>
        <time>2022-08-10T17:22:54.167Z</time>
      </trkpt>
      <trkpt lat="45.48186" lon="5.92878">
        <ele>871</ele>
        <time>2022-08-10T17:22:55.168Z</time>
      </trkpt>
      <trkpt lat="45.48185" lon="5.92878">
        <ele>872</ele>
        <time>2022-08-10T17:22:58.167Z</time>
      </trkpt>
      <trkpt lat="45.48184" lon="5.92878">
        <ele>872</ele>
        <time>2022-08-10T17:22:59.168Z</time>
      </trkpt>
      <trkpt lat="45.48183" lon="5.92878">
        <ele>876</ele>
        <time>2022-08-10T17:23:08.287Z</time>
      </trkpt>
      <trkpt lat="45.48181" lon="5.92879">
        <ele>878</ele>
        <time>2022-08-10T17:23:10.146Z</time>
      </trkpt>
      <trkpt lat="45.4818" lon="5.9288">
        <ele>879</ele>
        <time>2022-08-10T17:23:11.146Z</time>
      </trkpt>
      <trkpt lat="45.48179" lon="5.92881">
        <ele>881</ele>
        <time>2022-08-10T17:23:13.146Z</time>
      </trkpt>
      <trkpt lat="45.48178" lon="5.92882">
        <ele>882</ele>
        <time>2022-08-10T17:23:14.146Z</time>
      </trkpt>
      <trkpt lat="45.48178" lon="5.92883">
        <ele>882</ele>
        <time>2022-08-10T17:23:15.146Z</time>
      </trkpt>
      <trkpt lat="45.48176" lon="5.92886">
        <ele>883</ele>
        <time>2022-08-10T17:23:16.146Z</time>
      </trkpt>
      <trkpt lat="45.48175" lon="5.92889">
        <ele>883</ele>
        <time>2022-08-10T17:23:17.146Z</time>
      </trkpt>
      <trkpt lat="45.48173" lon="5.92891">
        <ele>883</ele>
        <time>2022-08-10T17:23:18.146Z</time>
      </trkpt>
      <trkpt lat="45.48171" lon="5.92892">
        <ele>884</ele>
        <time>2022-08-10T17:23:19.146Z</time>
      </trkpt>
      <trkpt lat="45.48169" lon="5.92894">
        <ele>884</ele>
        <time>2022-08-10T17:23:20.145Z</time>
      </trkpt>
      <trkpt lat="45.48167" lon="5.92895">
        <ele>884</ele>
        <time>2022-08-10T17:23:21.146Z</time>
      </trkpt>
      <trkpt lat="45.48166" lon="5.92898">
        <ele>884</ele>
        <time>2022-08-10T17:23:22.146Z</time>
      </trkpt>
      <trkpt lat="45.48165" lon="5.92902">
        <ele>884</ele>
        <time>2022-08-10T17:23:23.146Z</time>
      </trkpt>
      <trkpt lat="45.48164" lon="5.92905">
        <ele>884</ele>
        <time>2022-08-10T17:23:24.146Z</time>
      </trkpt>
      <trkpt lat="45.48163" lon="5.92908">
        <ele>884</ele>
        <time>2022-08-10T17:23:25.146Z</time>
      </trkpt>
      <trkpt lat="45.48163" lon="5.92912">
        <ele>884</ele>
        <time>2022-08-10T17:23:26.146Z</time>
      </trkpt>
      <trkpt lat="45.48163" lon="5.92917">
        <ele>884</ele>
        <time>2022-08-10T17:23:27.146Z</time>
      </trkpt>
      <trkpt lat="45.48163" lon="5.92921">
        <ele>883</ele>
        <time>2022-08-10T17:23:28.145Z</time>
      </trkpt>
      <trkpt lat="45.48163" lon="5.92924">
        <ele>884</ele>
        <time>2022-08-10T17:23:29.146Z</time>
      </trkpt>
      <trkpt lat="45.48163" lon="5.92926">
        <ele>884</ele>
        <time>2022-08-10T17:23:30.146Z</time>
      </trkpt>
      <trkpt lat="45.48163" lon="5.92928">
        <ele>884</ele>
        <time>2022-08-10T17:23:31.146Z</time>
      </trkpt>
      <trkpt lat="45.48163" lon="5.92929">
        <ele>884</ele>
        <time>2022-08-10T17:23:32.145Z</time>
      </trkpt>
      <trkpt lat="45.48164" lon="5.92931">
        <ele>885</ele>
        <time>2022-08-10T17:23:33.146Z</time>
      </trkpt>
      <trkpt lat="45.48163" lon="5.92932">
        <ele>885</ele>
        <time>2022-08-10T17:23:34.146Z</time>
      </trkpt>
      <trkpt lat="45.48162" lon="5.92933">
        <ele>886</ele>
        <time>2022-08-10T17:23:35.146Z</time>
      </trkpt>
      <trkpt lat="45.48161" lon="5.92933">
        <ele>886</ele>
        <time>2022-08-10T17:23:36.146Z</time>
      </trkpt>
      <trkpt lat="45.4816" lon="5.92934">
        <ele>886</ele>
        <time>2022-08-10T17:23:37.146Z</time>
      </trkpt>
      <trkpt lat="45.48159" lon="5.92935">
        <ele>887</ele>
        <time>2022-08-10T17:23:38.146Z</time>
      </trkpt>
      <trkpt lat="45.48157" lon="5.92935">
        <ele>887</ele>
        <time>2022-08-10T17:23:39.146Z</time>
      </trkpt>
      <trkpt lat="45.48156" lon="5.92935">
        <ele>888</ele>
        <time>2022-08-10T17:23:40.146Z</time>
      </trkpt>
      <trkpt lat="45.48156" lon="5.92936">
        <ele>888</ele>
        <time>2022-08-10T17:23:41.146Z</time>
      </trkpt>
      <trkpt lat="45.48155" lon="5.92936">
        <ele>888</ele>
        <time>2022-08-10T17:23:42.146Z</time>
      </trkpt>
      <trkpt lat="45.48154" lon="5.92936">
        <ele>889</ele>
        <time>2022-08-10T17:23:44.146Z</time>
      </trkpt>
      <trkpt lat="45.48153" lon="5.92936">
        <ele>889</ele>
        <time>2022-08-10T17:23:45.145Z</time>
      </trkpt>
      <trkpt lat="45.48152" lon="5.92936">
        <ele>890</ele>
        <time>2022-08-10T17:23:46.146Z</time>
      </trkpt>
      <trkpt lat="45.4815" lon="5.92936">
        <ele>890</ele>
        <time>2022-08-10T17:23:47.146Z</time>
      </trkpt>
      <trkpt lat="45.48149" lon="5.92936">
        <ele>891</ele>
        <time>2022-08-10T17:23:48.146Z</time>
      </trkpt>
      <trkpt lat="45.48148" lon="5.92937">
        <ele>891</ele>
        <time>2022-08-10T17:23:49.146Z</time>
      </trkpt>
      <trkpt lat="45.48147" lon="5.92937">
        <ele>892</ele>
        <time>2022-08-10T17:23:50.146Z</time>
      </trkpt>
      <trkpt lat="45.48146" lon="5.92938">
        <ele>892</ele>
        <time>2022-08-10T17:23:51.146Z</time>
      </trkpt>
      <trkpt lat="45.48146" lon="5.92939">
        <ele>893</ele>
        <time>2022-08-10T17:23:53.146Z</time>
      </trkpt>
      <trkpt lat="45.48146" lon="5.9294">
        <ele>894</ele>
        <time>2022-08-10T17:23:54.145Z</time>
      </trkpt>
      <trkpt lat="45.48146" lon="5.92941">
        <ele>895</ele>
        <time>2022-08-10T17:23:55.146Z</time>
      </trkpt>
      <trkpt lat="45.48147" lon="5.92941">
        <ele>895</ele>
        <time>2022-08-10T17:23:56.146Z</time>
      </trkpt>
      <trkpt lat="45.48147" lon="5.92942">
        <ele>896</ele>
        <time>2022-08-10T17:23:57.146Z</time>
      </trkpt>
      <trkpt lat="45.48145" lon="5.92942">
        <ele>901</ele>
        <time>2022-08-10T17:24:11.166Z</time>
      </trkpt>
      <trkpt lat="45.48145" lon="5.92943">
        <ele>901</ele>
        <time>2022-08-10T17:24:12.166Z</time>
      </trkpt>
      <trkpt lat="45.48139" lon="5.92948">
        <ele>898</ele>
        <time>2022-08-10T17:24:21.329Z</time>
      </trkpt>
      <trkpt lat="45.48137" lon="5.9295">
        <ele>898</ele>
        <time>2022-08-10T17:24:22.330Z</time>
      </trkpt>
      <trkpt lat="45.48136" lon="5.92952">
        <ele>897</ele>
        <time>2022-08-10T17:24:23.330Z</time>
      </trkpt>
      <trkpt lat="45.48136" lon="5.92954">
        <ele>897</ele>
        <time>2022-08-10T17:24:24.329Z</time>
      </trkpt>
      <trkpt lat="45.48135" lon="5.92955">
        <ele>897</ele>
        <time>2022-08-10T17:24:25.330Z</time>
      </trkpt>
      <trkpt lat="45.48133" lon="5.92956">
        <ele>897</ele>
        <time>2022-08-10T17:24:26.330Z</time>
      </trkpt>
      <trkpt lat="45.48131" lon="5.92959">
        <ele>896</ele>
        <time>2022-08-10T17:24:28.460Z</time>
      </trkpt>
      <trkpt lat="45.4813" lon="5.92959">
        <ele>895</ele>
        <time>2022-08-10T17:24:29.459Z</time>
      </trkpt>
      <trkpt lat="45.48129" lon="5.92959">
        <ele>894</ele>
        <time>2022-08-10T17:24:30.459Z</time>
      </trkpt>
      <trkpt lat="45.48128" lon="5.92959">
        <ele>894</ele>
        <time>2022-08-10T17:24:31.460Z</time>
      </trkpt>
      <trkpt lat="45.48127" lon="5.9296">
        <ele>893</ele>
        <time>2022-08-10T17:24:32.460Z</time>
      </trkpt>
      <trkpt lat="45.48126" lon="5.9296">
        <ele>892</ele>
        <time>2022-08-10T17:24:33.459Z</time>
      </trkpt>
      <trkpt lat="45.48124" lon="5.92961">
        <ele>892</ele>
        <time>2022-08-10T17:24:35.460Z</time>
      </trkpt>
      <trkpt lat="45.48123" lon="5.92961">
        <ele>891</ele>
        <time>2022-08-10T17:24:36.459Z</time>
      </trkpt>
      <trkpt lat="45.48122" lon="5.92961">
        <ele>890</ele>
        <time>2022-08-10T17:24:38.460Z</time>
      </trkpt>
      <trkpt lat="45.4812" lon="5.92966">
        <ele>888</ele>
        <time>2022-08-10T17:24:45.551Z</time>
      </trkpt>
      <trkpt lat="45.48117" lon="5.92966">
        <ele>887</ele>
        <time>2022-08-10T17:24:49.427Z</time>
      </trkpt>
      <trkpt lat="45.48116" lon="5.92966">
        <ele>887</ele>
        <time>2022-08-10T17:24:50.427Z</time>
      </trkpt>
      <trkpt lat="45.48115" lon="5.92965">
        <ele>887</ele>
        <time>2022-08-10T17:24:51.426Z</time>
      </trkpt>
      <trkpt lat="45.48114" lon="5.92966">
        <ele>887</ele>
        <time>2022-08-10T17:24:52.427Z</time>
      </trkpt>
      <trkpt lat="45.48113" lon="5.92967">
        <ele>887</ele>
        <time>2022-08-10T17:24:53.426Z</time>
      </trkpt>
      <trkpt lat="45.48111" lon="5.92968">
        <ele>887</ele>
        <time>2022-08-10T17:24:54.426Z</time>
      </trkpt>
      <trkpt lat="45.48109" lon="5.9297">
        <ele>887</ele>
        <time>2022-08-10T17:24:55.426Z</time>
      </trkpt>
      <trkpt lat="45.48107" lon="5.92971">
        <ele>888</ele>
        <time>2022-08-10T17:24:56.427Z</time>
      </trkpt>
      <trkpt lat="45.48106" lon="5.92972">
        <ele>888</ele>
        <time>2022-08-10T17:24:57.427Z</time>
      </trkpt>
      <trkpt lat="45.48105" lon="5.92973">
        <ele>888</ele>
        <time>2022-08-10T17:24:58.426Z</time>
      </trkpt>
      <trkpt lat="45.48103" lon="5.92975">
        <ele>888</ele>
        <time>2022-08-10T17:24:59.427Z</time>
      </trkpt>
      <trkpt lat="45.48102" lon="5.92977">
        <ele>888</ele>
        <time>2022-08-10T17:25:00.427Z</time>
      </trkpt>
      <trkpt lat="45.48101" lon="5.92978">
        <ele>888</ele>
        <time>2022-08-10T17:25:01.426Z</time>
      </trkpt>
      <trkpt lat="45.481" lon="5.92979">
        <ele>888</ele>
        <time>2022-08-10T17:25:02.426Z</time>
      </trkpt>
      <trkpt lat="45.48098" lon="5.9298">
        <ele>889</ele>
        <time>2022-08-10T17:25:03.427Z</time>
      </trkpt>
      <trkpt lat="45.48096" lon="5.9298">
        <ele>889</ele>
        <time>2022-08-10T17:25:04.426Z</time>
      </trkpt>
      <trkpt lat="45.48095" lon="5.92981">
        <ele>890</ele>
        <time>2022-08-10T17:25:05.427Z</time>
      </trkpt>
      <trkpt lat="45.48093" lon="5.92982">
        <ele>890</ele>
        <time>2022-08-10T17:25:06.426Z</time>
      </trkpt>
      <trkpt lat="45.48092" lon="5.92984">
        <ele>890</ele>
        <time>2022-08-10T17:25:07.427Z</time>
      </trkpt>
      <trkpt lat="45.48091" lon="5.92985">
        <ele>890</ele>
        <time>2022-08-10T17:25:08.427Z</time>
      </trkpt>
      <trkpt lat="45.48089" lon="5.92985">
        <ele>890</ele>
        <time>2022-08-10T17:25:09.427Z</time>
      </trkpt>
      <trkpt lat="45.48088" lon="5.92985">
        <ele>890</ele>
        <time>2022-08-10T17:25:10.427Z</time>
      </trkpt>
      <trkpt lat="45.48087" lon="5.92986">
        <ele>890</ele>
        <time>2022-08-10T17:25:11.426Z</time>
      </trkpt>
      <trkpt lat="45.48085" lon="5.92987">
        <ele>890</ele>
        <time>2022-08-10T17:25:12.427Z</time>
      </trkpt>
      <trkpt lat="45.48084" lon="5.92988">
        <ele>890</ele>
        <time>2022-08-10T17:25:13.427Z</time>
      </trkpt>
      <trkpt lat="45.48083" lon="5.92989">
        <ele>890</ele>
        <time>2022-08-10T17:25:14.426Z</time>
      </trkpt>
      <trkpt lat="45.48081" lon="5.92992">
        <ele>890</ele>
        <time>2022-08-10T17:25:15.427Z</time>
      </trkpt>
      <trkpt lat="45.4808" lon="5.92994">
        <ele>891</ele>
        <time>2022-08-10T17:25:16.427Z</time>
      </trkpt>
      <trkpt lat="45.48077" lon="5.92995">
        <ele>891</ele>
        <time>2022-08-10T17:25:17.426Z</time>
      </trkpt>
      <trkpt lat="45.48076" lon="5.92998">
        <ele>891</ele>
        <time>2022-08-10T17:25:18.426Z</time>
      </trkpt>
      <trkpt lat="45.48075" lon="5.92999">
        <ele>891</ele>
        <time>2022-08-10T17:25:19.426Z</time>
      </trkpt>
      <trkpt lat="45.48073" lon="5.93001">
        <ele>892</ele>
        <time>2022-08-10T17:25:20.427Z</time>
      </trkpt>
      <trkpt lat="45.4807" lon="5.93004">
        <ele>892</ele>
        <time>2022-08-10T17:25:21.427Z</time>
      </trkpt>
      <trkpt lat="45.48067" lon="5.93007">
        <ele>892</ele>
        <time>2022-08-10T17:25:22.426Z</time>
      </trkpt>
      <trkpt lat="45.48065" lon="5.93009">
        <ele>892</ele>
        <time>2022-08-10T17:25:23.426Z</time>
      </trkpt>
      <trkpt lat="45.48062" lon="5.93012">
        <ele>892</ele>
        <time>2022-08-10T17:25:24.426Z</time>
      </trkpt>
      <trkpt lat="45.4806" lon="5.93014">
        <ele>892</ele>
        <time>2022-08-10T17:25:25.427Z</time>
      </trkpt>
      <trkpt lat="45.48058" lon="5.93016">
        <ele>893</ele>
        <time>2022-08-10T17:25:26.427Z</time>
      </trkpt>
      <trkpt lat="45.48058" lon="5.93017">
        <ele>893</ele>
        <time>2022-08-10T17:25:27.426Z</time>
      </trkpt>
      <trkpt lat="45.48056" lon="5.93019">
        <ele>893</ele>
        <time>2022-08-10T17:25:28.427Z</time>
      </trkpt>
      <trkpt lat="45.48053" lon="5.9303">
        <ele>893</ele>
        <time>2022-08-10T17:25:37.566Z</time>
      </trkpt>
      <trkpt lat="45.48054" lon="5.9303">
        <ele>893</ele>
        <time>2022-08-10T17:25:38.567Z</time>
      </trkpt>
      <trkpt lat="45.48053" lon="5.9303">
        <ele>894</ele>
        <time>2022-08-10T17:25:39.566Z</time>
      </trkpt>
      <trkpt lat="45.48054" lon="5.9303">
        <ele>895</ele>
        <time>2022-08-10T17:25:42.567Z</time>
      </trkpt>
      <trkpt lat="45.48055" lon="5.9303">
        <ele>895</ele>
        <time>2022-08-10T17:25:43.567Z</time>
      </trkpt>
      <trkpt lat="45.48051" lon="5.93035">
        <ele>896</ele>
        <time>2022-08-10T17:26:11.687Z</time>
      </trkpt>
      <trkpt lat="45.4805" lon="5.93038">
        <ele>896</ele>
        <time>2022-08-10T17:26:12.687Z</time>
      </trkpt>
      <trkpt lat="45.48049" lon="5.93042">
        <ele>896</ele>
        <time>2022-08-10T17:26:13.687Z</time>
      </trkpt>
      <trkpt lat="45.48048" lon="5.93046">
        <ele>895</ele>
        <time>2022-08-10T17:26:14.687Z</time>
      </trkpt>
      <trkpt lat="45.48046" lon="5.93051">
        <ele>895</ele>
        <time>2022-08-10T17:26:15.687Z</time>
      </trkpt>
      <trkpt lat="45.48044" lon="5.93056">
        <ele>895</ele>
        <time>2022-08-10T17:26:16.687Z</time>
      </trkpt>
      <trkpt lat="45.48042" lon="5.9306">
        <ele>895</ele>
        <time>2022-08-10T17:26:17.687Z</time>
      </trkpt>
      <trkpt lat="45.4804" lon="5.93062">
        <ele>894</ele>
        <time>2022-08-10T17:26:18.687Z</time>
      </trkpt>
      <trkpt lat="45.48038" lon="5.93064">
        <ele>894</ele>
        <time>2022-08-10T17:26:19.687Z</time>
      </trkpt>
      <trkpt lat="45.48036" lon="5.93066">
        <ele>893</ele>
        <time>2022-08-10T17:26:20.687Z</time>
      </trkpt>
      <trkpt lat="45.48034" lon="5.93065">
        <ele>893</ele>
        <time>2022-08-10T17:26:21.687Z</time>
      </trkpt>
      <trkpt lat="45.48032" lon="5.93065">
        <ele>892</ele>
        <time>2022-08-10T17:26:22.687Z</time>
      </trkpt>
      <trkpt lat="45.4803" lon="5.93065">
        <ele>891</ele>
        <time>2022-08-10T17:26:23.687Z</time>
      </trkpt>
      <trkpt lat="45.48028" lon="5.93065">
        <ele>890</ele>
        <time>2022-08-10T17:26:24.687Z</time>
      </trkpt>
      <trkpt lat="45.48026" lon="5.93066">
        <ele>890</ele>
        <time>2022-08-10T17:26:25.687Z</time>
      </trkpt>
      <trkpt lat="45.48024" lon="5.93066">
        <ele>889</ele>
        <time>2022-08-10T17:26:26.687Z</time>
      </trkpt>
      <trkpt lat="45.48022" lon="5.93066">
        <ele>889</ele>
        <time>2022-08-10T17:26:27.687Z</time>
      </trkpt>
      <trkpt lat="45.48019" lon="5.93065">
        <ele>889</ele>
        <time>2022-08-10T17:26:28.687Z</time>
      </trkpt>
      <trkpt lat="45.48018" lon="5.93064">
        <ele>889</ele>
        <time>2022-08-10T17:26:29.686Z</time>
      </trkpt>
      <trkpt lat="45.48016" lon="5.93063">
        <ele>888</ele>
        <time>2022-08-10T17:26:30.687Z</time>
      </trkpt>
      <trkpt lat="45.48014" lon="5.93062">
        <ele>888</ele>
        <time>2022-08-10T17:26:31.686Z</time>
      </trkpt>
      <trkpt lat="45.48012" lon="5.93062">
        <ele>888</ele>
        <time>2022-08-10T17:26:32.687Z</time>
      </trkpt>
      <trkpt lat="45.4801" lon="5.93062">
        <ele>889</ele>
        <time>2022-08-10T17:26:33.686Z</time>
      </trkpt>
      <trkpt lat="45.48007" lon="5.93062">
        <ele>889</ele>
        <time>2022-08-10T17:26:34.687Z</time>
      </trkpt>
      <trkpt lat="45.48004" lon="5.93062">
        <ele>889</ele>
        <time>2022-08-10T17:26:35.687Z</time>
      </trkpt>
      <trkpt lat="45.48002" lon="5.93062">
        <ele>890</ele>
        <time>2022-08-10T17:26:36.687Z</time>
      </trkpt>
      <trkpt lat="45.48" lon="5.93062">
        <ele>890</ele>
        <time>2022-08-10T17:26:37.687Z</time>
      </trkpt>
      <trkpt lat="45.47997" lon="5.93062">
        <ele>890</ele>
        <time>2022-08-10T17:26:38.686Z</time>
      </trkpt>
      <trkpt lat="45.47995" lon="5.93062">
        <ele>890</ele>
        <time>2022-08-10T17:26:39.686Z</time>
      </trkpt>
      <trkpt lat="45.47994" lon="5.93062">
        <ele>890</ele>
        <time>2022-08-10T17:26:40.687Z</time>
      </trkpt>
      <trkpt lat="45.47993" lon="5.93062">
        <ele>890</ele>
        <time>2022-08-10T17:26:41.687Z</time>
      </trkpt>
      <trkpt lat="45.47992" lon="5.93063">
        <ele>890</ele>
        <time>2022-08-10T17:26:42.686Z</time>
      </trkpt>
      <trkpt lat="45.47991" lon="5.93063">
        <ele>889</ele>
        <time>2022-08-10T17:26:43.687Z</time>
      </trkpt>
      <trkpt lat="45.4799" lon="5.93063">
        <ele>889</ele>
        <time>2022-08-10T17:26:44.687Z</time>
      </trkpt>
      <trkpt lat="45.47986" lon="5.93062">
        <ele>887</ele>
        <time>2022-08-10T17:26:55.833Z</time>
      </trkpt>
      <trkpt lat="45.47985" lon="5.93062">
        <ele>887</ele>
        <time>2022-08-10T17:26:56.833Z</time>
      </trkpt>
      <trkpt lat="45.47984" lon="5.93063">
        <ele>887</ele>
        <time>2022-08-10T17:26:57.833Z</time>
      </trkpt>
      <trkpt lat="45.47983" lon="5.93065">
        <ele>887</ele>
        <time>2022-08-10T17:26:58.833Z</time>
      </trkpt>
      <trkpt lat="45.47983" lon="5.93066">
        <ele>888</ele>
        <time>2022-08-10T17:26:59.833Z</time>
      </trkpt>
      <trkpt lat="45.47983" lon="5.93068">
        <ele>888</ele>
        <time>2022-08-10T17:27:00.833Z</time>
      </trkpt>
      <trkpt lat="45.47984" lon="5.93069">
        <ele>888</ele>
        <time>2022-08-10T17:27:01.833Z</time>
      </trkpt>
      <trkpt lat="45.47984" lon="5.93072">
        <ele>887</ele>
        <time>2022-08-10T17:27:08.919Z</time>
      </trkpt>
      <trkpt lat="45.47985" lon="5.93073">
        <ele>886</ele>
        <time>2022-08-10T17:27:09.918Z</time>
      </trkpt>
      <trkpt lat="45.47985" lon="5.93075">
        <ele>886</ele>
        <time>2022-08-10T17:27:10.919Z</time>
      </trkpt>
      <trkpt lat="45.47985" lon="5.93077">
        <ele>886</ele>
        <time>2022-08-10T17:27:11.919Z</time>
      </trkpt>
      <trkpt lat="45.47986" lon="5.93079">
        <ele>886</ele>
        <time>2022-08-10T17:27:12.919Z</time>
      </trkpt>
      <trkpt lat="45.47987" lon="5.93081">
        <ele>886</ele>
        <time>2022-08-10T17:27:13.918Z</time>
      </trkpt>
      <trkpt lat="45.47988" lon="5.93084">
        <ele>885</ele>
        <time>2022-08-10T17:27:14.919Z</time>
      </trkpt>
      <trkpt lat="45.47988" lon="5.93086">
        <ele>885</ele>
        <time>2022-08-10T17:27:15.919Z</time>
      </trkpt>
      <trkpt lat="45.47988" lon="5.93089">
        <ele>885</ele>
        <time>2022-08-10T17:27:16.919Z</time>
      </trkpt>
      <trkpt lat="45.47988" lon="5.93091">
        <ele>885</ele>
        <time>2022-08-10T17:27:17.918Z</time>
      </trkpt>
      <trkpt lat="45.47989" lon="5.93092">
        <ele>885</ele>
        <time>2022-08-10T17:27:18.919Z</time>
      </trkpt>
      <trkpt lat="45.47989" lon="5.93094">
        <ele>885</ele>
        <time>2022-08-10T17:27:19.918Z</time>
      </trkpt>
      <trkpt lat="45.4799" lon="5.93096">
        <ele>885</ele>
        <time>2022-08-10T17:27:20.918Z</time>
      </trkpt>
      <trkpt lat="45.4799" lon="5.93099">
        <ele>884</ele>
        <time>2022-08-10T17:27:21.919Z</time>
      </trkpt>
      <trkpt lat="45.4799" lon="5.93102">
        <ele>884</ele>
        <time>2022-08-10T17:27:22.918Z</time>
      </trkpt>
      <trkpt lat="45.4799" lon="5.93104">
        <ele>883</ele>
        <time>2022-08-10T17:27:23.919Z</time>
      </trkpt>
      <trkpt lat="45.4799" lon="5.93106">
        <ele>882</ele>
        <time>2022-08-10T17:27:24.918Z</time>
      </trkpt>
      <trkpt lat="45.47991" lon="5.93108">
        <ele>882</ele>
        <time>2022-08-10T17:27:25.918Z</time>
      </trkpt>
      <trkpt lat="45.47991" lon="5.93109">
        <ele>881</ele>
        <time>2022-08-10T17:27:26.919Z</time>
      </trkpt>
      <trkpt lat="45.47991" lon="5.9311">
        <ele>881</ele>
        <time>2022-08-10T17:27:27.918Z</time>
      </trkpt>
      <trkpt lat="45.47991" lon="5.93111">
        <ele>880</ele>
        <time>2022-08-10T17:27:28.918Z</time>
      </trkpt>
      <trkpt lat="45.47991" lon="5.9311">
        <ele>877</ele>
        <time>2022-08-10T17:27:34.064Z</time>
      </trkpt>
      <trkpt lat="45.47992" lon="5.93111">
        <ele>876</ele>
        <time>2022-08-10T17:27:35.063Z</time>
      </trkpt>
      <trkpt lat="45.47994" lon="5.93117">
        <ele>876</ele>
        <time>2022-08-10T17:27:42.942Z</time>
      </trkpt>
      <trkpt lat="45.47994" lon="5.93119">
        <ele>876</ele>
        <time>2022-08-10T17:27:43.941Z</time>
      </trkpt>
      <trkpt lat="45.47994" lon="5.93122">
        <ele>876</ele>
        <time>2022-08-10T17:27:44.941Z</time>
      </trkpt>
      <trkpt lat="45.47994" lon="5.93124">
        <ele>876</ele>
        <time>2022-08-10T17:27:45.942Z</time>
      </trkpt>
      <trkpt lat="45.47995" lon="5.93127">
        <ele>876</ele>
        <time>2022-08-10T17:27:46.942Z</time>
      </trkpt>
      <trkpt lat="45.47995" lon="5.9313">
        <ele>875</ele>
        <time>2022-08-10T17:27:47.942Z</time>
      </trkpt>
      <trkpt lat="45.47996" lon="5.93133">
        <ele>875</ele>
        <time>2022-08-10T17:27:48.941Z</time>
      </trkpt>
      <trkpt lat="45.47996" lon="5.93137">
        <ele>875</ele>
        <time>2022-08-10T17:27:49.942Z</time>
      </trkpt>
      <trkpt lat="45.47998" lon="5.93139">
        <ele>875</ele>
        <time>2022-08-10T17:27:50.941Z</time>
      </trkpt>
      <trkpt lat="45.47999" lon="5.93141">
        <ele>874</ele>
        <time>2022-08-10T17:27:51.942Z</time>
      </trkpt>
      <trkpt lat="45.48" lon="5.93143">
        <ele>874</ele>
        <time>2022-08-10T17:27:52.941Z</time>
      </trkpt>
      <trkpt lat="45.48001" lon="5.93144">
        <ele>873</ele>
        <time>2022-08-10T17:27:53.941Z</time>
      </trkpt>
      <trkpt lat="45.48002" lon="5.93147">
        <ele>873</ele>
        <time>2022-08-10T17:27:54.942Z</time>
      </trkpt>
      <trkpt lat="45.48004" lon="5.93149">
        <ele>873</ele>
        <time>2022-08-10T17:27:55.941Z</time>
      </trkpt>
      <trkpt lat="45.48005" lon="5.93151">
        <ele>872</ele>
        <time>2022-08-10T17:27:56.942Z</time>
      </trkpt>
      <trkpt lat="45.48006" lon="5.93153">
        <ele>872</ele>
        <time>2022-08-10T17:27:57.942Z</time>
      </trkpt>
      <trkpt lat="45.48006" lon="5.93156">
        <ele>872</ele>
        <time>2022-08-10T17:27:58.941Z</time>
      </trkpt>
      <trkpt lat="45.48007" lon="5.93158">
        <ele>872</ele>
        <time>2022-08-10T17:27:59.942Z</time>
      </trkpt>
      <trkpt lat="45.48005" lon="5.93169">
        <ele>870</ele>
        <time>2022-08-10T17:28:17.064Z</time>
      </trkpt>
      <trkpt lat="45.48004" lon="5.93169">
        <ele>870</ele>
        <time>2022-08-10T17:28:18.063Z</time>
      </trkpt>
      <trkpt lat="45.48005" lon="5.93169">
        <ele>871</ele>
        <time>2022-08-10T17:28:19.063Z</time>
      </trkpt>
      <trkpt lat="45.48014" lon="5.93171">
        <ele>866</ele>
        <time>2022-08-10T17:28:57.923Z</time>
      </trkpt>
      <trkpt lat="45.48016" lon="5.93172">
        <ele>866</ele>
        <time>2022-08-10T17:28:58.922Z</time>
      </trkpt>
      <trkpt lat="45.48018" lon="5.93173">
        <ele>866</ele>
        <time>2022-08-10T17:28:59.923Z</time>
      </trkpt>
      <trkpt lat="45.4802" lon="5.93176">
        <ele>866</ele>
        <time>2022-08-10T17:29:00.922Z</time>
      </trkpt>
      <trkpt lat="45.48021" lon="5.93179">
        <ele>866</ele>
        <time>2022-08-10T17:29:01.922Z</time>
      </trkpt>
      <trkpt lat="45.48024" lon="5.93182">
        <ele>866</ele>
        <time>2022-08-10T17:29:02.923Z</time>
      </trkpt>
      <trkpt lat="45.48026" lon="5.93185">
        <ele>866</ele>
        <time>2022-08-10T17:29:03.923Z</time>
      </trkpt>
      <trkpt lat="45.48027" lon="5.93188">
        <ele>866</ele>
        <time>2022-08-10T17:29:04.922Z</time>
      </trkpt>
      <trkpt lat="45.48028" lon="5.93191">
        <ele>866</ele>
        <time>2022-08-10T17:29:05.922Z</time>
      </trkpt>
      <trkpt lat="45.4803" lon="5.93193">
        <ele>866</ele>
        <time>2022-08-10T17:29:06.923Z</time>
      </trkpt>
      <trkpt lat="45.48032" lon="5.93194">
        <ele>865</ele>
        <time>2022-08-10T17:29:07.923Z</time>
      </trkpt>
      <trkpt lat="45.48035" lon="5.93195">
        <ele>865</ele>
        <time>2022-08-10T17:29:08.922Z</time>
      </trkpt>
      <trkpt lat="45.48038" lon="5.93196">
        <ele>864</ele>
        <time>2022-08-10T17:29:09.923Z</time>
      </trkpt>
      <trkpt lat="45.48041" lon="5.93197">
        <ele>864</ele>
        <time>2022-08-10T17:29:10.923Z</time>
      </trkpt>
      <trkpt lat="45.48043" lon="5.93198">
        <ele>864</ele>
        <time>2022-08-10T17:29:11.923Z</time>
      </trkpt>
      <trkpt lat="45.48043" lon="5.93199">
        <ele>864</ele>
        <time>2022-08-10T17:29:12.923Z</time>
      </trkpt>
      <trkpt lat="45.48045" lon="5.93198">
        <ele>856</ele>
        <time>2022-08-10T17:29:23.045Z</time>
      </trkpt>
      <trkpt lat="45.48045" lon="5.93199">
        <ele>855</ele>
        <time>2022-08-10T17:29:24.045Z</time>
      </trkpt>
      <trkpt lat="45.48046" lon="5.93199">
        <ele>854</ele>
        <time>2022-08-10T17:29:25.044Z</time>
      </trkpt>
      <trkpt lat="45.48048" lon="5.932">
        <ele>851</ele>
        <time>2022-08-10T17:30:52.924Z</time>
      </trkpt>
      <trkpt lat="45.48048" lon="5.93201">
        <ele>851</ele>
        <time>2022-08-10T17:30:54.924Z</time>
      </trkpt>
      <trkpt lat="45.48049" lon="5.93201">
        <ele>851</ele>
        <time>2022-08-10T17:30:55.924Z</time>
      </trkpt>
      <trkpt lat="45.4805" lon="5.93202">
        <ele>851</ele>
        <time>2022-08-10T17:30:56.924Z</time>
      </trkpt>
      <trkpt lat="45.48051" lon="5.93202">
        <ele>851</ele>
        <time>2022-08-10T17:30:58.924Z</time>
      </trkpt>
      <trkpt lat="45.48051" lon="5.93201">
        <ele>851</ele>
        <time>2022-08-10T17:30:59.923Z</time>
      </trkpt>
      <trkpt lat="45.48051" lon="5.93202">
        <ele>851</ele>
        <time>2022-08-10T17:31:00.924Z</time>
      </trkpt>
      <trkpt lat="45.48052" lon="5.93201">
        <ele>850</ele>
        <time>2022-08-10T17:31:01.923Z</time>
      </trkpt>
      <trkpt lat="45.48053" lon="5.93198">
        <ele>849</ele>
        <time>2022-08-10T17:31:04.931Z</time>
      </trkpt>
      <trkpt lat="45.48053" lon="5.93197">
        <ele>848</ele>
        <time>2022-08-10T17:31:05.930Z</time>
      </trkpt>
      <trkpt lat="45.48054" lon="5.93196">
        <ele>848</ele>
        <time>2022-08-10T17:31:08.931Z</time>
      </trkpt>
      <trkpt lat="45.48052" lon="5.93195">
        <ele>849</ele>
        <time>2022-08-10T17:31:40.047Z</time>
      </trkpt>
      <trkpt lat="45.48053" lon="5.93195">
        <ele>849</ele>
        <time>2022-08-10T17:31:41.048Z</time>
      </trkpt>
      <trkpt lat="45.48052" lon="5.93196">
        <ele>848</ele>
        <time>2022-08-10T17:31:43.047Z</time>
      </trkpt>
      <trkpt lat="45.48051" lon="5.93196">
        <ele>848</ele>
        <time>2022-08-10T17:31:44.048Z</time>
      </trkpt>
      <trkpt lat="45.48051" lon="5.93195">
        <ele>848</ele>
        <time>2022-08-10T17:31:45.048Z</time>
      </trkpt>
      <trkpt lat="45.48053" lon="5.93203">
        <ele>851</ele>
        <time>2022-08-10T17:32:11.197Z</time>
      </trkpt>
      <trkpt lat="45.48054" lon="5.93204">
        <ele>851</ele>
        <time>2022-08-10T17:32:12.197Z</time>
      </trkpt>
      <trkpt lat="45.48047" lon="5.93207">
        <ele>846</ele>
        <time>2022-08-10T17:33:08.328Z</time>
      </trkpt>
      <trkpt lat="45.48045" lon="5.93206">
        <ele>846</ele>
        <time>2022-08-10T17:33:09.328Z</time>
      </trkpt>
      <trkpt lat="45.48043" lon="5.93205">
        <ele>847</ele>
        <time>2022-08-10T17:33:10.327Z</time>
      </trkpt>
      <trkpt lat="45.48042" lon="5.93204">
        <ele>847</ele>
        <time>2022-08-10T17:33:11.327Z</time>
      </trkpt>
      <trkpt lat="45.48039" lon="5.93202">
        <ele>850</ele>
        <time>2022-08-10T17:33:17.432Z</time>
      </trkpt>
      <trkpt lat="45.48048" lon="5.93202">
        <ele>846</ele>
        <time>2022-08-10T17:34:21.324Z</time>
      </trkpt>
      <trkpt lat="45.4805" lon="5.93201">
        <ele>846</ele>
        <time>2022-08-10T17:34:22.323Z</time>
      </trkpt>
      <trkpt lat="45.48052" lon="5.932">
        <ele>847</ele>
        <time>2022-08-10T17:34:23.323Z</time>
      </trkpt>
      <trkpt lat="45.48053" lon="5.93199">
        <ele>847</ele>
        <time>2022-08-10T17:34:24.324Z</time>
      </trkpt>
      <trkpt lat="45.48055" lon="5.93198">
        <ele>846</ele>
        <time>2022-08-10T17:34:25.324Z</time>
      </trkpt>
      <trkpt lat="45.48058" lon="5.93197">
        <ele>846</ele>
        <time>2022-08-10T17:34:26.324Z</time>
      </trkpt>
      <trkpt lat="45.4806" lon="5.93196">
        <ele>846</ele>
        <time>2022-08-10T17:34:27.323Z</time>
      </trkpt>
      <trkpt lat="45.48061" lon="5.93195">
        <ele>846</ele>
        <time>2022-08-10T17:34:28.324Z</time>
      </trkpt>
      <trkpt lat="45.48062" lon="5.93195">
        <ele>846</ele>
        <time>2022-08-10T17:34:29.323Z</time>
      </trkpt>
      <trkpt lat="45.48063" lon="5.93196">
        <ele>846</ele>
        <time>2022-08-10T17:34:30.323Z</time>
      </trkpt>
      <trkpt lat="45.48064" lon="5.93196">
        <ele>846</ele>
        <time>2022-08-10T17:34:31.324Z</time>
      </trkpt>
      <trkpt lat="45.48073" lon="5.932">
        <ele>855</ele>
        <time>2022-08-10T17:35:15.451Z</time>
      </trkpt>
      <trkpt lat="45.48075" lon="5.93201">
        <ele>855</ele>
        <time>2022-08-10T17:35:16.451Z</time>
      </trkpt>
      <trkpt lat="45.48076" lon="5.93202">
        <ele>854</ele>
        <time>2022-08-10T17:35:17.450Z</time>
      </trkpt>
      <trkpt lat="45.48078" lon="5.93203">
        <ele>854</ele>
        <time>2022-08-10T17:35:18.451Z</time>
      </trkpt>
      <trkpt lat="45.48079" lon="5.93205">
        <ele>854</ele>
        <time>2022-08-10T17:35:19.451Z</time>
      </trkpt>
      <trkpt lat="45.48078" lon="5.93207">
        <ele>854</ele>
        <time>2022-08-10T17:35:20.451Z</time>
      </trkpt>
      <trkpt lat="45.48077" lon="5.93209">
        <ele>853</ele>
        <time>2022-08-10T17:35:21.451Z</time>
      </trkpt>
      <trkpt lat="45.48077" lon="5.93211">
        <ele>853</ele>
        <time>2022-08-10T17:35:22.450Z</time>
      </trkpt>
      <trkpt lat="45.48076" lon="5.93214">
        <ele>852</ele>
        <time>2022-08-10T17:35:23.451Z</time>
      </trkpt>
      <trkpt lat="45.48076" lon="5.93216">
        <ele>852</ele>
        <time>2022-08-10T17:35:24.451Z</time>
      </trkpt>
      <trkpt lat="45.48075" lon="5.93219">
        <ele>851</ele>
        <time>2022-08-10T17:35:25.451Z</time>
      </trkpt>
      <trkpt lat="45.48074" lon="5.93222">
        <ele>851</ele>
        <time>2022-08-10T17:35:26.450Z</time>
      </trkpt>
      <trkpt lat="45.48073" lon="5.93224">
        <ele>850</ele>
        <time>2022-08-10T17:35:27.451Z</time>
      </trkpt>
      <trkpt lat="45.48073" lon="5.93227">
        <ele>849</ele>
        <time>2022-08-10T17:35:28.451Z</time>
      </trkpt>
      <trkpt lat="45.48074" lon="5.9323">
        <ele>848</ele>
        <time>2022-08-10T17:35:29.451Z</time>
      </trkpt>
      <trkpt lat="45.48075" lon="5.93232">
        <ele>848</ele>
        <time>2022-08-10T17:35:30.450Z</time>
      </trkpt>
      <trkpt lat="45.48076" lon="5.93233">
        <ele>847</ele>
        <time>2022-08-10T17:35:31.451Z</time>
      </trkpt>
      <trkpt lat="45.48077" lon="5.93234">
        <ele>846</ele>
        <time>2022-08-10T17:35:32.451Z</time>
      </trkpt>
      <trkpt lat="45.48076" lon="5.93234">
        <ele>845</ele>
        <time>2022-08-10T17:35:34.451Z</time>
      </trkpt>
      <trkpt lat="45.48071" lon="5.9324">
        <ele>836</ele>
        <time>2022-08-10T17:35:50.575Z</time>
      </trkpt>
      <trkpt lat="45.48071" lon="5.93243">
        <ele>836</ele>
        <time>2022-08-10T17:35:51.576Z</time>
      </trkpt>
      <trkpt lat="45.48071" lon="5.93246">
        <ele>836</ele>
        <time>2022-08-10T17:35:52.575Z</time>
      </trkpt>
      <trkpt lat="45.48072" lon="5.93249">
        <ele>835</ele>
        <time>2022-08-10T17:35:53.576Z</time>
      </trkpt>
      <trkpt lat="45.48072" lon="5.93253">
        <ele>835</ele>
        <time>2022-08-10T17:35:54.576Z</time>
      </trkpt>
      <trkpt lat="45.48072" lon="5.93255">
        <ele>835</ele>
        <time>2022-08-10T17:35:55.575Z</time>
      </trkpt>
      <trkpt lat="45.48072" lon="5.93257">
        <ele>835</ele>
        <time>2022-08-10T17:35:56.575Z</time>
      </trkpt>
      <trkpt lat="45.48071" lon="5.9326">
        <ele>834</ele>
        <time>2022-08-10T17:35:57.576Z</time>
      </trkpt>
      <trkpt lat="45.4807" lon="5.93262">
        <ele>834</ele>
        <time>2022-08-10T17:35:58.576Z</time>
      </trkpt>
      <trkpt lat="45.4807" lon="5.93264">
        <ele>834</ele>
        <time>2022-08-10T17:35:59.575Z</time>
      </trkpt>
      <trkpt lat="45.48069" lon="5.93266">
        <ele>834</ele>
        <time>2022-08-10T17:36:00.575Z</time>
      </trkpt>
      <trkpt lat="45.48067" lon="5.93268">
        <ele>834</ele>
        <time>2022-08-10T17:36:01.575Z</time>
      </trkpt>
      <trkpt lat="45.48066" lon="5.9327">
        <ele>833</ele>
        <time>2022-08-10T17:36:02.576Z</time>
      </trkpt>
      <trkpt lat="45.48066" lon="5.93273">
        <ele>833</ele>
        <time>2022-08-10T17:36:03.575Z</time>
      </trkpt>
      <trkpt lat="45.48066" lon="5.93275">
        <ele>833</ele>
        <time>2022-08-10T17:36:04.576Z</time>
      </trkpt>
      <trkpt lat="45.48066" lon="5.93278">
        <ele>833</ele>
        <time>2022-08-10T17:36:05.575Z</time>
      </trkpt>
      <trkpt lat="45.48067" lon="5.9328">
        <ele>833</ele>
        <time>2022-08-10T17:36:06.575Z</time>
      </trkpt>
      <trkpt lat="45.48067" lon="5.93282">
        <ele>833</ele>
        <time>2022-08-10T17:36:07.576Z</time>
      </trkpt>
      <trkpt lat="45.48068" lon="5.93284">
        <ele>832</ele>
        <time>2022-08-10T17:36:08.576Z</time>
      </trkpt>
      <trkpt lat="45.48068" lon="5.93287">
        <ele>832</ele>
        <time>2022-08-10T17:36:09.576Z</time>
      </trkpt>
      <trkpt lat="45.48069" lon="5.93289">
        <ele>832</ele>
        <time>2022-08-10T17:36:10.575Z</time>
      </trkpt>
      <trkpt lat="45.48071" lon="5.93293">
        <ele>832</ele>
        <time>2022-08-10T17:36:11.576Z</time>
      </trkpt>
      <trkpt lat="45.48073" lon="5.93297">
        <ele>832</ele>
        <time>2022-08-10T17:36:12.576Z</time>
      </trkpt>
      <trkpt lat="45.48075" lon="5.933">
        <ele>832</ele>
        <time>2022-08-10T17:36:13.576Z</time>
      </trkpt>
      <trkpt lat="45.48075" lon="5.93303">
        <ele>832</ele>
        <time>2022-08-10T17:36:14.575Z</time>
      </trkpt>
      <trkpt lat="45.48075" lon="5.93307">
        <ele>831</ele>
        <time>2022-08-10T17:36:15.576Z</time>
      </trkpt>
      <trkpt lat="45.48076" lon="5.9331">
        <ele>831</ele>
        <time>2022-08-10T17:36:16.576Z</time>
      </trkpt>
      <trkpt lat="45.48076" lon="5.93313">
        <ele>831</ele>
        <time>2022-08-10T17:36:17.576Z</time>
      </trkpt>
      <trkpt lat="45.48076" lon="5.93314">
        <ele>831</ele>
        <time>2022-08-10T17:36:18.576Z</time>
      </trkpt>
      <trkpt lat="45.48076" lon="5.93316">
        <ele>830</ele>
        <time>2022-08-10T17:36:19.576Z</time>
      </trkpt>
      <trkpt lat="45.48077" lon="5.93317">
        <ele>829</ele>
        <time>2022-08-10T17:36:20.576Z</time>
      </trkpt>
      <trkpt lat="45.48079" lon="5.93321">
        <ele>828</ele>
        <time>2022-08-10T17:36:25.691Z</time>
      </trkpt>
      <trkpt lat="45.4808" lon="5.93322">
        <ele>828</ele>
        <time>2022-08-10T17:36:27.691Z</time>
      </trkpt>
      <trkpt lat="45.48079" lon="5.93322">
        <ele>828</ele>
        <time>2022-08-10T17:36:28.690Z</time>
      </trkpt>
      <trkpt lat="45.48083" lon="5.93329">
        <ele>819</ele>
        <time>2022-08-10T17:38:48.715Z</time>
      </trkpt>
      <trkpt lat="45.48084" lon="5.93332">
        <ele>819</ele>
        <time>2022-08-10T17:38:49.715Z</time>
      </trkpt>
      <trkpt lat="45.48086" lon="5.93335">
        <ele>819</ele>
        <time>2022-08-10T17:38:50.715Z</time>
      </trkpt>
      <trkpt lat="45.48088" lon="5.93337">
        <ele>819</ele>
        <time>2022-08-10T17:38:51.715Z</time>
      </trkpt>
      <trkpt lat="45.4809" lon="5.9334">
        <ele>819</ele>
        <time>2022-08-10T17:38:52.715Z</time>
      </trkpt>
      <trkpt lat="45.48092" lon="5.93342">
        <ele>819</ele>
        <time>2022-08-10T17:38:53.714Z</time>
      </trkpt>
      <trkpt lat="45.48094" lon="5.93344">
        <ele>819</ele>
        <time>2022-08-10T17:38:54.715Z</time>
      </trkpt>
      <trkpt lat="45.48096" lon="5.93346">
        <ele>819</ele>
        <time>2022-08-10T17:38:55.715Z</time>
      </trkpt>
      <trkpt lat="45.48097" lon="5.93348">
        <ele>819</ele>
        <time>2022-08-10T17:38:56.715Z</time>
      </trkpt>
      <trkpt lat="45.48099" lon="5.9335">
        <ele>819</ele>
        <time>2022-08-10T17:38:57.715Z</time>
      </trkpt>
      <trkpt lat="45.48101" lon="5.93352">
        <ele>819</ele>
        <time>2022-08-10T17:38:58.715Z</time>
      </trkpt>
      <trkpt lat="45.48104" lon="5.93356">
        <ele>819</ele>
        <time>2022-08-10T17:38:59.715Z</time>
      </trkpt>
      <trkpt lat="45.48106" lon="5.93359">
        <ele>819</ele>
        <time>2022-08-10T17:39:00.715Z</time>
      </trkpt>
      <trkpt lat="45.48109" lon="5.93362">
        <ele>819</ele>
        <time>2022-08-10T17:39:01.715Z</time>
      </trkpt>
      <trkpt lat="45.48113" lon="5.93364">
        <ele>818</ele>
        <time>2022-08-10T17:39:02.715Z</time>
      </trkpt>
      <trkpt lat="45.48116" lon="5.93365">
        <ele>818</ele>
        <time>2022-08-10T17:39:03.715Z</time>
      </trkpt>
      <trkpt lat="45.48118" lon="5.93366">
        <ele>818</ele>
        <time>2022-08-10T17:39:04.715Z</time>
      </trkpt>
      <trkpt lat="45.48121" lon="5.93368">
        <ele>817</ele>
        <time>2022-08-10T17:39:05.715Z</time>
      </trkpt>
      <trkpt lat="45.48126" lon="5.93371">
        <ele>816</ele>
        <time>2022-08-10T17:39:06.715Z</time>
      </trkpt>
      <trkpt lat="45.4813" lon="5.93373">
        <ele>816</ele>
        <time>2022-08-10T17:39:07.714Z</time>
      </trkpt>
      <trkpt lat="45.48134" lon="5.93373">
        <ele>815</ele>
        <time>2022-08-10T17:39:08.715Z</time>
      </trkpt>
      <trkpt lat="45.48138" lon="5.93373">
        <ele>814</ele>
        <time>2022-08-10T17:39:09.715Z</time>
      </trkpt>
      <trkpt lat="45.48142" lon="5.93374">
        <ele>813</ele>
        <time>2022-08-10T17:39:10.715Z</time>
      </trkpt>
      <trkpt lat="45.48146" lon="5.93375">
        <ele>812</ele>
        <time>2022-08-10T17:39:11.714Z</time>
      </trkpt>
      <trkpt lat="45.48149" lon="5.93377">
        <ele>811</ele>
        <time>2022-08-10T17:39:12.714Z</time>
      </trkpt>
      <trkpt lat="45.48152" lon="5.93378">
        <ele>810</ele>
        <time>2022-08-10T17:39:13.715Z</time>
      </trkpt>
      <trkpt lat="45.48154" lon="5.9338">
        <ele>810</ele>
        <time>2022-08-10T17:39:14.714Z</time>
      </trkpt>
      <trkpt lat="45.48155" lon="5.93383">
        <ele>809</ele>
        <time>2022-08-10T17:39:15.715Z</time>
      </trkpt>
      <trkpt lat="45.48156" lon="5.93388">
        <ele>808</ele>
        <time>2022-08-10T17:39:16.714Z</time>
      </trkpt>
      <trkpt lat="45.48157" lon="5.93393">
        <ele>808</ele>
        <time>2022-08-10T17:39:17.715Z</time>
      </trkpt>
      <trkpt lat="45.48159" lon="5.93397">
        <ele>807</ele>
        <time>2022-08-10T17:39:18.715Z</time>
      </trkpt>
      <trkpt lat="45.48161" lon="5.93401">
        <ele>807</ele>
        <time>2022-08-10T17:39:19.714Z</time>
      </trkpt>
      <trkpt lat="45.48163" lon="5.93405">
        <ele>806</ele>
        <time>2022-08-10T17:39:20.715Z</time>
      </trkpt>
      <trkpt lat="45.48165" lon="5.93408">
        <ele>806</ele>
        <time>2022-08-10T17:39:21.715Z</time>
      </trkpt>
      <trkpt lat="45.48167" lon="5.9341">
        <ele>805</ele>
        <time>2022-08-10T17:39:22.714Z</time>
      </trkpt>
      <trkpt lat="45.4817" lon="5.93412">
        <ele>805</ele>
        <time>2022-08-10T17:39:23.715Z</time>
      </trkpt>
      <trkpt lat="45.48174" lon="5.93414">
        <ele>804</ele>
        <time>2022-08-10T17:39:24.714Z</time>
      </trkpt>
      <trkpt lat="45.48177" lon="5.93415">
        <ele>804</ele>
        <time>2022-08-10T17:39:25.715Z</time>
      </trkpt>
      <trkpt lat="45.48181" lon="5.93418">
        <ele>803</ele>
        <time>2022-08-10T17:39:26.715Z</time>
      </trkpt>
      <trkpt lat="45.48184" lon="5.9342">
        <ele>803</ele>
        <time>2022-08-10T17:39:27.715Z</time>
      </trkpt>
      <trkpt lat="45.48187" lon="5.93422">
        <ele>802</ele>
        <time>2022-08-10T17:39:28.715Z</time>
      </trkpt>
      <trkpt lat="45.48189" lon="5.93423">
        <ele>802</ele>
        <time>2022-08-10T17:39:29.714Z</time>
      </trkpt>
      <trkpt lat="45.48191" lon="5.93424">
        <ele>802</ele>
        <time>2022-08-10T17:39:30.714Z</time>
      </trkpt>
      <trkpt lat="45.48193" lon="5.93425">
        <ele>801</ele>
        <time>2022-08-10T17:39:31.715Z</time>
      </trkpt>
      <trkpt lat="45.48197" lon="5.93425">
        <ele>801</ele>
        <time>2022-08-10T17:39:32.714Z</time>
      </trkpt>
      <trkpt lat="45.48201" lon="5.93427">
        <ele>800</ele>
        <time>2022-08-10T17:39:33.715Z</time>
      </trkpt>
      <trkpt lat="45.48205" lon="5.93428">
        <ele>800</ele>
        <time>2022-08-10T17:39:34.714Z</time>
      </trkpt>
      <trkpt lat="45.48208" lon="5.9343">
        <ele>799</ele>
        <time>2022-08-10T17:39:35.715Z</time>
      </trkpt>
      <trkpt lat="45.48212" lon="5.93431">
        <ele>799</ele>
        <time>2022-08-10T17:39:36.715Z</time>
      </trkpt>
      <trkpt lat="45.48215" lon="5.93433">
        <ele>799</ele>
        <time>2022-08-10T17:39:37.715Z</time>
      </trkpt>
      <trkpt lat="45.48217" lon="5.93434">
        <ele>798</ele>
        <time>2022-08-10T17:39:38.715Z</time>
      </trkpt>
      <trkpt lat="45.4822" lon="5.93435">
        <ele>798</ele>
        <time>2022-08-10T17:39:39.715Z</time>
      </trkpt>
      <trkpt lat="45.48224" lon="5.93439">
        <ele>797</ele>
        <time>2022-08-10T17:39:40.715Z</time>
      </trkpt>
      <trkpt lat="45.48227" lon="5.93444">
        <ele>797</ele>
        <time>2022-08-10T17:39:41.715Z</time>
      </trkpt>
      <trkpt lat="45.48229" lon="5.93447">
        <ele>796</ele>
        <time>2022-08-10T17:39:42.715Z</time>
      </trkpt>
      <trkpt lat="45.48231" lon="5.93452">
        <ele>796</ele>
        <time>2022-08-10T17:39:43.714Z</time>
      </trkpt>
      <trkpt lat="45.48232" lon="5.93456">
        <ele>795</ele>
        <time>2022-08-10T17:39:44.715Z</time>
      </trkpt>
      <trkpt lat="45.48233" lon="5.93459">
        <ele>794</ele>
        <time>2022-08-10T17:39:45.715Z</time>
      </trkpt>
      <trkpt lat="45.48234" lon="5.93462">
        <ele>793</ele>
        <time>2022-08-10T17:39:46.715Z</time>
      </trkpt>
      <trkpt lat="45.48235" lon="5.93465">
        <ele>793</ele>
        <time>2022-08-10T17:39:47.715Z</time>
      </trkpt>
      <trkpt lat="45.48236" lon="5.93468">
        <ele>792</ele>
        <time>2022-08-10T17:39:48.715Z</time>
      </trkpt>
      <trkpt lat="45.48238" lon="5.9347">
        <ele>792</ele>
        <time>2022-08-10T17:39:49.715Z</time>
      </trkpt>
      <trkpt lat="45.48238" lon="5.93474">
        <ele>791</ele>
        <time>2022-08-10T17:39:50.715Z</time>
      </trkpt>
      <trkpt lat="45.4824" lon="5.93476">
        <ele>791</ele>
        <time>2022-08-10T17:39:51.714Z</time>
      </trkpt>
      <trkpt lat="45.48242" lon="5.93478">
        <ele>790</ele>
        <time>2022-08-10T17:39:52.714Z</time>
      </trkpt>
      <trkpt lat="45.48243" lon="5.9348">
        <ele>789</ele>
        <time>2022-08-10T17:39:53.715Z</time>
      </trkpt>
      <trkpt lat="45.48245" lon="5.93482">
        <ele>788</ele>
        <time>2022-08-10T17:39:54.715Z</time>
      </trkpt>
      <trkpt lat="45.48246" lon="5.93485">
        <ele>787</ele>
        <time>2022-08-10T17:39:55.714Z</time>
      </trkpt>
      <trkpt lat="45.48247" lon="5.93489">
        <ele>786</ele>
        <time>2022-08-10T17:39:56.715Z</time>
      </trkpt>
      <trkpt lat="45.48247" lon="5.93493">
        <ele>786</ele>
        <time>2022-08-10T17:39:57.715Z</time>
      </trkpt>
      <trkpt lat="45.48248" lon="5.93497">
        <ele>785</ele>
        <time>2022-08-10T17:39:58.715Z</time>
      </trkpt>
      <trkpt lat="45.48249" lon="5.93501">
        <ele>784</ele>
        <time>2022-08-10T17:39:59.715Z</time>
      </trkpt>
      <trkpt lat="45.48249" lon="5.93505">
        <ele>783</ele>
        <time>2022-08-10T17:40:00.714Z</time>
      </trkpt>
      <trkpt lat="45.48249" lon="5.9351">
        <ele>783</ele>
        <time>2022-08-10T17:40:01.715Z</time>
      </trkpt>
      <trkpt lat="45.48251" lon="5.93513">
        <ele>782</ele>
        <time>2022-08-10T17:40:02.715Z</time>
      </trkpt>
      <trkpt lat="45.48253" lon="5.93517">
        <ele>781</ele>
        <time>2022-08-10T17:40:03.715Z</time>
      </trkpt>
      <trkpt lat="45.48254" lon="5.93521">
        <ele>780</ele>
        <time>2022-08-10T17:40:04.714Z</time>
      </trkpt>
      <trkpt lat="45.48254" lon="5.93525">
        <ele>779</ele>
        <time>2022-08-10T17:40:05.715Z</time>
      </trkpt>
      <trkpt lat="45.48255" lon="5.93529">
        <ele>779</ele>
        <time>2022-08-10T17:40:06.714Z</time>
      </trkpt>
      <trkpt lat="45.48257" lon="5.93532">
        <ele>778</ele>
        <time>2022-08-10T17:40:07.715Z</time>
      </trkpt>
      <trkpt lat="45.4826" lon="5.93534">
        <ele>778</ele>
        <time>2022-08-10T17:40:08.715Z</time>
      </trkpt>
      <trkpt lat="45.48263" lon="5.93538">
        <ele>777</ele>
        <time>2022-08-10T17:40:09.715Z</time>
      </trkpt>
      <trkpt lat="45.48266" lon="5.93542">
        <ele>777</ele>
        <time>2022-08-10T17:40:10.714Z</time>
      </trkpt>
      <trkpt lat="45.48269" lon="5.93546">
        <ele>776</ele>
        <time>2022-08-10T17:40:11.714Z</time>
      </trkpt>
      <trkpt lat="45.48271" lon="5.93553">
        <ele>775</ele>
        <time>2022-08-10T17:40:12.715Z</time>
      </trkpt>
      <trkpt lat="45.48273" lon="5.9356">
        <ele>775</ele>
        <time>2022-08-10T17:40:13.715Z</time>
      </trkpt>
      <trkpt lat="45.48274" lon="5.93565">
        <ele>774</ele>
        <time>2022-08-10T17:40:14.715Z</time>
      </trkpt>
      <trkpt lat="45.48276" lon="5.93573">
        <ele>773</ele>
        <time>2022-08-10T17:40:15.715Z</time>
      </trkpt>
      <trkpt lat="45.48279" lon="5.9358">
        <ele>773</ele>
        <time>2022-08-10T17:40:16.715Z</time>
      </trkpt>
      <trkpt lat="45.48281" lon="5.93585">
        <ele>772</ele>
        <time>2022-08-10T17:40:17.715Z</time>
      </trkpt>
      <trkpt lat="45.48282" lon="5.9359">
        <ele>771</ele>
        <time>2022-08-10T17:40:18.715Z</time>
      </trkpt>
      <trkpt lat="45.48283" lon="5.93593">
        <ele>770</ele>
        <time>2022-08-10T17:40:19.715Z</time>
      </trkpt>
      <trkpt lat="45.48283" lon="5.93595">
        <ele>769</ele>
        <time>2022-08-10T17:40:20.715Z</time>
      </trkpt>
      <trkpt lat="45.48283" lon="5.93596">
        <ele>769</ele>
        <time>2022-08-10T17:40:21.714Z</time>
      </trkpt>
      <trkpt lat="45.48283" lon="5.93598">
        <ele>768</ele>
        <time>2022-08-10T17:40:22.715Z</time>
      </trkpt>
      <trkpt lat="45.48283" lon="5.93599">
        <ele>768</ele>
        <time>2022-08-10T17:40:23.715Z</time>
      </trkpt>
      <trkpt lat="45.48282" lon="5.936">
        <ele>767</ele>
        <time>2022-08-10T17:40:24.715Z</time>
      </trkpt>
      <trkpt lat="45.48282" lon="5.93602">
        <ele>766</ele>
        <time>2022-08-10T17:40:25.714Z</time>
      </trkpt>
      <trkpt lat="45.4828" lon="5.93612">
        <ele>763</ele>
        <time>2022-08-10T17:40:35.858Z</time>
      </trkpt>
      <trkpt lat="45.4828" lon="5.93611">
        <ele>763</ele>
        <time>2022-08-10T17:40:36.858Z</time>
      </trkpt>
      <trkpt lat="45.48282" lon="5.9361">
        <ele>763</ele>
        <time>2022-08-10T17:40:37.859Z</time>
      </trkpt>
      <trkpt lat="45.48282" lon="5.93609">
        <ele>762</ele>
        <time>2022-08-10T17:40:38.858Z</time>
      </trkpt>
      <trkpt lat="45.48283" lon="5.93609">
        <ele>761</ele>
        <time>2022-08-10T17:40:39.858Z</time>
      </trkpt>
      <trkpt lat="45.48283" lon="5.93608">
        <ele>760</ele>
        <time>2022-08-10T17:40:40.858Z</time>
      </trkpt>
      <trkpt lat="45.48284" lon="5.93607">
        <ele>760</ele>
        <time>2022-08-10T17:40:41.858Z</time>
      </trkpt>
      <trkpt lat="45.48283" lon="5.93607">
        <ele>759</ele>
        <time>2022-08-10T17:40:42.859Z</time>
      </trkpt>
      <trkpt lat="45.48286" lon="5.936">
        <ele>751</ele>
        <time>2022-08-10T17:40:56.957Z</time>
      </trkpt>
      <trkpt lat="45.48288" lon="5.93599">
        <ele>750</ele>
        <time>2022-08-10T17:40:57.957Z</time>
      </trkpt>
      <trkpt lat="45.48289" lon="5.93597">
        <ele>750</ele>
        <time>2022-08-10T17:40:58.957Z</time>
      </trkpt>
      <trkpt lat="45.48291" lon="5.93594">
        <ele>749</ele>
        <time>2022-08-10T17:40:59.957Z</time>
      </trkpt>
      <trkpt lat="45.48293" lon="5.93591">
        <ele>748</ele>
        <time>2022-08-10T17:41:00.957Z</time>
      </trkpt>
      <trkpt lat="45.48295" lon="5.93588">
        <ele>748</ele>
        <time>2022-08-10T17:41:01.957Z</time>
      </trkpt>
      <trkpt lat="45.48298" lon="5.93586">
        <ele>748</ele>
        <time>2022-08-10T17:41:02.957Z</time>
      </trkpt>
      <trkpt lat="45.48301" lon="5.93585">
        <ele>747</ele>
        <time>2022-08-10T17:41:03.957Z</time>
      </trkpt>
      <trkpt lat="45.48303" lon="5.93584">
        <ele>747</ele>
        <time>2022-08-10T17:41:04.957Z</time>
      </trkpt>
      <trkpt lat="45.48305" lon="5.93582">
        <ele>747</ele>
        <time>2022-08-10T17:41:05.957Z</time>
      </trkpt>
      <trkpt lat="45.48308" lon="5.9358">
        <ele>747</ele>
        <time>2022-08-10T17:41:06.957Z</time>
      </trkpt>
      <trkpt lat="45.48309" lon="5.93579">
        <ele>747</ele>
        <time>2022-08-10T17:41:07.957Z</time>
      </trkpt>
      <trkpt lat="45.4831" lon="5.93579">
        <ele>747</ele>
        <time>2022-08-10T17:41:08.957Z</time>
      </trkpt>
      <trkpt lat="45.48312" lon="5.93579">
        <ele>746</ele>
        <time>2022-08-10T17:41:09.957Z</time>
      </trkpt>
      <trkpt lat="45.48314" lon="5.9358">
        <ele>746</ele>
        <time>2022-08-10T17:41:10.957Z</time>
      </trkpt>
      <trkpt lat="45.48317" lon="5.93581">
        <ele>746</ele>
        <time>2022-08-10T17:41:11.958Z</time>
      </trkpt>
      <trkpt lat="45.48319" lon="5.93582">
        <ele>746</ele>
        <time>2022-08-10T17:41:12.958Z</time>
      </trkpt>
      <trkpt lat="45.48321" lon="5.93582">
        <ele>746</ele>
        <time>2022-08-10T17:41:13.957Z</time>
      </trkpt>
      <trkpt lat="45.48323" lon="5.93582">
        <ele>746</ele>
        <time>2022-08-10T17:41:14.957Z</time>
      </trkpt>
      <trkpt lat="45.48325" lon="5.93582">
        <ele>746</ele>
        <time>2022-08-10T17:41:15.957Z</time>
      </trkpt>
      <trkpt lat="45.48327" lon="5.93582">
        <ele>746</ele>
        <time>2022-08-10T17:41:16.957Z</time>
      </trkpt>
      <trkpt lat="45.48329" lon="5.93581">
        <ele>746</ele>
        <time>2022-08-10T17:41:17.957Z</time>
      </trkpt>
      <trkpt lat="45.48331" lon="5.93581">
        <ele>746</ele>
        <time>2022-08-10T17:41:18.958Z</time>
      </trkpt>
      <trkpt lat="45.48332" lon="5.9358">
        <ele>746</ele>
        <time>2022-08-10T17:41:19.957Z</time>
      </trkpt>
      <trkpt lat="45.48334" lon="5.93579">
        <ele>746</ele>
        <time>2022-08-10T17:41:20.958Z</time>
      </trkpt>
      <trkpt lat="45.48336" lon="5.93579">
        <ele>746</ele>
        <time>2022-08-10T17:41:21.958Z</time>
      </trkpt>
      <trkpt lat="45.48337" lon="5.93579">
        <ele>746</ele>
        <time>2022-08-10T17:41:22.957Z</time>
      </trkpt>
      <trkpt lat="45.4834" lon="5.9358">
        <ele>745</ele>
        <time>2022-08-10T17:41:23.958Z</time>
      </trkpt>
      <trkpt lat="45.48343" lon="5.93581">
        <ele>745</ele>
        <time>2022-08-10T17:41:24.957Z</time>
      </trkpt>
      <trkpt lat="45.48345" lon="5.9358">
        <ele>745</ele>
        <time>2022-08-10T17:41:25.957Z</time>
      </trkpt>
      <trkpt lat="45.48348" lon="5.9358">
        <ele>746</ele>
        <time>2022-08-10T17:41:26.958Z</time>
      </trkpt>
      <trkpt lat="45.48351" lon="5.9358">
        <ele>746</ele>
        <time>2022-08-10T17:41:27.957Z</time>
      </trkpt>
      <trkpt lat="45.48354" lon="5.9358">
        <ele>746</ele>
        <time>2022-08-10T17:41:28.957Z</time>
      </trkpt>
      <trkpt lat="45.48357" lon="5.9358">
        <ele>745</ele>
        <time>2022-08-10T17:41:29.957Z</time>
      </trkpt>
      <trkpt lat="45.48361" lon="5.93581">
        <ele>745</ele>
        <time>2022-08-10T17:41:30.958Z</time>
      </trkpt>
      <trkpt lat="45.48365" lon="5.93582">
        <ele>746</ele>
        <time>2022-08-10T17:41:31.958Z</time>
      </trkpt>
      <trkpt lat="45.48368" lon="5.93584">
        <ele>746</ele>
        <time>2022-08-10T17:41:32.957Z</time>
      </trkpt>
      <trkpt lat="45.48373" lon="5.93586">
        <ele>746</ele>
        <time>2022-08-10T17:41:33.957Z</time>
      </trkpt>
      <trkpt lat="45.48377" lon="5.93588">
        <ele>747</ele>
        <time>2022-08-10T17:41:34.957Z</time>
      </trkpt>
      <trkpt lat="45.48382" lon="5.93589">
        <ele>747</ele>
        <time>2022-08-10T17:41:35.957Z</time>
      </trkpt>
      <trkpt lat="45.48387" lon="5.9359">
        <ele>747</ele>
        <time>2022-08-10T17:41:36.957Z</time>
      </trkpt>
      <trkpt lat="45.48393" lon="5.9359">
        <ele>747</ele>
        <time>2022-08-10T17:41:37.957Z</time>
      </trkpt>
      <trkpt lat="45.48397" lon="5.9359">
        <ele>747</ele>
        <time>2022-08-10T17:41:38.957Z</time>
      </trkpt>
      <trkpt lat="45.48401" lon="5.93589">
        <ele>746</ele>
        <time>2022-08-10T17:41:39.957Z</time>
      </trkpt>
      <trkpt lat="45.48405" lon="5.93587">
        <ele>746</ele>
        <time>2022-08-10T17:41:40.958Z</time>
      </trkpt>
      <trkpt lat="45.48408" lon="5.93586">
        <ele>747</ele>
        <time>2022-08-10T17:41:41.957Z</time>
      </trkpt>
      <trkpt lat="45.48411" lon="5.93584">
        <ele>747</ele>
        <time>2022-08-10T17:41:42.957Z</time>
      </trkpt>
      <trkpt lat="45.48415" lon="5.93582">
        <ele>746</ele>
        <time>2022-08-10T17:41:43.958Z</time>
      </trkpt>
      <trkpt lat="45.48418" lon="5.9358">
        <ele>746</ele>
        <time>2022-08-10T17:41:44.957Z</time>
      </trkpt>
      <trkpt lat="45.48419" lon="5.93579">
        <ele>745</ele>
        <time>2022-08-10T17:41:45.958Z</time>
      </trkpt>
      <trkpt lat="45.4842" lon="5.93578">
        <ele>745</ele>
        <time>2022-08-10T17:41:46.958Z</time>
      </trkpt>
      <trkpt lat="45.4842" lon="5.93576">
        <ele>744</ele>
        <time>2022-08-10T17:41:47.957Z</time>
      </trkpt>
      <trkpt lat="45.4842" lon="5.93574">
        <ele>744</ele>
        <time>2022-08-10T17:41:48.957Z</time>
      </trkpt>
      <trkpt lat="45.4842" lon="5.93573">
        <ele>744</ele>
        <time>2022-08-10T17:41:49.957Z</time>
      </trkpt>
      <trkpt lat="45.48421" lon="5.93573">
        <ele>743</ele>
        <time>2022-08-10T17:41:54.061Z</time>
      </trkpt>
      <trkpt lat="45.48422" lon="5.93573">
        <ele>742</ele>
        <time>2022-08-10T17:41:55.060Z</time>
      </trkpt>
      <trkpt lat="45.48424" lon="5.93569">
        <ele>736</ele>
        <time>2022-08-10T17:42:06.083Z</time>
      </trkpt>
      <trkpt lat="45.48425" lon="5.93568">
        <ele>735</ele>
        <time>2022-08-10T17:42:07.083Z</time>
      </trkpt>
      <trkpt lat="45.48426" lon="5.93567">
        <ele>735</ele>
        <time>2022-08-10T17:42:08.082Z</time>
      </trkpt>
      <trkpt lat="45.48425" lon="5.93567">
        <ele>735</ele>
        <time>2022-08-10T17:42:14.255Z</time>
      </trkpt>
      <trkpt lat="45.48425" lon="5.93568">
        <ele>736</ele>
        <time>2022-08-10T17:42:18.084Z</time>
      </trkpt>
      <trkpt lat="45.48424" lon="5.93568">
        <ele>736</ele>
        <time>2022-08-10T17:42:20.083Z</time>
      </trkpt>
      <trkpt lat="45.48423" lon="5.93567">
        <ele>736</ele>
        <time>2022-08-10T17:42:21.084Z</time>
      </trkpt>
      <trkpt lat="45.48422" lon="5.93567">
        <ele>736</ele>
        <time>2022-08-10T17:42:22.084Z</time>
      </trkpt>
      <trkpt lat="45.4842" lon="5.93566">
        <ele>736</ele>
        <time>2022-08-10T17:42:23.084Z</time>
      </trkpt>
      <trkpt lat="45.48418" lon="5.93564">
        <ele>736</ele>
        <time>2022-08-10T17:42:24.084Z</time>
      </trkpt>
      <trkpt lat="45.48417" lon="5.93562">
        <ele>737</ele>
        <time>2022-08-10T17:42:25.084Z</time>
      </trkpt>
      <trkpt lat="45.48416" lon="5.93561">
        <ele>737</ele>
        <time>2022-08-10T17:42:26.084Z</time>
      </trkpt>
      <trkpt lat="45.48415" lon="5.9356">
        <ele>738</ele>
        <time>2022-08-10T17:42:27.084Z</time>
      </trkpt>
      <trkpt lat="45.48414" lon="5.9356">
        <ele>738</ele>
        <time>2022-08-10T17:42:28.084Z</time>
      </trkpt>
      <trkpt lat="45.48414" lon="5.93559">
        <ele>738</ele>
        <time>2022-08-10T17:42:29.084Z</time>
      </trkpt>
      <trkpt lat="45.48415" lon="5.93559">
        <ele>739</ele>
        <time>2022-08-10T17:42:30.084Z</time>
      </trkpt>
      <trkpt lat="45.48417" lon="5.93557">
        <ele>740</ele>
        <time>2022-08-10T17:42:33.174Z</time>
      </trkpt>
      <trkpt lat="45.48418" lon="5.93558">
        <ele>740</ele>
        <time>2022-08-10T17:42:34.174Z</time>
      </trkpt>
      <trkpt lat="45.4842" lon="5.93558">
        <ele>741</ele>
        <time>2022-08-10T17:42:35.173Z</time>
      </trkpt>
      <trkpt lat="45.48421" lon="5.93559">
        <ele>741</ele>
        <time>2022-08-10T17:42:36.174Z</time>
      </trkpt>
      <trkpt lat="45.48423" lon="5.9356">
        <ele>741</ele>
        <time>2022-08-10T17:42:37.174Z</time>
      </trkpt>
      <trkpt lat="45.48424" lon="5.93562">
        <ele>742</ele>
        <time>2022-08-10T17:42:38.174Z</time>
      </trkpt>
      <trkpt lat="45.48425" lon="5.93563">
        <ele>741</ele>
        <time>2022-08-10T17:42:39.174Z</time>
      </trkpt>
      <trkpt lat="45.48426" lon="5.93564">
        <ele>741</ele>
        <time>2022-08-10T17:42:40.174Z</time>
      </trkpt>
      <trkpt lat="45.48427" lon="5.93564">
        <ele>741</ele>
        <time>2022-08-10T17:42:41.174Z</time>
      </trkpt>
      <trkpt lat="45.48427" lon="5.93565">
        <ele>740</ele>
        <time>2022-08-10T17:42:42.174Z</time>
      </trkpt>
      <trkpt lat="45.48429" lon="5.93565">
        <ele>740</ele>
        <time>2022-08-10T17:42:43.173Z</time>
      </trkpt>
      <trkpt lat="45.4843" lon="5.93567">
        <ele>739</ele>
        <time>2022-08-10T17:42:44.173Z</time>
      </trkpt>
      <trkpt lat="45.4843" lon="5.93568">
        <ele>739</ele>
        <time>2022-08-10T17:42:45.174Z</time>
      </trkpt>
      <trkpt lat="45.4843" lon="5.93569">
        <ele>738</ele>
        <time>2022-08-10T17:42:46.174Z</time>
      </trkpt>
      <trkpt lat="45.48431" lon="5.93569">
        <ele>738</ele>
        <time>2022-08-10T17:42:47.174Z</time>
      </trkpt>
      <trkpt lat="45.4843" lon="5.93569">
        <ele>739</ele>
        <time>2022-08-10T17:42:50.173Z</time>
      </trkpt>
      <trkpt lat="45.4843" lon="5.9357">
        <ele>738</ele>
        <time>2022-08-10T17:42:52.174Z</time>
      </trkpt>
      <trkpt lat="45.48429" lon="5.93571">
        <ele>738</ele>
        <time>2022-08-10T17:42:53.173Z</time>
      </trkpt>
      <trkpt lat="45.48428" lon="5.93572">
        <ele>738</ele>
        <time>2022-08-10T17:42:55.173Z</time>
      </trkpt>
      <trkpt lat="45.48428" lon="5.93573">
        <ele>739</ele>
        <time>2022-08-10T17:42:57.174Z</time>
      </trkpt>
      <trkpt lat="45.48434" lon="5.93574">
        <ele>730</ele>
        <time>2022-08-10T17:45:44.333Z</time>
      </trkpt>
      <trkpt lat="45.48437" lon="5.93574">
        <ele>730</ele>
        <time>2022-08-10T17:45:45.333Z</time>
      </trkpt>
      <trkpt lat="45.4844" lon="5.93575">
        <ele>730</ele>
        <time>2022-08-10T17:45:46.332Z</time>
      </trkpt>
      <trkpt lat="45.48442" lon="5.93575">
        <ele>730</ele>
        <time>2022-08-10T17:45:47.333Z</time>
      </trkpt>
      <trkpt lat="45.48443" lon="5.93576">
        <ele>730</ele>
        <time>2022-08-10T17:45:48.333Z</time>
      </trkpt>
      <trkpt lat="45.48445" lon="5.93576">
        <ele>730</ele>
        <time>2022-08-10T17:45:49.333Z</time>
      </trkpt>
      <trkpt lat="45.48446" lon="5.93576">
        <ele>731</ele>
        <time>2022-08-10T17:45:50.333Z</time>
      </trkpt>
      <trkpt lat="45.48447" lon="5.93577">
        <ele>731</ele>
        <time>2022-08-10T17:45:51.333Z</time>
      </trkpt>
      <trkpt lat="45.48448" lon="5.93578">
        <ele>731</ele>
        <time>2022-08-10T17:45:52.333Z</time>
      </trkpt>
      <trkpt lat="45.48449" lon="5.93579">
        <ele>731</ele>
        <time>2022-08-10T17:45:53.333Z</time>
      </trkpt>
      <trkpt lat="45.48449" lon="5.9358">
        <ele>732</ele>
        <time>2022-08-10T17:45:54.333Z</time>
      </trkpt>
      <trkpt lat="45.4845" lon="5.9358">
        <ele>732</ele>
        <time>2022-08-10T17:45:55.333Z</time>
      </trkpt>
      <trkpt lat="45.48451" lon="5.93581">
        <ele>732</ele>
        <time>2022-08-10T17:45:56.333Z</time>
      </trkpt>
      <trkpt lat="45.48453" lon="5.93581">
        <ele>733</ele>
        <time>2022-08-10T17:45:57.332Z</time>
      </trkpt>
      <trkpt lat="45.48455" lon="5.93583">
        <ele>733</ele>
        <time>2022-08-10T17:45:58.333Z</time>
      </trkpt>
      <trkpt lat="45.48457" lon="5.93585">
        <ele>734</ele>
        <time>2022-08-10T17:45:59.333Z</time>
      </trkpt>
      <trkpt lat="45.48459" lon="5.93588">
        <ele>734</ele>
        <time>2022-08-10T17:46:00.333Z</time>
      </trkpt>
      <trkpt lat="45.48461" lon="5.93591">
        <ele>734</ele>
        <time>2022-08-10T17:46:01.333Z</time>
      </trkpt>
      <trkpt lat="45.48463" lon="5.93594">
        <ele>734</ele>
        <time>2022-08-10T17:46:02.332Z</time>
      </trkpt>
      <trkpt lat="45.48464" lon="5.93596">
        <ele>734</ele>
        <time>2022-08-10T17:46:03.333Z</time>
      </trkpt>
      <trkpt lat="45.48465" lon="5.93599">
        <ele>735</ele>
        <time>2022-08-10T17:46:04.333Z</time>
      </trkpt>
      <trkpt lat="45.48466" lon="5.93601">
        <ele>735</ele>
        <time>2022-08-10T17:46:05.333Z</time>
      </trkpt>
      <trkpt lat="45.48467" lon="5.93604">
        <ele>735</ele>
        <time>2022-08-10T17:46:06.333Z</time>
      </trkpt>
      <trkpt lat="45.48468" lon="5.93607">
        <ele>735</ele>
        <time>2022-08-10T17:46:07.333Z</time>
      </trkpt>
      <trkpt lat="45.48469" lon="5.9361">
        <ele>736</ele>
        <time>2022-08-10T17:46:08.333Z</time>
      </trkpt>
      <trkpt lat="45.48469" lon="5.93613">
        <ele>736</ele>
        <time>2022-08-10T17:46:09.333Z</time>
      </trkpt>
      <trkpt lat="45.48471" lon="5.93617">
        <ele>736</ele>
        <time>2022-08-10T17:46:10.332Z</time>
      </trkpt>
      <trkpt lat="45.48471" lon="5.93622">
        <ele>736</ele>
        <time>2022-08-10T17:46:11.333Z</time>
      </trkpt>
      <trkpt lat="45.48472" lon="5.93625">
        <ele>736</ele>
        <time>2022-08-10T17:46:12.333Z</time>
      </trkpt>
      <trkpt lat="45.48474" lon="5.9363">
        <ele>736</ele>
        <time>2022-08-10T17:46:13.333Z</time>
      </trkpt>
      <trkpt lat="45.48475" lon="5.93634">
        <ele>736</ele>
        <time>2022-08-10T17:46:14.333Z</time>
      </trkpt>
      <trkpt lat="45.48477" lon="5.93639">
        <ele>736</ele>
        <time>2022-08-10T17:46:15.333Z</time>
      </trkpt>
      <trkpt lat="45.48479" lon="5.93644">
        <ele>736</ele>
        <time>2022-08-10T17:46:16.333Z</time>
      </trkpt>
      <trkpt lat="45.4848" lon="5.93649">
        <ele>735</ele>
        <time>2022-08-10T17:46:17.333Z</time>
      </trkpt>
      <trkpt lat="45.48481" lon="5.93655">
        <ele>735</ele>
        <time>2022-08-10T17:46:18.333Z</time>
      </trkpt>
      <trkpt lat="45.48481" lon="5.93662">
        <ele>734</ele>
        <time>2022-08-10T17:46:19.333Z</time>
      </trkpt>
      <trkpt lat="45.4848" lon="5.93667">
        <ele>734</ele>
        <time>2022-08-10T17:46:20.333Z</time>
      </trkpt>
      <trkpt lat="45.48479" lon="5.93671">
        <ele>734</ele>
        <time>2022-08-10T17:46:21.332Z</time>
      </trkpt>
      <trkpt lat="45.48478" lon="5.93673">
        <ele>733</ele>
        <time>2022-08-10T17:46:22.333Z</time>
      </trkpt>
      <trkpt lat="45.48477" lon="5.93674">
        <ele>733</ele>
        <time>2022-08-10T17:46:23.333Z</time>
      </trkpt>
      <trkpt lat="45.48477" lon="5.93676">
        <ele>733</ele>
        <time>2022-08-10T17:46:24.333Z</time>
      </trkpt>
      <trkpt lat="45.48477" lon="5.93677">
        <ele>732</ele>
        <time>2022-08-10T17:46:26.332Z</time>
      </trkpt>
      <trkpt lat="45.48479" lon="5.93677">
        <ele>732</ele>
        <time>2022-08-10T17:46:27.332Z</time>
      </trkpt>
      <trkpt lat="45.48478" lon="5.93681">
        <ele>727</ele>
        <time>2022-08-10T17:48:11.468Z</time>
      </trkpt>
      <trkpt lat="45.48478" lon="5.93682">
        <ele>727</ele>
        <time>2022-08-10T17:48:12.468Z</time>
      </trkpt>
      <trkpt lat="45.48478" lon="5.93683">
        <ele>727</ele>
        <time>2022-08-10T17:48:13.468Z</time>
      </trkpt>
      <trkpt lat="45.48479" lon="5.93682">
        <ele>727</ele>
        <time>2022-08-10T17:48:14.469Z</time>
      </trkpt>
      <trkpt lat="45.48479" lon="5.93681">
        <ele>727</ele>
        <time>2022-08-10T17:48:15.469Z</time>
      </trkpt>
      <trkpt lat="45.4848" lon="5.93681">
        <ele>727</ele>
        <time>2022-08-10T17:48:16.469Z</time>
      </trkpt>
      <trkpt lat="45.48482" lon="5.93681">
        <ele>728</ele>
        <time>2022-08-10T17:48:17.468Z</time>
      </trkpt>
      <trkpt lat="45.48482" lon="5.9368">
        <ele>728</ele>
        <time>2022-08-10T17:48:18.469Z</time>
      </trkpt>
      <trkpt lat="45.48482" lon="5.93679">
        <ele>728</ele>
        <time>2022-08-10T17:48:19.469Z</time>
      </trkpt>
      <trkpt lat="45.48483" lon="5.93678">
        <ele>729</ele>
        <time>2022-08-10T17:48:20.468Z</time>
      </trkpt>
      <trkpt lat="45.48484" lon="5.93676">
        <ele>729</ele>
        <time>2022-08-10T17:48:21.469Z</time>
      </trkpt>
      <trkpt lat="45.48485" lon="5.93675">
        <ele>729</ele>
        <time>2022-08-10T17:48:22.469Z</time>
      </trkpt>
      <trkpt lat="45.48486" lon="5.93674">
        <ele>729</ele>
        <time>2022-08-10T17:48:23.469Z</time>
      </trkpt>
      <trkpt lat="45.48487" lon="5.93672">
        <ele>730</ele>
        <time>2022-08-10T17:48:24.469Z</time>
      </trkpt>
      <trkpt lat="45.48487" lon="5.93671">
        <ele>730</ele>
        <time>2022-08-10T17:48:25.469Z</time>
      </trkpt>
      <trkpt lat="45.48487" lon="5.93669">
        <ele>729</ele>
        <time>2022-08-10T17:48:26.468Z</time>
      </trkpt>
      <trkpt lat="45.48487" lon="5.93668">
        <ele>729</ele>
        <time>2022-08-10T17:48:27.469Z</time>
      </trkpt>
      <trkpt lat="45.48487" lon="5.93666">
        <ele>729</ele>
        <time>2022-08-10T17:48:28.468Z</time>
      </trkpt>
      <trkpt lat="45.48488" lon="5.93664">
        <ele>729</ele>
        <time>2022-08-10T17:48:29.469Z</time>
      </trkpt>
      <trkpt lat="45.48488" lon="5.93661">
        <ele>729</ele>
        <time>2022-08-10T17:48:30.469Z</time>
      </trkpt>
      <trkpt lat="45.48488" lon="5.93659">
        <ele>729</ele>
        <time>2022-08-10T17:48:31.469Z</time>
      </trkpt>
      <trkpt lat="45.48487" lon="5.93656">
        <ele>729</ele>
        <time>2022-08-10T17:48:32.469Z</time>
      </trkpt>
      <trkpt lat="45.48487" lon="5.93654">
        <ele>729</ele>
        <time>2022-08-10T17:48:33.469Z</time>
      </trkpt>
      <trkpt lat="45.48486" lon="5.93652">
        <ele>730</ele>
        <time>2022-08-10T17:48:34.469Z</time>
      </trkpt>
      <trkpt lat="45.48486" lon="5.9365">
        <ele>730</ele>
        <time>2022-08-10T17:48:35.469Z</time>
      </trkpt>
      <trkpt lat="45.48484" lon="5.93648">
        <ele>730</ele>
        <time>2022-08-10T17:48:36.468Z</time>
      </trkpt>
      <trkpt lat="45.48483" lon="5.93645">
        <ele>730</ele>
        <time>2022-08-10T17:48:37.469Z</time>
      </trkpt>
      <trkpt lat="45.48482" lon="5.93643">
        <ele>729</ele>
        <time>2022-08-10T17:48:38.469Z</time>
      </trkpt>
      <trkpt lat="45.48481" lon="5.93641">
        <ele>729</ele>
        <time>2022-08-10T17:48:39.469Z</time>
      </trkpt>
      <trkpt lat="45.4848" lon="5.93639">
        <ele>729</ele>
        <time>2022-08-10T17:48:40.469Z</time>
      </trkpt>
      <trkpt lat="45.48479" lon="5.93637">
        <ele>729</ele>
        <time>2022-08-10T17:48:41.468Z</time>
      </trkpt>
      <trkpt lat="45.48478" lon="5.93636">
        <ele>729</ele>
        <time>2022-08-10T17:48:42.469Z</time>
      </trkpt>
      <trkpt lat="45.48478" lon="5.93634">
        <ele>729</ele>
        <time>2022-08-10T17:48:43.468Z</time>
      </trkpt>
      <trkpt lat="45.48477" lon="5.93632">
        <ele>729</ele>
        <time>2022-08-10T17:48:44.469Z</time>
      </trkpt>
      <trkpt lat="45.48477" lon="5.9363">
        <ele>729</ele>
        <time>2022-08-10T17:48:45.469Z</time>
      </trkpt>
      <trkpt lat="45.48477" lon="5.93627">
        <ele>730</ele>
        <time>2022-08-10T17:48:46.469Z</time>
      </trkpt>
      <trkpt lat="45.48477" lon="5.93625">
        <ele>730</ele>
        <time>2022-08-10T17:48:47.469Z</time>
      </trkpt>
      <trkpt lat="45.48476" lon="5.93622">
        <ele>731</ele>
        <time>2022-08-10T17:48:48.469Z</time>
      </trkpt>
      <trkpt lat="45.48475" lon="5.9362">
        <ele>731</ele>
        <time>2022-08-10T17:48:49.469Z</time>
      </trkpt>
      <trkpt lat="45.48474" lon="5.93618">
        <ele>731</ele>
        <time>2022-08-10T17:48:50.468Z</time>
      </trkpt>
      <trkpt lat="45.48473" lon="5.93617">
        <ele>730</ele>
        <time>2022-08-10T17:48:51.469Z</time>
      </trkpt>
      <trkpt lat="45.48472" lon="5.93615">
        <ele>730</ele>
        <time>2022-08-10T17:48:52.468Z</time>
      </trkpt>
      <trkpt lat="45.48472" lon="5.93613">
        <ele>730</ele>
        <time>2022-08-10T17:48:53.468Z</time>
      </trkpt>
      <trkpt lat="45.48471" lon="5.93612">
        <ele>730</ele>
        <time>2022-08-10T17:48:54.468Z</time>
      </trkpt>
      <trkpt lat="45.4847" lon="5.9361">
        <ele>731</ele>
        <time>2022-08-10T17:48:55.469Z</time>
      </trkpt>
      <trkpt lat="45.48469" lon="5.93609">
        <ele>731</ele>
        <time>2022-08-10T17:48:56.469Z</time>
      </trkpt>
      <trkpt lat="45.48469" lon="5.93607">
        <ele>731</ele>
        <time>2022-08-10T17:48:57.468Z</time>
      </trkpt>
      <trkpt lat="45.48468" lon="5.93606">
        <ele>732</ele>
        <time>2022-08-10T17:48:58.469Z</time>
      </trkpt>
      <trkpt lat="45.48466" lon="5.93603">
        <ele>732</ele>
        <time>2022-08-10T17:48:59.469Z</time>
      </trkpt>
      <trkpt lat="45.48465" lon="5.93601">
        <ele>733</ele>
        <time>2022-08-10T17:49:00.469Z</time>
      </trkpt>
      <trkpt lat="45.48464" lon="5.93596">
        <ele>733</ele>
        <time>2022-08-10T17:49:01.469Z</time>
      </trkpt>
      <trkpt lat="45.48462" lon="5.93593">
        <ele>733</ele>
        <time>2022-08-10T17:49:02.468Z</time>
      </trkpt>
      <trkpt lat="45.48461" lon="5.9359">
        <ele>733</ele>
        <time>2022-08-10T17:49:03.469Z</time>
      </trkpt>
      <trkpt lat="45.4846" lon="5.93588">
        <ele>733</ele>
        <time>2022-08-10T17:49:04.469Z</time>
      </trkpt>
      <trkpt lat="45.48458" lon="5.93586">
        <ele>733</ele>
        <time>2022-08-10T17:49:05.469Z</time>
      </trkpt>
      <trkpt lat="45.48457" lon="5.93585">
        <ele>733</ele>
        <time>2022-08-10T17:49:06.469Z</time>
      </trkpt>
      <trkpt lat="45.48455" lon="5.93584">
        <ele>732</ele>
        <time>2022-08-10T17:49:07.468Z</time>
      </trkpt>
      <trkpt lat="45.48453" lon="5.93583">
        <ele>732</ele>
        <time>2022-08-10T17:49:08.469Z</time>
      </trkpt>
      <trkpt lat="45.48452" lon="5.93581">
        <ele>732</ele>
        <time>2022-08-10T17:49:09.469Z</time>
      </trkpt>
      <trkpt lat="45.48451" lon="5.9358">
        <ele>732</ele>
        <time>2022-08-10T17:49:10.469Z</time>
      </trkpt>
      <trkpt lat="45.48451" lon="5.93579">
        <ele>732</ele>
        <time>2022-08-10T17:49:11.469Z</time>
      </trkpt>
      <trkpt lat="45.48451" lon="5.93578">
        <ele>732</ele>
        <time>2022-08-10T17:49:12.469Z</time>
      </trkpt>
      <trkpt lat="45.4845" lon="5.93577">
        <ele>733</ele>
        <time>2022-08-10T17:49:13.469Z</time>
      </trkpt>
      <trkpt lat="45.48451" lon="5.93574">
        <ele>733</ele>
        <time>2022-08-10T17:49:14.468Z</time>
      </trkpt>
      <trkpt lat="45.4845" lon="5.93572">
        <ele>733</ele>
        <time>2022-08-10T17:49:15.468Z</time>
      </trkpt>
      <trkpt lat="45.48449" lon="5.93569">
        <ele>734</ele>
        <time>2022-08-10T17:49:16.469Z</time>
      </trkpt>
      <trkpt lat="45.48449" lon="5.93567">
        <ele>734</ele>
        <time>2022-08-10T17:49:17.469Z</time>
      </trkpt>
      <trkpt lat="45.48448" lon="5.93565">
        <ele>734</ele>
        <time>2022-08-10T17:49:18.468Z</time>
      </trkpt>
      <trkpt lat="45.48448" lon="5.93563">
        <ele>734</ele>
        <time>2022-08-10T17:49:19.469Z</time>
      </trkpt>
      <trkpt lat="45.48448" lon="5.93562">
        <ele>735</ele>
        <time>2022-08-10T17:49:20.468Z</time>
      </trkpt>
      <trkpt lat="45.48448" lon="5.93561">
        <ele>735</ele>
        <time>2022-08-10T17:49:21.468Z</time>
      </trkpt>
      <trkpt lat="45.48448" lon="5.9356">
        <ele>735</ele>
        <time>2022-08-10T17:49:22.468Z</time>
      </trkpt>
      <trkpt lat="45.48448" lon="5.93559">
        <ele>736</ele>
        <time>2022-08-10T17:49:23.469Z</time>
      </trkpt>
      <trkpt lat="45.48448" lon="5.93556">
        <ele>736</ele>
        <time>2022-08-10T17:49:24.469Z</time>
      </trkpt>
      <trkpt lat="45.48448" lon="5.93553">
        <ele>736</ele>
        <time>2022-08-10T17:49:25.469Z</time>
      </trkpt>
      <trkpt lat="45.48449" lon="5.9355">
        <ele>736</ele>
        <time>2022-08-10T17:49:26.469Z</time>
      </trkpt>
      <trkpt lat="45.4845" lon="5.93547">
        <ele>736</ele>
        <time>2022-08-10T17:49:27.469Z</time>
      </trkpt>
      <trkpt lat="45.4845" lon="5.93545">
        <ele>737</ele>
        <time>2022-08-10T17:49:28.469Z</time>
      </trkpt>
      <trkpt lat="45.48451" lon="5.93542">
        <ele>737</ele>
        <time>2022-08-10T17:49:29.468Z</time>
      </trkpt>
      <trkpt lat="45.48451" lon="5.93541">
        <ele>737</ele>
        <time>2022-08-10T17:49:30.469Z</time>
      </trkpt>
      <trkpt lat="45.48451" lon="5.9354">
        <ele>737</ele>
        <time>2022-08-10T17:49:31.469Z</time>
      </trkpt>
      <trkpt lat="45.48456" lon="5.93546">
        <ele>730</ele>
        <time>2022-08-10T17:51:46.596Z</time>
      </trkpt>
      <trkpt lat="45.48457" lon="5.9355">
        <ele>730</ele>
        <time>2022-08-10T17:51:47.595Z</time>
      </trkpt>
      <trkpt lat="45.48458" lon="5.93552">
        <ele>730</ele>
        <time>2022-08-10T17:51:48.595Z</time>
      </trkpt>
      <trkpt lat="45.4846" lon="5.93554">
        <ele>731</ele>
        <time>2022-08-10T17:51:49.596Z</time>
      </trkpt>
      <trkpt lat="45.48463" lon="5.93555">
        <ele>731</ele>
        <time>2022-08-10T17:51:50.596Z</time>
      </trkpt>
      <trkpt lat="45.48466" lon="5.93557">
        <ele>732</ele>
        <time>2022-08-10T17:51:51.596Z</time>
      </trkpt>
      <trkpt lat="45.4847" lon="5.93559">
        <ele>732</ele>
        <time>2022-08-10T17:51:52.595Z</time>
      </trkpt>
      <trkpt lat="45.48472" lon="5.93562">
        <ele>732</ele>
        <time>2022-08-10T17:51:53.595Z</time>
      </trkpt>
      <trkpt lat="45.48475" lon="5.93564">
        <ele>732</ele>
        <time>2022-08-10T17:51:54.596Z</time>
      </trkpt>
      <trkpt lat="45.48477" lon="5.93567">
        <ele>732</ele>
        <time>2022-08-10T17:51:55.596Z</time>
      </trkpt>
      <trkpt lat="45.48479" lon="5.9357">
        <ele>733</ele>
        <time>2022-08-10T17:51:56.596Z</time>
      </trkpt>
      <trkpt lat="45.48482" lon="5.93573">
        <ele>732</ele>
        <time>2022-08-10T17:51:57.596Z</time>
      </trkpt>
      <trkpt lat="45.48485" lon="5.93576">
        <ele>732</ele>
        <time>2022-08-10T17:51:58.596Z</time>
      </trkpt>
      <trkpt lat="45.48488" lon="5.93579">
        <ele>732</ele>
        <time>2022-08-10T17:51:59.596Z</time>
      </trkpt>
      <trkpt lat="45.4849" lon="5.93583">
        <ele>732</ele>
        <time>2022-08-10T17:52:00.596Z</time>
      </trkpt>
      <trkpt lat="45.48491" lon="5.93588">
        <ele>732</ele>
        <time>2022-08-10T17:52:01.596Z</time>
      </trkpt>
      <trkpt lat="45.48494" lon="5.93591">
        <ele>733</ele>
        <time>2022-08-10T17:52:02.596Z</time>
      </trkpt>
      <trkpt lat="45.48496" lon="5.93592">
        <ele>733</ele>
        <time>2022-08-10T17:52:03.596Z</time>
      </trkpt>
      <trkpt lat="45.485" lon="5.93591">
        <ele>733</ele>
        <time>2022-08-10T17:52:04.596Z</time>
      </trkpt>
      <trkpt lat="45.48503" lon="5.93591">
        <ele>732</ele>
        <time>2022-08-10T17:52:05.596Z</time>
      </trkpt>
      <trkpt lat="45.48506" lon="5.93591">
        <ele>732</ele>
        <time>2022-08-10T17:52:06.595Z</time>
      </trkpt>
      <trkpt lat="45.4851" lon="5.93593">
        <ele>731</ele>
        <time>2022-08-10T17:52:07.596Z</time>
      </trkpt>
      <trkpt lat="45.48515" lon="5.93594">
        <ele>731</ele>
        <time>2022-08-10T17:52:08.596Z</time>
      </trkpt>
      <trkpt lat="45.48519" lon="5.93594">
        <ele>730</ele>
        <time>2022-08-10T17:52:09.595Z</time>
      </trkpt>
      <trkpt lat="45.48524" lon="5.93594">
        <ele>729</ele>
        <time>2022-08-10T17:52:10.595Z</time>
      </trkpt>
      <trkpt lat="45.48529" lon="5.93594">
        <ele>729</ele>
        <time>2022-08-10T17:52:11.595Z</time>
      </trkpt>
      <trkpt lat="45.48534" lon="5.93594">
        <ele>728</ele>
        <time>2022-08-10T17:52:12.596Z</time>
      </trkpt>
      <trkpt lat="45.48538" lon="5.93594">
        <ele>727</ele>
        <time>2022-08-10T17:52:13.595Z</time>
      </trkpt>
      <trkpt lat="45.48541" lon="5.93594">
        <ele>726</ele>
        <time>2022-08-10T17:52:14.596Z</time>
      </trkpt>
      <trkpt lat="45.48545" lon="5.93595">
        <ele>725</ele>
        <time>2022-08-10T17:52:15.596Z</time>
      </trkpt>
      <trkpt lat="45.48548" lon="5.93598">
        <ele>724</ele>
        <time>2022-08-10T17:52:16.595Z</time>
      </trkpt>
      <trkpt lat="45.4855" lon="5.93601">
        <ele>724</ele>
        <time>2022-08-10T17:52:17.596Z</time>
      </trkpt>
      <trkpt lat="45.48551" lon="5.93604">
        <ele>723</ele>
        <time>2022-08-10T17:52:18.595Z</time>
      </trkpt>
      <trkpt lat="45.48553" lon="5.93606">
        <ele>723</ele>
        <time>2022-08-10T17:52:19.596Z</time>
      </trkpt>
      <trkpt lat="45.48555" lon="5.93609">
        <ele>723</ele>
        <time>2022-08-10T17:52:20.596Z</time>
      </trkpt>
      <trkpt lat="45.48558" lon="5.9361">
        <ele>722</ele>
        <time>2022-08-10T17:52:21.596Z</time>
      </trkpt>
      <trkpt lat="45.48561" lon="5.93612">
        <ele>722</ele>
        <time>2022-08-10T17:52:22.596Z</time>
      </trkpt>
      <trkpt lat="45.48565" lon="5.93614">
        <ele>721</ele>
        <time>2022-08-10T17:52:23.596Z</time>
      </trkpt>
      <trkpt lat="45.48568" lon="5.93618">
        <ele>721</ele>
        <time>2022-08-10T17:52:24.595Z</time>
      </trkpt>
      <trkpt lat="45.48571" lon="5.93622">
        <ele>720</ele>
        <time>2022-08-10T17:52:25.596Z</time>
      </trkpt>
      <trkpt lat="45.48574" lon="5.93626">
        <ele>719</ele>
        <time>2022-08-10T17:52:26.595Z</time>
      </trkpt>
      <trkpt lat="45.48576" lon="5.9363">
        <ele>718</ele>
        <time>2022-08-10T17:52:27.595Z</time>
      </trkpt>
      <trkpt lat="45.48577" lon="5.93635">
        <ele>718</ele>
        <time>2022-08-10T17:52:28.596Z</time>
      </trkpt>
      <trkpt lat="45.48579" lon="5.93638">
        <ele>717</ele>
        <time>2022-08-10T17:52:29.596Z</time>
      </trkpt>
      <trkpt lat="45.48582" lon="5.93642">
        <ele>716</ele>
        <time>2022-08-10T17:52:30.596Z</time>
      </trkpt>
      <trkpt lat="45.48585" lon="5.93646">
        <ele>715</ele>
        <time>2022-08-10T17:52:31.595Z</time>
      </trkpt>
      <trkpt lat="45.48588" lon="5.9365">
        <ele>714</ele>
        <time>2022-08-10T17:52:32.596Z</time>
      </trkpt>
      <trkpt lat="45.4859" lon="5.93653">
        <ele>713</ele>
        <time>2022-08-10T17:52:33.596Z</time>
      </trkpt>
      <trkpt lat="45.48592" lon="5.93656">
        <ele>713</ele>
        <time>2022-08-10T17:52:34.596Z</time>
      </trkpt>
      <trkpt lat="45.48596" lon="5.93659">
        <ele>712</ele>
        <time>2022-08-10T17:52:35.595Z</time>
      </trkpt>
      <trkpt lat="45.486" lon="5.93662">
        <ele>712</ele>
        <time>2022-08-10T17:52:36.595Z</time>
      </trkpt>
      <trkpt lat="45.48604" lon="5.93665">
        <ele>711</ele>
        <time>2022-08-10T17:52:37.596Z</time>
      </trkpt>
      <trkpt lat="45.48608" lon="5.93668">
        <ele>710</ele>
        <time>2022-08-10T17:52:38.596Z</time>
      </trkpt>
      <trkpt lat="45.48612" lon="5.93672">
        <ele>710</ele>
        <time>2022-08-10T17:52:39.595Z</time>
      </trkpt>
      <trkpt lat="45.48617" lon="5.93677">
        <ele>709</ele>
        <time>2022-08-10T17:52:40.596Z</time>
      </trkpt>
      <trkpt lat="45.48621" lon="5.93681">
        <ele>709</ele>
        <time>2022-08-10T17:52:41.596Z</time>
      </trkpt>
      <trkpt lat="45.48627" lon="5.93686">
        <ele>708</ele>
        <time>2022-08-10T17:52:42.596Z</time>
      </trkpt>
      <trkpt lat="45.48631" lon="5.9369">
        <ele>708</ele>
        <time>2022-08-10T17:52:43.595Z</time>
      </trkpt>
      <trkpt lat="45.48635" lon="5.93692">
        <ele>708</ele>
        <time>2022-08-10T17:52:44.596Z</time>
      </trkpt>
      <trkpt lat="45.48639" lon="5.93695">
        <ele>708</ele>
        <time>2022-08-10T17:52:45.596Z</time>
      </trkpt>
      <trkpt lat="45.48643" lon="5.93697">
        <ele>708</ele>
        <time>2022-08-10T17:52:46.596Z</time>
      </trkpt>
      <trkpt lat="45.48647" lon="5.937">
        <ele>708</ele>
        <time>2022-08-10T17:52:47.595Z</time>
      </trkpt>
      <trkpt lat="45.4865" lon="5.93703">
        <ele>708</ele>
        <time>2022-08-10T17:52:48.596Z</time>
      </trkpt>
      <trkpt lat="45.48653" lon="5.93706">
        <ele>708</ele>
        <time>2022-08-10T17:52:49.596Z</time>
      </trkpt>
      <trkpt lat="45.48655" lon="5.9371">
        <ele>708</ele>
        <time>2022-08-10T17:52:50.596Z</time>
      </trkpt>
      <trkpt lat="45.48658" lon="5.93714">
        <ele>708</ele>
        <time>2022-08-10T17:52:51.596Z</time>
      </trkpt>
      <trkpt lat="45.48661" lon="5.93718">
        <ele>708</ele>
        <time>2022-08-10T17:52:52.595Z</time>
      </trkpt>
      <trkpt lat="45.48663" lon="5.93722">
        <ele>707</ele>
        <time>2022-08-10T17:52:53.596Z</time>
      </trkpt>
      <trkpt lat="45.48666" lon="5.93725">
        <ele>707</ele>
        <time>2022-08-10T17:52:54.596Z</time>
      </trkpt>
      <trkpt lat="45.48669" lon="5.93728">
        <ele>706</ele>
        <time>2022-08-10T17:52:55.596Z</time>
      </trkpt>
      <trkpt lat="45.48673" lon="5.9373">
        <ele>706</ele>
        <time>2022-08-10T17:52:56.595Z</time>
      </trkpt>
      <trkpt lat="45.48676" lon="5.93731">
        <ele>705</ele>
        <time>2022-08-10T17:52:57.596Z</time>
      </trkpt>
      <trkpt lat="45.48678" lon="5.93733">
        <ele>705</ele>
        <time>2022-08-10T17:52:58.595Z</time>
      </trkpt>
      <trkpt lat="45.48679" lon="5.93735">
        <ele>704</ele>
        <time>2022-08-10T17:52:59.596Z</time>
      </trkpt>
      <trkpt lat="45.48681" lon="5.93739">
        <ele>704</ele>
        <time>2022-08-10T17:53:00.595Z</time>
      </trkpt>
      <trkpt lat="45.48684" lon="5.93742">
        <ele>704</ele>
        <time>2022-08-10T17:53:01.596Z</time>
      </trkpt>
      <trkpt lat="45.48686" lon="5.93744">
        <ele>704</ele>
        <time>2022-08-10T17:53:02.596Z</time>
      </trkpt>
      <trkpt lat="45.48689" lon="5.93746">
        <ele>703</ele>
        <time>2022-08-10T17:53:03.596Z</time>
      </trkpt>
      <trkpt lat="45.48692" lon="5.93749">
        <ele>703</ele>
        <time>2022-08-10T17:53:04.595Z</time>
      </trkpt>
      <trkpt lat="45.48696" lon="5.93752">
        <ele>703</ele>
        <time>2022-08-10T17:53:05.596Z</time>
      </trkpt>
      <trkpt lat="45.487" lon="5.93754">
        <ele>702</ele>
        <time>2022-08-10T17:53:06.596Z</time>
      </trkpt>
      <trkpt lat="45.48704" lon="5.93757">
        <ele>702</ele>
        <time>2022-08-10T17:53:07.596Z</time>
      </trkpt>
      <trkpt lat="45.48708" lon="5.93759">
        <ele>702</ele>
        <time>2022-08-10T17:53:08.595Z</time>
      </trkpt>
      <trkpt lat="45.48712" lon="5.93761">
        <ele>701</ele>
        <time>2022-08-10T17:53:09.596Z</time>
      </trkpt>
      <trkpt lat="45.48716" lon="5.93763">
        <ele>701</ele>
        <time>2022-08-10T17:53:10.596Z</time>
      </trkpt>
      <trkpt lat="45.48718" lon="5.93763">
        <ele>701</ele>
        <time>2022-08-10T17:53:11.596Z</time>
      </trkpt>
      <trkpt lat="45.48721" lon="5.93764">
        <ele>701</ele>
        <time>2022-08-10T17:53:12.595Z</time>
      </trkpt>
      <trkpt lat="45.48724" lon="5.93767">
        <ele>700</ele>
        <time>2022-08-10T17:53:13.596Z</time>
      </trkpt>
      <trkpt lat="45.48726" lon="5.93769">
        <ele>700</ele>
        <time>2022-08-10T17:53:14.596Z</time>
      </trkpt>
      <trkpt lat="45.48727" lon="5.93771">
        <ele>700</ele>
        <time>2022-08-10T17:53:15.596Z</time>
      </trkpt>
      <trkpt lat="45.48728" lon="5.93773">
        <ele>699</ele>
        <time>2022-08-10T17:53:16.595Z</time>
      </trkpt>
      <trkpt lat="45.48729" lon="5.93773">
        <ele>698</ele>
        <time>2022-08-10T17:53:18.595Z</time>
      </trkpt>
      <trkpt lat="45.4873" lon="5.93771">
        <ele>698</ele>
        <time>2022-08-10T17:53:19.596Z</time>
      </trkpt>
      <trkpt lat="45.4873" lon="5.93773">
        <ele>697</ele>
        <time>2022-08-10T17:53:21.708Z</time>
      </trkpt>
      <trkpt lat="45.48726" lon="5.93772">
        <ele>693</ele>
        <time>2022-08-10T17:53:29.574Z</time>
      </trkpt>
      <trkpt lat="45.48726" lon="5.93773">
        <ele>693</ele>
        <time>2022-08-10T17:53:30.575Z</time>
      </trkpt>
      <trkpt lat="45.48727" lon="5.93773">
        <ele>693</ele>
        <time>2022-08-10T17:53:31.574Z</time>
      </trkpt>
      <trkpt lat="45.4873" lon="5.93782">
        <ele>699</ele>
        <time>2022-08-10T17:54:05.739Z</time>
      </trkpt>
      <trkpt lat="45.4873" lon="5.93785">
        <ele>699</ele>
        <time>2022-08-10T17:54:06.740Z</time>
      </trkpt>
      <trkpt lat="45.4873" lon="5.93788">
        <ele>698</ele>
        <time>2022-08-10T17:54:07.740Z</time>
      </trkpt>
      <trkpt lat="45.48728" lon="5.93792">
        <ele>698</ele>
        <time>2022-08-10T17:54:08.739Z</time>
      </trkpt>
      <trkpt lat="45.48727" lon="5.93795">
        <ele>697</ele>
        <time>2022-08-10T17:54:09.740Z</time>
      </trkpt>
      <trkpt lat="45.48726" lon="5.93799">
        <ele>697</ele>
        <time>2022-08-10T17:54:10.739Z</time>
      </trkpt>
      <trkpt lat="45.48725" lon="5.93803">
        <ele>696</ele>
        <time>2022-08-10T17:54:11.740Z</time>
      </trkpt>
      <trkpt lat="45.48723" lon="5.93808">
        <ele>696</ele>
        <time>2022-08-10T17:54:12.740Z</time>
      </trkpt>
      <trkpt lat="45.48721" lon="5.93812">
        <ele>695</ele>
        <time>2022-08-10T17:54:13.740Z</time>
      </trkpt>
      <trkpt lat="45.48719" lon="5.93817">
        <ele>695</ele>
        <time>2022-08-10T17:54:14.739Z</time>
      </trkpt>
      <trkpt lat="45.48717" lon="5.93822">
        <ele>694</ele>
        <time>2022-08-10T17:54:15.740Z</time>
      </trkpt>
      <trkpt lat="45.48715" lon="5.93826">
        <ele>694</ele>
        <time>2022-08-10T17:54:16.739Z</time>
      </trkpt>
      <trkpt lat="45.48713" lon="5.9383">
        <ele>693</ele>
        <time>2022-08-10T17:54:17.740Z</time>
      </trkpt>
      <trkpt lat="45.48712" lon="5.93835">
        <ele>693</ele>
        <time>2022-08-10T17:54:18.740Z</time>
      </trkpt>
      <trkpt lat="45.48711" lon="5.93841">
        <ele>692</ele>
        <time>2022-08-10T17:54:19.739Z</time>
      </trkpt>
      <trkpt lat="45.48711" lon="5.93848">
        <ele>692</ele>
        <time>2022-08-10T17:54:20.739Z</time>
      </trkpt>
      <trkpt lat="45.48711" lon="5.93855">
        <ele>691</ele>
        <time>2022-08-10T17:54:21.739Z</time>
      </trkpt>
      <trkpt lat="45.48711" lon="5.93862">
        <ele>691</ele>
        <time>2022-08-10T17:54:22.740Z</time>
      </trkpt>
      <trkpt lat="45.48712" lon="5.93868">
        <ele>691</ele>
        <time>2022-08-10T17:54:23.740Z</time>
      </trkpt>
      <trkpt lat="45.48713" lon="5.93875">
        <ele>690</ele>
        <time>2022-08-10T17:54:24.739Z</time>
      </trkpt>
      <trkpt lat="45.48715" lon="5.93881">
        <ele>690</ele>
        <time>2022-08-10T17:54:25.740Z</time>
      </trkpt>
      <trkpt lat="45.48716" lon="5.93886">
        <ele>690</ele>
        <time>2022-08-10T17:54:26.739Z</time>
      </trkpt>
      <trkpt lat="45.48717" lon="5.93891">
        <ele>690</ele>
        <time>2022-08-10T17:54:27.739Z</time>
      </trkpt>
      <trkpt lat="45.48718" lon="5.93896">
        <ele>690</ele>
        <time>2022-08-10T17:54:28.740Z</time>
      </trkpt>
      <trkpt lat="45.48719" lon="5.93902">
        <ele>690</ele>
        <time>2022-08-10T17:54:29.740Z</time>
      </trkpt>
      <trkpt lat="45.48719" lon="5.93907">
        <ele>690</ele>
        <time>2022-08-10T17:54:30.740Z</time>
      </trkpt>
      <trkpt lat="45.4872" lon="5.93912">
        <ele>690</ele>
        <time>2022-08-10T17:54:31.740Z</time>
      </trkpt>
      <trkpt lat="45.48721" lon="5.93917">
        <ele>690</ele>
        <time>2022-08-10T17:54:32.740Z</time>
      </trkpt>
      <trkpt lat="45.48723" lon="5.93922">
        <ele>690</ele>
        <time>2022-08-10T17:54:33.740Z</time>
      </trkpt>
      <trkpt lat="45.48724" lon="5.93926">
        <ele>690</ele>
        <time>2022-08-10T17:54:34.739Z</time>
      </trkpt>
      <trkpt lat="45.48724" lon="5.93928">
        <ele>690</ele>
        <time>2022-08-10T17:54:35.740Z</time>
      </trkpt>
      <trkpt lat="45.48725" lon="5.93931">
        <ele>689</ele>
        <time>2022-08-10T17:54:36.739Z</time>
      </trkpt>
      <trkpt lat="45.48726" lon="5.93933">
        <ele>689</ele>
        <time>2022-08-10T17:54:37.740Z</time>
      </trkpt>
      <trkpt lat="45.48727" lon="5.93935">
        <ele>689</ele>
        <time>2022-08-10T17:54:38.740Z</time>
      </trkpt>
      <trkpt lat="45.48729" lon="5.93938">
        <ele>689</ele>
        <time>2022-08-10T17:54:39.740Z</time>
      </trkpt>
      <trkpt lat="45.48731" lon="5.93941">
        <ele>689</ele>
        <time>2022-08-10T17:54:40.739Z</time>
      </trkpt>
      <trkpt lat="45.48734" lon="5.93946">
        <ele>689</ele>
        <time>2022-08-10T17:54:41.739Z</time>
      </trkpt>
      <trkpt lat="45.48737" lon="5.93951">
        <ele>688</ele>
        <time>2022-08-10T17:54:42.739Z</time>
      </trkpt>
      <trkpt lat="45.48741" lon="5.93957">
        <ele>688</ele>
        <time>2022-08-10T17:54:43.740Z</time>
      </trkpt>
      <trkpt lat="45.48745" lon="5.93965">
        <ele>688</ele>
        <time>2022-08-10T17:54:44.739Z</time>
      </trkpt>
      <trkpt lat="45.4875" lon="5.93971">
        <ele>687</ele>
        <time>2022-08-10T17:54:45.739Z</time>
      </trkpt>
      <trkpt lat="45.48756" lon="5.93978">
        <ele>687</ele>
        <time>2022-08-10T17:54:46.740Z</time>
      </trkpt>
      <trkpt lat="45.48763" lon="5.93985">
        <ele>686</ele>
        <time>2022-08-10T17:54:47.740Z</time>
      </trkpt>
      <trkpt lat="45.4877" lon="5.93991">
        <ele>686</ele>
        <time>2022-08-10T17:54:48.740Z</time>
      </trkpt>
      <trkpt lat="45.48776" lon="5.93995">
        <ele>685</ele>
        <time>2022-08-10T17:54:49.739Z</time>
      </trkpt>
      <trkpt lat="45.48783" lon="5.93997">
        <ele>685</ele>
        <time>2022-08-10T17:54:50.740Z</time>
      </trkpt>
      <trkpt lat="45.4879" lon="5.93999">
        <ele>684</ele>
        <time>2022-08-10T17:54:51.740Z</time>
      </trkpt>
      <trkpt lat="45.48797" lon="5.94003">
        <ele>683</ele>
        <time>2022-08-10T17:54:52.739Z</time>
      </trkpt>
      <trkpt lat="45.48804" lon="5.94005">
        <ele>682</ele>
        <time>2022-08-10T17:54:53.740Z</time>
      </trkpt>
      <trkpt lat="45.48811" lon="5.9401">
        <ele>681</ele>
        <time>2022-08-10T17:54:54.740Z</time>
      </trkpt>
      <trkpt lat="45.48816" lon="5.94012">
        <ele>680</ele>
        <time>2022-08-10T17:54:55.740Z</time>
      </trkpt>
      <trkpt lat="45.48822" lon="5.94015">
        <ele>680</ele>
        <time>2022-08-10T17:54:56.740Z</time>
      </trkpt>
      <trkpt lat="45.48827" lon="5.94018">
        <ele>679</ele>
        <time>2022-08-10T17:54:57.740Z</time>
      </trkpt>
      <trkpt lat="45.48831" lon="5.94019">
        <ele>678</ele>
        <time>2022-08-10T17:54:58.740Z</time>
      </trkpt>
      <trkpt lat="45.48836" lon="5.9402">
        <ele>678</ele>
        <time>2022-08-10T17:54:59.740Z</time>
      </trkpt>
      <trkpt lat="45.48839" lon="5.94021">
        <ele>677</ele>
        <time>2022-08-10T17:55:00.739Z</time>
      </trkpt>
      <trkpt lat="45.48842" lon="5.94022">
        <ele>677</ele>
        <time>2022-08-10T17:55:01.740Z</time>
      </trkpt>
      <trkpt lat="45.48847" lon="5.94022">
        <ele>677</ele>
        <time>2022-08-10T17:55:02.740Z</time>
      </trkpt>
      <trkpt lat="45.48853" lon="5.94022">
        <ele>677</ele>
        <time>2022-08-10T17:55:03.739Z</time>
      </trkpt>
      <trkpt lat="45.48856" lon="5.94021">
        <ele>677</ele>
        <time>2022-08-10T17:55:04.740Z</time>
      </trkpt>
      <trkpt lat="45.48859" lon="5.94021">
        <ele>677</ele>
        <time>2022-08-10T17:55:05.740Z</time>
      </trkpt>
      <trkpt lat="45.48862" lon="5.94022">
        <ele>677</ele>
        <time>2022-08-10T17:55:06.740Z</time>
      </trkpt>
      <trkpt lat="45.48865" lon="5.94023">
        <ele>676</ele>
        <time>2022-08-10T17:55:07.739Z</time>
      </trkpt>
      <trkpt lat="45.48869" lon="5.94025">
        <ele>676</ele>
        <time>2022-08-10T17:55:08.740Z</time>
      </trkpt>
      <trkpt lat="45.48874" lon="5.94026">
        <ele>676</ele>
        <time>2022-08-10T17:55:09.739Z</time>
      </trkpt>
      <trkpt lat="45.48878" lon="5.94028">
        <ele>675</ele>
        <time>2022-08-10T17:55:10.739Z</time>
      </trkpt>
      <trkpt lat="45.48882" lon="5.9403">
        <ele>675</ele>
        <time>2022-08-10T17:55:11.740Z</time>
      </trkpt>
      <trkpt lat="45.48885" lon="5.94031">
        <ele>675</ele>
        <time>2022-08-10T17:55:12.740Z</time>
      </trkpt>
      <trkpt lat="45.48887" lon="5.94032">
        <ele>675</ele>
        <time>2022-08-10T17:55:13.739Z</time>
      </trkpt>
      <trkpt lat="45.48889" lon="5.94033">
        <ele>675</ele>
        <time>2022-08-10T17:55:14.740Z</time>
      </trkpt>
      <trkpt lat="45.4889" lon="5.94033">
        <ele>675</ele>
        <time>2022-08-10T17:55:15.739Z</time>
      </trkpt>
      <trkpt lat="45.48891" lon="5.94034">
        <ele>675</ele>
        <time>2022-08-10T17:55:16.739Z</time>
      </trkpt>
      <trkpt lat="45.48891" lon="5.94035">
        <ele>674</ele>
        <time>2022-08-10T17:55:17.739Z</time>
      </trkpt>
      <trkpt lat="45.48893" lon="5.94036">
        <ele>676</ele>
        <time>2022-08-10T17:55:29.849Z</time>
      </trkpt>
      <trkpt lat="45.48893" lon="5.94037">
        <ele>676</ele>
        <time>2022-08-10T17:55:31.849Z</time>
      </trkpt>
      <trkpt lat="45.48889" lon="5.94035">
        <ele>671</ele>
        <time>2022-08-10T17:56:00.948Z</time>
      </trkpt>
      <trkpt lat="45.48888" lon="5.94035">
        <ele>671</ele>
        <time>2022-08-10T17:56:03.949Z</time>
      </trkpt>
      <trkpt lat="45.48882" lon="5.94031">
        <ele>668</ele>
        <time>2022-08-10T17:56:21.099Z</time>
      </trkpt>
      <trkpt lat="45.48879" lon="5.94029">
        <ele>668</ele>
        <time>2022-08-10T17:56:22.099Z</time>
      </trkpt>
      <trkpt lat="45.48877" lon="5.94027">
        <ele>668</ele>
        <time>2022-08-10T17:56:23.099Z</time>
      </trkpt>
      <trkpt lat="45.48874" lon="5.94026">
        <ele>669</ele>
        <time>2022-08-10T17:56:24.100Z</time>
      </trkpt>
      <trkpt lat="45.48871" lon="5.94025">
        <ele>669</ele>
        <time>2022-08-10T17:56:25.100Z</time>
      </trkpt>
      <trkpt lat="45.48868" lon="5.94025">
        <ele>669</ele>
        <time>2022-08-10T17:56:26.100Z</time>
      </trkpt>
      <trkpt lat="45.48866" lon="5.94024">
        <ele>669</ele>
        <time>2022-08-10T17:56:27.100Z</time>
      </trkpt>
      <trkpt lat="45.48863" lon="5.94024">
        <ele>670</ele>
        <time>2022-08-10T17:56:28.099Z</time>
      </trkpt>
      <trkpt lat="45.48862" lon="5.94024">
        <ele>670</ele>
        <time>2022-08-10T17:56:29.100Z</time>
      </trkpt>
      <trkpt lat="45.4886" lon="5.94023">
        <ele>670</ele>
        <time>2022-08-10T17:56:30.100Z</time>
      </trkpt>
      <trkpt lat="45.48858" lon="5.94023">
        <ele>670</ele>
        <time>2022-08-10T17:56:31.099Z</time>
      </trkpt>
      <trkpt lat="45.48856" lon="5.94022">
        <ele>671</ele>
        <time>2022-08-10T17:56:32.099Z</time>
      </trkpt>
      <trkpt lat="45.48854" lon="5.94022">
        <ele>671</ele>
        <time>2022-08-10T17:56:33.100Z</time>
      </trkpt>
      <trkpt lat="45.48852" lon="5.94022">
        <ele>671</ele>
        <time>2022-08-10T17:56:34.100Z</time>
      </trkpt>
      <trkpt lat="45.4885" lon="5.94021">
        <ele>672</ele>
        <time>2022-08-10T17:56:35.100Z</time>
      </trkpt>
      <trkpt lat="45.48847" lon="5.9402">
        <ele>672</ele>
        <time>2022-08-10T17:56:36.100Z</time>
      </trkpt>
      <trkpt lat="45.48843" lon="5.94018">
        <ele>672</ele>
        <time>2022-08-10T17:56:37.100Z</time>
      </trkpt>
      <trkpt lat="45.48838" lon="5.94017">
        <ele>673</ele>
        <time>2022-08-10T17:56:38.100Z</time>
      </trkpt>
      <trkpt lat="45.48833" lon="5.94014">
        <ele>673</ele>
        <time>2022-08-10T17:56:39.100Z</time>
      </trkpt>
      <trkpt lat="45.48828" lon="5.94012">
        <ele>673</ele>
        <time>2022-08-10T17:56:40.100Z</time>
      </trkpt>
      <trkpt lat="45.48824" lon="5.94011">
        <ele>673</ele>
        <time>2022-08-10T17:56:41.100Z</time>
      </trkpt>
      <trkpt lat="45.4882" lon="5.9401">
        <ele>673</ele>
        <time>2022-08-10T17:56:42.100Z</time>
      </trkpt>
      <trkpt lat="45.48817" lon="5.94008">
        <ele>673</ele>
        <time>2022-08-10T17:56:43.100Z</time>
      </trkpt>
      <trkpt lat="45.48813" lon="5.94005">
        <ele>672</ele>
        <time>2022-08-10T17:56:44.100Z</time>
      </trkpt>
      <trkpt lat="45.48809" lon="5.94002">
        <ele>672</ele>
        <time>2022-08-10T17:56:45.100Z</time>
      </trkpt>
      <trkpt lat="45.48805" lon="5.93999">
        <ele>672</ele>
        <time>2022-08-10T17:56:46.100Z</time>
      </trkpt>
      <trkpt lat="45.48801" lon="5.93998">
        <ele>672</ele>
        <time>2022-08-10T17:56:47.100Z</time>
      </trkpt>
      <trkpt lat="45.48795" lon="5.93998">
        <ele>672</ele>
        <time>2022-08-10T17:56:48.100Z</time>
      </trkpt>
      <trkpt lat="45.48791" lon="5.93998">
        <ele>672</ele>
        <time>2022-08-10T17:56:49.100Z</time>
      </trkpt>
      <trkpt lat="45.48788" lon="5.93998">
        <ele>671</ele>
        <time>2022-08-10T17:56:50.100Z</time>
      </trkpt>
      <trkpt lat="45.48785" lon="5.93997">
        <ele>671</ele>
        <time>2022-08-10T17:56:51.099Z</time>
      </trkpt>
      <trkpt lat="45.48781" lon="5.93997">
        <ele>670</ele>
        <time>2022-08-10T17:56:52.100Z</time>
      </trkpt>
      <trkpt lat="45.48778" lon="5.93996">
        <ele>670</ele>
        <time>2022-08-10T17:56:53.100Z</time>
      </trkpt>
      <trkpt lat="45.48776" lon="5.93995">
        <ele>670</ele>
        <time>2022-08-10T17:56:54.100Z</time>
      </trkpt>
      <trkpt lat="45.48773" lon="5.93994">
        <ele>670</ele>
        <time>2022-08-10T17:56:55.100Z</time>
      </trkpt>
      <trkpt lat="45.48771" lon="5.93993">
        <ele>670</ele>
        <time>2022-08-10T17:56:56.100Z</time>
      </trkpt>
      <trkpt lat="45.48769" lon="5.93991">
        <ele>670</ele>
        <time>2022-08-10T17:56:57.100Z</time>
      </trkpt>
      <trkpt lat="45.48767" lon="5.9399">
        <ele>670</ele>
        <time>2022-08-10T17:56:58.100Z</time>
      </trkpt>
      <trkpt lat="45.48765" lon="5.93989">
        <ele>670</ele>
        <time>2022-08-10T17:56:59.100Z</time>
      </trkpt>
      <trkpt lat="45.48763" lon="5.93987">
        <ele>670</ele>
        <time>2022-08-10T17:57:00.100Z</time>
      </trkpt>
      <trkpt lat="45.4876" lon="5.93985">
        <ele>670</ele>
        <time>2022-08-10T17:57:01.100Z</time>
      </trkpt>
      <trkpt lat="45.48758" lon="5.93983">
        <ele>671</ele>
        <time>2022-08-10T17:57:02.100Z</time>
      </trkpt>
      <trkpt lat="45.48756" lon="5.93981">
        <ele>671</ele>
        <time>2022-08-10T17:57:03.100Z</time>
      </trkpt>
      <trkpt lat="45.48755" lon="5.93979">
        <ele>671</ele>
        <time>2022-08-10T17:57:04.100Z</time>
      </trkpt>
      <trkpt lat="45.48753" lon="5.93977">
        <ele>672</ele>
        <time>2022-08-10T17:57:05.100Z</time>
      </trkpt>
      <trkpt lat="45.48751" lon="5.93976">
        <ele>672</ele>
        <time>2022-08-10T17:57:06.100Z</time>
      </trkpt>
      <trkpt lat="45.48749" lon="5.93975">
        <ele>672</ele>
        <time>2022-08-10T17:57:07.100Z</time>
      </trkpt>
      <trkpt lat="45.48747" lon="5.93974">
        <ele>673</ele>
        <time>2022-08-10T17:57:08.100Z</time>
      </trkpt>
      <trkpt lat="45.48745" lon="5.93973">
        <ele>673</ele>
        <time>2022-08-10T17:57:09.100Z</time>
      </trkpt>
      <trkpt lat="45.48743" lon="5.93971">
        <ele>673</ele>
        <time>2022-08-10T17:57:10.100Z</time>
      </trkpt>
      <trkpt lat="45.48741" lon="5.9397">
        <ele>674</ele>
        <time>2022-08-10T17:57:11.100Z</time>
      </trkpt>
      <trkpt lat="45.4874" lon="5.93967">
        <ele>674</ele>
        <time>2022-08-10T17:57:12.100Z</time>
      </trkpt>
      <trkpt lat="45.48739" lon="5.93965">
        <ele>674</ele>
        <time>2022-08-10T17:57:13.099Z</time>
      </trkpt>
      <trkpt lat="45.48736" lon="5.93962">
        <ele>674</ele>
        <time>2022-08-10T17:57:14.100Z</time>
      </trkpt>
      <trkpt lat="45.48734" lon="5.9396">
        <ele>675</ele>
        <time>2022-08-10T17:57:15.100Z</time>
      </trkpt>
      <trkpt lat="45.48732" lon="5.93957">
        <ele>675</ele>
        <time>2022-08-10T17:57:16.099Z</time>
      </trkpt>
      <trkpt lat="45.48732" lon="5.93954">
        <ele>675</ele>
        <time>2022-08-10T17:57:17.100Z</time>
      </trkpt>
      <trkpt lat="45.4873" lon="5.93952">
        <ele>675</ele>
        <time>2022-08-10T17:57:18.100Z</time>
      </trkpt>
      <trkpt lat="45.48728" lon="5.9395">
        <ele>675</ele>
        <time>2022-08-10T17:57:19.100Z</time>
      </trkpt>
      <trkpt lat="45.48727" lon="5.93947">
        <ele>676</ele>
        <time>2022-08-10T17:57:20.100Z</time>
      </trkpt>
      <trkpt lat="45.48726" lon="5.93944">
        <ele>676</ele>
        <time>2022-08-10T17:57:21.100Z</time>
      </trkpt>
      <trkpt lat="45.48725" lon="5.93942">
        <ele>677</ele>
        <time>2022-08-10T17:57:22.100Z</time>
      </trkpt>
      <trkpt lat="45.48724" lon="5.93938">
        <ele>677</ele>
        <time>2022-08-10T17:57:23.100Z</time>
      </trkpt>
      <trkpt lat="45.48723" lon="5.93935">
        <ele>678</ele>
        <time>2022-08-10T17:57:24.100Z</time>
      </trkpt>
      <trkpt lat="45.48722" lon="5.93932">
        <ele>679</ele>
        <time>2022-08-10T17:57:25.100Z</time>
      </trkpt>
      <trkpt lat="45.48721" lon="5.93929">
        <ele>679</ele>
        <time>2022-08-10T17:57:26.100Z</time>
      </trkpt>
      <trkpt lat="45.4872" lon="5.93926">
        <ele>679</ele>
        <time>2022-08-10T17:57:27.099Z</time>
      </trkpt>
      <trkpt lat="45.48719" lon="5.93924">
        <ele>680</ele>
        <time>2022-08-10T17:57:28.100Z</time>
      </trkpt>
      <trkpt lat="45.48719" lon="5.93921">
        <ele>680</ele>
        <time>2022-08-10T17:57:29.100Z</time>
      </trkpt>
      <trkpt lat="45.48718" lon="5.93917">
        <ele>680</ele>
        <time>2022-08-10T17:57:30.100Z</time>
      </trkpt>
      <trkpt lat="45.48717" lon="5.93914">
        <ele>681</ele>
        <time>2022-08-10T17:57:31.099Z</time>
      </trkpt>
      <trkpt lat="45.48716" lon="5.93911">
        <ele>682</ele>
        <time>2022-08-10T17:57:32.099Z</time>
      </trkpt>
      <trkpt lat="45.48715" lon="5.93908">
        <ele>682</ele>
        <time>2022-08-10T17:57:33.100Z</time>
      </trkpt>
      <trkpt lat="45.48714" lon="5.93904">
        <ele>681</ele>
        <time>2022-08-10T17:57:34.100Z</time>
      </trkpt>
      <trkpt lat="45.48713" lon="5.93901">
        <ele>681</ele>
        <time>2022-08-10T17:57:35.100Z</time>
      </trkpt>
      <trkpt lat="45.48712" lon="5.93898">
        <ele>681</ele>
        <time>2022-08-10T17:57:36.099Z</time>
      </trkpt>
      <trkpt lat="45.48712" lon="5.93896">
        <ele>681</ele>
        <time>2022-08-10T17:57:37.100Z</time>
      </trkpt>
      <trkpt lat="45.4871" lon="5.93894">
        <ele>681</ele>
        <time>2022-08-10T17:57:38.100Z</time>
      </trkpt>
      <trkpt lat="45.48709" lon="5.93891">
        <ele>681</ele>
        <time>2022-08-10T17:57:39.100Z</time>
      </trkpt>
      <trkpt lat="45.48708" lon="5.93891">
        <ele>681</ele>
        <time>2022-08-10T17:57:41.100Z</time>
      </trkpt>
      <trkpt lat="45.48706" lon="5.93893">
        <ele>681</ele>
        <time>2022-08-10T17:57:46.231Z</time>
      </trkpt>
      <trkpt lat="45.48705" lon="5.93894">
        <ele>681</ele>
        <time>2022-08-10T17:57:47.231Z</time>
      </trkpt>
      <trkpt lat="45.48706" lon="5.93896">
        <ele>684</ele>
        <time>2022-08-10T17:58:37.106Z</time>
      </trkpt>
      <trkpt lat="45.48706" lon="5.939">
        <ele>684</ele>
        <time>2022-08-10T17:58:38.105Z</time>
      </trkpt>
      <trkpt lat="45.48707" lon="5.93905">
        <ele>684</ele>
        <time>2022-08-10T17:58:39.105Z</time>
      </trkpt>
      <trkpt lat="45.48707" lon="5.93909">
        <ele>684</ele>
        <time>2022-08-10T17:58:40.106Z</time>
      </trkpt>
      <trkpt lat="45.48707" lon="5.93914">
        <ele>684</ele>
        <time>2022-08-10T17:58:41.106Z</time>
      </trkpt>
      <trkpt lat="45.48706" lon="5.93918">
        <ele>684</ele>
        <time>2022-08-10T17:58:42.105Z</time>
      </trkpt>
      <trkpt lat="45.48706" lon="5.93922">
        <ele>684</ele>
        <time>2022-08-10T17:58:43.106Z</time>
      </trkpt>
      <trkpt lat="45.48706" lon="5.93926">
        <ele>684</ele>
        <time>2022-08-10T17:58:44.106Z</time>
      </trkpt>
      <trkpt lat="45.48707" lon="5.93929">
        <ele>684</ele>
        <time>2022-08-10T17:58:45.106Z</time>
      </trkpt>
      <trkpt lat="45.48707" lon="5.93932">
        <ele>685</ele>
        <time>2022-08-10T17:58:46.106Z</time>
      </trkpt>
      <trkpt lat="45.48708" lon="5.93936">
        <ele>685</ele>
        <time>2022-08-10T17:58:47.106Z</time>
      </trkpt>
      <trkpt lat="45.48708" lon="5.93939">
        <ele>685</ele>
        <time>2022-08-10T17:58:48.106Z</time>
      </trkpt>
      <trkpt lat="45.48708" lon="5.93942">
        <ele>686</ele>
        <time>2022-08-10T17:58:49.106Z</time>
      </trkpt>
      <trkpt lat="45.48707" lon="5.93945">
        <ele>686</ele>
        <time>2022-08-10T17:58:50.106Z</time>
      </trkpt>
      <trkpt lat="45.48707" lon="5.93947">
        <ele>686</ele>
        <time>2022-08-10T17:58:51.106Z</time>
      </trkpt>
      <trkpt lat="45.48707" lon="5.9395">
        <ele>687</ele>
        <time>2022-08-10T17:58:52.105Z</time>
      </trkpt>
      <trkpt lat="45.48707" lon="5.93953">
        <ele>687</ele>
        <time>2022-08-10T17:58:53.106Z</time>
      </trkpt>
      <trkpt lat="45.48707" lon="5.93957">
        <ele>688</ele>
        <time>2022-08-10T17:58:54.106Z</time>
      </trkpt>
      <trkpt lat="45.48706" lon="5.9396">
        <ele>688</ele>
        <time>2022-08-10T17:58:55.106Z</time>
      </trkpt>
      <trkpt lat="45.48705" lon="5.93964">
        <ele>688</ele>
        <time>2022-08-10T17:58:56.106Z</time>
      </trkpt>
      <trkpt lat="45.48703" lon="5.93967">
        <ele>689</ele>
        <time>2022-08-10T17:58:57.106Z</time>
      </trkpt>
      <trkpt lat="45.48702" lon="5.93969">
        <ele>689</ele>
        <time>2022-08-10T17:58:58.106Z</time>
      </trkpt>
      <trkpt lat="45.48702" lon="5.93971">
        <ele>690</ele>
        <time>2022-08-10T17:58:59.106Z</time>
      </trkpt>
      <trkpt lat="45.48701" lon="5.93973">
        <ele>690</ele>
        <time>2022-08-10T17:59:00.106Z</time>
      </trkpt>
      <trkpt lat="45.487" lon="5.93976">
        <ele>690</ele>
        <time>2022-08-10T17:59:01.106Z</time>
      </trkpt>
      <trkpt lat="45.48701" lon="5.93978">
        <ele>690</ele>
        <time>2022-08-10T17:59:02.105Z</time>
      </trkpt>
      <trkpt lat="45.48702" lon="5.9398">
        <ele>690</ele>
        <time>2022-08-10T17:59:03.106Z</time>
      </trkpt>
      <trkpt lat="45.48702" lon="5.93983">
        <ele>690</ele>
        <time>2022-08-10T17:59:04.106Z</time>
      </trkpt>
      <trkpt lat="45.48703" lon="5.93985">
        <ele>690</ele>
        <time>2022-08-10T17:59:05.106Z</time>
      </trkpt>
      <trkpt lat="45.48704" lon="5.93988">
        <ele>690</ele>
        <time>2022-08-10T17:59:06.106Z</time>
      </trkpt>
      <trkpt lat="45.48704" lon="5.93991">
        <ele>690</ele>
        <time>2022-08-10T17:59:07.105Z</time>
      </trkpt>
      <trkpt lat="45.48704" lon="5.93994">
        <ele>690</ele>
        <time>2022-08-10T17:59:08.105Z</time>
      </trkpt>
      <trkpt lat="45.48703" lon="5.93997">
        <ele>690</ele>
        <time>2022-08-10T17:59:09.105Z</time>
      </trkpt>
      <trkpt lat="45.48703" lon="5.94">
        <ele>690</ele>
        <time>2022-08-10T17:59:10.105Z</time>
      </trkpt>
      <trkpt lat="45.48702" lon="5.94003">
        <ele>691</ele>
        <time>2022-08-10T17:59:11.105Z</time>
      </trkpt>
      <trkpt lat="45.48702" lon="5.94004">
        <ele>691</ele>
        <time>2022-08-10T17:59:12.106Z</time>
      </trkpt>
      <trkpt lat="45.48701" lon="5.94006">
        <ele>691</ele>
        <time>2022-08-10T17:59:13.106Z</time>
      </trkpt>
      <trkpt lat="45.48701" lon="5.94007">
        <ele>690</ele>
        <time>2022-08-10T17:59:14.106Z</time>
      </trkpt>
      <trkpt lat="45.487" lon="5.94009">
        <ele>690</ele>
        <time>2022-08-10T17:59:15.106Z</time>
      </trkpt>
      <trkpt lat="45.48701" lon="5.94012">
        <ele>690</ele>
        <time>2022-08-10T17:59:16.106Z</time>
      </trkpt>
      <trkpt lat="45.487" lon="5.94014">
        <ele>690</ele>
        <time>2022-08-10T17:59:17.106Z</time>
      </trkpt>
      <trkpt lat="45.48699" lon="5.94017">
        <ele>691</ele>
        <time>2022-08-10T17:59:18.106Z</time>
      </trkpt>
      <trkpt lat="45.48697" lon="5.94018">
        <ele>691</ele>
        <time>2022-08-10T17:59:19.105Z</time>
      </trkpt>
      <trkpt lat="45.48695" lon="5.94018">
        <ele>692</ele>
        <time>2022-08-10T17:59:20.106Z</time>
      </trkpt>
      <trkpt lat="45.48693" lon="5.94018">
        <ele>692</ele>
        <time>2022-08-10T17:59:21.105Z</time>
      </trkpt>
      <trkpt lat="45.4869" lon="5.94019">
        <ele>692</ele>
        <time>2022-08-10T17:59:22.106Z</time>
      </trkpt>
      <trkpt lat="45.48687" lon="5.9402">
        <ele>692</ele>
        <time>2022-08-10T17:59:23.106Z</time>
      </trkpt>
      <trkpt lat="45.48685" lon="5.9402">
        <ele>693</ele>
        <time>2022-08-10T17:59:24.106Z</time>
      </trkpt>
      <trkpt lat="45.48684" lon="5.94021">
        <ele>693</ele>
        <time>2022-08-10T17:59:25.106Z</time>
      </trkpt>
      <trkpt lat="45.48683" lon="5.94023">
        <ele>693</ele>
        <time>2022-08-10T17:59:27.106Z</time>
      </trkpt>
      <trkpt lat="45.48683" lon="5.94024">
        <ele>693</ele>
        <time>2022-08-10T17:59:28.106Z</time>
      </trkpt>
      <trkpt lat="45.48682" lon="5.94024">
        <ele>693</ele>
        <time>2022-08-10T17:59:29.106Z</time>
      </trkpt>
      <trkpt lat="45.4868" lon="5.94025">
        <ele>693</ele>
        <time>2022-08-10T17:59:30.106Z</time>
      </trkpt>
      <trkpt lat="45.48679" lon="5.94026">
        <ele>693</ele>
        <time>2022-08-10T17:59:31.105Z</time>
      </trkpt>
      <trkpt lat="45.48678" lon="5.94026">
        <ele>693</ele>
        <time>2022-08-10T17:59:32.106Z</time>
      </trkpt>
      <trkpt lat="45.48676" lon="5.94027">
        <ele>693</ele>
        <time>2022-08-10T17:59:33.106Z</time>
      </trkpt>
      <trkpt lat="45.48674" lon="5.94027">
        <ele>693</ele>
        <time>2022-08-10T17:59:34.106Z</time>
      </trkpt>
      <trkpt lat="45.48672" lon="5.94028">
        <ele>693</ele>
        <time>2022-08-10T17:59:35.106Z</time>
      </trkpt>
      <trkpt lat="45.48669" lon="5.94029">
        <ele>693</ele>
        <time>2022-08-10T17:59:36.106Z</time>
      </trkpt>
      <trkpt lat="45.48666" lon="5.9403">
        <ele>693</ele>
        <time>2022-08-10T17:59:37.106Z</time>
      </trkpt>
      <trkpt lat="45.48663" lon="5.94032">
        <ele>693</ele>
        <time>2022-08-10T17:59:38.106Z</time>
      </trkpt>
      <trkpt lat="45.48659" lon="5.94035">
        <ele>693</ele>
        <time>2022-08-10T17:59:39.106Z</time>
      </trkpt>
      <trkpt lat="45.48658" lon="5.94037">
        <ele>693</ele>
        <time>2022-08-10T17:59:40.106Z</time>
      </trkpt>
      <trkpt lat="45.48656" lon="5.9404">
        <ele>692</ele>
        <time>2022-08-10T17:59:41.106Z</time>
      </trkpt>
      <trkpt lat="45.48653" lon="5.94044">
        <ele>692</ele>
        <time>2022-08-10T17:59:42.106Z</time>
      </trkpt>
      <trkpt lat="45.4865" lon="5.94048">
        <ele>691</ele>
        <time>2022-08-10T17:59:43.106Z</time>
      </trkpt>
      <trkpt lat="45.48648" lon="5.94051">
        <ele>691</ele>
        <time>2022-08-10T17:59:44.106Z</time>
      </trkpt>
      <trkpt lat="45.48646" lon="5.94052">
        <ele>690</ele>
        <time>2022-08-10T17:59:45.106Z</time>
      </trkpt>
      <trkpt lat="45.48644" lon="5.94055">
        <ele>690</ele>
        <time>2022-08-10T17:59:46.106Z</time>
      </trkpt>
      <trkpt lat="45.48643" lon="5.94059">
        <ele>689</ele>
        <time>2022-08-10T17:59:47.106Z</time>
      </trkpt>
      <trkpt lat="45.48641" lon="5.94062">
        <ele>689</ele>
        <time>2022-08-10T17:59:48.106Z</time>
      </trkpt>
      <trkpt lat="45.48639" lon="5.94064">
        <ele>688</ele>
        <time>2022-08-10T17:59:49.106Z</time>
      </trkpt>
      <trkpt lat="45.48636" lon="5.94066">
        <ele>688</ele>
        <time>2022-08-10T17:59:50.106Z</time>
      </trkpt>
      <trkpt lat="45.48634" lon="5.94067">
        <ele>688</ele>
        <time>2022-08-10T17:59:51.106Z</time>
      </trkpt>
      <trkpt lat="45.48631" lon="5.94068">
        <ele>687</ele>
        <time>2022-08-10T17:59:52.106Z</time>
      </trkpt>
      <trkpt lat="45.48629" lon="5.94068">
        <ele>687</ele>
        <time>2022-08-10T17:59:53.105Z</time>
      </trkpt>
      <trkpt lat="45.48628" lon="5.94068">
        <ele>686</ele>
        <time>2022-08-10T17:59:54.106Z</time>
      </trkpt>
      <trkpt lat="45.48626" lon="5.94068">
        <ele>686</ele>
        <time>2022-08-10T17:59:55.106Z</time>
      </trkpt>
      <trkpt lat="45.48625" lon="5.94068">
        <ele>686</ele>
        <time>2022-08-10T17:59:56.106Z</time>
      </trkpt>
      <trkpt lat="45.48622" lon="5.94069">
        <ele>685</ele>
        <time>2022-08-10T17:59:57.106Z</time>
      </trkpt>
      <trkpt lat="45.4862" lon="5.94069">
        <ele>685</ele>
        <time>2022-08-10T17:59:58.106Z</time>
      </trkpt>
      <trkpt lat="45.48617" lon="5.94071">
        <ele>685</ele>
        <time>2022-08-10T17:59:59.105Z</time>
      </trkpt>
      <trkpt lat="45.48615" lon="5.94072">
        <ele>685</ele>
        <time>2022-08-10T18:00:00.105Z</time>
      </trkpt>
      <trkpt lat="45.48613" lon="5.94073">
        <ele>685</ele>
        <time>2022-08-10T18:00:01.106Z</time>
      </trkpt>
      <trkpt lat="45.4861" lon="5.94076">
        <ele>684</ele>
        <time>2022-08-10T18:00:02.106Z</time>
      </trkpt>
      <trkpt lat="45.48608" lon="5.94077">
        <ele>684</ele>
        <time>2022-08-10T18:00:03.106Z</time>
      </trkpt>
      <trkpt lat="45.48606" lon="5.94079">
        <ele>684</ele>
        <time>2022-08-10T18:00:04.106Z</time>
      </trkpt>
      <trkpt lat="45.48605" lon="5.94082">
        <ele>684</ele>
        <time>2022-08-10T18:00:05.106Z</time>
      </trkpt>
      <trkpt lat="45.48603" lon="5.94086">
        <ele>684</ele>
        <time>2022-08-10T18:00:06.106Z</time>
      </trkpt>
      <trkpt lat="45.48601" lon="5.94091">
        <ele>684</ele>
        <time>2022-08-10T18:00:07.106Z</time>
      </trkpt>
      <trkpt lat="45.48599" lon="5.94095">
        <ele>684</ele>
        <time>2022-08-10T18:00:08.106Z</time>
      </trkpt>
      <trkpt lat="45.48598" lon="5.94099">
        <ele>683</ele>
        <time>2022-08-10T18:00:09.105Z</time>
      </trkpt>
      <trkpt lat="45.48597" lon="5.94103">
        <ele>683</ele>
        <time>2022-08-10T18:00:10.106Z</time>
      </trkpt>
      <trkpt lat="45.48595" lon="5.94106">
        <ele>683</ele>
        <time>2022-08-10T18:00:11.106Z</time>
      </trkpt>
      <trkpt lat="45.48593" lon="5.94109">
        <ele>682</ele>
        <time>2022-08-10T18:00:12.105Z</time>
      </trkpt>
      <trkpt lat="45.4859" lon="5.94112">
        <ele>682</ele>
        <time>2022-08-10T18:00:13.105Z</time>
      </trkpt>
      <trkpt lat="45.48588" lon="5.94114">
        <ele>682</ele>
        <time>2022-08-10T18:00:14.106Z</time>
      </trkpt>
      <trkpt lat="45.48585" lon="5.94117">
        <ele>682</ele>
        <time>2022-08-10T18:00:15.106Z</time>
      </trkpt>
      <trkpt lat="45.48583" lon="5.9412">
        <ele>681</ele>
        <time>2022-08-10T18:00:16.106Z</time>
      </trkpt>
      <trkpt lat="45.48582" lon="5.94125">
        <ele>681</ele>
        <time>2022-08-10T18:00:17.106Z</time>
      </trkpt>
      <trkpt lat="45.48582" lon="5.94129">
        <ele>680</ele>
        <time>2022-08-10T18:00:18.106Z</time>
      </trkpt>
      <trkpt lat="45.48583" lon="5.94133">
        <ele>679</ele>
        <time>2022-08-10T18:00:19.106Z</time>
      </trkpt>
      <trkpt lat="45.48585" lon="5.94138">
        <ele>678</ele>
        <time>2022-08-10T18:00:20.106Z</time>
      </trkpt>
      <trkpt lat="45.48587" lon="5.94144">
        <ele>677</ele>
        <time>2022-08-10T18:00:21.106Z</time>
      </trkpt>
      <trkpt lat="45.48589" lon="5.94149">
        <ele>676</ele>
        <time>2022-08-10T18:00:22.106Z</time>
      </trkpt>
      <trkpt lat="45.48592" lon="5.94153">
        <ele>676</ele>
        <time>2022-08-10T18:00:23.105Z</time>
      </trkpt>
      <trkpt lat="45.48595" lon="5.94158">
        <ele>675</ele>
        <time>2022-08-10T18:00:24.106Z</time>
      </trkpt>
      <trkpt lat="45.48598" lon="5.94163">
        <ele>674</ele>
        <time>2022-08-10T18:00:25.106Z</time>
      </trkpt>
      <trkpt lat="45.48601" lon="5.94167">
        <ele>674</ele>
        <time>2022-08-10T18:00:26.105Z</time>
      </trkpt>
      <trkpt lat="45.48603" lon="5.94172">
        <ele>673</ele>
        <time>2022-08-10T18:00:27.106Z</time>
      </trkpt>
      <trkpt lat="45.48604" lon="5.94178">
        <ele>673</ele>
        <time>2022-08-10T18:00:28.106Z</time>
      </trkpt>
      <trkpt lat="45.48606" lon="5.94183">
        <ele>672</ele>
        <time>2022-08-10T18:00:29.106Z</time>
      </trkpt>
      <trkpt lat="45.48606" lon="5.94189">
        <ele>672</ele>
        <time>2022-08-10T18:00:30.106Z</time>
      </trkpt>
      <trkpt lat="45.48607" lon="5.94196">
        <ele>671</ele>
        <time>2022-08-10T18:00:31.106Z</time>
      </trkpt>
      <trkpt lat="45.48606" lon="5.94202">
        <ele>670</ele>
        <time>2022-08-10T18:00:32.106Z</time>
      </trkpt>
      <trkpt lat="45.48606" lon="5.94207">
        <ele>670</ele>
        <time>2022-08-10T18:00:33.106Z</time>
      </trkpt>
      <trkpt lat="45.48605" lon="5.94212">
        <ele>669</ele>
        <time>2022-08-10T18:00:34.106Z</time>
      </trkpt>
      <trkpt lat="45.48604" lon="5.94216">
        <ele>669</ele>
        <time>2022-08-10T18:00:35.105Z</time>
      </trkpt>
      <trkpt lat="45.48603" lon="5.9422">
        <ele>669</ele>
        <time>2022-08-10T18:00:36.106Z</time>
      </trkpt>
      <trkpt lat="45.48603" lon="5.94225">
        <ele>669</ele>
        <time>2022-08-10T18:00:37.106Z</time>
      </trkpt>
      <trkpt lat="45.48603" lon="5.9423">
        <ele>668</ele>
        <time>2022-08-10T18:00:38.106Z</time>
      </trkpt>
      <trkpt lat="45.48604" lon="5.94236">
        <ele>668</ele>
        <time>2022-08-10T18:00:39.106Z</time>
      </trkpt>
      <trkpt lat="45.48605" lon="5.94242">
        <ele>667</ele>
        <time>2022-08-10T18:00:40.106Z</time>
      </trkpt>
      <trkpt lat="45.48606" lon="5.94246">
        <ele>667</ele>
        <time>2022-08-10T18:00:41.105Z</time>
      </trkpt>
      <trkpt lat="45.48608" lon="5.94251">
        <ele>667</ele>
        <time>2022-08-10T18:00:42.106Z</time>
      </trkpt>
      <trkpt lat="45.48609" lon="5.94256">
        <ele>666</ele>
        <time>2022-08-10T18:00:43.106Z</time>
      </trkpt>
      <trkpt lat="45.48609" lon="5.9426">
        <ele>666</ele>
        <time>2022-08-10T18:00:44.106Z</time>
      </trkpt>
      <trkpt lat="45.48608" lon="5.94263">
        <ele>666</ele>
        <time>2022-08-10T18:00:45.106Z</time>
      </trkpt>
      <trkpt lat="45.48607" lon="5.94266">
        <ele>665</ele>
        <time>2022-08-10T18:00:46.106Z</time>
      </trkpt>
      <trkpt lat="45.48607" lon="5.94267">
        <ele>665</ele>
        <time>2022-08-10T18:00:47.106Z</time>
      </trkpt>
      <trkpt lat="45.48606" lon="5.94269">
        <ele>664</ele>
        <time>2022-08-10T18:00:48.105Z</time>
      </trkpt>
      <trkpt lat="45.48606" lon="5.9427">
        <ele>664</ele>
        <time>2022-08-10T18:00:49.106Z</time>
      </trkpt>
      <trkpt lat="45.48606" lon="5.94271">
        <ele>663</ele>
        <time>2022-08-10T18:00:54.210Z</time>
      </trkpt>
      <trkpt lat="45.48605" lon="5.94271">
        <ele>662</ele>
        <time>2022-08-10T18:00:56.209Z</time>
      </trkpt>
      <trkpt lat="45.48607" lon="5.94273">
        <ele>662</ele>
        <time>2022-08-10T18:01:02.334Z</time>
      </trkpt>
      <trkpt lat="45.48608" lon="5.94273">
        <ele>662</ele>
        <time>2022-08-10T18:01:03.335Z</time>
      </trkpt>
      <trkpt lat="45.48608" lon="5.94274">
        <ele>662</ele>
        <time>2022-08-10T18:01:06.335Z</time>
      </trkpt>
      <trkpt lat="45.48608" lon="5.94275">
        <ele>662</ele>
        <time>2022-08-10T18:01:07.335Z</time>
      </trkpt>
      <trkpt lat="45.48609" lon="5.94281">
        <ele>663</ele>
        <time>2022-08-10T18:01:19.483Z</time>
      </trkpt>
      <trkpt lat="45.48611" lon="5.94282">
        <ele>663</ele>
        <time>2022-08-10T18:01:20.483Z</time>
      </trkpt>
      <trkpt lat="45.48613" lon="5.94284">
        <ele>663</ele>
        <time>2022-08-10T18:01:21.482Z</time>
      </trkpt>
      <trkpt lat="45.48614" lon="5.94286">
        <ele>662</ele>
        <time>2022-08-10T18:01:22.482Z</time>
      </trkpt>
      <trkpt lat="45.48616" lon="5.94289">
        <ele>662</ele>
        <time>2022-08-10T18:01:23.483Z</time>
      </trkpt>
      <trkpt lat="45.48617" lon="5.94292">
        <ele>662</ele>
        <time>2022-08-10T18:01:24.483Z</time>
      </trkpt>
      <trkpt lat="45.48617" lon="5.94298">
        <ele>662</ele>
        <time>2022-08-10T18:01:25.483Z</time>
      </trkpt>
      <trkpt lat="45.48615" lon="5.94303">
        <ele>662</ele>
        <time>2022-08-10T18:01:26.482Z</time>
      </trkpt>
      <trkpt lat="45.48613" lon="5.94308">
        <ele>661</ele>
        <time>2022-08-10T18:01:27.482Z</time>
      </trkpt>
      <trkpt lat="45.48611" lon="5.94313">
        <ele>661</ele>
        <time>2022-08-10T18:01:28.482Z</time>
      </trkpt>
      <trkpt lat="45.48609" lon="5.94317">
        <ele>660</ele>
        <time>2022-08-10T18:01:29.482Z</time>
      </trkpt>
      <trkpt lat="45.48607" lon="5.94321">
        <ele>660</ele>
        <time>2022-08-10T18:01:30.483Z</time>
      </trkpt>
      <trkpt lat="45.48606" lon="5.94324">
        <ele>659</ele>
        <time>2022-08-10T18:01:31.482Z</time>
      </trkpt>
      <trkpt lat="45.48604" lon="5.94327">
        <ele>659</ele>
        <time>2022-08-10T18:01:32.483Z</time>
      </trkpt>
      <trkpt lat="45.48602" lon="5.9433">
        <ele>659</ele>
        <time>2022-08-10T18:01:33.483Z</time>
      </trkpt>
      <trkpt lat="45.48601" lon="5.94333">
        <ele>658</ele>
        <time>2022-08-10T18:01:34.483Z</time>
      </trkpt>
      <trkpt lat="45.486" lon="5.94337">
        <ele>658</ele>
        <time>2022-08-10T18:01:35.482Z</time>
      </trkpt>
      <trkpt lat="45.48599" lon="5.94341">
        <ele>657</ele>
        <time>2022-08-10T18:01:36.483Z</time>
      </trkpt>
      <trkpt lat="45.486" lon="5.94346">
        <ele>657</ele>
        <time>2022-08-10T18:01:37.483Z</time>
      </trkpt>
      <trkpt lat="45.48601" lon="5.94352">
        <ele>656</ele>
        <time>2022-08-10T18:01:38.483Z</time>
      </trkpt>
      <trkpt lat="45.48603" lon="5.94359">
        <ele>655</ele>
        <time>2022-08-10T18:01:39.483Z</time>
      </trkpt>
      <trkpt lat="45.48604" lon="5.94367">
        <ele>655</ele>
        <time>2022-08-10T18:01:40.483Z</time>
      </trkpt>
      <trkpt lat="45.48606" lon="5.94374">
        <ele>654</ele>
        <time>2022-08-10T18:01:41.483Z</time>
      </trkpt>
      <trkpt lat="45.48608" lon="5.94381">
        <ele>654</ele>
        <time>2022-08-10T18:01:42.482Z</time>
      </trkpt>
      <trkpt lat="45.4861" lon="5.94386">
        <ele>653</ele>
        <time>2022-08-10T18:01:43.482Z</time>
      </trkpt>
      <trkpt lat="45.48612" lon="5.94393">
        <ele>653</ele>
        <time>2022-08-10T18:01:44.483Z</time>
      </trkpt>
      <trkpt lat="45.48612" lon="5.94401">
        <ele>652</ele>
        <time>2022-08-10T18:01:45.483Z</time>
      </trkpt>
      <trkpt lat="45.48612" lon="5.94409">
        <ele>652</ele>
        <time>2022-08-10T18:01:46.482Z</time>
      </trkpt>
      <trkpt lat="45.48612" lon="5.94416">
        <ele>651</ele>
        <time>2022-08-10T18:01:47.483Z</time>
      </trkpt>
      <trkpt lat="45.48612" lon="5.94423">
        <ele>651</ele>
        <time>2022-08-10T18:01:48.483Z</time>
      </trkpt>
      <trkpt lat="45.48612" lon="5.94429">
        <ele>650</ele>
        <time>2022-08-10T18:01:49.483Z</time>
      </trkpt>
      <trkpt lat="45.48612" lon="5.94432">
        <ele>650</ele>
        <time>2022-08-10T18:01:50.483Z</time>
      </trkpt>
      <trkpt lat="45.48611" lon="5.94434">
        <ele>649</ele>
        <time>2022-08-10T18:01:51.482Z</time>
      </trkpt>
      <trkpt lat="45.48611" lon="5.94435">
        <ele>649</ele>
        <time>2022-08-10T18:01:52.483Z</time>
      </trkpt>
      <trkpt lat="45.48609" lon="5.94437">
        <ele>648</ele>
        <time>2022-08-10T18:01:53.483Z</time>
      </trkpt>
      <trkpt lat="45.48608" lon="5.94437">
        <ele>648</ele>
        <time>2022-08-10T18:01:54.483Z</time>
      </trkpt>
      <trkpt lat="45.48609" lon="5.94438">
        <ele>647</ele>
        <time>2022-08-10T18:01:55.483Z</time>
      </trkpt>
      <trkpt lat="45.48609" lon="5.94439">
        <ele>647</ele>
        <time>2022-08-10T18:01:57.470Z</time>
      </trkpt>
      <trkpt lat="45.48608" lon="5.9444">
        <ele>646</ele>
        <time>2022-08-10T18:01:58.470Z</time>
      </trkpt>
      <trkpt lat="45.48609" lon="5.9444">
        <ele>646</ele>
        <time>2022-08-10T18:02:00.470Z</time>
      </trkpt>
      <trkpt lat="45.48607" lon="5.94447">
        <ele>642</ele>
        <time>2022-08-10T18:02:38.609Z</time>
      </trkpt>
      <trkpt lat="45.48607" lon="5.94448">
        <ele>642</ele>
        <time>2022-08-10T18:02:39.609Z</time>
      </trkpt>
      <trkpt lat="45.48606" lon="5.9445">
        <ele>642</ele>
        <time>2022-08-10T18:02:40.609Z</time>
      </trkpt>
      <trkpt lat="45.48606" lon="5.94452">
        <ele>642</ele>
        <time>2022-08-10T18:02:41.609Z</time>
      </trkpt>
      <trkpt lat="45.48606" lon="5.94454">
        <ele>642</ele>
        <time>2022-08-10T18:02:42.609Z</time>
      </trkpt>
      <trkpt lat="45.48606" lon="5.94457">
        <ele>642</ele>
        <time>2022-08-10T18:02:43.609Z</time>
      </trkpt>
      <trkpt lat="45.48606" lon="5.9446">
        <ele>642</ele>
        <time>2022-08-10T18:02:44.609Z</time>
      </trkpt>
      <trkpt lat="45.48607" lon="5.94463">
        <ele>641</ele>
        <time>2022-08-10T18:02:45.608Z</time>
      </trkpt>
      <trkpt lat="45.48609" lon="5.94466">
        <ele>641</ele>
        <time>2022-08-10T18:02:46.609Z</time>
      </trkpt>
      <trkpt lat="45.4861" lon="5.94468">
        <ele>641</ele>
        <time>2022-08-10T18:02:47.608Z</time>
      </trkpt>
      <trkpt lat="45.48612" lon="5.9447">
        <ele>640</ele>
        <time>2022-08-10T18:02:48.609Z</time>
      </trkpt>
      <trkpt lat="45.48614" lon="5.94472">
        <ele>640</ele>
        <time>2022-08-10T18:02:49.609Z</time>
      </trkpt>
      <trkpt lat="45.48617" lon="5.94474">
        <ele>640</ele>
        <time>2022-08-10T18:02:50.609Z</time>
      </trkpt>
      <trkpt lat="45.48619" lon="5.94476">
        <ele>639</ele>
        <time>2022-08-10T18:02:51.608Z</time>
      </trkpt>
      <trkpt lat="45.48622" lon="5.9448">
        <ele>639</ele>
        <time>2022-08-10T18:02:52.609Z</time>
      </trkpt>
      <trkpt lat="45.48624" lon="5.94483">
        <ele>638</ele>
        <time>2022-08-10T18:02:53.609Z</time>
      </trkpt>
      <trkpt lat="45.48627" lon="5.94487">
        <ele>637</ele>
        <time>2022-08-10T18:02:54.609Z</time>
      </trkpt>
      <trkpt lat="45.48629" lon="5.94491">
        <ele>636</ele>
        <time>2022-08-10T18:02:55.609Z</time>
      </trkpt>
      <trkpt lat="45.4863" lon="5.94495">
        <ele>636</ele>
        <time>2022-08-10T18:02:56.609Z</time>
      </trkpt>
      <trkpt lat="45.48631" lon="5.94499">
        <ele>635</ele>
        <time>2022-08-10T18:02:57.609Z</time>
      </trkpt>
      <trkpt lat="45.48632" lon="5.94503">
        <ele>634</ele>
        <time>2022-08-10T18:02:58.609Z</time>
      </trkpt>
      <trkpt lat="45.48634" lon="5.94506">
        <ele>633</ele>
        <time>2022-08-10T18:02:59.608Z</time>
      </trkpt>
      <trkpt lat="45.48635" lon="5.94509">
        <ele>632</ele>
        <time>2022-08-10T18:03:00.609Z</time>
      </trkpt>
      <trkpt lat="45.48637" lon="5.94513">
        <ele>632</ele>
        <time>2022-08-10T18:03:01.609Z</time>
      </trkpt>
      <trkpt lat="45.48639" lon="5.94516">
        <ele>631</ele>
        <time>2022-08-10T18:03:02.609Z</time>
      </trkpt>
      <trkpt lat="45.48641" lon="5.9452">
        <ele>631</ele>
        <time>2022-08-10T18:03:03.609Z</time>
      </trkpt>
      <trkpt lat="45.48644" lon="5.94523">
        <ele>630</ele>
        <time>2022-08-10T18:03:04.609Z</time>
      </trkpt>
      <trkpt lat="45.48646" lon="5.94527">
        <ele>629</ele>
        <time>2022-08-10T18:03:05.608Z</time>
      </trkpt>
      <trkpt lat="45.48648" lon="5.94531">
        <ele>629</ele>
        <time>2022-08-10T18:03:06.609Z</time>
      </trkpt>
      <trkpt lat="45.4865" lon="5.94535">
        <ele>628</ele>
        <time>2022-08-10T18:03:07.609Z</time>
      </trkpt>
      <trkpt lat="45.48652" lon="5.9454">
        <ele>627</ele>
        <time>2022-08-10T18:03:08.609Z</time>
      </trkpt>
      <trkpt lat="45.48654" lon="5.94544">
        <ele>627</ele>
        <time>2022-08-10T18:03:09.609Z</time>
      </trkpt>
      <trkpt lat="45.48656" lon="5.94549">
        <ele>626</ele>
        <time>2022-08-10T18:03:10.609Z</time>
      </trkpt>
      <trkpt lat="45.48658" lon="5.94554">
        <ele>626</ele>
        <time>2022-08-10T18:03:11.608Z</time>
      </trkpt>
      <trkpt lat="45.48661" lon="5.9456">
        <ele>625</ele>
        <time>2022-08-10T18:03:12.608Z</time>
      </trkpt>
      <trkpt lat="45.48663" lon="5.94564">
        <ele>625</ele>
        <time>2022-08-10T18:03:13.608Z</time>
      </trkpt>
      <trkpt lat="45.48666" lon="5.94568">
        <ele>624</ele>
        <time>2022-08-10T18:03:14.609Z</time>
      </trkpt>
      <trkpt lat="45.48667" lon="5.94572">
        <ele>623</ele>
        <time>2022-08-10T18:03:15.609Z</time>
      </trkpt>
      <trkpt lat="45.48669" lon="5.94576">
        <ele>623</ele>
        <time>2022-08-10T18:03:16.608Z</time>
      </trkpt>
      <trkpt lat="45.4867" lon="5.94578">
        <ele>622</ele>
        <time>2022-08-10T18:03:17.608Z</time>
      </trkpt>
      <trkpt lat="45.48671" lon="5.94581">
        <ele>621</ele>
        <time>2022-08-10T18:03:18.609Z</time>
      </trkpt>
      <trkpt lat="45.48672" lon="5.94583">
        <ele>620</ele>
        <time>2022-08-10T18:03:19.609Z</time>
      </trkpt>
      <trkpt lat="45.48673" lon="5.94586">
        <ele>620</ele>
        <time>2022-08-10T18:03:20.608Z</time>
      </trkpt>
      <trkpt lat="45.48674" lon="5.94589">
        <ele>620</ele>
        <time>2022-08-10T18:03:21.609Z</time>
      </trkpt>
      <trkpt lat="45.48676" lon="5.94593">
        <ele>620</ele>
        <time>2022-08-10T18:03:22.609Z</time>
      </trkpt>
      <trkpt lat="45.48677" lon="5.94598">
        <ele>619</ele>
        <time>2022-08-10T18:03:23.609Z</time>
      </trkpt>
      <trkpt lat="45.48678" lon="5.94602">
        <ele>619</ele>
        <time>2022-08-10T18:03:24.609Z</time>
      </trkpt>
      <trkpt lat="45.4868" lon="5.94605">
        <ele>619</ele>
        <time>2022-08-10T18:03:25.608Z</time>
      </trkpt>
      <trkpt lat="45.48681" lon="5.94609">
        <ele>619</ele>
        <time>2022-08-10T18:03:26.609Z</time>
      </trkpt>
      <trkpt lat="45.48681" lon="5.94612">
        <ele>619</ele>
        <time>2022-08-10T18:03:27.609Z</time>
      </trkpt>
      <trkpt lat="45.48681" lon="5.94615">
        <ele>619</ele>
        <time>2022-08-10T18:03:28.609Z</time>
      </trkpt>
      <trkpt lat="45.48681" lon="5.94618">
        <ele>619</ele>
        <time>2022-08-10T18:03:29.609Z</time>
      </trkpt>
      <trkpt lat="45.48682" lon="5.9462">
        <ele>619</ele>
        <time>2022-08-10T18:03:30.608Z</time>
      </trkpt>
      <trkpt lat="45.4868" lon="5.94622">
        <ele>619</ele>
        <time>2022-08-10T18:03:31.609Z</time>
      </trkpt>
      <trkpt lat="45.48679" lon="5.94623">
        <ele>619</ele>
        <time>2022-08-10T18:03:32.609Z</time>
      </trkpt>
      <trkpt lat="45.48677" lon="5.94624">
        <ele>619</ele>
        <time>2022-08-10T18:03:33.609Z</time>
      </trkpt>
      <trkpt lat="45.48675" lon="5.94625">
        <ele>619</ele>
        <time>2022-08-10T18:03:34.609Z</time>
      </trkpt>
      <trkpt lat="45.48673" lon="5.94625">
        <ele>619</ele>
        <time>2022-08-10T18:03:35.608Z</time>
      </trkpt>
      <trkpt lat="45.48671" lon="5.94626">
        <ele>619</ele>
        <time>2022-08-10T18:03:36.608Z</time>
      </trkpt>
      <trkpt lat="45.4867" lon="5.94627">
        <ele>619</ele>
        <time>2022-08-10T18:03:37.608Z</time>
      </trkpt>
      <trkpt lat="45.48668" lon="5.94628">
        <ele>619</ele>
        <time>2022-08-10T18:03:38.609Z</time>
      </trkpt>
      <trkpt lat="45.48666" lon="5.94629">
        <ele>619</ele>
        <time>2022-08-10T18:03:39.609Z</time>
      </trkpt>
      <trkpt lat="45.48664" lon="5.9463">
        <ele>619</ele>
        <time>2022-08-10T18:03:40.609Z</time>
      </trkpt>
      <trkpt lat="45.48661" lon="5.94632">
        <ele>620</ele>
        <time>2022-08-10T18:03:41.608Z</time>
      </trkpt>
      <trkpt lat="45.48659" lon="5.94633">
        <ele>620</ele>
        <time>2022-08-10T18:03:42.608Z</time>
      </trkpt>
      <trkpt lat="45.48656" lon="5.94634">
        <ele>620</ele>
        <time>2022-08-10T18:03:43.609Z</time>
      </trkpt>
      <trkpt lat="45.48653" lon="5.94636">
        <ele>621</ele>
        <time>2022-08-10T18:03:44.609Z</time>
      </trkpt>
      <trkpt lat="45.4865" lon="5.94638">
        <ele>621</ele>
        <time>2022-08-10T18:03:45.608Z</time>
      </trkpt>
      <trkpt lat="45.48646" lon="5.9464">
        <ele>621</ele>
        <time>2022-08-10T18:03:46.609Z</time>
      </trkpt>
      <trkpt lat="45.48642" lon="5.94642">
        <ele>621</ele>
        <time>2022-08-10T18:03:47.609Z</time>
      </trkpt>
      <trkpt lat="45.48638" lon="5.94644">
        <ele>622</ele>
        <time>2022-08-10T18:03:48.609Z</time>
      </trkpt>
      <trkpt lat="45.48634" lon="5.94646">
        <ele>622</ele>
        <time>2022-08-10T18:03:49.608Z</time>
      </trkpt>
      <trkpt lat="45.4863" lon="5.94648">
        <ele>622</ele>
        <time>2022-08-10T18:03:50.609Z</time>
      </trkpt>
      <trkpt lat="45.48626" lon="5.9465">
        <ele>622</ele>
        <time>2022-08-10T18:03:51.609Z</time>
      </trkpt>
      <trkpt lat="45.48623" lon="5.94652">
        <ele>622</ele>
        <time>2022-08-10T18:03:52.609Z</time>
      </trkpt>
      <trkpt lat="45.4862" lon="5.94653">
        <ele>622</ele>
        <time>2022-08-10T18:03:53.609Z</time>
      </trkpt>
      <trkpt lat="45.48618" lon="5.94655">
        <ele>622</ele>
        <time>2022-08-10T18:03:54.609Z</time>
      </trkpt>
      <trkpt lat="45.48615" lon="5.94656">
        <ele>622</ele>
        <time>2022-08-10T18:03:55.609Z</time>
      </trkpt>
      <trkpt lat="45.48613" lon="5.94658">
        <ele>622</ele>
        <time>2022-08-10T18:03:56.609Z</time>
      </trkpt>
      <trkpt lat="45.4861" lon="5.94659">
        <ele>622</ele>
        <time>2022-08-10T18:03:57.608Z</time>
      </trkpt>
      <trkpt lat="45.48608" lon="5.9466">
        <ele>622</ele>
        <time>2022-08-10T18:03:58.609Z</time>
      </trkpt>
      <trkpt lat="45.48605" lon="5.94659">
        <ele>622</ele>
        <time>2022-08-10T18:03:59.608Z</time>
      </trkpt>
      <trkpt lat="45.48602" lon="5.94658">
        <ele>622</ele>
        <time>2022-08-10T18:04:00.609Z</time>
      </trkpt>
      <trkpt lat="45.48597" lon="5.94659">
        <ele>622</ele>
        <time>2022-08-10T18:04:01.608Z</time>
      </trkpt>
      <trkpt lat="45.48593" lon="5.94658">
        <ele>622</ele>
        <time>2022-08-10T18:04:02.608Z</time>
      </trkpt>
      <trkpt lat="45.48588" lon="5.94658">
        <ele>622</ele>
        <time>2022-08-10T18:04:03.609Z</time>
      </trkpt>
      <trkpt lat="45.48583" lon="5.94656">
        <ele>622</ele>
        <time>2022-08-10T18:04:04.609Z</time>
      </trkpt>
      <trkpt lat="45.48578" lon="5.94655">
        <ele>621</ele>
        <time>2022-08-10T18:04:05.609Z</time>
      </trkpt>
      <trkpt lat="45.48574" lon="5.94653">
        <ele>621</ele>
        <time>2022-08-10T18:04:06.609Z</time>
      </trkpt>
      <trkpt lat="45.4857" lon="5.9465">
        <ele>621</ele>
        <time>2022-08-10T18:04:07.609Z</time>
      </trkpt>
      <trkpt lat="45.48568" lon="5.94647">
        <ele>621</ele>
        <time>2022-08-10T18:04:08.608Z</time>
      </trkpt>
      <trkpt lat="45.48565" lon="5.94645">
        <ele>621</ele>
        <time>2022-08-10T18:04:09.609Z</time>
      </trkpt>
      <trkpt lat="45.48562" lon="5.94643">
        <ele>621</ele>
        <time>2022-08-10T18:04:10.609Z</time>
      </trkpt>
      <trkpt lat="45.4856" lon="5.94643">
        <ele>621</ele>
        <time>2022-08-10T18:04:11.608Z</time>
      </trkpt>
      <trkpt lat="45.48558" lon="5.94643">
        <ele>620</ele>
        <time>2022-08-10T18:04:12.609Z</time>
      </trkpt>
      <trkpt lat="45.48556" lon="5.94644">
        <ele>620</ele>
        <time>2022-08-10T18:04:13.608Z</time>
      </trkpt>
      <trkpt lat="45.48554" lon="5.94644">
        <ele>620</ele>
        <time>2022-08-10T18:04:14.609Z</time>
      </trkpt>
      <trkpt lat="45.48552" lon="5.94645">
        <ele>620</ele>
        <time>2022-08-10T18:04:15.609Z</time>
      </trkpt>
      <trkpt lat="45.4855" lon="5.94647">
        <ele>620</ele>
        <time>2022-08-10T18:04:16.609Z</time>
      </trkpt>
      <trkpt lat="45.48548" lon="5.94649">
        <ele>620</ele>
        <time>2022-08-10T18:04:17.609Z</time>
      </trkpt>
      <trkpt lat="45.48546" lon="5.94651">
        <ele>620</ele>
        <time>2022-08-10T18:04:18.609Z</time>
      </trkpt>
      <trkpt lat="45.48544" lon="5.94653">
        <ele>620</ele>
        <time>2022-08-10T18:04:19.609Z</time>
      </trkpt>
      <trkpt lat="45.48541" lon="5.94655">
        <ele>619</ele>
        <time>2022-08-10T18:04:20.609Z</time>
      </trkpt>
      <trkpt lat="45.48538" lon="5.94657">
        <ele>619</ele>
        <time>2022-08-10T18:04:21.609Z</time>
      </trkpt>
      <trkpt lat="45.48535" lon="5.94658">
        <ele>619</ele>
        <time>2022-08-10T18:04:22.608Z</time>
      </trkpt>
      <trkpt lat="45.48531" lon="5.94659">
        <ele>619</ele>
        <time>2022-08-10T18:04:23.609Z</time>
      </trkpt>
      <trkpt lat="45.48527" lon="5.94659">
        <ele>619</ele>
        <time>2022-08-10T18:04:24.609Z</time>
      </trkpt>
      <trkpt lat="45.48524" lon="5.94658">
        <ele>619</ele>
        <time>2022-08-10T18:04:25.609Z</time>
      </trkpt>
      <trkpt lat="45.4852" lon="5.94657">
        <ele>619</ele>
        <time>2022-08-10T18:04:26.609Z</time>
      </trkpt>
      <trkpt lat="45.48517" lon="5.94656">
        <ele>619</ele>
        <time>2022-08-10T18:04:27.609Z</time>
      </trkpt>
      <trkpt lat="45.48513" lon="5.94655">
        <ele>619</ele>
        <time>2022-08-10T18:04:28.609Z</time>
      </trkpt>
      <trkpt lat="45.4851" lon="5.94654">
        <ele>620</ele>
        <time>2022-08-10T18:04:29.609Z</time>
      </trkpt>
      <trkpt lat="45.48506" lon="5.94653">
        <ele>620</ele>
        <time>2022-08-10T18:04:30.609Z</time>
      </trkpt>
      <trkpt lat="45.48503" lon="5.94653">
        <ele>620</ele>
        <time>2022-08-10T18:04:31.609Z</time>
      </trkpt>
      <trkpt lat="45.485" lon="5.94652">
        <ele>620</ele>
        <time>2022-08-10T18:04:32.609Z</time>
      </trkpt>
      <trkpt lat="45.48498" lon="5.94651">
        <ele>620</ele>
        <time>2022-08-10T18:04:33.609Z</time>
      </trkpt>
      <trkpt lat="45.48495" lon="5.9465">
        <ele>621</ele>
        <time>2022-08-10T18:04:34.609Z</time>
      </trkpt>
      <trkpt lat="45.48494" lon="5.94647">
        <ele>621</ele>
        <time>2022-08-10T18:04:35.609Z</time>
      </trkpt>
      <trkpt lat="45.48492" lon="5.94646">
        <ele>621</ele>
        <time>2022-08-10T18:04:36.608Z</time>
      </trkpt>
      <trkpt lat="45.4849" lon="5.94645">
        <ele>621</ele>
        <time>2022-08-10T18:04:37.608Z</time>
      </trkpt>
      <trkpt lat="45.48488" lon="5.94645">
        <ele>622</ele>
        <time>2022-08-10T18:04:38.608Z</time>
      </trkpt>
      <trkpt lat="45.48485" lon="5.94646">
        <ele>622</ele>
        <time>2022-08-10T18:04:39.608Z</time>
      </trkpt>
      <trkpt lat="45.48482" lon="5.94647">
        <ele>622</ele>
        <time>2022-08-10T18:04:40.609Z</time>
      </trkpt>
      <trkpt lat="45.4848" lon="5.94648">
        <ele>622</ele>
        <time>2022-08-10T18:04:41.608Z</time>
      </trkpt>
      <trkpt lat="45.48477" lon="5.94648">
        <ele>622</ele>
        <time>2022-08-10T18:04:42.609Z</time>
      </trkpt>
      <trkpt lat="45.48474" lon="5.94649">
        <ele>622</ele>
        <time>2022-08-10T18:04:43.609Z</time>
      </trkpt>
      <trkpt lat="45.48472" lon="5.9465">
        <ele>622</ele>
        <time>2022-08-10T18:04:44.609Z</time>
      </trkpt>
      <trkpt lat="45.48468" lon="5.94651">
        <ele>622</ele>
        <time>2022-08-10T18:04:45.608Z</time>
      </trkpt>
      <trkpt lat="45.48465" lon="5.94651">
        <ele>622</ele>
        <time>2022-08-10T18:04:46.608Z</time>
      </trkpt>
      <trkpt lat="45.48461" lon="5.94651">
        <ele>622</ele>
        <time>2022-08-10T18:04:47.608Z</time>
      </trkpt>
      <trkpt lat="45.48457" lon="5.94651">
        <ele>622</ele>
        <time>2022-08-10T18:04:48.609Z</time>
      </trkpt>
      <trkpt lat="45.48454" lon="5.94651">
        <ele>623</ele>
        <time>2022-08-10T18:04:49.608Z</time>
      </trkpt>
      <trkpt lat="45.48451" lon="5.9465">
        <ele>623</ele>
        <time>2022-08-10T18:04:50.609Z</time>
      </trkpt>
      <trkpt lat="45.48448" lon="5.9465">
        <ele>623</ele>
        <time>2022-08-10T18:04:51.609Z</time>
      </trkpt>
      <trkpt lat="45.48444" lon="5.9465">
        <ele>623</ele>
        <time>2022-08-10T18:04:52.608Z</time>
      </trkpt>
      <trkpt lat="45.4844" lon="5.94651">
        <ele>623</ele>
        <time>2022-08-10T18:04:53.609Z</time>
      </trkpt>
      <trkpt lat="45.48437" lon="5.94652">
        <ele>623</ele>
        <time>2022-08-10T18:04:54.609Z</time>
      </trkpt>
      <trkpt lat="45.48434" lon="5.94653">
        <ele>623</ele>
        <time>2022-08-10T18:04:55.609Z</time>
      </trkpt>
      <trkpt lat="45.48432" lon="5.94654">
        <ele>623</ele>
        <time>2022-08-10T18:04:56.609Z</time>
      </trkpt>
      <trkpt lat="45.48431" lon="5.94655">
        <ele>624</ele>
        <time>2022-08-10T18:04:57.608Z</time>
      </trkpt>
      <trkpt lat="45.48429" lon="5.94656">
        <ele>624</ele>
        <time>2022-08-10T18:04:58.609Z</time>
      </trkpt>
      <trkpt lat="45.48426" lon="5.94659">
        <ele>625</ele>
        <time>2022-08-10T18:04:59.609Z</time>
      </trkpt>
      <trkpt lat="45.48423" lon="5.94661">
        <ele>625</ele>
        <time>2022-08-10T18:05:00.608Z</time>
      </trkpt>
      <trkpt lat="45.4842" lon="5.94663">
        <ele>625</ele>
        <time>2022-08-10T18:05:01.609Z</time>
      </trkpt>
      <trkpt lat="45.48417" lon="5.94664">
        <ele>626</ele>
        <time>2022-08-10T18:05:02.608Z</time>
      </trkpt>
      <trkpt lat="45.48415" lon="5.94665">
        <ele>626</ele>
        <time>2022-08-10T18:05:03.609Z</time>
      </trkpt>
      <trkpt lat="45.48413" lon="5.94667">
        <ele>626</ele>
        <time>2022-08-10T18:05:04.609Z</time>
      </trkpt>
      <trkpt lat="45.48411" lon="5.94668">
        <ele>627</ele>
        <time>2022-08-10T18:05:05.608Z</time>
      </trkpt>
      <trkpt lat="45.4841" lon="5.9467">
        <ele>627</ele>
        <time>2022-08-10T18:05:06.608Z</time>
      </trkpt>
      <trkpt lat="45.4841" lon="5.94671">
        <ele>627</ele>
        <time>2022-08-10T18:05:07.608Z</time>
      </trkpt>
      <trkpt lat="45.4841" lon="5.94674">
        <ele>626</ele>
        <time>2022-08-10T18:05:08.608Z</time>
      </trkpt>
      <trkpt lat="45.48409" lon="5.94678">
        <ele>626</ele>
        <time>2022-08-10T18:05:09.609Z</time>
      </trkpt>
      <trkpt lat="45.48409" lon="5.94682">
        <ele>625</ele>
        <time>2022-08-10T18:05:10.609Z</time>
      </trkpt>
      <trkpt lat="45.48408" lon="5.94687">
        <ele>625</ele>
        <time>2022-08-10T18:05:11.609Z</time>
      </trkpt>
      <trkpt lat="45.48407" lon="5.94691">
        <ele>624</ele>
        <time>2022-08-10T18:05:12.608Z</time>
      </trkpt>
      <trkpt lat="45.48405" lon="5.94695">
        <ele>624</ele>
        <time>2022-08-10T18:05:13.609Z</time>
      </trkpt>
      <trkpt lat="45.48404" lon="5.94699">
        <ele>624</ele>
        <time>2022-08-10T18:05:14.609Z</time>
      </trkpt>
      <trkpt lat="45.48402" lon="5.94703">
        <ele>624</ele>
        <time>2022-08-10T18:05:15.609Z</time>
      </trkpt>
      <trkpt lat="45.484" lon="5.94705">
        <ele>623</ele>
        <time>2022-08-10T18:05:16.608Z</time>
      </trkpt>
      <trkpt lat="45.48398" lon="5.94708">
        <ele>623</ele>
        <time>2022-08-10T18:05:17.609Z</time>
      </trkpt>
      <trkpt lat="45.48396" lon="5.94712">
        <ele>623</ele>
        <time>2022-08-10T18:05:18.609Z</time>
      </trkpt>
      <trkpt lat="45.48393" lon="5.94715">
        <ele>623</ele>
        <time>2022-08-10T18:05:19.609Z</time>
      </trkpt>
      <trkpt lat="45.48391" lon="5.94718">
        <ele>623</ele>
        <time>2022-08-10T18:05:20.609Z</time>
      </trkpt>
      <trkpt lat="45.4839" lon="5.94722">
        <ele>623</ele>
        <time>2022-08-10T18:05:21.609Z</time>
      </trkpt>
      <trkpt lat="45.48389" lon="5.94724">
        <ele>623</ele>
        <time>2022-08-10T18:05:22.609Z</time>
      </trkpt>
      <trkpt lat="45.48387" lon="5.94726">
        <ele>624</ele>
        <time>2022-08-10T18:05:23.609Z</time>
      </trkpt>
      <trkpt lat="45.48387" lon="5.94727">
        <ele>624</ele>
        <time>2022-08-10T18:05:24.609Z</time>
      </trkpt>
      <trkpt lat="45.48387" lon="5.94728">
        <ele>624</ele>
        <time>2022-08-10T18:05:25.609Z</time>
      </trkpt>
      <trkpt lat="45.48386" lon="5.94729">
        <ele>625</ele>
        <time>2022-08-10T18:05:26.608Z</time>
      </trkpt>
      <trkpt lat="45.48386" lon="5.9473">
        <ele>625</ele>
        <time>2022-08-10T18:05:27.609Z</time>
      </trkpt>
      <trkpt lat="45.48386" lon="5.94732">
        <ele>625</ele>
        <time>2022-08-10T18:05:28.608Z</time>
      </trkpt>
      <trkpt lat="45.48385" lon="5.94735">
        <ele>625</ele>
        <time>2022-08-10T18:05:29.609Z</time>
      </trkpt>
      <trkpt lat="45.48385" lon="5.94738">
        <ele>625</ele>
        <time>2022-08-10T18:05:30.609Z</time>
      </trkpt>
      <trkpt lat="45.48385" lon="5.94742">
        <ele>625</ele>
        <time>2022-08-10T18:05:31.609Z</time>
      </trkpt>
      <trkpt lat="45.48384" lon="5.94745">
        <ele>625</ele>
        <time>2022-08-10T18:05:32.608Z</time>
      </trkpt>
      <trkpt lat="45.48384" lon="5.94747">
        <ele>624</ele>
        <time>2022-08-10T18:05:33.608Z</time>
      </trkpt>
      <trkpt lat="45.48383" lon="5.94748">
        <ele>624</ele>
        <time>2022-08-10T18:05:34.608Z</time>
      </trkpt>
      <trkpt lat="45.48383" lon="5.94749">
        <ele>624</ele>
        <time>2022-08-10T18:05:35.609Z</time>
      </trkpt>
      <trkpt lat="45.48383" lon="5.9475">
        <ele>624</ele>
        <time>2022-08-10T18:05:36.609Z</time>
      </trkpt>
      <trkpt lat="45.48382" lon="5.9475">
        <ele>624</ele>
        <time>2022-08-10T18:05:37.608Z</time>
      </trkpt>
      <trkpt lat="45.48378" lon="5.94755">
        <ele>626</ele>
        <time>2022-08-10T18:05:43.756Z</time>
      </trkpt>
      <trkpt lat="45.48377" lon="5.94758">
        <ele>628</ele>
        <time>2022-08-10T18:05:48.634Z</time>
      </trkpt>
      <trkpt lat="45.48377" lon="5.94759">
        <ele>628</ele>
        <time>2022-08-10T18:05:49.634Z</time>
      </trkpt>
      <trkpt lat="45.48377" lon="5.9476">
        <ele>628</ele>
        <time>2022-08-10T18:05:50.633Z</time>
      </trkpt>
      <trkpt lat="45.48377" lon="5.94761">
        <ele>628</ele>
        <time>2022-08-10T18:05:52.633Z</time>
      </trkpt>
      <trkpt lat="45.48378" lon="5.94764">
        <ele>629</ele>
        <time>2022-08-10T18:05:56.744Z</time>
      </trkpt>
      <trkpt lat="45.48378" lon="5.94765">
        <ele>629</ele>
        <time>2022-08-10T18:05:57.744Z</time>
      </trkpt>
      <trkpt lat="45.48378" lon="5.94766">
        <ele>629</ele>
        <time>2022-08-10T18:05:58.744Z</time>
      </trkpt>
      <trkpt lat="45.48379" lon="5.94767">
        <ele>629</ele>
        <time>2022-08-10T18:05:59.744Z</time>
      </trkpt>
      <trkpt lat="45.48379" lon="5.94768">
        <ele>629</ele>
        <time>2022-08-10T18:06:00.744Z</time>
      </trkpt>
      <trkpt lat="45.4838" lon="5.94771">
        <ele>629</ele>
        <time>2022-08-10T18:06:01.744Z</time>
      </trkpt>
      <trkpt lat="45.4838" lon="5.94774">
        <ele>629</ele>
        <time>2022-08-10T18:06:02.744Z</time>
      </trkpt>
      <trkpt lat="45.4838" lon="5.94777">
        <ele>629</ele>
        <time>2022-08-10T18:06:03.744Z</time>
      </trkpt>
      <trkpt lat="45.48381" lon="5.94779">
        <ele>629</ele>
        <time>2022-08-10T18:06:04.744Z</time>
      </trkpt>
      <trkpt lat="45.48382" lon="5.94781">
        <ele>629</ele>
        <time>2022-08-10T18:06:05.744Z</time>
      </trkpt>
      <trkpt lat="45.48384" lon="5.94782">
        <ele>629</ele>
        <time>2022-08-10T18:06:06.744Z</time>
      </trkpt>
      <trkpt lat="45.48385" lon="5.94782">
        <ele>628</ele>
        <time>2022-08-10T18:06:07.744Z</time>
      </trkpt>
      <trkpt lat="45.48387" lon="5.94782">
        <ele>628</ele>
        <time>2022-08-10T18:06:08.743Z</time>
      </trkpt>
      <trkpt lat="45.48388" lon="5.94781">
        <ele>627</ele>
        <time>2022-08-10T18:06:09.744Z</time>
      </trkpt>
      <trkpt lat="45.48389" lon="5.94778">
        <ele>623</ele>
        <time>2022-08-10T18:07:10.781Z</time>
      </trkpt>
      <trkpt lat="45.48391" lon="5.94779">
        <ele>623</ele>
        <time>2022-08-10T18:07:11.781Z</time>
      </trkpt>
      <trkpt lat="45.48393" lon="5.9478">
        <ele>623</ele>
        <time>2022-08-10T18:07:12.781Z</time>
      </trkpt>
      <trkpt lat="45.48394" lon="5.9478">
        <ele>623</ele>
        <time>2022-08-10T18:07:13.780Z</time>
      </trkpt>
      <trkpt lat="45.48397" lon="5.94778">
        <ele>622</ele>
        <time>2022-08-10T18:07:14.781Z</time>
      </trkpt>
      <trkpt lat="45.48399" lon="5.94777">
        <ele>622</ele>
        <time>2022-08-10T18:07:15.781Z</time>
      </trkpt>
      <trkpt lat="45.484" lon="5.94777">
        <ele>622</ele>
        <time>2022-08-10T18:07:16.781Z</time>
      </trkpt>
      <trkpt lat="45.48402" lon="5.94779">
        <ele>622</ele>
        <time>2022-08-10T18:07:17.781Z</time>
      </trkpt>
      <trkpt lat="45.48403" lon="5.94779">
        <ele>621</ele>
        <time>2022-08-10T18:07:18.781Z</time>
      </trkpt>
      <trkpt lat="45.48404" lon="5.9478">
        <ele>621</ele>
        <time>2022-08-10T18:07:19.780Z</time>
      </trkpt>
      <trkpt lat="45.48406" lon="5.94781">
        <ele>621</ele>
        <time>2022-08-10T18:07:20.780Z</time>
      </trkpt>
      <trkpt lat="45.48408" lon="5.94782">
        <ele>621</ele>
        <time>2022-08-10T18:07:21.780Z</time>
      </trkpt>
      <trkpt lat="45.4841" lon="5.94782">
        <ele>621</ele>
        <time>2022-08-10T18:07:22.780Z</time>
      </trkpt>
      <trkpt lat="45.48412" lon="5.94782">
        <ele>622</ele>
        <time>2022-08-10T18:07:23.780Z</time>
      </trkpt>
      <trkpt lat="45.48413" lon="5.94782">
        <ele>622</ele>
        <time>2022-08-10T18:07:24.780Z</time>
      </trkpt>
      <trkpt lat="45.48415" lon="5.94782">
        <ele>621</ele>
        <time>2022-08-10T18:07:25.781Z</time>
      </trkpt>
      <trkpt lat="45.48416" lon="5.94781">
        <ele>621</ele>
        <time>2022-08-10T18:07:26.781Z</time>
      </trkpt>
      <trkpt lat="45.48417" lon="5.9478">
        <ele>620</ele>
        <time>2022-08-10T18:07:27.781Z</time>
      </trkpt>
      <trkpt lat="45.48418" lon="5.94778">
        <ele>620</ele>
        <time>2022-08-10T18:07:28.780Z</time>
      </trkpt>
      <trkpt lat="45.48418" lon="5.94777">
        <ele>620</ele>
        <time>2022-08-10T18:07:29.781Z</time>
      </trkpt>
      <trkpt lat="45.48419" lon="5.94776">
        <ele>620</ele>
        <time>2022-08-10T18:07:30.781Z</time>
      </trkpt>
      <trkpt lat="45.48419" lon="5.94774">
        <ele>619</ele>
        <time>2022-08-10T18:07:31.781Z</time>
      </trkpt>
      <trkpt lat="45.4842" lon="5.94773">
        <ele>619</ele>
        <time>2022-08-10T18:07:32.781Z</time>
      </trkpt>
      <trkpt lat="45.48421" lon="5.94771">
        <ele>620</ele>
        <time>2022-08-10T18:07:33.780Z</time>
      </trkpt>
      <trkpt lat="45.48423" lon="5.9477">
        <ele>620</ele>
        <time>2022-08-10T18:07:34.781Z</time>
      </trkpt>
      <trkpt lat="45.48425" lon="5.94769">
        <ele>620</ele>
        <time>2022-08-10T18:07:35.781Z</time>
      </trkpt>
      <trkpt lat="45.48427" lon="5.94768">
        <ele>619</ele>
        <time>2022-08-10T18:07:36.781Z</time>
      </trkpt>
      <trkpt lat="45.48428" lon="5.94767">
        <ele>619</ele>
        <time>2022-08-10T18:07:37.781Z</time>
      </trkpt>
      <trkpt lat="45.4843" lon="5.94767">
        <ele>619</ele>
        <time>2022-08-10T18:07:38.781Z</time>
      </trkpt>
      <trkpt lat="45.48433" lon="5.94768">
        <ele>619</ele>
        <time>2022-08-10T18:07:39.781Z</time>
      </trkpt>
      <trkpt lat="45.48435" lon="5.94768">
        <ele>619</ele>
        <time>2022-08-10T18:07:40.781Z</time>
      </trkpt>
      <trkpt lat="45.48437" lon="5.94767">
        <ele>618</ele>
        <time>2022-08-10T18:07:41.781Z</time>
      </trkpt>
      <trkpt lat="45.48439" lon="5.94766">
        <ele>618</ele>
        <time>2022-08-10T18:07:42.781Z</time>
      </trkpt>
      <trkpt lat="45.48441" lon="5.94764">
        <ele>617</ele>
        <time>2022-08-10T18:07:43.781Z</time>
      </trkpt>
      <trkpt lat="45.48442" lon="5.94762">
        <ele>617</ele>
        <time>2022-08-10T18:07:44.781Z</time>
      </trkpt>
      <trkpt lat="45.48444" lon="5.9476">
        <ele>616</ele>
        <time>2022-08-10T18:07:45.780Z</time>
      </trkpt>
      <trkpt lat="45.48445" lon="5.94758">
        <ele>616</ele>
        <time>2022-08-10T18:07:46.781Z</time>
      </trkpt>
      <trkpt lat="45.48448" lon="5.94755">
        <ele>615</ele>
        <time>2022-08-10T18:07:47.781Z</time>
      </trkpt>
      <trkpt lat="45.4845" lon="5.94753">
        <ele>615</ele>
        <time>2022-08-10T18:07:48.780Z</time>
      </trkpt>
      <trkpt lat="45.48454" lon="5.94751">
        <ele>615</ele>
        <time>2022-08-10T18:07:49.781Z</time>
      </trkpt>
      <trkpt lat="45.48457" lon="5.9475">
        <ele>614</ele>
        <time>2022-08-10T18:07:50.780Z</time>
      </trkpt>
      <trkpt lat="45.48461" lon="5.9475">
        <ele>614</ele>
        <time>2022-08-10T18:07:51.781Z</time>
      </trkpt>
      <trkpt lat="45.48464" lon="5.94751">
        <ele>614</ele>
        <time>2022-08-10T18:07:52.781Z</time>
      </trkpt>
      <trkpt lat="45.48466" lon="5.94753">
        <ele>614</ele>
        <time>2022-08-10T18:07:53.781Z</time>
      </trkpt>
      <trkpt lat="45.48469" lon="5.94755">
        <ele>614</ele>
        <time>2022-08-10T18:07:54.781Z</time>
      </trkpt>
      <trkpt lat="45.48472" lon="5.94757">
        <ele>614</ele>
        <time>2022-08-10T18:07:55.781Z</time>
      </trkpt>
      <trkpt lat="45.48474" lon="5.94759">
        <ele>614</ele>
        <time>2022-08-10T18:07:56.781Z</time>
      </trkpt>
      <trkpt lat="45.48476" lon="5.94761">
        <ele>614</ele>
        <time>2022-08-10T18:07:57.780Z</time>
      </trkpt>
      <trkpt lat="45.48477" lon="5.94763">
        <ele>613</ele>
        <time>2022-08-10T18:07:58.781Z</time>
      </trkpt>
      <trkpt lat="45.48478" lon="5.94767">
        <ele>613</ele>
        <time>2022-08-10T18:07:59.781Z</time>
      </trkpt>
      <trkpt lat="45.4848" lon="5.94771">
        <ele>613</ele>
        <time>2022-08-10T18:08:00.781Z</time>
      </trkpt>
      <trkpt lat="45.48481" lon="5.94775">
        <ele>613</ele>
        <time>2022-08-10T18:08:01.780Z</time>
      </trkpt>
      <trkpt lat="45.48482" lon="5.9478">
        <ele>613</ele>
        <time>2022-08-10T18:08:02.780Z</time>
      </trkpt>
      <trkpt lat="45.48484" lon="5.94784">
        <ele>613</ele>
        <time>2022-08-10T18:08:03.781Z</time>
      </trkpt>
      <trkpt lat="45.48485" lon="5.94788">
        <ele>613</ele>
        <time>2022-08-10T18:08:04.781Z</time>
      </trkpt>
      <trkpt lat="45.48487" lon="5.94793">
        <ele>613</ele>
        <time>2022-08-10T18:08:05.781Z</time>
      </trkpt>
      <trkpt lat="45.48488" lon="5.94796">
        <ele>612</ele>
        <time>2022-08-10T18:08:06.781Z</time>
      </trkpt>
      <trkpt lat="45.48488" lon="5.94799">
        <ele>612</ele>
        <time>2022-08-10T18:08:07.781Z</time>
      </trkpt>
      <trkpt lat="45.48488" lon="5.94802">
        <ele>612</ele>
        <time>2022-08-10T18:08:08.781Z</time>
      </trkpt>
      <trkpt lat="45.48487" lon="5.94804">
        <ele>611</ele>
        <time>2022-08-10T18:08:09.780Z</time>
      </trkpt>
      <trkpt lat="45.48487" lon="5.94807">
        <ele>611</ele>
        <time>2022-08-10T18:08:10.780Z</time>
      </trkpt>
      <trkpt lat="45.48488" lon="5.94811">
        <ele>611</ele>
        <time>2022-08-10T18:08:11.781Z</time>
      </trkpt>
      <trkpt lat="45.48489" lon="5.94815">
        <ele>610</ele>
        <time>2022-08-10T18:08:12.781Z</time>
      </trkpt>
      <trkpt lat="45.4849" lon="5.94819">
        <ele>610</ele>
        <time>2022-08-10T18:08:13.781Z</time>
      </trkpt>
      <trkpt lat="45.4849" lon="5.94824">
        <ele>609</ele>
        <time>2022-08-10T18:08:14.780Z</time>
      </trkpt>
      <trkpt lat="45.48491" lon="5.94828">
        <ele>609</ele>
        <time>2022-08-10T18:08:15.781Z</time>
      </trkpt>
      <trkpt lat="45.48492" lon="5.94833">
        <ele>608</ele>
        <time>2022-08-10T18:08:16.780Z</time>
      </trkpt>
      <trkpt lat="45.48493" lon="5.94839">
        <ele>608</ele>
        <time>2022-08-10T18:08:17.781Z</time>
      </trkpt>
      <trkpt lat="45.48494" lon="5.94846">
        <ele>608</ele>
        <time>2022-08-10T18:08:18.781Z</time>
      </trkpt>
      <trkpt lat="45.48494" lon="5.94851">
        <ele>608</ele>
        <time>2022-08-10T18:08:19.780Z</time>
      </trkpt>
      <trkpt lat="45.48494" lon="5.94857">
        <ele>608</ele>
        <time>2022-08-10T18:08:20.781Z</time>
      </trkpt>
      <trkpt lat="45.48494" lon="5.9486">
        <ele>608</ele>
        <time>2022-08-10T18:08:21.781Z</time>
      </trkpt>
      <trkpt lat="45.48494" lon="5.94864">
        <ele>608</ele>
        <time>2022-08-10T18:08:22.781Z</time>
      </trkpt>
      <trkpt lat="45.48493" lon="5.94868">
        <ele>608</ele>
        <time>2022-08-10T18:08:23.780Z</time>
      </trkpt>
      <trkpt lat="45.48493" lon="5.94872">
        <ele>608</ele>
        <time>2022-08-10T18:08:24.781Z</time>
      </trkpt>
      <trkpt lat="45.48492" lon="5.94876">
        <ele>608</ele>
        <time>2022-08-10T18:08:25.780Z</time>
      </trkpt>
      <trkpt lat="45.48492" lon="5.9488">
        <ele>608</ele>
        <time>2022-08-10T18:08:26.780Z</time>
      </trkpt>
      <trkpt lat="45.48491" lon="5.94885">
        <ele>608</ele>
        <time>2022-08-10T18:08:27.781Z</time>
      </trkpt>
      <trkpt lat="45.4849" lon="5.94889">
        <ele>608</ele>
        <time>2022-08-10T18:08:28.780Z</time>
      </trkpt>
      <trkpt lat="45.4849" lon="5.94894">
        <ele>607</ele>
        <time>2022-08-10T18:08:29.781Z</time>
      </trkpt>
      <trkpt lat="45.4849" lon="5.949">
        <ele>607</ele>
        <time>2022-08-10T18:08:30.781Z</time>
      </trkpt>
      <trkpt lat="45.48489" lon="5.94906">
        <ele>607</ele>
        <time>2022-08-10T18:08:31.780Z</time>
      </trkpt>
      <trkpt lat="45.4849" lon="5.9491">
        <ele>606</ele>
        <time>2022-08-10T18:08:32.781Z</time>
      </trkpt>
      <trkpt lat="45.48489" lon="5.94915">
        <ele>606</ele>
        <time>2022-08-10T18:08:33.781Z</time>
      </trkpt>
      <trkpt lat="45.48489" lon="5.9492">
        <ele>606</ele>
        <time>2022-08-10T18:08:34.781Z</time>
      </trkpt>
      <trkpt lat="45.48489" lon="5.94925">
        <ele>606</ele>
        <time>2022-08-10T18:08:35.781Z</time>
      </trkpt>
      <trkpt lat="45.4849" lon="5.94928">
        <ele>606</ele>
        <time>2022-08-10T18:08:36.781Z</time>
      </trkpt>
      <trkpt lat="45.48491" lon="5.94931">
        <ele>606</ele>
        <time>2022-08-10T18:08:37.781Z</time>
      </trkpt>
      <trkpt lat="45.48491" lon="5.94934">
        <ele>606</ele>
        <time>2022-08-10T18:08:38.781Z</time>
      </trkpt>
      <trkpt lat="45.48492" lon="5.94938">
        <ele>606</ele>
        <time>2022-08-10T18:08:39.781Z</time>
      </trkpt>
      <trkpt lat="45.48494" lon="5.94944">
        <ele>606</ele>
        <time>2022-08-10T18:08:40.780Z</time>
      </trkpt>
      <trkpt lat="45.48495" lon="5.9495">
        <ele>606</ele>
        <time>2022-08-10T18:08:41.780Z</time>
      </trkpt>
      <trkpt lat="45.48495" lon="5.94956">
        <ele>606</ele>
        <time>2022-08-10T18:08:42.781Z</time>
      </trkpt>
      <trkpt lat="45.48495" lon="5.94962">
        <ele>606</ele>
        <time>2022-08-10T18:08:43.781Z</time>
      </trkpt>
      <trkpt lat="45.48494" lon="5.94968">
        <ele>606</ele>
        <time>2022-08-10T18:08:44.781Z</time>
      </trkpt>
      <trkpt lat="45.48493" lon="5.94972">
        <ele>606</ele>
        <time>2022-08-10T18:08:45.781Z</time>
      </trkpt>
      <trkpt lat="45.48493" lon="5.94976">
        <ele>606</ele>
        <time>2022-08-10T18:08:46.780Z</time>
      </trkpt>
      <trkpt lat="45.48492" lon="5.94979">
        <ele>606</ele>
        <time>2022-08-10T18:08:47.781Z</time>
      </trkpt>
      <trkpt lat="45.48492" lon="5.94981">
        <ele>605</ele>
        <time>2022-08-10T18:08:48.781Z</time>
      </trkpt>
      <trkpt lat="45.48492" lon="5.94984">
        <ele>605</ele>
        <time>2022-08-10T18:08:49.781Z</time>
      </trkpt>
      <trkpt lat="45.48492" lon="5.94986">
        <ele>605</ele>
        <time>2022-08-10T18:08:50.781Z</time>
      </trkpt>
      <trkpt lat="45.48492" lon="5.94988">
        <ele>605</ele>
        <time>2022-08-10T18:08:51.781Z</time>
      </trkpt>
      <trkpt lat="45.48493" lon="5.94991">
        <ele>606</ele>
        <time>2022-08-10T18:08:52.781Z</time>
      </trkpt>
      <trkpt lat="45.48494" lon="5.94994">
        <ele>606</ele>
        <time>2022-08-10T18:08:53.781Z</time>
      </trkpt>
      <trkpt lat="45.48495" lon="5.94997">
        <ele>606</ele>
        <time>2022-08-10T18:08:54.781Z</time>
      </trkpt>
      <trkpt lat="45.48495" lon="5.95">
        <ele>606</ele>
        <time>2022-08-10T18:08:55.781Z</time>
      </trkpt>
      <trkpt lat="45.48495" lon="5.95004">
        <ele>606</ele>
        <time>2022-08-10T18:08:56.781Z</time>
      </trkpt>
      <trkpt lat="45.48494" lon="5.95007">
        <ele>607</ele>
        <time>2022-08-10T18:08:57.780Z</time>
      </trkpt>
      <trkpt lat="45.48493" lon="5.95011">
        <ele>607</ele>
        <time>2022-08-10T18:08:58.781Z</time>
      </trkpt>
      <trkpt lat="45.48492" lon="5.95014">
        <ele>607</ele>
        <time>2022-08-10T18:08:59.781Z</time>
      </trkpt>
      <trkpt lat="45.48492" lon="5.95018">
        <ele>608</ele>
        <time>2022-08-10T18:09:00.781Z</time>
      </trkpt>
      <trkpt lat="45.48491" lon="5.95021">
        <ele>608</ele>
        <time>2022-08-10T18:09:01.781Z</time>
      </trkpt>
      <trkpt lat="45.4849" lon="5.95024">
        <ele>608</ele>
        <time>2022-08-10T18:09:02.781Z</time>
      </trkpt>
      <trkpt lat="45.4849" lon="5.95027">
        <ele>608</ele>
        <time>2022-08-10T18:09:03.781Z</time>
      </trkpt>
      <trkpt lat="45.4849" lon="5.9503">
        <ele>608</ele>
        <time>2022-08-10T18:09:04.781Z</time>
      </trkpt>
      <trkpt lat="45.4849" lon="5.95034">
        <ele>608</ele>
        <time>2022-08-10T18:09:05.781Z</time>
      </trkpt>
      <trkpt lat="45.4849" lon="5.95037">
        <ele>608</ele>
        <time>2022-08-10T18:09:06.781Z</time>
      </trkpt>
      <trkpt lat="45.4849" lon="5.9504">
        <ele>608</ele>
        <time>2022-08-10T18:09:07.780Z</time>
      </trkpt>
      <trkpt lat="45.48489" lon="5.95043">
        <ele>609</ele>
        <time>2022-08-10T18:09:08.780Z</time>
      </trkpt>
      <trkpt lat="45.48489" lon="5.95046">
        <ele>609</ele>
        <time>2022-08-10T18:09:09.781Z</time>
      </trkpt>
      <trkpt lat="45.48488" lon="5.95049">
        <ele>609</ele>
        <time>2022-08-10T18:09:10.781Z</time>
      </trkpt>
      <trkpt lat="45.48487" lon="5.95052">
        <ele>609</ele>
        <time>2022-08-10T18:09:11.781Z</time>
      </trkpt>
      <trkpt lat="45.48487" lon="5.95055">
        <ele>609</ele>
        <time>2022-08-10T18:09:12.781Z</time>
      </trkpt>
      <trkpt lat="45.48486" lon="5.95058">
        <ele>609</ele>
        <time>2022-08-10T18:09:13.781Z</time>
      </trkpt>
      <trkpt lat="45.48485" lon="5.9506">
        <ele>609</ele>
        <time>2022-08-10T18:09:14.781Z</time>
      </trkpt>
      <trkpt lat="45.48484" lon="5.95063">
        <ele>609</ele>
        <time>2022-08-10T18:09:15.781Z</time>
      </trkpt>
      <trkpt lat="45.48484" lon="5.95065">
        <ele>610</ele>
        <time>2022-08-10T18:09:16.781Z</time>
      </trkpt>
      <trkpt lat="45.48483" lon="5.95068">
        <ele>610</ele>
        <time>2022-08-10T18:09:17.781Z</time>
      </trkpt>
      <trkpt lat="45.48482" lon="5.9507">
        <ele>610</ele>
        <time>2022-08-10T18:09:18.781Z</time>
      </trkpt>
      <trkpt lat="45.48481" lon="5.95071">
        <ele>611</ele>
        <time>2022-08-10T18:09:19.781Z</time>
      </trkpt>
      <trkpt lat="45.4848" lon="5.95073">
        <ele>611</ele>
        <time>2022-08-10T18:09:20.781Z</time>
      </trkpt>
      <trkpt lat="45.4848" lon="5.95075">
        <ele>612</ele>
        <time>2022-08-10T18:09:21.780Z</time>
      </trkpt>
      <trkpt lat="45.48479" lon="5.95077">
        <ele>612</ele>
        <time>2022-08-10T18:09:22.781Z</time>
      </trkpt>
      <trkpt lat="45.48479" lon="5.95079">
        <ele>613</ele>
        <time>2022-08-10T18:09:23.781Z</time>
      </trkpt>
      <trkpt lat="45.48479" lon="5.95082">
        <ele>613</ele>
        <time>2022-08-10T18:09:24.781Z</time>
      </trkpt>
      <trkpt lat="45.48478" lon="5.95084">
        <ele>614</ele>
        <time>2022-08-10T18:09:25.781Z</time>
      </trkpt>
      <trkpt lat="45.48477" lon="5.95085">
        <ele>614</ele>
        <time>2022-08-10T18:09:26.781Z</time>
      </trkpt>
      <trkpt lat="45.48477" lon="5.95087">
        <ele>615</ele>
        <time>2022-08-10T18:09:27.780Z</time>
      </trkpt>
      <trkpt lat="45.48476" lon="5.95089">
        <ele>615</ele>
        <time>2022-08-10T18:09:28.780Z</time>
      </trkpt>
      <trkpt lat="45.48475" lon="5.95093">
        <ele>616</ele>
        <time>2022-08-10T18:09:29.781Z</time>
      </trkpt>
      <trkpt lat="45.48473" lon="5.95096">
        <ele>616</ele>
        <time>2022-08-10T18:09:30.781Z</time>
      </trkpt>
      <trkpt lat="45.48471" lon="5.95099">
        <ele>617</ele>
        <time>2022-08-10T18:09:31.781Z</time>
      </trkpt>
      <trkpt lat="45.4847" lon="5.95101">
        <ele>617</ele>
        <time>2022-08-10T18:09:32.781Z</time>
      </trkpt>
      <trkpt lat="45.48469" lon="5.95103">
        <ele>617</ele>
        <time>2022-08-10T18:09:33.781Z</time>
      </trkpt>
      <trkpt lat="45.4847" lon="5.95105">
        <ele>617</ele>
        <time>2022-08-10T18:09:34.780Z</time>
      </trkpt>
      <trkpt lat="45.4847" lon="5.95108">
        <ele>618</ele>
        <time>2022-08-10T18:09:35.780Z</time>
      </trkpt>
      <trkpt lat="45.48471" lon="5.9511">
        <ele>618</ele>
        <time>2022-08-10T18:09:36.781Z</time>
      </trkpt>
      <trkpt lat="45.48471" lon="5.95112">
        <ele>618</ele>
        <time>2022-08-10T18:09:37.781Z</time>
      </trkpt>
      <trkpt lat="45.48471" lon="5.95115">
        <ele>618</ele>
        <time>2022-08-10T18:09:38.781Z</time>
      </trkpt>
      <trkpt lat="45.48472" lon="5.95117">
        <ele>618</ele>
        <time>2022-08-10T18:09:39.781Z</time>
      </trkpt>
      <trkpt lat="45.48472" lon="5.9512">
        <ele>619</ele>
        <time>2022-08-10T18:09:40.781Z</time>
      </trkpt>
      <trkpt lat="45.48471" lon="5.95123">
        <ele>619</ele>
        <time>2022-08-10T18:09:41.780Z</time>
      </trkpt>
      <trkpt lat="45.4847" lon="5.95125">
        <ele>619</ele>
        <time>2022-08-10T18:09:42.780Z</time>
      </trkpt>
      <trkpt lat="45.48469" lon="5.95128">
        <ele>618</ele>
        <time>2022-08-10T18:09:43.781Z</time>
      </trkpt>
      <trkpt lat="45.48468" lon="5.9513">
        <ele>618</ele>
        <time>2022-08-10T18:09:44.781Z</time>
      </trkpt>
      <trkpt lat="45.48465" lon="5.95132">
        <ele>618</ele>
        <time>2022-08-10T18:09:45.781Z</time>
      </trkpt>
      <trkpt lat="45.48463" lon="5.95134">
        <ele>618</ele>
        <time>2022-08-10T18:09:46.781Z</time>
      </trkpt>
      <trkpt lat="45.4846" lon="5.95136">
        <ele>618</ele>
        <time>2022-08-10T18:09:47.781Z</time>
      </trkpt>
      <trkpt lat="45.48459" lon="5.95138">
        <ele>618</ele>
        <time>2022-08-10T18:09:48.781Z</time>
      </trkpt>
      <trkpt lat="45.48458" lon="5.9514">
        <ele>617</ele>
        <time>2022-08-10T18:09:49.781Z</time>
      </trkpt>
      <trkpt lat="45.48458" lon="5.95143">
        <ele>617</ele>
        <time>2022-08-10T18:09:50.780Z</time>
      </trkpt>
      <trkpt lat="45.48458" lon="5.95146">
        <ele>617</ele>
        <time>2022-08-10T18:09:51.781Z</time>
      </trkpt>
      <trkpt lat="45.48458" lon="5.95149">
        <ele>618</ele>
        <time>2022-08-10T18:09:52.781Z</time>
      </trkpt>
      <trkpt lat="45.48458" lon="5.95153">
        <ele>618</ele>
        <time>2022-08-10T18:09:53.781Z</time>
      </trkpt>
      <trkpt lat="45.48458" lon="5.95155">
        <ele>618</ele>
        <time>2022-08-10T18:09:54.781Z</time>
      </trkpt>
      <trkpt lat="45.48458" lon="5.95158">
        <ele>618</ele>
        <time>2022-08-10T18:09:55.781Z</time>
      </trkpt>
      <trkpt lat="45.48459" lon="5.95161">
        <ele>618</ele>
        <time>2022-08-10T18:09:56.780Z</time>
      </trkpt>
      <trkpt lat="45.48458" lon="5.95164">
        <ele>618</ele>
        <time>2022-08-10T18:09:57.781Z</time>
      </trkpt>
      <trkpt lat="45.48458" lon="5.95167">
        <ele>618</ele>
        <time>2022-08-10T18:09:58.780Z</time>
      </trkpt>
      <trkpt lat="45.48456" lon="5.9517">
        <ele>618</ele>
        <time>2022-08-10T18:09:59.781Z</time>
      </trkpt>
      <trkpt lat="45.48455" lon="5.95172">
        <ele>618</ele>
        <time>2022-08-10T18:10:00.781Z</time>
      </trkpt>
      <trkpt lat="45.48453" lon="5.95173">
        <ele>619</ele>
        <time>2022-08-10T18:10:01.781Z</time>
      </trkpt>
      <trkpt lat="45.48451" lon="5.95175">
        <ele>619</ele>
        <time>2022-08-10T18:10:02.781Z</time>
      </trkpt>
      <trkpt lat="45.4845" lon="5.95176">
        <ele>619</ele>
        <time>2022-08-10T18:10:03.781Z</time>
      </trkpt>
      <trkpt lat="45.4845" lon="5.95178">
        <ele>619</ele>
        <time>2022-08-10T18:10:04.781Z</time>
      </trkpt>
      <trkpt lat="45.4845" lon="5.9518">
        <ele>618</ele>
        <time>2022-08-10T18:10:05.780Z</time>
      </trkpt>
      <trkpt lat="45.4845" lon="5.95182">
        <ele>618</ele>
        <time>2022-08-10T18:10:06.781Z</time>
      </trkpt>
      <trkpt lat="45.48452" lon="5.95184">
        <ele>618</ele>
        <time>2022-08-10T18:10:07.781Z</time>
      </trkpt>
      <trkpt lat="45.48454" lon="5.95187">
        <ele>619</ele>
        <time>2022-08-10T18:10:08.781Z</time>
      </trkpt>
      <trkpt lat="45.48457" lon="5.95189">
        <ele>619</ele>
        <time>2022-08-10T18:10:09.780Z</time>
      </trkpt>
      <trkpt lat="45.4846" lon="5.95193">
        <ele>619</ele>
        <time>2022-08-10T18:10:10.780Z</time>
      </trkpt>
      <trkpt lat="45.48463" lon="5.95197">
        <ele>619</ele>
        <time>2022-08-10T18:10:11.781Z</time>
      </trkpt>
      <trkpt lat="45.48465" lon="5.95201">
        <ele>619</ele>
        <time>2022-08-10T18:10:12.780Z</time>
      </trkpt>
      <trkpt lat="45.48465" lon="5.95204">
        <ele>619</ele>
        <time>2022-08-10T18:10:13.781Z</time>
      </trkpt>
      <trkpt lat="45.48466" lon="5.95208">
        <ele>620</ele>
        <time>2022-08-10T18:10:14.781Z</time>
      </trkpt>
      <trkpt lat="45.48465" lon="5.95212">
        <ele>620</ele>
        <time>2022-08-10T18:10:15.781Z</time>
      </trkpt>
      <trkpt lat="45.48465" lon="5.95215">
        <ele>620</ele>
        <time>2022-08-10T18:10:16.780Z</time>
      </trkpt>
      <trkpt lat="45.48465" lon="5.95218">
        <ele>620</ele>
        <time>2022-08-10T18:10:17.781Z</time>
      </trkpt>
      <trkpt lat="45.48465" lon="5.95221">
        <ele>621</ele>
        <time>2022-08-10T18:10:18.781Z</time>
      </trkpt>
      <trkpt lat="45.48464" lon="5.95224">
        <ele>621</ele>
        <time>2022-08-10T18:10:19.781Z</time>
      </trkpt>
      <trkpt lat="45.48462" lon="5.95227">
        <ele>621</ele>
        <time>2022-08-10T18:10:20.781Z</time>
      </trkpt>
      <trkpt lat="45.4846" lon="5.95229">
        <ele>621</ele>
        <time>2022-08-10T18:10:21.781Z</time>
      </trkpt>
      <trkpt lat="45.48458" lon="5.95231">
        <ele>621</ele>
        <time>2022-08-10T18:10:22.781Z</time>
      </trkpt>
      <trkpt lat="45.48456" lon="5.95233">
        <ele>621</ele>
        <time>2022-08-10T18:10:23.781Z</time>
      </trkpt>
      <trkpt lat="45.48453" lon="5.95237">
        <ele>621</ele>
        <time>2022-08-10T18:10:24.780Z</time>
      </trkpt>
      <trkpt lat="45.48451" lon="5.95242">
        <ele>621</ele>
        <time>2022-08-10T18:10:25.780Z</time>
      </trkpt>
      <trkpt lat="45.48449" lon="5.95247">
        <ele>622</ele>
        <time>2022-08-10T18:10:26.781Z</time>
      </trkpt>
      <trkpt lat="45.48447" lon="5.95253">
        <ele>621</ele>
        <time>2022-08-10T18:10:27.781Z</time>
      </trkpt>
      <trkpt lat="45.48444" lon="5.95259">
        <ele>621</ele>
        <time>2022-08-10T18:10:28.780Z</time>
      </trkpt>
      <trkpt lat="45.48441" lon="5.95264">
        <ele>621</ele>
        <time>2022-08-10T18:10:29.781Z</time>
      </trkpt>
      <trkpt lat="45.48439" lon="5.95267">
        <ele>621</ele>
        <time>2022-08-10T18:10:30.780Z</time>
      </trkpt>
      <trkpt lat="45.48438" lon="5.95269">
        <ele>621</ele>
        <time>2022-08-10T18:10:31.781Z</time>
      </trkpt>
      <trkpt lat="45.48439" lon="5.95272">
        <ele>622</ele>
        <time>2022-08-10T18:10:32.781Z</time>
      </trkpt>
      <trkpt lat="45.4844" lon="5.95274">
        <ele>622</ele>
        <time>2022-08-10T18:10:33.781Z</time>
      </trkpt>
      <trkpt lat="45.48441" lon="5.95277">
        <ele>622</ele>
        <time>2022-08-10T18:10:34.781Z</time>
      </trkpt>
      <trkpt lat="45.48442" lon="5.95279">
        <ele>622</ele>
        <time>2022-08-10T18:10:35.781Z</time>
      </trkpt>
      <trkpt lat="45.48445" lon="5.95282">
        <ele>622</ele>
        <time>2022-08-10T18:10:36.781Z</time>
      </trkpt>
      <trkpt lat="45.48446" lon="5.95284">
        <ele>622</ele>
        <time>2022-08-10T18:10:37.781Z</time>
      </trkpt>
      <trkpt lat="45.48447" lon="5.95286">
        <ele>623</ele>
        <time>2022-08-10T18:10:38.781Z</time>
      </trkpt>
      <trkpt lat="45.4845" lon="5.95288">
        <ele>623</ele>
        <time>2022-08-10T18:10:39.781Z</time>
      </trkpt>
      <trkpt lat="45.48451" lon="5.95291">
        <ele>623</ele>
        <time>2022-08-10T18:10:40.780Z</time>
      </trkpt>
      <trkpt lat="45.48452" lon="5.95295">
        <ele>623</ele>
        <time>2022-08-10T18:10:41.781Z</time>
      </trkpt>
      <trkpt lat="45.48452" lon="5.95299">
        <ele>623</ele>
        <time>2022-08-10T18:10:42.781Z</time>
      </trkpt>
      <trkpt lat="45.48452" lon="5.95302">
        <ele>622</ele>
        <time>2022-08-10T18:10:43.780Z</time>
      </trkpt>
      <trkpt lat="45.48452" lon="5.95305">
        <ele>622</ele>
        <time>2022-08-10T18:10:44.781Z</time>
      </trkpt>
      <trkpt lat="45.48452" lon="5.95307">
        <ele>621</ele>
        <time>2022-08-10T18:10:45.781Z</time>
      </trkpt>
      <trkpt lat="45.48452" lon="5.95309">
        <ele>621</ele>
        <time>2022-08-10T18:10:46.781Z</time>
      </trkpt>
      <trkpt lat="45.48451" lon="5.95311">
        <ele>621</ele>
        <time>2022-08-10T18:10:47.781Z</time>
      </trkpt>
      <trkpt lat="45.4845" lon="5.95313">
        <ele>621</ele>
        <time>2022-08-10T18:10:48.781Z</time>
      </trkpt>
      <trkpt lat="45.48449" lon="5.95314">
        <ele>620</ele>
        <time>2022-08-10T18:10:49.781Z</time>
      </trkpt>
      <trkpt lat="45.48448" lon="5.95315">
        <ele>620</ele>
        <time>2022-08-10T18:10:50.780Z</time>
      </trkpt>
      <trkpt lat="45.48447" lon="5.95316">
        <ele>620</ele>
        <time>2022-08-10T18:10:51.781Z</time>
      </trkpt>
      <trkpt lat="45.48444" lon="5.95319">
        <ele>614</ele>
        <time>2022-08-10T18:11:11.748Z</time>
      </trkpt>
      <trkpt lat="45.48443" lon="5.9532">
        <ele>614</ele>
        <time>2022-08-10T18:11:12.748Z</time>
      </trkpt>
      <trkpt lat="45.48442" lon="5.95321">
        <ele>614</ele>
        <time>2022-08-10T18:11:13.748Z</time>
      </trkpt>
      <trkpt lat="45.4844" lon="5.95322">
        <ele>613</ele>
        <time>2022-08-10T18:11:16.859Z</time>
      </trkpt>
      <trkpt lat="45.48439" lon="5.95324">
        <ele>611</ele>
        <time>2022-08-10T18:11:24.732Z</time>
      </trkpt>
      <trkpt lat="45.48438" lon="5.95325">
        <ele>611</ele>
        <time>2022-08-10T18:11:25.733Z</time>
      </trkpt>
      <trkpt lat="45.48437" lon="5.95325">
        <ele>611</ele>
        <time>2022-08-10T18:11:26.732Z</time>
      </trkpt>
      <trkpt lat="45.48436" lon="5.95326">
        <ele>611</ele>
        <time>2022-08-10T18:11:27.732Z</time>
      </trkpt>
      <trkpt lat="45.48435" lon="5.95327">
        <ele>611</ele>
        <time>2022-08-10T18:11:28.733Z</time>
      </trkpt>
      <trkpt lat="45.48433" lon="5.95328">
        <ele>612</ele>
        <time>2022-08-10T18:11:29.733Z</time>
      </trkpt>
      <trkpt lat="45.48431" lon="5.95329">
        <ele>612</ele>
        <time>2022-08-10T18:11:30.733Z</time>
      </trkpt>
      <trkpt lat="45.48429" lon="5.9533">
        <ele>612</ele>
        <time>2022-08-10T18:11:31.733Z</time>
      </trkpt>
      <trkpt lat="45.48427" lon="5.95331">
        <ele>612</ele>
        <time>2022-08-10T18:11:32.733Z</time>
      </trkpt>
      <trkpt lat="45.48424" lon="5.95333">
        <ele>612</ele>
        <time>2022-08-10T18:11:33.732Z</time>
      </trkpt>
      <trkpt lat="45.48422" lon="5.95335">
        <ele>611</ele>
        <time>2022-08-10T18:11:34.733Z</time>
      </trkpt>
      <trkpt lat="45.48421" lon="5.95337">
        <ele>611</ele>
        <time>2022-08-10T18:11:35.733Z</time>
      </trkpt>
      <trkpt lat="45.4842" lon="5.9534">
        <ele>610</ele>
        <time>2022-08-10T18:11:36.733Z</time>
      </trkpt>
      <trkpt lat="45.48419" lon="5.95341">
        <ele>610</ele>
        <time>2022-08-10T18:11:37.733Z</time>
      </trkpt>
      <trkpt lat="45.48419" lon="5.95342">
        <ele>609</ele>
        <time>2022-08-10T18:11:38.733Z</time>
      </trkpt>
      <trkpt lat="45.48419" lon="5.95343">
        <ele>609</ele>
        <time>2022-08-10T18:11:39.733Z</time>
      </trkpt>
      <trkpt lat="45.48418" lon="5.95344">
        <ele>609</ele>
        <time>2022-08-10T18:11:44.731Z</time>
      </trkpt>
      <trkpt lat="45.48414" lon="5.95355">
        <ele>604</ele>
        <time>2022-08-10T18:13:04.646Z</time>
      </trkpt>
      <trkpt lat="45.48409" lon="5.95359">
        <ele>604</ele>
        <time>2022-08-10T18:13:05.646Z</time>
      </trkpt>
      <trkpt lat="45.48405" lon="5.95364">
        <ele>604</ele>
        <time>2022-08-10T18:13:06.645Z</time>
      </trkpt>
      <trkpt lat="45.48402" lon="5.95369">
        <ele>604</ele>
        <time>2022-08-10T18:13:07.646Z</time>
      </trkpt>
      <trkpt lat="45.484" lon="5.95374">
        <ele>604</ele>
        <time>2022-08-10T18:13:08.646Z</time>
      </trkpt>
      <trkpt lat="45.48397" lon="5.95379">
        <ele>604</ele>
        <time>2022-08-10T18:13:09.646Z</time>
      </trkpt>
      <trkpt lat="45.48395" lon="5.95384">
        <ele>604</ele>
        <time>2022-08-10T18:13:10.646Z</time>
      </trkpt>
      <trkpt lat="45.48393" lon="5.95387">
        <ele>604</ele>
        <time>2022-08-10T18:13:11.646Z</time>
      </trkpt>
      <trkpt lat="45.48392" lon="5.95389">
        <ele>604</ele>
        <time>2022-08-10T18:13:12.645Z</time>
      </trkpt>
      <trkpt lat="45.4839" lon="5.95391">
        <ele>604</ele>
        <time>2022-08-10T18:13:13.646Z</time>
      </trkpt>
      <trkpt lat="45.48389" lon="5.95393">
        <ele>604</ele>
        <time>2022-08-10T18:13:14.646Z</time>
      </trkpt>
      <trkpt lat="45.48388" lon="5.95396">
        <ele>604</ele>
        <time>2022-08-10T18:13:15.646Z</time>
      </trkpt>
      <trkpt lat="45.48386" lon="5.954">
        <ele>604</ele>
        <time>2022-08-10T18:13:16.645Z</time>
      </trkpt>
      <trkpt lat="45.48384" lon="5.95403">
        <ele>604</ele>
        <time>2022-08-10T18:13:17.646Z</time>
      </trkpt>
      <trkpt lat="45.48383" lon="5.95407">
        <ele>604</ele>
        <time>2022-08-10T18:13:18.646Z</time>
      </trkpt>
      <trkpt lat="45.48382" lon="5.95411">
        <ele>604</ele>
        <time>2022-08-10T18:13:19.646Z</time>
      </trkpt>
      <trkpt lat="45.48382" lon="5.95415">
        <ele>603</ele>
        <time>2022-08-10T18:13:20.646Z</time>
      </trkpt>
      <trkpt lat="45.48381" lon="5.9542">
        <ele>603</ele>
        <time>2022-08-10T18:13:21.646Z</time>
      </trkpt>
      <trkpt lat="45.4838" lon="5.95425">
        <ele>603</ele>
        <time>2022-08-10T18:13:22.645Z</time>
      </trkpt>
      <trkpt lat="45.48378" lon="5.9543">
        <ele>602</ele>
        <time>2022-08-10T18:13:23.646Z</time>
      </trkpt>
      <trkpt lat="45.48377" lon="5.95435">
        <ele>602</ele>
        <time>2022-08-10T18:13:24.645Z</time>
      </trkpt>
      <trkpt lat="45.48377" lon="5.9544">
        <ele>602</ele>
        <time>2022-08-10T18:13:25.645Z</time>
      </trkpt>
      <trkpt lat="45.48379" lon="5.95444">
        <ele>601</ele>
        <time>2022-08-10T18:13:26.646Z</time>
      </trkpt>
      <trkpt lat="45.4838" lon="5.95447">
        <ele>601</ele>
        <time>2022-08-10T18:13:27.645Z</time>
      </trkpt>
      <trkpt lat="45.48381" lon="5.95448">
        <ele>601</ele>
        <time>2022-08-10T18:13:28.646Z</time>
      </trkpt>
      <trkpt lat="45.48384" lon="5.95449">
        <ele>600</ele>
        <time>2022-08-10T18:13:29.646Z</time>
      </trkpt>
      <trkpt lat="45.48387" lon="5.95449">
        <ele>600</ele>
        <time>2022-08-10T18:13:30.646Z</time>
      </trkpt>
      <trkpt lat="45.4839" lon="5.95449">
        <ele>600</ele>
        <time>2022-08-10T18:13:31.646Z</time>
      </trkpt>
      <trkpt lat="45.48392" lon="5.95449">
        <ele>599</ele>
        <time>2022-08-10T18:13:32.646Z</time>
      </trkpt>
      <trkpt lat="45.48394" lon="5.95448">
        <ele>599</ele>
        <time>2022-08-10T18:13:33.645Z</time>
      </trkpt>
      <trkpt lat="45.48396" lon="5.95447">
        <ele>598</ele>
        <time>2022-08-10T18:13:34.646Z</time>
      </trkpt>
      <trkpt lat="45.48398" lon="5.95446">
        <ele>597</ele>
        <time>2022-08-10T18:13:35.646Z</time>
      </trkpt>
      <trkpt lat="45.48401" lon="5.95445">
        <ele>597</ele>
        <time>2022-08-10T18:13:36.646Z</time>
      </trkpt>
      <trkpt lat="45.48403" lon="5.95443">
        <ele>596</ele>
        <time>2022-08-10T18:13:37.645Z</time>
      </trkpt>
      <trkpt lat="45.48405" lon="5.95442">
        <ele>596</ele>
        <time>2022-08-10T18:13:38.646Z</time>
      </trkpt>
      <trkpt lat="45.48409" lon="5.9544">
        <ele>596</ele>
        <time>2022-08-10T18:13:39.645Z</time>
      </trkpt>
      <trkpt lat="45.48412" lon="5.95439">
        <ele>595</ele>
        <time>2022-08-10T18:13:40.646Z</time>
      </trkpt>
      <trkpt lat="45.48416" lon="5.95437">
        <ele>595</ele>
        <time>2022-08-10T18:13:41.646Z</time>
      </trkpt>
      <trkpt lat="45.48421" lon="5.95435">
        <ele>594</ele>
        <time>2022-08-10T18:13:42.646Z</time>
      </trkpt>
      <trkpt lat="45.48425" lon="5.95435">
        <ele>594</ele>
        <time>2022-08-10T18:13:43.646Z</time>
      </trkpt>
      <trkpt lat="45.4843" lon="5.95433">
        <ele>594</ele>
        <time>2022-08-10T18:13:44.646Z</time>
      </trkpt>
      <trkpt lat="45.48437" lon="5.95431">
        <ele>593</ele>
        <time>2022-08-10T18:13:45.646Z</time>
      </trkpt>
      <trkpt lat="45.48443" lon="5.95429">
        <ele>593</ele>
        <time>2022-08-10T18:13:46.646Z</time>
      </trkpt>
      <trkpt lat="45.4845" lon="5.95427">
        <ele>592</ele>
        <time>2022-08-10T18:13:47.645Z</time>
      </trkpt>
      <trkpt lat="45.48456" lon="5.95425">
        <ele>592</ele>
        <time>2022-08-10T18:13:48.646Z</time>
      </trkpt>
      <trkpt lat="45.4846" lon="5.95423">
        <ele>592</ele>
        <time>2022-08-10T18:13:49.646Z</time>
      </trkpt>
      <trkpt lat="45.48462" lon="5.95423">
        <ele>592</ele>
        <time>2022-08-10T18:13:50.645Z</time>
      </trkpt>
      <trkpt lat="45.48464" lon="5.95422">
        <ele>591</ele>
        <time>2022-08-10T18:13:51.645Z</time>
      </trkpt>
      <trkpt lat="45.48465" lon="5.95422">
        <ele>591</ele>
        <time>2022-08-10T18:13:52.645Z</time>
      </trkpt>
      <trkpt lat="45.48466" lon="5.95423">
        <ele>590</ele>
        <time>2022-08-10T18:13:54.646Z</time>
      </trkpt>
      <trkpt lat="45.48465" lon="5.95422">
        <ele>590</ele>
        <time>2022-08-10T18:13:56.646Z</time>
      </trkpt>
      <trkpt lat="45.48466" lon="5.95421">
        <ele>589</ele>
        <time>2022-08-10T18:13:57.646Z</time>
      </trkpt>
      <trkpt lat="45.48466" lon="5.95422">
        <ele>589</ele>
        <time>2022-08-10T18:13:58.646Z</time>
      </trkpt>
      <trkpt lat="45.48467" lon="5.95423">
        <ele>589</ele>
        <time>2022-08-10T18:13:59.646Z</time>
      </trkpt>
      <trkpt lat="45.48468" lon="5.95425">
        <ele>589</ele>
        <time>2022-08-10T18:14:00.646Z</time>
      </trkpt>
      <trkpt lat="45.48468" lon="5.95427">
        <ele>588</ele>
        <time>2022-08-10T18:14:01.646Z</time>
      </trkpt>
      <trkpt lat="45.48468" lon="5.95429">
        <ele>588</ele>
        <time>2022-08-10T18:14:02.646Z</time>
      </trkpt>
      <trkpt lat="45.48468" lon="5.95431">
        <ele>588</ele>
        <time>2022-08-10T18:14:03.646Z</time>
      </trkpt>
      <trkpt lat="45.48469" lon="5.95433">
        <ele>588</ele>
        <time>2022-08-10T18:14:04.646Z</time>
      </trkpt>
      <trkpt lat="45.4847" lon="5.95434">
        <ele>588</ele>
        <time>2022-08-10T18:14:05.645Z</time>
      </trkpt>
      <trkpt lat="45.48471" lon="5.95434">
        <ele>588</ele>
        <time>2022-08-10T18:14:06.646Z</time>
      </trkpt>
      <trkpt lat="45.48472" lon="5.95434">
        <ele>588</ele>
        <time>2022-08-10T18:14:07.646Z</time>
      </trkpt>
      <trkpt lat="45.48473" lon="5.95434">
        <ele>588</ele>
        <time>2022-08-10T18:14:08.646Z</time>
      </trkpt>
      <trkpt lat="45.48475" lon="5.95434">
        <ele>588</ele>
        <time>2022-08-10T18:14:11.718Z</time>
      </trkpt>
      <trkpt lat="45.48474" lon="5.95433">
        <ele>587</ele>
        <time>2022-08-10T18:14:15.864Z</time>
      </trkpt>
      <trkpt lat="45.48472" lon="5.95432">
        <ele>587</ele>
        <time>2022-08-10T18:14:17.719Z</time>
      </trkpt>
      <trkpt lat="45.48471" lon="5.95432">
        <ele>588</ele>
        <time>2022-08-10T18:14:18.719Z</time>
      </trkpt>
      <trkpt lat="45.48476" lon="5.95442">
        <ele>587</ele>
        <time>2022-08-10T18:16:46.755Z</time>
      </trkpt>
      <trkpt lat="45.48476" lon="5.95444">
        <ele>587</ele>
        <time>2022-08-10T18:16:47.755Z</time>
      </trkpt>
      <trkpt lat="45.48477" lon="5.95445">
        <ele>587</ele>
        <time>2022-08-10T18:16:48.755Z</time>
      </trkpt>
      <trkpt lat="45.48477" lon="5.95447">
        <ele>587</ele>
        <time>2022-08-10T18:16:49.754Z</time>
      </trkpt>
      <trkpt lat="45.48479" lon="5.95451">
        <ele>585</ele>
        <time>2022-08-10T18:16:54.924Z</time>
      </trkpt>
      <trkpt lat="45.4848" lon="5.95452">
        <ele>585</ele>
        <time>2022-08-10T18:16:55.923Z</time>
      </trkpt>
      <trkpt lat="45.4848" lon="5.95453">
        <ele>585</ele>
        <time>2022-08-10T18:16:56.923Z</time>
      </trkpt>
      <trkpt lat="45.4848" lon="5.95454">
        <ele>586</ele>
        <time>2022-08-10T18:16:57.923Z</time>
      </trkpt>
      <trkpt lat="45.4848" lon="5.95455">
        <ele>586</ele>
        <time>2022-08-10T18:16:58.923Z</time>
      </trkpt>
      <trkpt lat="45.4848" lon="5.95456">
        <ele>586</ele>
        <time>2022-08-10T18:16:59.924Z</time>
      </trkpt>
      <trkpt lat="45.48478" lon="5.95459">
        <ele>584</ele>
        <time>2022-08-10T18:17:07.984Z</time>
      </trkpt>
      <trkpt lat="45.48479" lon="5.95468">
        <ele>579</ele>
        <time>2022-08-10T18:17:54.132Z</time>
      </trkpt>
      <trkpt lat="45.48477" lon="5.95472">
        <ele>579</ele>
        <time>2022-08-10T18:17:55.132Z</time>
      </trkpt>
      <trkpt lat="45.48476" lon="5.95476">
        <ele>579</ele>
        <time>2022-08-10T18:17:56.131Z</time>
      </trkpt>
      <trkpt lat="45.48475" lon="5.95481">
        <ele>579</ele>
        <time>2022-08-10T18:17:57.131Z</time>
      </trkpt>
      <trkpt lat="45.48474" lon="5.95484">
        <ele>579</ele>
        <time>2022-08-10T18:17:58.132Z</time>
      </trkpt>
      <trkpt lat="45.48472" lon="5.95487">
        <ele>579</ele>
        <time>2022-08-10T18:17:59.132Z</time>
      </trkpt>
      <trkpt lat="45.4847" lon="5.9549">
        <ele>579</ele>
        <time>2022-08-10T18:18:00.132Z</time>
      </trkpt>
      <trkpt lat="45.48468" lon="5.95493">
        <ele>579</ele>
        <time>2022-08-10T18:18:01.132Z</time>
      </trkpt>
      <trkpt lat="45.48466" lon="5.95495">
        <ele>580</ele>
        <time>2022-08-10T18:18:02.131Z</time>
      </trkpt>
      <trkpt lat="45.48464" lon="5.95497">
        <ele>580</ele>
        <time>2022-08-10T18:18:03.132Z</time>
      </trkpt>
      <trkpt lat="45.48461" lon="5.95499">
        <ele>580</ele>
        <time>2022-08-10T18:18:04.131Z</time>
      </trkpt>
      <trkpt lat="45.48459" lon="5.95501">
        <ele>580</ele>
        <time>2022-08-10T18:18:05.132Z</time>
      </trkpt>
      <trkpt lat="45.48456" lon="5.95504">
        <ele>580</ele>
        <time>2022-08-10T18:18:06.132Z</time>
      </trkpt>
      <trkpt lat="45.48454" lon="5.95507">
        <ele>580</ele>
        <time>2022-08-10T18:18:07.132Z</time>
      </trkpt>
      <trkpt lat="45.48454" lon="5.9551">
        <ele>580</ele>
        <time>2022-08-10T18:18:08.132Z</time>
      </trkpt>
      <trkpt lat="45.48453" lon="5.95514">
        <ele>580</ele>
        <time>2022-08-10T18:18:09.132Z</time>
      </trkpt>
      <trkpt lat="45.48452" lon="5.95518">
        <ele>580</ele>
        <time>2022-08-10T18:18:10.132Z</time>
      </trkpt>
      <trkpt lat="45.4845" lon="5.9552">
        <ele>580</ele>
        <time>2022-08-10T18:18:11.131Z</time>
      </trkpt>
      <trkpt lat="45.48448" lon="5.95521">
        <ele>580</ele>
        <time>2022-08-10T18:18:12.132Z</time>
      </trkpt>
      <trkpt lat="45.48446" lon="5.95523">
        <ele>580</ele>
        <time>2022-08-10T18:18:13.132Z</time>
      </trkpt>
      <trkpt lat="45.48445" lon="5.95526">
        <ele>580</ele>
        <time>2022-08-10T18:18:14.132Z</time>
      </trkpt>
      <trkpt lat="45.48443" lon="5.95529">
        <ele>580</ele>
        <time>2022-08-10T18:18:15.132Z</time>
      </trkpt>
      <trkpt lat="45.48441" lon="5.95533">
        <ele>579</ele>
        <time>2022-08-10T18:18:16.132Z</time>
      </trkpt>
      <trkpt lat="45.4844" lon="5.95537">
        <ele>579</ele>
        <time>2022-08-10T18:18:17.132Z</time>
      </trkpt>
      <trkpt lat="45.48439" lon="5.95541">
        <ele>578</ele>
        <time>2022-08-10T18:18:18.132Z</time>
      </trkpt>
      <trkpt lat="45.48438" lon="5.95545">
        <ele>578</ele>
        <time>2022-08-10T18:18:19.132Z</time>
      </trkpt>
      <trkpt lat="45.48438" lon="5.95549">
        <ele>577</ele>
        <time>2022-08-10T18:18:20.132Z</time>
      </trkpt>
      <trkpt lat="45.48438" lon="5.95552">
        <ele>576</ele>
        <time>2022-08-10T18:18:21.132Z</time>
      </trkpt>
      <trkpt lat="45.48438" lon="5.95556">
        <ele>576</ele>
        <time>2022-08-10T18:18:22.132Z</time>
      </trkpt>
      <trkpt lat="45.48438" lon="5.95559">
        <ele>575</ele>
        <time>2022-08-10T18:18:23.132Z</time>
      </trkpt>
      <trkpt lat="45.48438" lon="5.95562">
        <ele>575</ele>
        <time>2022-08-10T18:18:24.132Z</time>
      </trkpt>
      <trkpt lat="45.48438" lon="5.95566">
        <ele>574</ele>
        <time>2022-08-10T18:18:25.132Z</time>
      </trkpt>
      <trkpt lat="45.48437" lon="5.95569">
        <ele>573</ele>
        <time>2022-08-10T18:18:26.132Z</time>
      </trkpt>
      <trkpt lat="45.48436" lon="5.95573">
        <ele>573</ele>
        <time>2022-08-10T18:18:27.132Z</time>
      </trkpt>
      <trkpt lat="45.48435" lon="5.95576">
        <ele>572</ele>
        <time>2022-08-10T18:18:28.132Z</time>
      </trkpt>
      <trkpt lat="45.48433" lon="5.9558">
        <ele>572</ele>
        <time>2022-08-10T18:18:29.131Z</time>
      </trkpt>
      <trkpt lat="45.48431" lon="5.95583">
        <ele>571</ele>
        <time>2022-08-10T18:18:30.132Z</time>
      </trkpt>
      <trkpt lat="45.4843" lon="5.95586">
        <ele>570</ele>
        <time>2022-08-10T18:18:31.132Z</time>
      </trkpt>
      <trkpt lat="45.48427" lon="5.95589">
        <ele>570</ele>
        <time>2022-08-10T18:18:32.132Z</time>
      </trkpt>
      <trkpt lat="45.48424" lon="5.95592">
        <ele>569</ele>
        <time>2022-08-10T18:18:33.132Z</time>
      </trkpt>
      <trkpt lat="45.48422" lon="5.95595">
        <ele>568</ele>
        <time>2022-08-10T18:18:34.131Z</time>
      </trkpt>
      <trkpt lat="45.4842" lon="5.95598">
        <ele>568</ele>
        <time>2022-08-10T18:18:35.132Z</time>
      </trkpt>
      <trkpt lat="45.48418" lon="5.956">
        <ele>568</ele>
        <time>2022-08-10T18:18:36.132Z</time>
      </trkpt>
      <trkpt lat="45.48417" lon="5.95603">
        <ele>567</ele>
        <time>2022-08-10T18:18:37.131Z</time>
      </trkpt>
      <trkpt lat="45.48417" lon="5.95606">
        <ele>567</ele>
        <time>2022-08-10T18:18:38.132Z</time>
      </trkpt>
      <trkpt lat="45.48416" lon="5.9561">
        <ele>566</ele>
        <time>2022-08-10T18:18:39.132Z</time>
      </trkpt>
      <trkpt lat="45.48416" lon="5.95614">
        <ele>566</ele>
        <time>2022-08-10T18:18:40.132Z</time>
      </trkpt>
      <trkpt lat="45.48415" lon="5.95619">
        <ele>565</ele>
        <time>2022-08-10T18:18:41.132Z</time>
      </trkpt>
      <trkpt lat="45.48415" lon="5.95623">
        <ele>564</ele>
        <time>2022-08-10T18:18:42.132Z</time>
      </trkpt>
      <trkpt lat="45.48414" lon="5.95628">
        <ele>563</ele>
        <time>2022-08-10T18:18:43.132Z</time>
      </trkpt>
      <trkpt lat="45.48412" lon="5.95636">
        <ele>562</ele>
        <time>2022-08-10T18:18:44.132Z</time>
      </trkpt>
      <trkpt lat="45.48412" lon="5.9564">
        <ele>561</ele>
        <time>2022-08-10T18:18:45.132Z</time>
      </trkpt>
      <trkpt lat="45.48412" lon="5.95643">
        <ele>560</ele>
        <time>2022-08-10T18:18:46.132Z</time>
      </trkpt>
      <trkpt lat="45.48412" lon="5.95647">
        <ele>559</ele>
        <time>2022-08-10T18:18:47.132Z</time>
      </trkpt>
      <trkpt lat="45.48411" lon="5.9565">
        <ele>558</ele>
        <time>2022-08-10T18:18:48.132Z</time>
      </trkpt>
      <trkpt lat="45.4841" lon="5.95653">
        <ele>558</ele>
        <time>2022-08-10T18:18:49.132Z</time>
      </trkpt>
      <trkpt lat="45.48408" lon="5.95658">
        <ele>557</ele>
        <time>2022-08-10T18:18:50.132Z</time>
      </trkpt>
      <trkpt lat="45.48406" lon="5.95662">
        <ele>556</ele>
        <time>2022-08-10T18:18:51.132Z</time>
      </trkpt>
      <trkpt lat="45.48404" lon="5.95663">
        <ele>555</ele>
        <time>2022-08-10T18:18:52.132Z</time>
      </trkpt>
      <trkpt lat="45.48403" lon="5.95665">
        <ele>555</ele>
        <time>2022-08-10T18:18:53.132Z</time>
      </trkpt>
      <trkpt lat="45.48401" lon="5.95667">
        <ele>554</ele>
        <time>2022-08-10T18:18:54.132Z</time>
      </trkpt>
      <trkpt lat="45.48401" lon="5.9567">
        <ele>553</ele>
        <time>2022-08-10T18:18:55.132Z</time>
      </trkpt>
      <trkpt lat="45.484" lon="5.95673">
        <ele>552</ele>
        <time>2022-08-10T18:18:56.132Z</time>
      </trkpt>
      <trkpt lat="45.484" lon="5.95676">
        <ele>551</ele>
        <time>2022-08-10T18:18:57.132Z</time>
      </trkpt>
      <trkpt lat="45.484" lon="5.9568">
        <ele>549</ele>
        <time>2022-08-10T18:18:58.132Z</time>
      </trkpt>
      <trkpt lat="45.48399" lon="5.95683">
        <ele>548</ele>
        <time>2022-08-10T18:18:59.132Z</time>
      </trkpt>
      <trkpt lat="45.48398" lon="5.95687">
        <ele>546</ele>
        <time>2022-08-10T18:19:00.131Z</time>
      </trkpt>
      <trkpt lat="45.48398" lon="5.9569">
        <ele>545</ele>
        <time>2022-08-10T18:19:01.131Z</time>
      </trkpt>
      <trkpt lat="45.48397" lon="5.95693">
        <ele>544</ele>
        <time>2022-08-10T18:19:02.132Z</time>
      </trkpt>
      <trkpt lat="45.48396" lon="5.95696">
        <ele>543</ele>
        <time>2022-08-10T18:19:03.132Z</time>
      </trkpt>
      <trkpt lat="45.48395" lon="5.95698">
        <ele>542</ele>
        <time>2022-08-10T18:19:04.131Z</time>
      </trkpt>
      <trkpt lat="45.48395" lon="5.95701">
        <ele>542</ele>
        <time>2022-08-10T18:19:05.132Z</time>
      </trkpt>
      <trkpt lat="45.48394" lon="5.95706">
        <ele>541</ele>
        <time>2022-08-10T18:19:06.132Z</time>
      </trkpt>
      <trkpt lat="45.48394" lon="5.95711">
        <ele>540</ele>
        <time>2022-08-10T18:19:07.131Z</time>
      </trkpt>
      <trkpt lat="45.48394" lon="5.95715">
        <ele>539</ele>
        <time>2022-08-10T18:19:08.132Z</time>
      </trkpt>
      <trkpt lat="45.48394" lon="5.9572">
        <ele>539</ele>
        <time>2022-08-10T18:19:09.132Z</time>
      </trkpt>
      <trkpt lat="45.48394" lon="5.95724">
        <ele>538</ele>
        <time>2022-08-10T18:19:10.132Z</time>
      </trkpt>
      <trkpt lat="45.48395" lon="5.95729">
        <ele>537</ele>
        <time>2022-08-10T18:19:11.132Z</time>
      </trkpt>
      <trkpt lat="45.48395" lon="5.95732">
        <ele>537</ele>
        <time>2022-08-10T18:19:12.132Z</time>
      </trkpt>
      <trkpt lat="45.48396" lon="5.95736">
        <ele>536</ele>
        <time>2022-08-10T18:19:13.131Z</time>
      </trkpt>
      <trkpt lat="45.48397" lon="5.95739">
        <ele>536</ele>
        <time>2022-08-10T18:19:14.132Z</time>
      </trkpt>
      <trkpt lat="45.48398" lon="5.95742">
        <ele>535</ele>
        <time>2022-08-10T18:19:15.132Z</time>
      </trkpt>
      <trkpt lat="45.48399" lon="5.95746">
        <ele>534</ele>
        <time>2022-08-10T18:19:16.131Z</time>
      </trkpt>
      <trkpt lat="45.48401" lon="5.95749">
        <ele>534</ele>
        <time>2022-08-10T18:19:17.132Z</time>
      </trkpt>
      <trkpt lat="45.48402" lon="5.95754">
        <ele>533</ele>
        <time>2022-08-10T18:19:18.132Z</time>
      </trkpt>
      <trkpt lat="45.48404" lon="5.95759">
        <ele>532</ele>
        <time>2022-08-10T18:19:19.132Z</time>
      </trkpt>
      <trkpt lat="45.48406" lon="5.95763">
        <ele>532</ele>
        <time>2022-08-10T18:19:20.132Z</time>
      </trkpt>
      <trkpt lat="45.48407" lon="5.95766">
        <ele>531</ele>
        <time>2022-08-10T18:19:21.132Z</time>
      </trkpt>
      <trkpt lat="45.48407" lon="5.95767">
        <ele>531</ele>
        <time>2022-08-10T18:19:22.132Z</time>
      </trkpt>
      <trkpt lat="45.48407" lon="5.95769">
        <ele>530</ele>
        <time>2022-08-10T18:19:23.132Z</time>
      </trkpt>
      <trkpt lat="45.48408" lon="5.95769">
        <ele>530</ele>
        <time>2022-08-10T18:19:24.132Z</time>
      </trkpt>
      <trkpt lat="45.48406" lon="5.95786">
        <ele>517</ele>
        <time>2022-08-10T18:20:45.257Z</time>
      </trkpt>
      <trkpt lat="45.48406" lon="5.95792">
        <ele>517</ele>
        <time>2022-08-10T18:20:46.257Z</time>
      </trkpt>
      <trkpt lat="45.48406" lon="5.95798">
        <ele>517</ele>
        <time>2022-08-10T18:20:47.258Z</time>
      </trkpt>
      <trkpt lat="45.48405" lon="5.95803">
        <ele>517</ele>
        <time>2022-08-10T18:20:48.258Z</time>
      </trkpt>
      <trkpt lat="45.48404" lon="5.9581">
        <ele>518</ele>
        <time>2022-08-10T18:20:49.258Z</time>
      </trkpt>
      <trkpt lat="45.48404" lon="5.95815">
        <ele>518</ele>
        <time>2022-08-10T18:20:50.257Z</time>
      </trkpt>
      <trkpt lat="45.48403" lon="5.9582">
        <ele>518</ele>
        <time>2022-08-10T18:20:51.258Z</time>
      </trkpt>
      <trkpt lat="45.48402" lon="5.95826">
        <ele>518</ele>
        <time>2022-08-10T18:20:52.258Z</time>
      </trkpt>
      <trkpt lat="45.48401" lon="5.9583">
        <ele>518</ele>
        <time>2022-08-10T18:20:53.257Z</time>
      </trkpt>
      <trkpt lat="45.48401" lon="5.95834">
        <ele>518</ele>
        <time>2022-08-10T18:20:54.258Z</time>
      </trkpt>
      <trkpt lat="45.484" lon="5.95837">
        <ele>518</ele>
        <time>2022-08-10T18:20:55.258Z</time>
      </trkpt>
      <trkpt lat="45.484" lon="5.95841">
        <ele>519</ele>
        <time>2022-08-10T18:20:56.257Z</time>
      </trkpt>
      <trkpt lat="45.484" lon="5.95845">
        <ele>519</ele>
        <time>2022-08-10T18:20:57.258Z</time>
      </trkpt>
      <trkpt lat="45.48399" lon="5.95849">
        <ele>519</ele>
        <time>2022-08-10T18:20:58.258Z</time>
      </trkpt>
      <trkpt lat="45.48398" lon="5.95853">
        <ele>519</ele>
        <time>2022-08-10T18:20:59.257Z</time>
      </trkpt>
      <trkpt lat="45.48398" lon="5.95856">
        <ele>519</ele>
        <time>2022-08-10T18:21:00.257Z</time>
      </trkpt>
      <trkpt lat="45.48397" lon="5.95859">
        <ele>519</ele>
        <time>2022-08-10T18:21:01.258Z</time>
      </trkpt>
      <trkpt lat="45.48396" lon="5.95862">
        <ele>519</ele>
        <time>2022-08-10T18:21:02.258Z</time>
      </trkpt>
      <trkpt lat="45.48395" lon="5.95865">
        <ele>519</ele>
        <time>2022-08-10T18:21:03.258Z</time>
      </trkpt>
      <trkpt lat="45.48393" lon="5.95869">
        <ele>519</ele>
        <time>2022-08-10T18:21:04.258Z</time>
      </trkpt>
      <trkpt lat="45.48391" lon="5.95873">
        <ele>519</ele>
        <time>2022-08-10T18:21:05.257Z</time>
      </trkpt>
      <trkpt lat="45.4839" lon="5.95877">
        <ele>519</ele>
        <time>2022-08-10T18:21:06.257Z</time>
      </trkpt>
      <trkpt lat="45.48389" lon="5.95881">
        <ele>519</ele>
        <time>2022-08-10T18:21:07.257Z</time>
      </trkpt>
      <trkpt lat="45.48387" lon="5.95885">
        <ele>519</ele>
        <time>2022-08-10T18:21:08.257Z</time>
      </trkpt>
      <trkpt lat="45.48386" lon="5.95888">
        <ele>519</ele>
        <time>2022-08-10T18:21:09.257Z</time>
      </trkpt>
      <trkpt lat="45.48383" lon="5.95894">
        <ele>519</ele>
        <time>2022-08-10T18:21:10.258Z</time>
      </trkpt>
      <trkpt lat="45.48382" lon="5.95899">
        <ele>519</ele>
        <time>2022-08-10T18:21:11.257Z</time>
      </trkpt>
      <trkpt lat="45.4838" lon="5.95904">
        <ele>519</ele>
        <time>2022-08-10T18:21:12.258Z</time>
      </trkpt>
      <trkpt lat="45.4838" lon="5.95909">
        <ele>519</ele>
        <time>2022-08-10T18:21:13.258Z</time>
      </trkpt>
      <trkpt lat="45.48379" lon="5.95913">
        <ele>519</ele>
        <time>2022-08-10T18:21:14.258Z</time>
      </trkpt>
      <trkpt lat="45.48378" lon="5.95917">
        <ele>519</ele>
        <time>2022-08-10T18:21:15.257Z</time>
      </trkpt>
      <trkpt lat="45.48377" lon="5.95921">
        <ele>519</ele>
        <time>2022-08-10T18:21:16.257Z</time>
      </trkpt>
      <trkpt lat="45.48375" lon="5.95925">
        <ele>519</ele>
        <time>2022-08-10T18:21:17.258Z</time>
      </trkpt>
      <trkpt lat="45.48373" lon="5.95929">
        <ele>519</ele>
        <time>2022-08-10T18:21:18.258Z</time>
      </trkpt>
      <trkpt lat="45.48371" lon="5.95934">
        <ele>519</ele>
        <time>2022-08-10T18:21:19.258Z</time>
      </trkpt>
      <trkpt lat="45.4837" lon="5.95938">
        <ele>519</ele>
        <time>2022-08-10T18:21:20.258Z</time>
      </trkpt>
      <trkpt lat="45.48368" lon="5.95943">
        <ele>520</ele>
        <time>2022-08-10T18:21:21.258Z</time>
      </trkpt>
      <trkpt lat="45.48367" lon="5.95947">
        <ele>520</ele>
        <time>2022-08-10T18:21:22.258Z</time>
      </trkpt>
      <trkpt lat="45.48366" lon="5.95953">
        <ele>520</ele>
        <time>2022-08-10T18:21:23.257Z</time>
      </trkpt>
      <trkpt lat="45.48365" lon="5.95959">
        <ele>520</ele>
        <time>2022-08-10T18:21:24.258Z</time>
      </trkpt>
      <trkpt lat="45.48364" lon="5.95964">
        <ele>520</ele>
        <time>2022-08-10T18:21:25.258Z</time>
      </trkpt>
      <trkpt lat="45.48364" lon="5.95969">
        <ele>520</ele>
        <time>2022-08-10T18:21:26.257Z</time>
      </trkpt>
      <trkpt lat="45.48365" lon="5.95973">
        <ele>520</ele>
        <time>2022-08-10T18:21:27.257Z</time>
      </trkpt>
      <trkpt lat="45.48366" lon="5.95979">
        <ele>519</ele>
        <time>2022-08-10T18:21:28.257Z</time>
      </trkpt>
      <trkpt lat="45.48368" lon="5.95985">
        <ele>519</ele>
        <time>2022-08-10T18:21:29.258Z</time>
      </trkpt>
      <trkpt lat="45.48368" lon="5.95991">
        <ele>519</ele>
        <time>2022-08-10T18:21:30.258Z</time>
      </trkpt>
      <trkpt lat="45.4837" lon="5.95999">
        <ele>519</ele>
        <time>2022-08-10T18:21:31.257Z</time>
      </trkpt>
      <trkpt lat="45.48372" lon="5.96006">
        <ele>519</ele>
        <time>2022-08-10T18:21:32.258Z</time>
      </trkpt>
      <trkpt lat="45.48373" lon="5.96013">
        <ele>518</ele>
        <time>2022-08-10T18:21:33.258Z</time>
      </trkpt>
      <trkpt lat="45.48374" lon="5.96021">
        <ele>518</ele>
        <time>2022-08-10T18:21:34.258Z</time>
      </trkpt>
      <trkpt lat="45.48374" lon="5.96029">
        <ele>518</ele>
        <time>2022-08-10T18:21:35.257Z</time>
      </trkpt>
      <trkpt lat="45.48375" lon="5.96037">
        <ele>517</ele>
        <time>2022-08-10T18:21:36.257Z</time>
      </trkpt>
      <trkpt lat="45.48375" lon="5.96044">
        <ele>517</ele>
        <time>2022-08-10T18:21:37.258Z</time>
      </trkpt>
      <trkpt lat="45.48374" lon="5.96052">
        <ele>517</ele>
        <time>2022-08-10T18:21:38.258Z</time>
      </trkpt>
      <trkpt lat="45.48373" lon="5.96059">
        <ele>516</ele>
        <time>2022-08-10T18:21:39.257Z</time>
      </trkpt>
      <trkpt lat="45.48373" lon="5.96066">
        <ele>516</ele>
        <time>2022-08-10T18:21:40.258Z</time>
      </trkpt>
      <trkpt lat="45.48374" lon="5.96073">
        <ele>516</ele>
        <time>2022-08-10T18:21:41.258Z</time>
      </trkpt>
      <trkpt lat="45.48374" lon="5.96079">
        <ele>516</ele>
        <time>2022-08-10T18:21:42.258Z</time>
      </trkpt>
      <trkpt lat="45.48375" lon="5.96087">
        <ele>515</ele>
        <time>2022-08-10T18:21:43.258Z</time>
      </trkpt>
      <trkpt lat="45.48375" lon="5.96097">
        <ele>515</ele>
        <time>2022-08-10T18:21:44.258Z</time>
      </trkpt>
      <trkpt lat="45.48373" lon="5.96106">
        <ele>514</ele>
        <time>2022-08-10T18:21:45.257Z</time>
      </trkpt>
      <trkpt lat="45.48371" lon="5.96115">
        <ele>513</ele>
        <time>2022-08-10T18:21:46.258Z</time>
      </trkpt>
      <trkpt lat="45.48369" lon="5.96123">
        <ele>512</ele>
        <time>2022-08-10T18:21:47.258Z</time>
      </trkpt>
      <trkpt lat="45.48369" lon="5.96134">
        <ele>512</ele>
        <time>2022-08-10T18:21:48.258Z</time>
      </trkpt>
      <trkpt lat="45.48369" lon="5.96144">
        <ele>511</ele>
        <time>2022-08-10T18:21:49.258Z</time>
      </trkpt>
      <trkpt lat="45.4837" lon="5.96154">
        <ele>510</ele>
        <time>2022-08-10T18:21:50.257Z</time>
      </trkpt>
      <trkpt lat="45.48372" lon="5.96164">
        <ele>509</ele>
        <time>2022-08-10T18:21:51.258Z</time>
      </trkpt>
      <trkpt lat="45.48373" lon="5.96174">
        <ele>509</ele>
        <time>2022-08-10T18:21:52.258Z</time>
      </trkpt>
      <trkpt lat="45.48374" lon="5.96184">
        <ele>508</ele>
        <time>2022-08-10T18:21:53.258Z</time>
      </trkpt>
      <trkpt lat="45.48373" lon="5.96194">
        <ele>507</ele>
        <time>2022-08-10T18:21:54.258Z</time>
      </trkpt>
      <trkpt lat="45.48372" lon="5.96203">
        <ele>507</ele>
        <time>2022-08-10T18:21:55.258Z</time>
      </trkpt>
      <trkpt lat="45.48369" lon="5.96212">
        <ele>506</ele>
        <time>2022-08-10T18:21:56.258Z</time>
      </trkpt>
      <trkpt lat="45.48366" lon="5.9622">
        <ele>505</ele>
        <time>2022-08-10T18:21:57.258Z</time>
      </trkpt>
      <trkpt lat="45.48363" lon="5.96227">
        <ele>504</ele>
        <time>2022-08-10T18:21:58.257Z</time>
      </trkpt>
      <trkpt lat="45.4836" lon="5.96232">
        <ele>504</ele>
        <time>2022-08-10T18:21:59.258Z</time>
      </trkpt>
      <trkpt lat="45.48357" lon="5.96237">
        <ele>503</ele>
        <time>2022-08-10T18:22:00.258Z</time>
      </trkpt>
      <trkpt lat="45.48356" lon="5.96241">
        <ele>502</ele>
        <time>2022-08-10T18:22:01.258Z</time>
      </trkpt>
      <trkpt lat="45.48355" lon="5.96245">
        <ele>502</ele>
        <time>2022-08-10T18:22:02.258Z</time>
      </trkpt>
      <trkpt lat="45.48354" lon="5.96249">
        <ele>501</ele>
        <time>2022-08-10T18:22:03.258Z</time>
      </trkpt>
      <trkpt lat="45.48352" lon="5.96252">
        <ele>501</ele>
        <time>2022-08-10T18:22:04.258Z</time>
      </trkpt>
      <trkpt lat="45.48351" lon="5.96255">
        <ele>501</ele>
        <time>2022-08-10T18:22:05.258Z</time>
      </trkpt>
      <trkpt lat="45.48349" lon="5.96259">
        <ele>500</ele>
        <time>2022-08-10T18:22:06.258Z</time>
      </trkpt>
      <trkpt lat="45.48347" lon="5.96261">
        <ele>500</ele>
        <time>2022-08-10T18:22:07.257Z</time>
      </trkpt>
      <trkpt lat="45.48345" lon="5.96262">
        <ele>500</ele>
        <time>2022-08-10T18:22:08.258Z</time>
      </trkpt>
      <trkpt lat="45.48344" lon="5.96263">
        <ele>500</ele>
        <time>2022-08-10T18:22:09.258Z</time>
      </trkpt>
      <trkpt lat="45.48343" lon="5.96263">
        <ele>500</ele>
        <time>2022-08-10T18:22:10.258Z</time>
      </trkpt>
      <trkpt lat="45.48344" lon="5.96261">
        <ele>500</ele>
        <time>2022-08-10T18:22:11.257Z</time>
      </trkpt>
      <trkpt lat="45.48342" lon="5.96259">
        <ele>499</ele>
        <time>2022-08-10T18:22:22.364Z</time>
      </trkpt>
      <trkpt lat="45.48339" lon="5.96267">
        <ele>501</ele>
        <time>2022-08-10T18:25:41.268Z</time>
      </trkpt>
      <trkpt lat="45.48338" lon="5.96276">
        <ele>502</ele>
        <time>2022-08-10T18:26:31.142Z</time>
      </trkpt>
      <trkpt lat="45.48336" lon="5.96282">
        <ele>501</ele>
        <time>2022-08-10T18:26:32.142Z</time>
      </trkpt>
      <trkpt lat="45.48333" lon="5.96289">
        <ele>501</ele>
        <time>2022-08-10T18:26:33.141Z</time>
      </trkpt>
      <trkpt lat="45.48329" lon="5.96296">
        <ele>501</ele>
        <time>2022-08-10T18:26:34.142Z</time>
      </trkpt>
      <trkpt lat="45.48325" lon="5.96302">
        <ele>501</ele>
        <time>2022-08-10T18:26:35.142Z</time>
      </trkpt>
      <trkpt lat="45.48319" lon="5.96308">
        <ele>501</ele>
        <time>2022-08-10T18:26:36.142Z</time>
      </trkpt>
      <trkpt lat="45.48313" lon="5.96313">
        <ele>501</ele>
        <time>2022-08-10T18:26:37.142Z</time>
      </trkpt>
      <trkpt lat="45.48307" lon="5.96319">
        <ele>501</ele>
        <time>2022-08-10T18:26:38.142Z</time>
      </trkpt>
      <trkpt lat="45.48301" lon="5.96325">
        <ele>501</ele>
        <time>2022-08-10T18:26:39.142Z</time>
      </trkpt>
      <trkpt lat="45.48296" lon="5.96331">
        <ele>501</ele>
        <time>2022-08-10T18:26:40.142Z</time>
      </trkpt>
      <trkpt lat="45.48293" lon="5.96339">
        <ele>501</ele>
        <time>2022-08-10T18:26:41.142Z</time>
      </trkpt>
      <trkpt lat="45.48289" lon="5.96347">
        <ele>500</ele>
        <time>2022-08-10T18:26:42.142Z</time>
      </trkpt>
      <trkpt lat="45.48287" lon="5.96355">
        <ele>500</ele>
        <time>2022-08-10T18:26:43.141Z</time>
      </trkpt>
      <trkpt lat="45.48285" lon="5.96363">
        <ele>499</ele>
        <time>2022-08-10T18:26:44.142Z</time>
      </trkpt>
      <trkpt lat="45.48283" lon="5.9637">
        <ele>499</ele>
        <time>2022-08-10T18:26:45.142Z</time>
      </trkpt>
      <trkpt lat="45.48281" lon="5.96377">
        <ele>499</ele>
        <time>2022-08-10T18:26:46.142Z</time>
      </trkpt>
      <trkpt lat="45.48278" lon="5.96384">
        <ele>498</ele>
        <time>2022-08-10T18:26:47.142Z</time>
      </trkpt>
      <trkpt lat="45.48276" lon="5.96389">
        <ele>498</ele>
        <time>2022-08-10T18:26:48.142Z</time>
      </trkpt>
      <trkpt lat="45.48276" lon="5.96395">
        <ele>498</ele>
        <time>2022-08-10T18:26:49.142Z</time>
      </trkpt>
      <trkpt lat="45.48275" lon="5.96401">
        <ele>498</ele>
        <time>2022-08-10T18:26:50.141Z</time>
      </trkpt>
      <trkpt lat="45.48273" lon="5.96407">
        <ele>498</ele>
        <time>2022-08-10T18:26:51.142Z</time>
      </trkpt>
      <trkpt lat="45.4827" lon="5.96413">
        <ele>498</ele>
        <time>2022-08-10T18:26:52.142Z</time>
      </trkpt>
      <trkpt lat="45.48267" lon="5.9642">
        <ele>498</ele>
        <time>2022-08-10T18:26:53.142Z</time>
      </trkpt>
      <trkpt lat="45.48265" lon="5.96428">
        <ele>498</ele>
        <time>2022-08-10T18:26:54.142Z</time>
      </trkpt>
      <trkpt lat="45.48263" lon="5.96436">
        <ele>497</ele>
        <time>2022-08-10T18:26:55.142Z</time>
      </trkpt>
      <trkpt lat="45.48262" lon="5.96445">
        <ele>497</ele>
        <time>2022-08-10T18:26:56.142Z</time>
      </trkpt>
      <trkpt lat="45.48262" lon="5.96454">
        <ele>496</ele>
        <time>2022-08-10T18:26:57.142Z</time>
      </trkpt>
      <trkpt lat="45.48262" lon="5.96464">
        <ele>496</ele>
        <time>2022-08-10T18:26:58.142Z</time>
      </trkpt>
      <trkpt lat="45.48263" lon="5.96474">
        <ele>495</ele>
        <time>2022-08-10T18:26:59.142Z</time>
      </trkpt>
      <trkpt lat="45.48264" lon="5.96485">
        <ele>495</ele>
        <time>2022-08-10T18:27:00.142Z</time>
      </trkpt>
      <trkpt lat="45.48264" lon="5.96496">
        <ele>494</ele>
        <time>2022-08-10T18:27:01.142Z</time>
      </trkpt>
      <trkpt lat="45.48265" lon="5.96507">
        <ele>494</ele>
        <time>2022-08-10T18:27:02.142Z</time>
      </trkpt>
      <trkpt lat="45.48264" lon="5.96518">
        <ele>494</ele>
        <time>2022-08-10T18:27:03.141Z</time>
      </trkpt>
      <trkpt lat="45.48264" lon="5.9653">
        <ele>493</ele>
        <time>2022-08-10T18:27:04.142Z</time>
      </trkpt>
      <trkpt lat="45.48262" lon="5.96541">
        <ele>493</ele>
        <time>2022-08-10T18:27:05.142Z</time>
      </trkpt>
      <trkpt lat="45.48261" lon="5.96554">
        <ele>492</ele>
        <time>2022-08-10T18:27:06.141Z</time>
      </trkpt>
      <trkpt lat="45.48259" lon="5.96566">
        <ele>491</ele>
        <time>2022-08-10T18:27:07.142Z</time>
      </trkpt>
      <trkpt lat="45.48257" lon="5.96578">
        <ele>491</ele>
        <time>2022-08-10T18:27:08.142Z</time>
      </trkpt>
      <trkpt lat="45.48256" lon="5.9659">
        <ele>490</ele>
        <time>2022-08-10T18:27:09.141Z</time>
      </trkpt>
      <trkpt lat="45.48254" lon="5.96602">
        <ele>489</ele>
        <time>2022-08-10T18:27:10.141Z</time>
      </trkpt>
      <trkpt lat="45.48252" lon="5.96613">
        <ele>488</ele>
        <time>2022-08-10T18:27:11.142Z</time>
      </trkpt>
      <trkpt lat="45.48248" lon="5.96621">
        <ele>488</ele>
        <time>2022-08-10T18:27:12.141Z</time>
      </trkpt>
      <trkpt lat="45.48245" lon="5.96628">
        <ele>487</ele>
        <time>2022-08-10T18:27:13.142Z</time>
      </trkpt>
      <trkpt lat="45.48241" lon="5.96633">
        <ele>487</ele>
        <time>2022-08-10T18:27:14.142Z</time>
      </trkpt>
      <trkpt lat="45.48237" lon="5.96635">
        <ele>486</ele>
        <time>2022-08-10T18:27:15.142Z</time>
      </trkpt>
      <trkpt lat="45.48233" lon="5.96636">
        <ele>486</ele>
        <time>2022-08-10T18:27:16.141Z</time>
      </trkpt>
      <trkpt lat="45.48229" lon="5.96637">
        <ele>485</ele>
        <time>2022-08-10T18:27:17.142Z</time>
      </trkpt>
      <trkpt lat="45.48226" lon="5.96637">
        <ele>485</ele>
        <time>2022-08-10T18:27:18.142Z</time>
      </trkpt>
      <trkpt lat="45.48222" lon="5.96637">
        <ele>485</ele>
        <time>2022-08-10T18:27:19.142Z</time>
      </trkpt>
      <trkpt lat="45.48219" lon="5.96636">
        <ele>485</ele>
        <time>2022-08-10T18:27:20.142Z</time>
      </trkpt>
      <trkpt lat="45.48216" lon="5.96636">
        <ele>484</ele>
        <time>2022-08-10T18:27:21.142Z</time>
      </trkpt>
      <trkpt lat="45.48212" lon="5.96635">
        <ele>484</ele>
        <time>2022-08-10T18:27:22.142Z</time>
      </trkpt>
      <trkpt lat="45.48209" lon="5.96634">
        <ele>484</ele>
        <time>2022-08-10T18:27:23.142Z</time>
      </trkpt>
      <trkpt lat="45.48207" lon="5.96633">
        <ele>485</ele>
        <time>2022-08-10T18:27:24.141Z</time>
      </trkpt>
      <trkpt lat="45.48204" lon="5.96632">
        <ele>485</ele>
        <time>2022-08-10T18:27:25.142Z</time>
      </trkpt>
      <trkpt lat="45.48201" lon="5.9663">
        <ele>485</ele>
        <time>2022-08-10T18:27:26.141Z</time>
      </trkpt>
      <trkpt lat="45.48198" lon="5.96631">
        <ele>485</ele>
        <time>2022-08-10T18:27:27.142Z</time>
      </trkpt>
      <trkpt lat="45.48196" lon="5.96631">
        <ele>485</ele>
        <time>2022-08-10T18:27:28.142Z</time>
      </trkpt>
      <trkpt lat="45.48194" lon="5.96631">
        <ele>486</ele>
        <time>2022-08-10T18:27:29.142Z</time>
      </trkpt>
      <trkpt lat="45.48192" lon="5.96631">
        <ele>486</ele>
        <time>2022-08-10T18:27:30.141Z</time>
      </trkpt>
      <trkpt lat="45.4819" lon="5.9663">
        <ele>487</ele>
        <time>2022-08-10T18:27:31.142Z</time>
      </trkpt>
      <trkpt lat="45.48187" lon="5.9663">
        <ele>488</ele>
        <time>2022-08-10T18:27:32.141Z</time>
      </trkpt>
      <trkpt lat="45.48185" lon="5.96629">
        <ele>488</ele>
        <time>2022-08-10T18:27:33.142Z</time>
      </trkpt>
      <trkpt lat="45.48182" lon="5.96629">
        <ele>488</ele>
        <time>2022-08-10T18:27:34.142Z</time>
      </trkpt>
      <trkpt lat="45.48179" lon="5.96629">
        <ele>489</ele>
        <time>2022-08-10T18:27:35.142Z</time>
      </trkpt>
      <trkpt lat="45.48177" lon="5.96628">
        <ele>489</ele>
        <time>2022-08-10T18:27:36.142Z</time>
      </trkpt>
      <trkpt lat="45.48175" lon="5.96628">
        <ele>488</ele>
        <time>2022-08-10T18:27:37.142Z</time>
      </trkpt>
      <trkpt lat="45.48171" lon="5.96627">
        <ele>488</ele>
        <time>2022-08-10T18:27:38.141Z</time>
      </trkpt>
      <trkpt lat="45.48169" lon="5.96627">
        <ele>488</ele>
        <time>2022-08-10T18:27:39.141Z</time>
      </trkpt>
      <trkpt lat="45.48166" lon="5.96628">
        <ele>488</ele>
        <time>2022-08-10T18:27:40.141Z</time>
      </trkpt>
      <trkpt lat="45.48162" lon="5.96627">
        <ele>488</ele>
        <time>2022-08-10T18:27:41.142Z</time>
      </trkpt>
      <trkpt lat="45.4816" lon="5.96628">
        <ele>488</ele>
        <time>2022-08-10T18:27:42.142Z</time>
      </trkpt>
      <trkpt lat="45.48158" lon="5.96628">
        <ele>488</ele>
        <time>2022-08-10T18:27:43.142Z</time>
      </trkpt>
      <trkpt lat="45.48156" lon="5.96629">
        <ele>488</ele>
        <time>2022-08-10T18:27:44.142Z</time>
      </trkpt>
      <trkpt lat="45.48153" lon="5.96629">
        <ele>488</ele>
        <time>2022-08-10T18:27:45.142Z</time>
      </trkpt>
      <trkpt lat="45.48151" lon="5.96629">
        <ele>488</ele>
        <time>2022-08-10T18:27:46.141Z</time>
      </trkpt>
      <trkpt lat="45.48149" lon="5.9663">
        <ele>488</ele>
        <time>2022-08-10T18:27:47.142Z</time>
      </trkpt>
      <trkpt lat="45.48147" lon="5.9663">
        <ele>488</ele>
        <time>2022-08-10T18:27:48.141Z</time>
      </trkpt>
      <trkpt lat="45.48145" lon="5.96631">
        <ele>488</ele>
        <time>2022-08-10T18:27:49.142Z</time>
      </trkpt>
      <trkpt lat="45.48143" lon="5.96631">
        <ele>488</ele>
        <time>2022-08-10T18:27:50.142Z</time>
      </trkpt>
      <trkpt lat="45.4814" lon="5.96632">
        <ele>489</ele>
        <time>2022-08-10T18:27:51.142Z</time>
      </trkpt>
      <trkpt lat="45.48138" lon="5.96633">
        <ele>489</ele>
        <time>2022-08-10T18:27:52.142Z</time>
      </trkpt>
      <trkpt lat="45.48136" lon="5.96634">
        <ele>489</ele>
        <time>2022-08-10T18:27:53.142Z</time>
      </trkpt>
      <trkpt lat="45.48134" lon="5.96635">
        <ele>489</ele>
        <time>2022-08-10T18:27:54.142Z</time>
      </trkpt>
      <trkpt lat="45.48132" lon="5.96635">
        <ele>489</ele>
        <time>2022-08-10T18:27:55.142Z</time>
      </trkpt>
      <trkpt lat="45.48131" lon="5.96636">
        <ele>489</ele>
        <time>2022-08-10T18:27:56.142Z</time>
      </trkpt>
      <trkpt lat="45.48129" lon="5.96637">
        <ele>488</ele>
        <time>2022-08-10T18:27:57.142Z</time>
      </trkpt>
      <trkpt lat="45.48127" lon="5.96638">
        <ele>488</ele>
        <time>2022-08-10T18:27:58.142Z</time>
      </trkpt>
      <trkpt lat="45.48125" lon="5.96638">
        <ele>488</ele>
        <time>2022-08-10T18:27:59.142Z</time>
      </trkpt>
      <trkpt lat="45.48122" lon="5.96639">
        <ele>488</ele>
        <time>2022-08-10T18:28:00.142Z</time>
      </trkpt>
      <trkpt lat="45.4812" lon="5.96639">
        <ele>488</ele>
        <time>2022-08-10T18:28:01.142Z</time>
      </trkpt>
      <trkpt lat="45.48118" lon="5.96639">
        <ele>489</ele>
        <time>2022-08-10T18:28:02.142Z</time>
      </trkpt>
      <trkpt lat="45.48116" lon="5.9664">
        <ele>489</ele>
        <time>2022-08-10T18:28:03.142Z</time>
      </trkpt>
      <trkpt lat="45.48114" lon="5.96641">
        <ele>490</ele>
        <time>2022-08-10T18:28:04.142Z</time>
      </trkpt>
      <trkpt lat="45.48111" lon="5.96641">
        <ele>490</ele>
        <time>2022-08-10T18:28:05.142Z</time>
      </trkpt>
      <trkpt lat="45.48109" lon="5.96642">
        <ele>490</ele>
        <time>2022-08-10T18:28:06.142Z</time>
      </trkpt>
      <trkpt lat="45.48106" lon="5.96642">
        <ele>490</ele>
        <time>2022-08-10T18:28:07.141Z</time>
      </trkpt>
      <trkpt lat="45.48104" lon="5.96644">
        <ele>490</ele>
        <time>2022-08-10T18:28:08.141Z</time>
      </trkpt>
      <trkpt lat="45.48102" lon="5.96645">
        <ele>490</ele>
        <time>2022-08-10T18:28:09.142Z</time>
      </trkpt>
      <trkpt lat="45.48099" lon="5.96647">
        <ele>490</ele>
        <time>2022-08-10T18:28:10.142Z</time>
      </trkpt>
      <trkpt lat="45.48097" lon="5.96648">
        <ele>490</ele>
        <time>2022-08-10T18:28:11.142Z</time>
      </trkpt>
      <trkpt lat="45.48095" lon="5.9665">
        <ele>490</ele>
        <time>2022-08-10T18:28:12.141Z</time>
      </trkpt>
      <trkpt lat="45.48093" lon="5.96652">
        <ele>490</ele>
        <time>2022-08-10T18:28:13.142Z</time>
      </trkpt>
      <trkpt lat="45.48091" lon="5.96654">
        <ele>490</ele>
        <time>2022-08-10T18:28:14.141Z</time>
      </trkpt>
      <trkpt lat="45.48089" lon="5.96655">
        <ele>489</ele>
        <time>2022-08-10T18:28:15.142Z</time>
      </trkpt>
      <trkpt lat="45.48087" lon="5.96656">
        <ele>489</ele>
        <time>2022-08-10T18:28:16.142Z</time>
      </trkpt>
      <trkpt lat="45.48086" lon="5.96657">
        <ele>489</ele>
        <time>2022-08-10T18:28:17.141Z</time>
      </trkpt>
      <trkpt lat="45.48086" lon="5.96658">
        <ele>489</ele>
        <time>2022-08-10T18:28:18.141Z</time>
      </trkpt>
      <trkpt lat="45.48085" lon="5.96658">
        <ele>489</ele>
        <time>2022-08-10T18:28:19.141Z</time>
      </trkpt>
      <trkpt lat="45.48084" lon="5.96658">
        <ele>489</ele>
        <time>2022-08-10T18:28:27.271Z</time>
      </trkpt>
      <trkpt lat="45.48083" lon="5.96658">
        <ele>489</ele>
        <time>2022-08-10T18:28:28.271Z</time>
      </trkpt>
      <trkpt lat="45.48082" lon="5.96659">
        <ele>489</ele>
        <time>2022-08-10T18:28:29.270Z</time>
      </trkpt>
      <trkpt lat="45.4808" lon="5.96659">
        <ele>489</ele>
        <time>2022-08-10T18:28:30.271Z</time>
      </trkpt>
      <trkpt lat="45.48078" lon="5.9666">
        <ele>489</ele>
        <time>2022-08-10T18:28:31.271Z</time>
      </trkpt>
      <trkpt lat="45.48078" lon="5.96661">
        <ele>489</ele>
        <time>2022-08-10T18:28:32.271Z</time>
      </trkpt>
      <trkpt lat="45.48077" lon="5.96661">
        <ele>490</ele>
        <time>2022-08-10T18:28:41.390Z</time>
      </trkpt>
      <trkpt lat="45.48076" lon="5.96661">
        <ele>490</ele>
        <time>2022-08-10T18:28:42.390Z</time>
      </trkpt>
      <trkpt lat="45.48074" lon="5.96661">
        <ele>490</ele>
        <time>2022-08-10T18:28:43.389Z</time>
      </trkpt>
      <trkpt lat="45.48072" lon="5.96661">
        <ele>490</ele>
        <time>2022-08-10T18:28:44.390Z</time>
      </trkpt>
      <trkpt lat="45.48069" lon="5.96661">
        <ele>490</ele>
        <time>2022-08-10T18:28:45.389Z</time>
      </trkpt>
      <trkpt lat="45.48067" lon="5.96661">
        <ele>490</ele>
        <time>2022-08-10T18:28:46.390Z</time>
      </trkpt>
      <trkpt lat="45.48065" lon="5.96662">
        <ele>490</ele>
        <time>2022-08-10T18:28:47.390Z</time>
      </trkpt>
      <trkpt lat="45.48061" lon="5.96663">
        <ele>490</ele>
        <time>2022-08-10T18:28:48.390Z</time>
      </trkpt>
      <trkpt lat="45.48058" lon="5.96665">
        <ele>490</ele>
        <time>2022-08-10T18:28:49.390Z</time>
      </trkpt>
      <trkpt lat="45.48054" lon="5.96666">
        <ele>491</ele>
        <time>2022-08-10T18:28:50.389Z</time>
      </trkpt>
      <trkpt lat="45.4805" lon="5.96668">
        <ele>491</ele>
        <time>2022-08-10T18:28:51.390Z</time>
      </trkpt>
      <trkpt lat="45.48046" lon="5.96671">
        <ele>491</ele>
        <time>2022-08-10T18:28:52.390Z</time>
      </trkpt>
      <trkpt lat="45.48042" lon="5.96674">
        <ele>490</ele>
        <time>2022-08-10T18:28:53.389Z</time>
      </trkpt>
      <trkpt lat="45.48038" lon="5.96678">
        <ele>490</ele>
        <time>2022-08-10T18:28:54.389Z</time>
      </trkpt>
      <trkpt lat="45.48034" lon="5.96683">
        <ele>490</ele>
        <time>2022-08-10T18:28:55.389Z</time>
      </trkpt>
      <trkpt lat="45.4803" lon="5.96687">
        <ele>490</ele>
        <time>2022-08-10T18:28:56.390Z</time>
      </trkpt>
      <trkpt lat="45.48026" lon="5.96692">
        <ele>489</ele>
        <time>2022-08-10T18:28:57.390Z</time>
      </trkpt>
      <trkpt lat="45.48022" lon="5.96696">
        <ele>489</ele>
        <time>2022-08-10T18:28:58.390Z</time>
      </trkpt>
      <trkpt lat="45.48017" lon="5.96701">
        <ele>489</ele>
        <time>2022-08-10T18:28:59.390Z</time>
      </trkpt>
      <trkpt lat="45.48012" lon="5.96705">
        <ele>489</ele>
        <time>2022-08-10T18:29:00.390Z</time>
      </trkpt>
      <trkpt lat="45.48007" lon="5.96708">
        <ele>489</ele>
        <time>2022-08-10T18:29:01.390Z</time>
      </trkpt>
      <trkpt lat="45.48002" lon="5.96712">
        <ele>489</ele>
        <time>2022-08-10T18:29:02.390Z</time>
      </trkpt>
      <trkpt lat="45.47996" lon="5.96716">
        <ele>489</ele>
        <time>2022-08-10T18:29:03.389Z</time>
      </trkpt>
      <trkpt lat="45.47991" lon="5.96721">
        <ele>488</ele>
        <time>2022-08-10T18:29:04.390Z</time>
      </trkpt>
      <trkpt lat="45.47986" lon="5.96725">
        <ele>488</ele>
        <time>2022-08-10T18:29:05.389Z</time>
      </trkpt>
      <trkpt lat="45.47981" lon="5.96729">
        <ele>488</ele>
        <time>2022-08-10T18:29:06.390Z</time>
      </trkpt>
      <trkpt lat="45.47976" lon="5.96733">
        <ele>487</ele>
        <time>2022-08-10T18:29:07.390Z</time>
      </trkpt>
      <trkpt lat="45.47971" lon="5.96737">
        <ele>487</ele>
        <time>2022-08-10T18:29:08.390Z</time>
      </trkpt>
      <trkpt lat="45.47966" lon="5.96742">
        <ele>487</ele>
        <time>2022-08-10T18:29:09.390Z</time>
      </trkpt>
      <trkpt lat="45.4796" lon="5.96746">
        <ele>487</ele>
        <time>2022-08-10T18:29:10.390Z</time>
      </trkpt>
      <trkpt lat="45.47955" lon="5.9675">
        <ele>488</ele>
        <time>2022-08-10T18:29:11.389Z</time>
      </trkpt>
      <trkpt lat="45.4795" lon="5.96754">
        <ele>488</ele>
        <time>2022-08-10T18:29:12.390Z</time>
      </trkpt>
      <trkpt lat="45.47946" lon="5.96757">
        <ele>488</ele>
        <time>2022-08-10T18:29:13.389Z</time>
      </trkpt>
      <trkpt lat="45.47941" lon="5.96759">
        <ele>488</ele>
        <time>2022-08-10T18:29:14.390Z</time>
      </trkpt>
      <trkpt lat="45.47937" lon="5.96762">
        <ele>487</ele>
        <time>2022-08-10T18:29:15.389Z</time>
      </trkpt>
      <trkpt lat="45.47933" lon="5.96763">
        <ele>487</ele>
        <time>2022-08-10T18:29:16.390Z</time>
      </trkpt>
      <trkpt lat="45.4793" lon="5.96765">
        <ele>487</ele>
        <time>2022-08-10T18:29:17.390Z</time>
      </trkpt>
      <trkpt lat="45.47927" lon="5.96766">
        <ele>487</ele>
        <time>2022-08-10T18:29:18.389Z</time>
      </trkpt>
    </trkseg>
  </trk>
</gpx>